<?xml version="1.0" encoding="UTF-8" standalone="no" ?>
<gpx xmlns="http://www.topografix.com/GPX/1/1" xmlns:xsi="http://www.w3.org/2001/XMLSchema-instance" xsi:schemaLocation="http://www.topografix.com/GPX/1/1 http://www.topografix.com/GPX/1/1/gpx.xsd" version="1.1" creator="VisuGPX - https://www.visugpx.com">
  <metadata>
    <name>2022-09-23 j9 - Nantes - Chalonnes / Loire</name>
    <desc><![CDATA[File with points/tracks from Locus Map/3.37.2]]></desc>
  </metadata>
  <trk>
    <name><![CDATA[2022-09-23 j9]]></name>
    <trkseg>
      <trkpt lat="47.19284" lon="-1.53053">
        <ele>15.5</ele>
        <time>2022-09-23T07:23:59.000Z</time>
      </trkpt>
      <trkpt lat="47.1929" lon="-1.53042">
        <ele>15.67</ele>
        <time>2022-09-23T07:24:06.000Z</time>
      </trkpt>
      <trkpt lat="47.19261" lon="-1.53049">
        <ele>20.35</ele>
        <time>2022-09-23T07:24:27.000Z</time>
      </trkpt>
      <trkpt lat="47.19269" lon="-1.53041">
        <ele>7.65</ele>
        <time>2022-09-23T07:24:34.000Z</time>
      </trkpt>
      <trkpt lat="47.1926" lon="-1.53038">
        <ele>7.63</ele>
        <time>2022-09-23T07:24:39.000Z</time>
      </trkpt>
      <trkpt lat="47.19256" lon="-1.53051">
        <ele>18.77</ele>
        <time>2022-09-23T07:24:45.000Z</time>
      </trkpt>
      <trkpt lat="47.19263" lon="-1.5303">
        <ele>13.67</ele>
        <time>2022-09-23T07:25:05.000Z</time>
      </trkpt>
      <trkpt lat="47.19263" lon="-1.53052">
        <ele>14.52</ele>
        <time>2022-09-23T07:25:10.000Z</time>
      </trkpt>
      <trkpt lat="47.19266" lon="-1.53066">
        <ele>12.1</ele>
        <time>2022-09-23T07:28:33.000Z</time>
      </trkpt>
      <trkpt lat="47.19274" lon="-1.53076">
        <ele>12.5</ele>
        <time>2022-09-23T07:30:03.000Z</time>
      </trkpt>
      <trkpt lat="47.19283" lon="-1.53084">
        <ele>11.96</ele>
        <time>2022-09-23T07:30:08.000Z</time>
      </trkpt>
      <trkpt lat="47.19295" lon="-1.53096">
        <ele>11.43</ele>
        <time>2022-09-23T07:30:13.000Z</time>
      </trkpt>
      <trkpt lat="47.19308" lon="-1.53111">
        <ele>10.66</ele>
        <time>2022-09-23T07:30:18.000Z</time>
      </trkpt>
      <trkpt lat="47.19323" lon="-1.53123">
        <ele>10.18</ele>
        <time>2022-09-23T07:30:23.000Z</time>
      </trkpt>
      <trkpt lat="47.19332" lon="-1.53108">
        <ele>10.49</ele>
        <time>2022-09-23T07:30:28.000Z</time>
      </trkpt>
      <trkpt lat="47.1934" lon="-1.53086">
        <ele>9.94</ele>
        <time>2022-09-23T07:30:33.000Z</time>
      </trkpt>
      <trkpt lat="47.19347" lon="-1.53063">
        <ele>9.71</ele>
        <time>2022-09-23T07:30:38.000Z</time>
      </trkpt>
      <trkpt lat="47.19353" lon="-1.53044">
        <ele>9.53</ele>
        <time>2022-09-23T07:30:43.000Z</time>
      </trkpt>
      <trkpt lat="47.19358" lon="-1.53033">
        <ele>8</ele>
        <time>2022-09-23T07:30:54.000Z</time>
      </trkpt>
      <trkpt lat="47.19363" lon="-1.53019">
        <ele>7.82</ele>
        <time>2022-09-23T07:30:59.000Z</time>
      </trkpt>
      <trkpt lat="47.19369" lon="-1.53004">
        <ele>7.44</ele>
        <time>2022-09-23T07:31:04.000Z</time>
      </trkpt>
      <trkpt lat="47.1938" lon="-1.52997">
        <ele>6.93</ele>
        <time>2022-09-23T07:31:09.000Z</time>
      </trkpt>
      <trkpt lat="47.19393" lon="-1.52982">
        <ele>6.16</ele>
        <time>2022-09-23T07:31:14.000Z</time>
      </trkpt>
      <trkpt lat="47.19406" lon="-1.52963">
        <ele>5.73</ele>
        <time>2022-09-23T07:31:19.000Z</time>
      </trkpt>
      <trkpt lat="47.19421" lon="-1.52943">
        <ele>5.13</ele>
        <time>2022-09-23T07:31:24.000Z</time>
      </trkpt>
      <trkpt lat="47.19433" lon="-1.52935">
        <ele>17.48</ele>
        <time>2022-09-23T07:31:32.000Z</time>
      </trkpt>
      <trkpt lat="47.19424" lon="-1.52927">
        <ele>9.48</ele>
        <time>2022-09-23T07:31:37.000Z</time>
      </trkpt>
      <trkpt lat="47.19415" lon="-1.52919">
        <ele>4.47</ele>
        <time>2022-09-23T07:31:48.000Z</time>
      </trkpt>
      <trkpt lat="47.19399" lon="-1.52911">
        <ele>3.62</ele>
        <time>2022-09-23T07:31:53.000Z</time>
      </trkpt>
      <trkpt lat="47.19399" lon="-1.52896">
        <ele>4.55</ele>
        <time>2022-09-23T07:32:09.000Z</time>
      </trkpt>
      <trkpt lat="47.19406" lon="-1.52887">
        <ele>4.7</ele>
        <time>2022-09-23T07:32:15.000Z</time>
      </trkpt>
      <trkpt lat="47.19415" lon="-1.52881">
        <ele>4.7</ele>
        <time>2022-09-23T07:32:21.000Z</time>
      </trkpt>
      <trkpt lat="47.19429" lon="-1.52889">
        <ele>4.68</ele>
        <time>2022-09-23T07:32:26.000Z</time>
      </trkpt>
      <trkpt lat="47.19445" lon="-1.52904">
        <ele>4.9</ele>
        <time>2022-09-23T07:32:31.000Z</time>
      </trkpt>
      <trkpt lat="47.19459" lon="-1.52921">
        <ele>4.99</ele>
        <time>2022-09-23T07:32:36.000Z</time>
      </trkpt>
      <trkpt lat="47.19476" lon="-1.52941">
        <ele>5.27</ele>
        <time>2022-09-23T07:32:41.000Z</time>
      </trkpt>
      <trkpt lat="47.19492" lon="-1.52956">
        <ele>5.2</ele>
        <time>2022-09-23T07:32:46.000Z</time>
      </trkpt>
      <trkpt lat="47.19505" lon="-1.52971">
        <ele>5.3</ele>
        <time>2022-09-23T07:32:51.000Z</time>
      </trkpt>
      <trkpt lat="47.19526" lon="-1.52982">
        <ele>5.47</ele>
        <time>2022-09-23T07:32:56.000Z</time>
      </trkpt>
      <trkpt lat="47.19544" lon="-1.52998">
        <ele>5.6</ele>
        <time>2022-09-23T07:33:01.000Z</time>
      </trkpt>
      <trkpt lat="47.19562" lon="-1.53013">
        <ele>5.2</ele>
        <time>2022-09-23T07:33:06.000Z</time>
      </trkpt>
      <trkpt lat="47.19582" lon="-1.53026">
        <ele>5.01</ele>
        <time>2022-09-23T07:33:11.000Z</time>
      </trkpt>
      <trkpt lat="47.19598" lon="-1.53044">
        <ele>4.9</ele>
        <time>2022-09-23T07:33:16.000Z</time>
      </trkpt>
      <trkpt lat="47.19616" lon="-1.53064">
        <ele>4.95</ele>
        <time>2022-09-23T07:33:21.000Z</time>
      </trkpt>
      <trkpt lat="47.19637" lon="-1.53076">
        <ele>5.02</ele>
        <time>2022-09-23T07:33:26.000Z</time>
      </trkpt>
      <trkpt lat="47.19652" lon="-1.5309">
        <ele>5.1</ele>
        <time>2022-09-23T07:33:31.000Z</time>
      </trkpt>
      <trkpt lat="47.19673" lon="-1.53105">
        <ele>4.85</ele>
        <time>2022-09-23T07:33:36.000Z</time>
      </trkpt>
      <trkpt lat="47.19697" lon="-1.5312">
        <ele>4.48</ele>
        <time>2022-09-23T07:33:41.000Z</time>
      </trkpt>
      <trkpt lat="47.19714" lon="-1.53133">
        <ele>4.5</ele>
        <time>2022-09-23T07:33:46.000Z</time>
      </trkpt>
      <trkpt lat="47.19736" lon="-1.53147">
        <ele>4.74</ele>
        <time>2022-09-23T07:33:51.000Z</time>
      </trkpt>
      <trkpt lat="47.19759" lon="-1.53165">
        <ele>5.44</ele>
        <time>2022-09-23T07:33:56.000Z</time>
      </trkpt>
      <trkpt lat="47.19777" lon="-1.53183">
        <ele>5.33</ele>
        <time>2022-09-23T07:34:01.000Z</time>
      </trkpt>
      <trkpt lat="47.19796" lon="-1.53201">
        <ele>5.2</ele>
        <time>2022-09-23T07:34:06.000Z</time>
      </trkpt>
      <trkpt lat="47.19817" lon="-1.5322">
        <ele>4.71</ele>
        <time>2022-09-23T07:34:11.000Z</time>
      </trkpt>
      <trkpt lat="47.19837" lon="-1.53239">
        <ele>4.41</ele>
        <time>2022-09-23T07:34:16.000Z</time>
      </trkpt>
      <trkpt lat="47.19858" lon="-1.53254">
        <ele>4.4</ele>
        <time>2022-09-23T07:34:21.000Z</time>
      </trkpt>
      <trkpt lat="47.19877" lon="-1.53267">
        <ele>4.31</ele>
        <time>2022-09-23T07:34:26.000Z</time>
      </trkpt>
      <trkpt lat="47.19898" lon="-1.53271">
        <ele>4.03</ele>
        <time>2022-09-23T07:34:31.000Z</time>
      </trkpt>
      <trkpt lat="47.1992" lon="-1.5326">
        <ele>3.65</ele>
        <time>2022-09-23T07:34:36.000Z</time>
      </trkpt>
      <trkpt lat="47.19949" lon="-1.53241">
        <ele>3.3</ele>
        <time>2022-09-23T07:34:41.000Z</time>
      </trkpt>
      <trkpt lat="47.19974" lon="-1.53219">
        <ele>1.73</ele>
        <time>2022-09-23T07:34:46.000Z</time>
      </trkpt>
      <trkpt lat="47.19985" lon="-1.53244">
        <ele>2.63</ele>
        <time>2022-09-23T07:34:51.000Z</time>
      </trkpt>
      <trkpt lat="47.19998" lon="-1.53277">
        <ele>2.39</ele>
        <time>2022-09-23T07:34:56.000Z</time>
      </trkpt>
      <trkpt lat="47.20022" lon="-1.53299">
        <ele>0.79</ele>
        <time>2022-09-23T07:35:01.000Z</time>
      </trkpt>
      <trkpt lat="47.20051" lon="-1.53319">
        <ele>-0.21</ele>
        <time>2022-09-23T07:35:06.000Z</time>
      </trkpt>
      <trkpt lat="47.20072" lon="-1.5333">
        <ele>-0.94</ele>
        <time>2022-09-23T07:35:11.000Z</time>
      </trkpt>
      <trkpt lat="47.20078" lon="-1.53342">
        <ele>-0.99</ele>
        <time>2022-09-23T07:35:16.000Z</time>
      </trkpt>
      <trkpt lat="47.20086" lon="-1.53328">
        <ele>-1.75</ele>
        <time>2022-09-23T07:36:01.000Z</time>
      </trkpt>
      <trkpt lat="47.20093" lon="-1.53316">
        <ele>-1.23</ele>
        <time>2022-09-23T07:36:06.000Z</time>
      </trkpt>
      <trkpt lat="47.20104" lon="-1.53292">
        <ele>-0.99</ele>
        <time>2022-09-23T07:36:11.000Z</time>
      </trkpt>
      <trkpt lat="47.20114" lon="-1.53264">
        <ele>-1.1</ele>
        <time>2022-09-23T07:36:16.000Z</time>
      </trkpt>
      <trkpt lat="47.20122" lon="-1.53233">
        <ele>-1.1</ele>
        <time>2022-09-23T07:36:21.000Z</time>
      </trkpt>
      <trkpt lat="47.2013" lon="-1.53199">
        <ele>0.15</ele>
        <time>2022-09-23T07:36:26.000Z</time>
      </trkpt>
      <trkpt lat="47.20137" lon="-1.53168">
        <ele>0.32</ele>
        <time>2022-09-23T07:36:31.000Z</time>
      </trkpt>
      <trkpt lat="47.20149" lon="-1.53137">
        <ele>0.07</ele>
        <time>2022-09-23T07:36:36.000Z</time>
      </trkpt>
      <trkpt lat="47.20162" lon="-1.53107">
        <ele>0.1</ele>
        <time>2022-09-23T07:36:41.000Z</time>
      </trkpt>
      <trkpt lat="47.20177" lon="-1.53074">
        <ele>0.42</ele>
        <time>2022-09-23T07:36:46.000Z</time>
      </trkpt>
      <trkpt lat="47.20194" lon="-1.53048">
        <ele>-0.24</ele>
        <time>2022-09-23T07:36:51.000Z</time>
      </trkpt>
      <trkpt lat="47.20213" lon="-1.53027">
        <ele>-1.02</ele>
        <time>2022-09-23T07:36:56.000Z</time>
      </trkpt>
      <trkpt lat="47.2023" lon="-1.53006">
        <ele>-2.5</ele>
        <time>2022-09-23T07:37:01.000Z</time>
      </trkpt>
      <trkpt lat="47.20244" lon="-1.52979">
        <ele>-2.87</ele>
        <time>2022-09-23T07:37:06.000Z</time>
      </trkpt>
      <trkpt lat="47.2026" lon="-1.52955">
        <ele>-3.1</ele>
        <time>2022-09-23T07:37:11.000Z</time>
      </trkpt>
      <trkpt lat="47.20274" lon="-1.52929">
        <ele>-1.61</ele>
        <time>2022-09-23T07:37:16.000Z</time>
      </trkpt>
      <trkpt lat="47.20287" lon="-1.52898">
        <ele>-0.29</ele>
        <time>2022-09-23T07:37:21.000Z</time>
      </trkpt>
      <trkpt lat="47.20301" lon="-1.52864">
        <ele>0.17</ele>
        <time>2022-09-23T07:37:26.000Z</time>
      </trkpt>
      <trkpt lat="47.20316" lon="-1.52836">
        <ele>-0.2</ele>
        <time>2022-09-23T07:37:31.000Z</time>
      </trkpt>
      <trkpt lat="47.20328" lon="-1.5281">
        <ele>-0.37</ele>
        <time>2022-09-23T07:37:36.000Z</time>
      </trkpt>
      <trkpt lat="47.20343" lon="-1.52784">
        <ele>-0.75</ele>
        <time>2022-09-23T07:37:41.000Z</time>
      </trkpt>
      <trkpt lat="47.20359" lon="-1.52752">
        <ele>-1</ele>
        <time>2022-09-23T07:37:46.000Z</time>
      </trkpt>
      <trkpt lat="47.20372" lon="-1.52718">
        <ele>-0.91</ele>
        <time>2022-09-23T07:37:51.000Z</time>
      </trkpt>
      <trkpt lat="47.20388" lon="-1.52689">
        <ele>-0.28</ele>
        <time>2022-09-23T07:37:56.000Z</time>
      </trkpt>
      <trkpt lat="47.204" lon="-1.52664">
        <ele>-0.42</ele>
        <time>2022-09-23T07:38:01.000Z</time>
      </trkpt>
      <trkpt lat="47.20412" lon="-1.5264">
        <ele>-0.07</ele>
        <time>2022-09-23T07:38:06.000Z</time>
      </trkpt>
      <trkpt lat="47.2042" lon="-1.52613">
        <ele>-0.27</ele>
        <time>2022-09-23T07:38:11.000Z</time>
      </trkpt>
      <trkpt lat="47.20428" lon="-1.52581">
        <ele>-0.3</ele>
        <time>2022-09-23T07:38:16.000Z</time>
      </trkpt>
      <trkpt lat="47.20437" lon="-1.52548">
        <ele>-0.57</ele>
        <time>2022-09-23T07:38:21.000Z</time>
      </trkpt>
      <trkpt lat="47.20449" lon="-1.52517">
        <ele>-0.89</ele>
        <time>2022-09-23T07:38:26.000Z</time>
      </trkpt>
      <trkpt lat="47.20458" lon="-1.52485">
        <ele>-0.41</ele>
        <time>2022-09-23T07:38:31.000Z</time>
      </trkpt>
      <trkpt lat="47.20467" lon="-1.52463">
        <ele>-1.2</ele>
        <time>2022-09-23T07:38:36.000Z</time>
      </trkpt>
      <trkpt lat="47.20477" lon="-1.52443">
        <ele>-1.97</ele>
        <time>2022-09-23T07:38:41.000Z</time>
      </trkpt>
      <trkpt lat="47.20512" lon="-1.52377">
        <ele>-2.42</ele>
        <time>2022-09-23T07:38:57.000Z</time>
      </trkpt>
      <trkpt lat="47.2053" lon="-1.52264">
        <ele>-3.85</ele>
        <time>2022-09-23T07:39:09.000Z</time>
      </trkpt>
      <trkpt lat="47.20543" lon="-1.5224">
        <ele>-3.19</ele>
        <time>2022-09-23T07:39:14.000Z</time>
      </trkpt>
      <trkpt lat="47.20555" lon="-1.5222">
        <ele>-2.16</ele>
        <time>2022-09-23T07:39:19.000Z</time>
      </trkpt>
      <trkpt lat="47.20567" lon="-1.52197">
        <ele>-1.93</ele>
        <time>2022-09-23T07:39:24.000Z</time>
      </trkpt>
      <trkpt lat="47.20581" lon="-1.52173">
        <ele>-2.07</ele>
        <time>2022-09-23T07:39:29.000Z</time>
      </trkpt>
      <trkpt lat="47.20593" lon="-1.5215">
        <ele>-2.04</ele>
        <time>2022-09-23T07:39:34.000Z</time>
      </trkpt>
      <trkpt lat="47.20605" lon="-1.52128">
        <ele>-2.47</ele>
        <time>2022-09-23T07:39:39.000Z</time>
      </trkpt>
      <trkpt lat="47.20619" lon="-1.52102">
        <ele>-2.82</ele>
        <time>2022-09-23T07:39:44.000Z</time>
      </trkpt>
      <trkpt lat="47.20633" lon="-1.52079">
        <ele>-2.71</ele>
        <time>2022-09-23T07:39:49.000Z</time>
      </trkpt>
      <trkpt lat="47.20646" lon="-1.52057">
        <ele>-1.69</ele>
        <time>2022-09-23T07:39:54.000Z</time>
      </trkpt>
      <trkpt lat="47.20663" lon="-1.52033">
        <ele>-1.72</ele>
        <time>2022-09-23T07:39:59.000Z</time>
      </trkpt>
      <trkpt lat="47.20677" lon="-1.52008">
        <ele>-2.26</ele>
        <time>2022-09-23T07:40:04.000Z</time>
      </trkpt>
      <trkpt lat="47.20692" lon="-1.51985">
        <ele>-2.1</ele>
        <time>2022-09-23T07:40:09.000Z</time>
      </trkpt>
      <trkpt lat="47.20706" lon="-1.51961">
        <ele>0.63</ele>
        <time>2022-09-23T07:40:14.000Z</time>
      </trkpt>
      <trkpt lat="47.2072" lon="-1.51932">
        <ele>2.54</ele>
        <time>2022-09-23T07:40:19.000Z</time>
      </trkpt>
      <trkpt lat="47.20732" lon="-1.51902">
        <ele>2.6</ele>
        <time>2022-09-23T07:40:24.000Z</time>
      </trkpt>
      <trkpt lat="47.20745" lon="-1.51872">
        <ele>2.95</ele>
        <time>2022-09-23T07:40:29.000Z</time>
      </trkpt>
      <trkpt lat="47.20758" lon="-1.51847">
        <ele>4.52</ele>
        <time>2022-09-23T07:40:34.000Z</time>
      </trkpt>
      <trkpt lat="47.20766" lon="-1.51816">
        <ele>6.37</ele>
        <time>2022-09-23T07:40:39.000Z</time>
      </trkpt>
      <trkpt lat="47.20775" lon="-1.5178">
        <ele>6.72</ele>
        <time>2022-09-23T07:40:44.000Z</time>
      </trkpt>
      <trkpt lat="47.20785" lon="-1.51748">
        <ele>7.44</ele>
        <time>2022-09-23T07:40:49.000Z</time>
      </trkpt>
      <trkpt lat="47.20793" lon="-1.51722">
        <ele>7.41</ele>
        <time>2022-09-23T07:40:54.000Z</time>
      </trkpt>
      <trkpt lat="47.20797" lon="-1.51697">
        <ele>7.76</ele>
        <time>2022-09-23T07:40:59.000Z</time>
      </trkpt>
      <trkpt lat="47.20801" lon="-1.51665">
        <ele>8.37</ele>
        <time>2022-09-23T07:41:04.000Z</time>
      </trkpt>
      <trkpt lat="47.20806" lon="-1.51634">
        <ele>8.77</ele>
        <time>2022-09-23T07:41:09.000Z</time>
      </trkpt>
      <trkpt lat="47.2081" lon="-1.516">
        <ele>8.15</ele>
        <time>2022-09-23T07:41:14.000Z</time>
      </trkpt>
      <trkpt lat="47.20816" lon="-1.51566">
        <ele>6.25</ele>
        <time>2022-09-23T07:41:19.000Z</time>
      </trkpt>
      <trkpt lat="47.2082" lon="-1.51531">
        <ele>4.81</ele>
        <time>2022-09-23T07:41:24.000Z</time>
      </trkpt>
      <trkpt lat="47.20825" lon="-1.51497">
        <ele>4.76</ele>
        <time>2022-09-23T07:41:29.000Z</time>
      </trkpt>
      <trkpt lat="47.20831" lon="-1.51463">
        <ele>4.66</ele>
        <time>2022-09-23T07:41:34.000Z</time>
      </trkpt>
      <trkpt lat="47.20838" lon="-1.5143">
        <ele>4.88</ele>
        <time>2022-09-23T07:41:39.000Z</time>
      </trkpt>
      <trkpt lat="47.20845" lon="-1.51398">
        <ele>4.06</ele>
        <time>2022-09-23T07:41:44.000Z</time>
      </trkpt>
      <trkpt lat="47.20851" lon="-1.51373">
        <ele>3.9</ele>
        <time>2022-09-23T07:41:49.000Z</time>
      </trkpt>
      <trkpt lat="47.20859" lon="-1.51343">
        <ele>3.53</ele>
        <time>2022-09-23T07:41:54.000Z</time>
      </trkpt>
      <trkpt lat="47.20868" lon="-1.51312">
        <ele>3.23</ele>
        <time>2022-09-23T07:41:59.000Z</time>
      </trkpt>
      <trkpt lat="47.20883" lon="-1.5128">
        <ele>3</ele>
        <time>2022-09-23T07:42:04.000Z</time>
      </trkpt>
      <trkpt lat="47.20894" lon="-1.51257">
        <ele>2.91</ele>
        <time>2022-09-23T07:42:09.000Z</time>
      </trkpt>
      <trkpt lat="47.209" lon="-1.51243">
        <ele>2.9</ele>
        <time>2022-09-23T07:42:14.000Z</time>
      </trkpt>
      <trkpt lat="47.20901" lon="-1.51226">
        <ele>0.62</ele>
        <time>2022-09-23T07:43:55.000Z</time>
      </trkpt>
      <trkpt lat="47.20904" lon="-1.51211">
        <ele>-0.4</ele>
        <time>2022-09-23T07:44:14.000Z</time>
      </trkpt>
      <trkpt lat="47.20911" lon="-1.51194">
        <ele>-0.4</ele>
        <time>2022-09-23T07:44:19.000Z</time>
      </trkpt>
      <trkpt lat="47.20923" lon="-1.51162">
        <ele>-0.5</ele>
        <time>2022-09-23T07:44:24.000Z</time>
      </trkpt>
      <trkpt lat="47.20933" lon="-1.51132">
        <ele>-0.41</ele>
        <time>2022-09-23T07:44:29.000Z</time>
      </trkpt>
      <trkpt lat="47.2095" lon="-1.5109">
        <ele>-0.5</ele>
        <time>2022-09-23T07:44:34.000Z</time>
      </trkpt>
      <trkpt lat="47.20956" lon="-1.51041">
        <ele>-0.38</ele>
        <time>2022-09-23T07:44:39.000Z</time>
      </trkpt>
      <trkpt lat="47.20968" lon="-1.51008">
        <ele>-0.59</ele>
        <time>2022-09-23T07:44:44.000Z</time>
      </trkpt>
      <trkpt lat="47.20973" lon="-1.50974">
        <ele>-0.7</ele>
        <time>2022-09-23T07:44:49.000Z</time>
      </trkpt>
      <trkpt lat="47.2098" lon="-1.50932">
        <ele>-0.97</ele>
        <time>2022-09-23T07:44:54.000Z</time>
      </trkpt>
      <trkpt lat="47.20989" lon="-1.50893">
        <ele>-1.09</ele>
        <time>2022-09-23T07:44:59.000Z</time>
      </trkpt>
      <trkpt lat="47.20997" lon="-1.50847">
        <ele>-1.02</ele>
        <time>2022-09-23T07:45:04.000Z</time>
      </trkpt>
      <trkpt lat="47.20999" lon="-1.50796">
        <ele>-1.11</ele>
        <time>2022-09-23T07:45:09.000Z</time>
      </trkpt>
      <trkpt lat="47.21003" lon="-1.50754">
        <ele>-1.1</ele>
        <time>2022-09-23T07:45:14.000Z</time>
      </trkpt>
      <trkpt lat="47.21009" lon="-1.50709">
        <ele>-0.93</ele>
        <time>2022-09-23T07:45:19.000Z</time>
      </trkpt>
      <trkpt lat="47.21013" lon="-1.50666">
        <ele>-0.73</ele>
        <time>2022-09-23T07:45:24.000Z</time>
      </trkpt>
      <trkpt lat="47.21016" lon="-1.50618">
        <ele>-0.43</ele>
        <time>2022-09-23T07:45:29.000Z</time>
      </trkpt>
      <trkpt lat="47.21016" lon="-1.50568">
        <ele>-0.28</ele>
        <time>2022-09-23T07:45:34.000Z</time>
      </trkpt>
      <trkpt lat="47.21015" lon="-1.50525">
        <ele>-0.13</ele>
        <time>2022-09-23T07:45:39.000Z</time>
      </trkpt>
      <trkpt lat="47.21013" lon="-1.50482">
        <ele>0.09</ele>
        <time>2022-09-23T07:45:44.000Z</time>
      </trkpt>
      <trkpt lat="47.21007" lon="-1.50437">
        <ele>0.71</ele>
        <time>2022-09-23T07:45:49.000Z</time>
      </trkpt>
      <trkpt lat="47.21006" lon="-1.50392">
        <ele>1.36</ele>
        <time>2022-09-23T07:45:54.000Z</time>
      </trkpt>
      <trkpt lat="47.21004" lon="-1.50347">
        <ele>2.32</ele>
        <time>2022-09-23T07:45:59.000Z</time>
      </trkpt>
      <trkpt lat="47.21006" lon="-1.50307">
        <ele>3.74</ele>
        <time>2022-09-23T07:46:04.000Z</time>
      </trkpt>
      <trkpt lat="47.21008" lon="-1.5027">
        <ele>5.16</ele>
        <time>2022-09-23T07:46:09.000Z</time>
      </trkpt>
      <trkpt lat="47.21018" lon="-1.50245">
        <ele>4.94</ele>
        <time>2022-09-23T07:46:14.000Z</time>
      </trkpt>
      <trkpt lat="47.21019" lon="-1.50221">
        <ele>5.64</ele>
        <time>2022-09-23T07:46:19.000Z</time>
      </trkpt>
      <trkpt lat="47.21018" lon="-1.50193">
        <ele>6.68</ele>
        <time>2022-09-23T07:46:24.000Z</time>
      </trkpt>
      <trkpt lat="47.21025" lon="-1.50158">
        <ele>7.82</ele>
        <time>2022-09-23T07:46:29.000Z</time>
      </trkpt>
      <trkpt lat="47.21035" lon="-1.5012">
        <ele>9.39</ele>
        <time>2022-09-23T07:46:34.000Z</time>
      </trkpt>
      <trkpt lat="47.21045" lon="-1.50083">
        <ele>9.72</ele>
        <time>2022-09-23T07:46:39.000Z</time>
      </trkpt>
      <trkpt lat="47.21054" lon="-1.50045">
        <ele>9.25</ele>
        <time>2022-09-23T07:46:44.000Z</time>
      </trkpt>
      <trkpt lat="47.21063" lon="-1.50007">
        <ele>9.1</ele>
        <time>2022-09-23T07:46:49.000Z</time>
      </trkpt>
      <trkpt lat="47.21074" lon="-1.49969">
        <ele>8.58</ele>
        <time>2022-09-23T07:46:54.000Z</time>
      </trkpt>
      <trkpt lat="47.21084" lon="-1.49931">
        <ele>7.66</ele>
        <time>2022-09-23T07:46:59.000Z</time>
      </trkpt>
      <trkpt lat="47.21094" lon="-1.49896">
        <ele>7.54</ele>
        <time>2022-09-23T07:47:04.000Z</time>
      </trkpt>
      <trkpt lat="47.21102" lon="-1.49867">
        <ele>6.36</ele>
        <time>2022-09-23T07:47:09.000Z</time>
      </trkpt>
      <trkpt lat="47.21107" lon="-1.49832">
        <ele>4.81</ele>
        <time>2022-09-23T07:47:14.000Z</time>
      </trkpt>
      <trkpt lat="47.21112" lon="-1.49793">
        <ele>4.85</ele>
        <time>2022-09-23T07:47:19.000Z</time>
      </trkpt>
      <trkpt lat="47.21116" lon="-1.49753">
        <ele>4.54</ele>
        <time>2022-09-23T07:47:24.000Z</time>
      </trkpt>
      <trkpt lat="47.21121" lon="-1.49716">
        <ele>4.13</ele>
        <time>2022-09-23T07:47:29.000Z</time>
      </trkpt>
      <trkpt lat="47.21124" lon="-1.49679">
        <ele>3.83</ele>
        <time>2022-09-23T07:47:34.000Z</time>
      </trkpt>
      <trkpt lat="47.21128" lon="-1.4964">
        <ele>3.48</ele>
        <time>2022-09-23T07:47:39.000Z</time>
      </trkpt>
      <trkpt lat="47.21136" lon="-1.49602">
        <ele>3.21</ele>
        <time>2022-09-23T07:47:44.000Z</time>
      </trkpt>
      <trkpt lat="47.21141" lon="-1.4957">
        <ele>2.52</ele>
        <time>2022-09-23T07:47:49.000Z</time>
      </trkpt>
      <trkpt lat="47.21131" lon="-1.49537">
        <ele>2.1</ele>
        <time>2022-09-23T07:47:54.000Z</time>
      </trkpt>
      <trkpt lat="47.21129" lon="-1.49503">
        <ele>1.97</ele>
        <time>2022-09-23T07:47:59.000Z</time>
      </trkpt>
      <trkpt lat="47.21131" lon="-1.49467">
        <ele>1.83</ele>
        <time>2022-09-23T07:48:04.000Z</time>
      </trkpt>
      <trkpt lat="47.21132" lon="-1.49432">
        <ele>1.61</ele>
        <time>2022-09-23T07:48:09.000Z</time>
      </trkpt>
      <trkpt lat="47.21134" lon="-1.49392">
        <ele>1.33</ele>
        <time>2022-09-23T07:48:14.000Z</time>
      </trkpt>
      <trkpt lat="47.21138" lon="-1.49348">
        <ele>1.2</ele>
        <time>2022-09-23T07:48:19.000Z</time>
      </trkpt>
      <trkpt lat="47.21138" lon="-1.49303">
        <ele>1.37</ele>
        <time>2022-09-23T07:48:24.000Z</time>
      </trkpt>
      <trkpt lat="47.21138" lon="-1.4926">
        <ele>1.25</ele>
        <time>2022-09-23T07:48:29.000Z</time>
      </trkpt>
      <trkpt lat="47.21142" lon="-1.4922">
        <ele>1.77</ele>
        <time>2022-09-23T07:48:34.000Z</time>
      </trkpt>
      <trkpt lat="47.21143" lon="-1.49181">
        <ele>2.17</ele>
        <time>2022-09-23T07:48:39.000Z</time>
      </trkpt>
      <trkpt lat="47.21147" lon="-1.49146">
        <ele>1.91</ele>
        <time>2022-09-23T07:48:44.000Z</time>
      </trkpt>
      <trkpt lat="47.21155" lon="-1.49108">
        <ele>2.91</ele>
        <time>2022-09-23T07:48:49.000Z</time>
      </trkpt>
      <trkpt lat="47.21162" lon="-1.49077">
        <ele>3.49</ele>
        <time>2022-09-23T07:48:54.000Z</time>
      </trkpt>
      <trkpt lat="47.21153" lon="-1.49044">
        <ele>3.49</ele>
        <time>2022-09-23T07:48:59.000Z</time>
      </trkpt>
      <trkpt lat="47.21157" lon="-1.49012">
        <ele>3.04</ele>
        <time>2022-09-23T07:49:04.000Z</time>
      </trkpt>
      <trkpt lat="47.21164" lon="-1.4898">
        <ele>2.28</ele>
        <time>2022-09-23T07:49:09.000Z</time>
      </trkpt>
      <trkpt lat="47.21172" lon="-1.48948">
        <ele>1.32</ele>
        <time>2022-09-23T07:49:14.000Z</time>
      </trkpt>
      <trkpt lat="47.21182" lon="-1.48913">
        <ele>-0.45</ele>
        <time>2022-09-23T07:49:19.000Z</time>
      </trkpt>
      <trkpt lat="47.21189" lon="-1.48877">
        <ele>-2.39</ele>
        <time>2022-09-23T07:49:24.000Z</time>
      </trkpt>
      <trkpt lat="47.21194" lon="-1.48843">
        <ele>-3.99</ele>
        <time>2022-09-23T07:49:29.000Z</time>
      </trkpt>
      <trkpt lat="47.21203" lon="-1.48807">
        <ele>-4.98</ele>
        <time>2022-09-23T07:49:34.000Z</time>
      </trkpt>
      <trkpt lat="47.21212" lon="-1.48773">
        <ele>-6.57</ele>
        <time>2022-09-23T07:49:39.000Z</time>
      </trkpt>
      <trkpt lat="47.21222" lon="-1.4874">
        <ele>-8.57</ele>
        <time>2022-09-23T07:49:44.000Z</time>
      </trkpt>
      <trkpt lat="47.21232" lon="-1.48707">
        <ele>-9.5</ele>
        <time>2022-09-23T07:49:49.000Z</time>
      </trkpt>
      <trkpt lat="47.2124" lon="-1.48672">
        <ele>-10.92</ele>
        <time>2022-09-23T07:49:54.000Z</time>
      </trkpt>
      <trkpt lat="47.21247" lon="-1.48633">
        <ele>-10.53</ele>
        <time>2022-09-23T07:49:59.000Z</time>
      </trkpt>
      <trkpt lat="47.21252" lon="-1.48593">
        <ele>-10.18</ele>
        <time>2022-09-23T07:50:04.000Z</time>
      </trkpt>
      <trkpt lat="47.2126" lon="-1.4855">
        <ele>-7.32</ele>
        <time>2022-09-23T07:50:09.000Z</time>
      </trkpt>
      <trkpt lat="47.21269" lon="-1.4852">
        <ele>-5.81</ele>
        <time>2022-09-23T07:50:14.000Z</time>
      </trkpt>
      <trkpt lat="47.21276" lon="-1.48512">
        <ele>-2.41</ele>
        <time>2022-09-23T07:50:47.000Z</time>
      </trkpt>
      <trkpt lat="47.21282" lon="-1.48497">
        <ele>-2.33</ele>
        <time>2022-09-23T07:50:52.000Z</time>
      </trkpt>
      <trkpt lat="47.2128" lon="-1.4851">
        <ele>-2.8</ele>
        <time>2022-09-23T07:51:28.000Z</time>
      </trkpt>
      <trkpt lat="47.21294" lon="-1.48512">
        <ele>-2.79</ele>
        <time>2022-09-23T07:51:33.000Z</time>
      </trkpt>
      <trkpt lat="47.21303" lon="-1.48479">
        <ele>-1.48</ele>
        <time>2022-09-23T07:51:38.000Z</time>
      </trkpt>
      <trkpt lat="47.2131" lon="-1.48445">
        <ele>-0.32</ele>
        <time>2022-09-23T07:51:43.000Z</time>
      </trkpt>
      <trkpt lat="47.2132" lon="-1.48408">
        <ele>1.23</ele>
        <time>2022-09-23T07:51:48.000Z</time>
      </trkpt>
      <trkpt lat="47.2133" lon="-1.48371">
        <ele>1.66</ele>
        <time>2022-09-23T07:51:53.000Z</time>
      </trkpt>
      <trkpt lat="47.2134" lon="-1.48334">
        <ele>1.21</ele>
        <time>2022-09-23T07:51:58.000Z</time>
      </trkpt>
      <trkpt lat="47.21355" lon="-1.48295">
        <ele>1.42</ele>
        <time>2022-09-23T07:52:03.000Z</time>
      </trkpt>
      <trkpt lat="47.21369" lon="-1.48255">
        <ele>1.25</ele>
        <time>2022-09-23T07:52:08.000Z</time>
      </trkpt>
      <trkpt lat="47.21382" lon="-1.48217">
        <ele>0.96</ele>
        <time>2022-09-23T07:52:13.000Z</time>
      </trkpt>
      <trkpt lat="47.21398" lon="-1.48183">
        <ele>3.08</ele>
        <time>2022-09-23T07:52:18.000Z</time>
      </trkpt>
      <trkpt lat="47.21415" lon="-1.48149">
        <ele>2.55</ele>
        <time>2022-09-23T07:52:23.000Z</time>
      </trkpt>
      <trkpt lat="47.21432" lon="-1.48116">
        <ele>1.63</ele>
        <time>2022-09-23T07:52:28.000Z</time>
      </trkpt>
      <trkpt lat="47.21452" lon="-1.48084">
        <ele>1.47</ele>
        <time>2022-09-23T07:52:33.000Z</time>
      </trkpt>
      <trkpt lat="47.21472" lon="-1.48057">
        <ele>1.84</ele>
        <time>2022-09-23T07:52:38.000Z</time>
      </trkpt>
      <trkpt lat="47.21491" lon="-1.48034">
        <ele>2.81</ele>
        <time>2022-09-23T07:52:43.000Z</time>
      </trkpt>
      <trkpt lat="47.21514" lon="-1.4801">
        <ele>2.54</ele>
        <time>2022-09-23T07:52:48.000Z</time>
      </trkpt>
      <trkpt lat="47.21533" lon="-1.47987">
        <ele>1.97</ele>
        <time>2022-09-23T07:52:53.000Z</time>
      </trkpt>
      <trkpt lat="47.21553" lon="-1.47964">
        <ele>1.93</ele>
        <time>2022-09-23T07:52:58.000Z</time>
      </trkpt>
      <trkpt lat="47.21575" lon="-1.47943">
        <ele>1.64</ele>
        <time>2022-09-23T07:53:03.000Z</time>
      </trkpt>
      <trkpt lat="47.21598" lon="-1.47921">
        <ele>2.02</ele>
        <time>2022-09-23T07:53:08.000Z</time>
      </trkpt>
      <trkpt lat="47.21621" lon="-1.47898">
        <ele>3.56</ele>
        <time>2022-09-23T07:53:13.000Z</time>
      </trkpt>
      <trkpt lat="47.21643" lon="-1.47875">
        <ele>3.52</ele>
        <time>2022-09-23T07:53:18.000Z</time>
      </trkpt>
      <trkpt lat="47.21667" lon="-1.47852">
        <ele>2.67</ele>
        <time>2022-09-23T07:53:23.000Z</time>
      </trkpt>
      <trkpt lat="47.21691" lon="-1.47828">
        <ele>1.76</ele>
        <time>2022-09-23T07:53:28.000Z</time>
      </trkpt>
      <trkpt lat="47.21716" lon="-1.47807">
        <ele>1.24</ele>
        <time>2022-09-23T07:53:33.000Z</time>
      </trkpt>
      <trkpt lat="47.2174" lon="-1.47786">
        <ele>0.77</ele>
        <time>2022-09-23T07:53:38.000Z</time>
      </trkpt>
      <trkpt lat="47.2176" lon="-1.47765">
        <ele>0.6</ele>
        <time>2022-09-23T07:53:43.000Z</time>
      </trkpt>
      <trkpt lat="47.21787" lon="-1.47744">
        <ele>0.57</ele>
        <time>2022-09-23T07:53:48.000Z</time>
      </trkpt>
      <trkpt lat="47.21813" lon="-1.47726">
        <ele>0.23</ele>
        <time>2022-09-23T07:53:53.000Z</time>
      </trkpt>
      <trkpt lat="47.21836" lon="-1.47707">
        <ele>-0.86</ele>
        <time>2022-09-23T07:53:58.000Z</time>
      </trkpt>
      <trkpt lat="47.21864" lon="-1.47682">
        <ele>-0.61</ele>
        <time>2022-09-23T07:54:03.000Z</time>
      </trkpt>
      <trkpt lat="47.21892" lon="-1.47657">
        <ele>-0.54</ele>
        <time>2022-09-23T07:54:08.000Z</time>
      </trkpt>
      <trkpt lat="47.21919" lon="-1.47631">
        <ele>-0.01</ele>
        <time>2022-09-23T07:54:13.000Z</time>
      </trkpt>
      <trkpt lat="47.21947" lon="-1.47608">
        <ele>-0.19</ele>
        <time>2022-09-23T07:54:18.000Z</time>
      </trkpt>
      <trkpt lat="47.21973" lon="-1.47585">
        <ele>-0.82</ele>
        <time>2022-09-23T07:54:23.000Z</time>
      </trkpt>
      <trkpt lat="47.21998" lon="-1.4756">
        <ele>-1.95</ele>
        <time>2022-09-23T07:54:28.000Z</time>
      </trkpt>
      <trkpt lat="47.22022" lon="-1.47536">
        <ele>-2.74</ele>
        <time>2022-09-23T07:54:33.000Z</time>
      </trkpt>
      <trkpt lat="47.22048" lon="-1.47511">
        <ele>-2.79</ele>
        <time>2022-09-23T07:54:38.000Z</time>
      </trkpt>
      <trkpt lat="47.22074" lon="-1.47487">
        <ele>-2.14</ele>
        <time>2022-09-23T07:54:43.000Z</time>
      </trkpt>
      <trkpt lat="47.22101" lon="-1.47465">
        <ele>-1.41</ele>
        <time>2022-09-23T07:54:48.000Z</time>
      </trkpt>
      <trkpt lat="47.22125" lon="-1.47444">
        <ele>-1.68</ele>
        <time>2022-09-23T07:54:53.000Z</time>
      </trkpt>
      <trkpt lat="47.22151" lon="-1.47423">
        <ele>-1.26</ele>
        <time>2022-09-23T07:54:58.000Z</time>
      </trkpt>
      <trkpt lat="47.22175" lon="-1.47401">
        <ele>-1.04</ele>
        <time>2022-09-23T07:55:03.000Z</time>
      </trkpt>
      <trkpt lat="47.222" lon="-1.4738">
        <ele>-0.43</ele>
        <time>2022-09-23T07:55:08.000Z</time>
      </trkpt>
      <trkpt lat="47.22225" lon="-1.47361">
        <ele>-0.64</ele>
        <time>2022-09-23T07:55:13.000Z</time>
      </trkpt>
      <trkpt lat="47.2225" lon="-1.47343">
        <ele>-0.13</ele>
        <time>2022-09-23T07:55:18.000Z</time>
      </trkpt>
      <trkpt lat="47.22276" lon="-1.47325">
        <ele>0.48</ele>
        <time>2022-09-23T07:55:23.000Z</time>
      </trkpt>
      <trkpt lat="47.22303" lon="-1.47305">
        <ele>1.32</ele>
        <time>2022-09-23T07:55:28.000Z</time>
      </trkpt>
      <trkpt lat="47.22327" lon="-1.47283">
        <ele>1.64</ele>
        <time>2022-09-23T07:55:33.000Z</time>
      </trkpt>
      <trkpt lat="47.22352" lon="-1.47263">
        <ele>1.48</ele>
        <time>2022-09-23T07:55:38.000Z</time>
      </trkpt>
      <trkpt lat="47.22376" lon="-1.47242">
        <ele>1.38</ele>
        <time>2022-09-23T07:55:43.000Z</time>
      </trkpt>
      <trkpt lat="47.22398" lon="-1.4722">
        <ele>1.74</ele>
        <time>2022-09-23T07:55:48.000Z</time>
      </trkpt>
      <trkpt lat="47.22419" lon="-1.47195">
        <ele>2.96</ele>
        <time>2022-09-23T07:55:53.000Z</time>
      </trkpt>
      <trkpt lat="47.22441" lon="-1.47172">
        <ele>4.33</ele>
        <time>2022-09-23T07:55:58.000Z</time>
      </trkpt>
      <trkpt lat="47.22463" lon="-1.47151">
        <ele>4.67</ele>
        <time>2022-09-23T07:56:03.000Z</time>
      </trkpt>
      <trkpt lat="47.22483" lon="-1.47136">
        <ele>4.7</ele>
        <time>2022-09-23T07:56:08.000Z</time>
      </trkpt>
      <trkpt lat="47.22504" lon="-1.4713">
        <ele>3.94</ele>
        <time>2022-09-23T07:56:13.000Z</time>
      </trkpt>
      <trkpt lat="47.22526" lon="-1.47126">
        <ele>3.65</ele>
        <time>2022-09-23T07:56:18.000Z</time>
      </trkpt>
      <trkpt lat="47.22548" lon="-1.4712">
        <ele>3.56</ele>
        <time>2022-09-23T07:56:23.000Z</time>
      </trkpt>
      <trkpt lat="47.22571" lon="-1.47114">
        <ele>2.14</ele>
        <time>2022-09-23T07:56:28.000Z</time>
      </trkpt>
      <trkpt lat="47.22593" lon="-1.47099">
        <ele>0.24</ele>
        <time>2022-09-23T07:56:33.000Z</time>
      </trkpt>
      <trkpt lat="47.22611" lon="-1.47071">
        <ele>-0.49</ele>
        <time>2022-09-23T07:56:38.000Z</time>
      </trkpt>
      <trkpt lat="47.2263" lon="-1.47037">
        <ele>-0.01</ele>
        <time>2022-09-23T07:56:43.000Z</time>
      </trkpt>
      <trkpt lat="47.22653" lon="-1.47007">
        <ele>-0.48</ele>
        <time>2022-09-23T07:56:48.000Z</time>
      </trkpt>
      <trkpt lat="47.22677" lon="-1.46984">
        <ele>0.29</ele>
        <time>2022-09-23T07:56:53.000Z</time>
      </trkpt>
      <trkpt lat="47.22704" lon="-1.46967">
        <ele>0.85</ele>
        <time>2022-09-23T07:56:58.000Z</time>
      </trkpt>
      <trkpt lat="47.22729" lon="-1.46958">
        <ele>1.18</ele>
        <time>2022-09-23T07:57:03.000Z</time>
      </trkpt>
      <trkpt lat="47.22751" lon="-1.46954">
        <ele>1.04</ele>
        <time>2022-09-23T07:57:08.000Z</time>
      </trkpt>
      <trkpt lat="47.22765" lon="-1.46938">
        <ele>0.72</ele>
        <time>2022-09-23T07:57:13.000Z</time>
      </trkpt>
      <trkpt lat="47.22768" lon="-1.46952">
        <ele>0.86</ele>
        <time>2022-09-23T07:57:29.000Z</time>
      </trkpt>
      <trkpt lat="47.22787" lon="-1.46955">
        <ele>0.43</ele>
        <time>2022-09-23T07:57:34.000Z</time>
      </trkpt>
      <trkpt lat="47.22809" lon="-1.46962">
        <ele>-1.15</ele>
        <time>2022-09-23T07:57:39.000Z</time>
      </trkpt>
      <trkpt lat="47.2283" lon="-1.46973">
        <ele>-1.28</ele>
        <time>2022-09-23T07:57:44.000Z</time>
      </trkpt>
      <trkpt lat="47.22857" lon="-1.46988">
        <ele>-1.33</ele>
        <time>2022-09-23T07:57:49.000Z</time>
      </trkpt>
      <trkpt lat="47.22884" lon="-1.47001">
        <ele>-2.01</ele>
        <time>2022-09-23T07:57:54.000Z</time>
      </trkpt>
      <trkpt lat="47.22909" lon="-1.46995">
        <ele>-2.75</ele>
        <time>2022-09-23T07:57:59.000Z</time>
      </trkpt>
      <trkpt lat="47.22922" lon="-1.46958">
        <ele>-2.53</ele>
        <time>2022-09-23T07:58:04.000Z</time>
      </trkpt>
      <trkpt lat="47.22932" lon="-1.46922">
        <ele>-2.59</ele>
        <time>2022-09-23T07:58:09.000Z</time>
      </trkpt>
      <trkpt lat="47.22937" lon="-1.46896">
        <ele>-3.31</ele>
        <time>2022-09-23T07:58:14.000Z</time>
      </trkpt>
      <trkpt lat="47.22937" lon="-1.46883">
        <ele>6.25</ele>
        <time>2022-09-23T08:03:14.000Z</time>
      </trkpt>
      <trkpt lat="47.22941" lon="-1.46866">
        <ele>9.35</ele>
        <time>2022-09-23T08:03:19.000Z</time>
      </trkpt>
      <trkpt lat="47.22948" lon="-1.46846">
        <ele>9.03</ele>
        <time>2022-09-23T08:03:24.000Z</time>
      </trkpt>
      <trkpt lat="47.2296" lon="-1.46835">
        <ele>8.78</ele>
        <time>2022-09-23T08:03:45.000Z</time>
      </trkpt>
      <trkpt lat="47.22973" lon="-1.46816">
        <ele>8.33</ele>
        <time>2022-09-23T08:03:50.000Z</time>
      </trkpt>
      <trkpt lat="47.2298" lon="-1.46796">
        <ele>8.16</ele>
        <time>2022-09-23T08:03:55.000Z</time>
      </trkpt>
      <trkpt lat="47.2299" lon="-1.46777">
        <ele>8.8</ele>
        <time>2022-09-23T08:04:00.000Z</time>
      </trkpt>
      <trkpt lat="47.23" lon="-1.46764">
        <ele>9.54</ele>
        <time>2022-09-23T08:04:05.000Z</time>
      </trkpt>
      <trkpt lat="47.23012" lon="-1.46755">
        <ele>9.84</ele>
        <time>2022-09-23T08:04:10.000Z</time>
      </trkpt>
      <trkpt lat="47.23027" lon="-1.46749">
        <ele>9.67</ele>
        <time>2022-09-23T08:04:15.000Z</time>
      </trkpt>
      <trkpt lat="47.23037" lon="-1.46727">
        <ele>9.03</ele>
        <time>2022-09-23T08:04:20.000Z</time>
      </trkpt>
      <trkpt lat="47.2305" lon="-1.46696">
        <ele>7.71</ele>
        <time>2022-09-23T08:04:25.000Z</time>
      </trkpt>
      <trkpt lat="47.23064" lon="-1.46668">
        <ele>4.53</ele>
        <time>2022-09-23T08:04:30.000Z</time>
      </trkpt>
      <trkpt lat="47.23072" lon="-1.46646">
        <ele>3.51</ele>
        <time>2022-09-23T08:04:35.000Z</time>
      </trkpt>
      <trkpt lat="47.23081" lon="-1.46629">
        <ele>3.06</ele>
        <time>2022-09-23T08:04:40.000Z</time>
      </trkpt>
      <trkpt lat="47.23094" lon="-1.46613">
        <ele>2.73</ele>
        <time>2022-09-23T08:04:45.000Z</time>
      </trkpt>
      <trkpt lat="47.23106" lon="-1.46595">
        <ele>2</ele>
        <time>2022-09-23T08:04:50.000Z</time>
      </trkpt>
      <trkpt lat="47.23121" lon="-1.46573">
        <ele>1.26</ele>
        <time>2022-09-23T08:04:55.000Z</time>
      </trkpt>
      <trkpt lat="47.23137" lon="-1.46555">
        <ele>-0.13</ele>
        <time>2022-09-23T08:05:00.000Z</time>
      </trkpt>
      <trkpt lat="47.23154" lon="-1.46535">
        <ele>-1.36</ele>
        <time>2022-09-23T08:05:05.000Z</time>
      </trkpt>
      <trkpt lat="47.23171" lon="-1.46516">
        <ele>-2.13</ele>
        <time>2022-09-23T08:05:10.000Z</time>
      </trkpt>
      <trkpt lat="47.23187" lon="-1.46496">
        <ele>-2.94</ele>
        <time>2022-09-23T08:05:15.000Z</time>
      </trkpt>
      <trkpt lat="47.23205" lon="-1.46474">
        <ele>-3.17</ele>
        <time>2022-09-23T08:05:20.000Z</time>
      </trkpt>
      <trkpt lat="47.23226" lon="-1.46446">
        <ele>-2.97</ele>
        <time>2022-09-23T08:05:26.000Z</time>
      </trkpt>
      <trkpt lat="47.23246" lon="-1.46424">
        <ele>-2.94</ele>
        <time>2022-09-23T08:05:31.000Z</time>
      </trkpt>
      <trkpt lat="47.23266" lon="-1.464">
        <ele>-3.77</ele>
        <time>2022-09-23T08:05:36.000Z</time>
      </trkpt>
      <trkpt lat="47.23286" lon="-1.46377">
        <ele>-4.66</ele>
        <time>2022-09-23T08:05:41.000Z</time>
      </trkpt>
      <trkpt lat="47.23304" lon="-1.46353">
        <ele>-4.23</ele>
        <time>2022-09-23T08:05:46.000Z</time>
      </trkpt>
      <trkpt lat="47.23321" lon="-1.46328">
        <ele>-4.01</ele>
        <time>2022-09-23T08:05:51.000Z</time>
      </trkpt>
      <trkpt lat="47.23338" lon="-1.46304">
        <ele>-3.87</ele>
        <time>2022-09-23T08:05:56.000Z</time>
      </trkpt>
      <trkpt lat="47.23356" lon="-1.46279">
        <ele>-3.74</ele>
        <time>2022-09-23T08:06:01.000Z</time>
      </trkpt>
      <trkpt lat="47.23374" lon="-1.46254">
        <ele>-3.41</ele>
        <time>2022-09-23T08:06:06.000Z</time>
      </trkpt>
      <trkpt lat="47.2339" lon="-1.46229">
        <ele>-2.81</ele>
        <time>2022-09-23T08:06:11.000Z</time>
      </trkpt>
      <trkpt lat="47.23409" lon="-1.46205">
        <ele>-1.92</ele>
        <time>2022-09-23T08:06:16.000Z</time>
      </trkpt>
      <trkpt lat="47.23433" lon="-1.46184">
        <ele>-0.08</ele>
        <time>2022-09-23T08:06:21.000Z</time>
      </trkpt>
      <trkpt lat="47.23454" lon="-1.46162">
        <ele>0.54</ele>
        <time>2022-09-23T08:06:26.000Z</time>
      </trkpt>
      <trkpt lat="47.23475" lon="-1.46141">
        <ele>-0.83</ele>
        <time>2022-09-23T08:06:31.000Z</time>
      </trkpt>
      <trkpt lat="47.23493" lon="-1.4612">
        <ele>-0.51</ele>
        <time>2022-09-23T08:06:36.000Z</time>
      </trkpt>
      <trkpt lat="47.23509" lon="-1.46105">
        <ele>0.88</ele>
        <time>2022-09-23T08:06:41.000Z</time>
      </trkpt>
      <trkpt lat="47.23523" lon="-1.46093">
        <ele>1.7</ele>
        <time>2022-09-23T08:06:46.000Z</time>
      </trkpt>
      <trkpt lat="47.23537" lon="-1.4608">
        <ele>2.09</ele>
        <time>2022-09-23T08:06:51.000Z</time>
      </trkpt>
      <trkpt lat="47.23555" lon="-1.46064">
        <ele>1.55</ele>
        <time>2022-09-23T08:06:56.000Z</time>
      </trkpt>
      <trkpt lat="47.23575" lon="-1.46057">
        <ele>0.95</ele>
        <time>2022-09-23T08:07:01.000Z</time>
      </trkpt>
      <trkpt lat="47.23596" lon="-1.46037">
        <ele>0.81</ele>
        <time>2022-09-23T08:07:06.000Z</time>
      </trkpt>
      <trkpt lat="47.23623" lon="-1.4602">
        <ele>1.32</ele>
        <time>2022-09-23T08:07:11.000Z</time>
      </trkpt>
      <trkpt lat="47.23648" lon="-1.46011">
        <ele>1.97</ele>
        <time>2022-09-23T08:07:16.000Z</time>
      </trkpt>
      <trkpt lat="47.23674" lon="-1.46004">
        <ele>1.57</ele>
        <time>2022-09-23T08:07:21.000Z</time>
      </trkpt>
      <trkpt lat="47.23701" lon="-1.45998">
        <ele>0.01</ele>
        <time>2022-09-23T08:07:26.000Z</time>
      </trkpt>
      <trkpt lat="47.23729" lon="-1.45992">
        <ele>-0.61</ele>
        <time>2022-09-23T08:07:31.000Z</time>
      </trkpt>
      <trkpt lat="47.23756" lon="-1.45986">
        <ele>-0.98</ele>
        <time>2022-09-23T08:07:36.000Z</time>
      </trkpt>
      <trkpt lat="47.23781" lon="-1.45976">
        <ele>-0.05</ele>
        <time>2022-09-23T08:07:41.000Z</time>
      </trkpt>
      <trkpt lat="47.23804" lon="-1.45965">
        <ele>0.14</ele>
        <time>2022-09-23T08:07:46.000Z</time>
      </trkpt>
      <trkpt lat="47.2383" lon="-1.45956">
        <ele>1.06</ele>
        <time>2022-09-23T08:07:51.000Z</time>
      </trkpt>
      <trkpt lat="47.23856" lon="-1.4595">
        <ele>0.75</ele>
        <time>2022-09-23T08:07:56.000Z</time>
      </trkpt>
      <trkpt lat="47.23885" lon="-1.45943">
        <ele>0.84</ele>
        <time>2022-09-23T08:08:01.000Z</time>
      </trkpt>
      <trkpt lat="47.23912" lon="-1.45937">
        <ele>-0.37</ele>
        <time>2022-09-23T08:08:06.000Z</time>
      </trkpt>
      <trkpt lat="47.23938" lon="-1.45928">
        <ele>-0.63</ele>
        <time>2022-09-23T08:08:11.000Z</time>
      </trkpt>
      <trkpt lat="47.2396" lon="-1.45909">
        <ele>-0.79</ele>
        <time>2022-09-23T08:08:16.000Z</time>
      </trkpt>
      <trkpt lat="47.23979" lon="-1.45878">
        <ele>-1.31</ele>
        <time>2022-09-23T08:08:21.000Z</time>
      </trkpt>
      <trkpt lat="47.24" lon="-1.45847">
        <ele>-2.21</ele>
        <time>2022-09-23T08:08:26.000Z</time>
      </trkpt>
      <trkpt lat="47.24023" lon="-1.45813">
        <ele>-1.64</ele>
        <time>2022-09-23T08:08:31.000Z</time>
      </trkpt>
      <trkpt lat="47.24044" lon="-1.45782">
        <ele>-1.04</ele>
        <time>2022-09-23T08:08:36.000Z</time>
      </trkpt>
      <trkpt lat="47.24065" lon="-1.4575">
        <ele>-0.34</ele>
        <time>2022-09-23T08:08:41.000Z</time>
      </trkpt>
      <trkpt lat="47.24083" lon="-1.45718">
        <ele>-0.12</ele>
        <time>2022-09-23T08:08:46.000Z</time>
      </trkpt>
      <trkpt lat="47.24102" lon="-1.45686">
        <ele>0.86</ele>
        <time>2022-09-23T08:08:51.000Z</time>
      </trkpt>
      <trkpt lat="47.2412" lon="-1.45651">
        <ele>0.22</ele>
        <time>2022-09-23T08:08:56.000Z</time>
      </trkpt>
      <trkpt lat="47.24135" lon="-1.45614">
        <ele>-0.54</ele>
        <time>2022-09-23T08:09:01.000Z</time>
      </trkpt>
      <trkpt lat="47.24147" lon="-1.45577">
        <ele>-0.83</ele>
        <time>2022-09-23T08:09:06.000Z</time>
      </trkpt>
      <trkpt lat="47.2416" lon="-1.45539">
        <ele>-0.14</ele>
        <time>2022-09-23T08:09:11.000Z</time>
      </trkpt>
      <trkpt lat="47.2417" lon="-1.45499">
        <ele>-0.59</ele>
        <time>2022-09-23T08:09:16.000Z</time>
      </trkpt>
      <trkpt lat="47.24177" lon="-1.45467">
        <ele>1.14</ele>
        <time>2022-09-23T08:09:21.000Z</time>
      </trkpt>
      <trkpt lat="47.24187" lon="-1.45445">
        <ele>2.87</ele>
        <time>2022-09-23T08:09:26.000Z</time>
      </trkpt>
      <trkpt lat="47.24199" lon="-1.45412">
        <ele>2.75</ele>
        <time>2022-09-23T08:09:31.000Z</time>
      </trkpt>
      <trkpt lat="47.24211" lon="-1.45375">
        <ele>2.2</ele>
        <time>2022-09-23T08:09:36.000Z</time>
      </trkpt>
      <trkpt lat="47.24222" lon="-1.45339">
        <ele>1.12</ele>
        <time>2022-09-23T08:09:41.000Z</time>
      </trkpt>
      <trkpt lat="47.24235" lon="-1.45303">
        <ele>1.02</ele>
        <time>2022-09-23T08:09:46.000Z</time>
      </trkpt>
      <trkpt lat="47.24247" lon="-1.45271">
        <ele>0.4</ele>
        <time>2022-09-23T08:09:51.000Z</time>
      </trkpt>
      <trkpt lat="47.24263" lon="-1.45238">
        <ele>-1.08</ele>
        <time>2022-09-23T08:09:56.000Z</time>
      </trkpt>
      <trkpt lat="47.24267" lon="-1.45193">
        <ele>-1.62</ele>
        <time>2022-09-23T08:10:01.000Z</time>
      </trkpt>
      <trkpt lat="47.24272" lon="-1.45149">
        <ele>-0.86</ele>
        <time>2022-09-23T08:10:06.000Z</time>
      </trkpt>
      <trkpt lat="47.24274" lon="-1.45106">
        <ele>-1.42</ele>
        <time>2022-09-23T08:10:11.000Z</time>
      </trkpt>
      <trkpt lat="47.24276" lon="-1.45066">
        <ele>-1.77</ele>
        <time>2022-09-23T08:10:16.000Z</time>
      </trkpt>
      <trkpt lat="47.2428" lon="-1.45023">
        <ele>-2.11</ele>
        <time>2022-09-23T08:10:21.000Z</time>
      </trkpt>
      <trkpt lat="47.24283" lon="-1.44978">
        <ele>-1.89</ele>
        <time>2022-09-23T08:10:26.000Z</time>
      </trkpt>
      <trkpt lat="47.24286" lon="-1.44934">
        <ele>-1.71</ele>
        <time>2022-09-23T08:10:31.000Z</time>
      </trkpt>
      <trkpt lat="47.24289" lon="-1.44893">
        <ele>-1.35</ele>
        <time>2022-09-23T08:10:36.000Z</time>
      </trkpt>
      <trkpt lat="47.24292" lon="-1.44854">
        <ele>-2.75</ele>
        <time>2022-09-23T08:10:41.000Z</time>
      </trkpt>
      <trkpt lat="47.24297" lon="-1.44813">
        <ele>-2.65</ele>
        <time>2022-09-23T08:10:46.000Z</time>
      </trkpt>
      <trkpt lat="47.24301" lon="-1.44772">
        <ele>-1.37</ele>
        <time>2022-09-23T08:10:51.000Z</time>
      </trkpt>
      <trkpt lat="47.24305" lon="-1.44729">
        <ele>-0.7</ele>
        <time>2022-09-23T08:10:56.000Z</time>
      </trkpt>
      <trkpt lat="47.24308" lon="-1.44687">
        <ele>0.81</ele>
        <time>2022-09-23T08:11:01.000Z</time>
      </trkpt>
      <trkpt lat="47.24311" lon="-1.44646">
        <ele>1.02</ele>
        <time>2022-09-23T08:11:06.000Z</time>
      </trkpt>
      <trkpt lat="47.24316" lon="-1.44605">
        <ele>1.03</ele>
        <time>2022-09-23T08:11:11.000Z</time>
      </trkpt>
      <trkpt lat="47.24317" lon="-1.44563">
        <ele>1.19</ele>
        <time>2022-09-23T08:11:16.000Z</time>
      </trkpt>
      <trkpt lat="47.2432" lon="-1.44521">
        <ele>2.24</ele>
        <time>2022-09-23T08:11:21.000Z</time>
      </trkpt>
      <trkpt lat="47.24324" lon="-1.44482">
        <ele>1.93</ele>
        <time>2022-09-23T08:11:26.000Z</time>
      </trkpt>
      <trkpt lat="47.24327" lon="-1.44443">
        <ele>-0.21</ele>
        <time>2022-09-23T08:11:31.000Z</time>
      </trkpt>
      <trkpt lat="47.2433" lon="-1.44405">
        <ele>-0.69</ele>
        <time>2022-09-23T08:11:36.000Z</time>
      </trkpt>
      <trkpt lat="47.24333" lon="-1.44365">
        <ele>0.1</ele>
        <time>2022-09-23T08:11:41.000Z</time>
      </trkpt>
      <trkpt lat="47.24337" lon="-1.44326">
        <ele>0.07</ele>
        <time>2022-09-23T08:11:46.000Z</time>
      </trkpt>
      <trkpt lat="47.24343" lon="-1.44286">
        <ele>-0.3</ele>
        <time>2022-09-23T08:11:51.000Z</time>
      </trkpt>
      <trkpt lat="47.24341" lon="-1.44246">
        <ele>-0.32</ele>
        <time>2022-09-23T08:11:56.000Z</time>
      </trkpt>
      <trkpt lat="47.24344" lon="-1.44209">
        <ele>0.59</ele>
        <time>2022-09-23T08:12:01.000Z</time>
      </trkpt>
      <trkpt lat="47.24353" lon="-1.44171">
        <ele>1.76</ele>
        <time>2022-09-23T08:12:06.000Z</time>
      </trkpt>
      <trkpt lat="47.24367" lon="-1.44137">
        <ele>1.39</ele>
        <time>2022-09-23T08:12:11.000Z</time>
      </trkpt>
      <trkpt lat="47.24385" lon="-1.44104">
        <ele>0.91</ele>
        <time>2022-09-23T08:12:16.000Z</time>
      </trkpt>
      <trkpt lat="47.24403" lon="-1.44071">
        <ele>0.88</ele>
        <time>2022-09-23T08:12:21.000Z</time>
      </trkpt>
      <trkpt lat="47.24417" lon="-1.44038">
        <ele>0.14</ele>
        <time>2022-09-23T08:12:26.000Z</time>
      </trkpt>
      <trkpt lat="47.24432" lon="-1.44007">
        <ele>0.09</ele>
        <time>2022-09-23T08:12:31.000Z</time>
      </trkpt>
      <trkpt lat="47.2445" lon="-1.43978">
        <ele>0.12</ele>
        <time>2022-09-23T08:12:36.000Z</time>
      </trkpt>
      <trkpt lat="47.24462" lon="-1.43945">
        <ele>0.05</ele>
        <time>2022-09-23T08:12:41.000Z</time>
      </trkpt>
      <trkpt lat="47.24478" lon="-1.43909">
        <ele>-0.95</ele>
        <time>2022-09-23T08:12:46.000Z</time>
      </trkpt>
      <trkpt lat="47.2449" lon="-1.43872">
        <ele>-1.95</ele>
        <time>2022-09-23T08:12:51.000Z</time>
      </trkpt>
      <trkpt lat="47.24502" lon="-1.43834">
        <ele>-2.11</ele>
        <time>2022-09-23T08:12:56.000Z</time>
      </trkpt>
      <trkpt lat="47.24511" lon="-1.43798">
        <ele>-1.41</ele>
        <time>2022-09-23T08:13:01.000Z</time>
      </trkpt>
      <trkpt lat="47.24523" lon="-1.43761">
        <ele>-1.03</ele>
        <time>2022-09-23T08:13:06.000Z</time>
      </trkpt>
      <trkpt lat="47.24534" lon="-1.43726">
        <ele>-0.11</ele>
        <time>2022-09-23T08:13:11.000Z</time>
      </trkpt>
      <trkpt lat="47.24555" lon="-1.437">
        <ele>0.19</ele>
        <time>2022-09-23T08:13:16.000Z</time>
      </trkpt>
      <trkpt lat="47.24578" lon="-1.43679">
        <ele>0.25</ele>
        <time>2022-09-23T08:13:21.000Z</time>
      </trkpt>
      <trkpt lat="47.24598" lon="-1.43653">
        <ele>1.02</ele>
        <time>2022-09-23T08:13:26.000Z</time>
      </trkpt>
      <trkpt lat="47.24619" lon="-1.4363">
        <ele>1.68</ele>
        <time>2022-09-23T08:13:31.000Z</time>
      </trkpt>
      <trkpt lat="47.24641" lon="-1.43612">
        <ele>2.17</ele>
        <time>2022-09-23T08:13:36.000Z</time>
      </trkpt>
      <trkpt lat="47.24663" lon="-1.43589">
        <ele>2.33</ele>
        <time>2022-09-23T08:13:41.000Z</time>
      </trkpt>
      <trkpt lat="47.24686" lon="-1.43568">
        <ele>1.39</ele>
        <time>2022-09-23T08:13:46.000Z</time>
      </trkpt>
      <trkpt lat="47.24701" lon="-1.43532">
        <ele>-0.23</ele>
        <time>2022-09-23T08:13:51.000Z</time>
      </trkpt>
      <trkpt lat="47.24713" lon="-1.43494">
        <ele>-1.73</ele>
        <time>2022-09-23T08:13:56.000Z</time>
      </trkpt>
      <trkpt lat="47.24727" lon="-1.43462">
        <ele>-0.93</ele>
        <time>2022-09-23T08:14:01.000Z</time>
      </trkpt>
      <trkpt lat="47.24744" lon="-1.43432">
        <ele>-1.03</ele>
        <time>2022-09-23T08:14:06.000Z</time>
      </trkpt>
      <trkpt lat="47.24763" lon="-1.43406">
        <ele>-0.18</ele>
        <time>2022-09-23T08:14:11.000Z</time>
      </trkpt>
      <trkpt lat="47.24783" lon="-1.43382">
        <ele>-0.75</ele>
        <time>2022-09-23T08:14:16.000Z</time>
      </trkpt>
      <trkpt lat="47.24797" lon="-1.43365">
        <ele>0.28</ele>
        <time>2022-09-23T08:14:21.000Z</time>
      </trkpt>
      <trkpt lat="47.24815" lon="-1.43351">
        <ele>1.38</ele>
        <time>2022-09-23T08:14:26.000Z</time>
      </trkpt>
      <trkpt lat="47.24835" lon="-1.43337">
        <ele>3.73</ele>
        <time>2022-09-23T08:14:31.000Z</time>
      </trkpt>
      <trkpt lat="47.24857" lon="-1.43324">
        <ele>4.96</ele>
        <time>2022-09-23T08:14:36.000Z</time>
      </trkpt>
      <trkpt lat="47.24879" lon="-1.43309">
        <ele>3.83</ele>
        <time>2022-09-23T08:14:41.000Z</time>
      </trkpt>
      <trkpt lat="47.24903" lon="-1.43294">
        <ele>3.48</ele>
        <time>2022-09-23T08:14:46.000Z</time>
      </trkpt>
      <trkpt lat="47.24929" lon="-1.43276">
        <ele>2.19</ele>
        <time>2022-09-23T08:14:51.000Z</time>
      </trkpt>
      <trkpt lat="47.2496" lon="-1.43255">
        <ele>0.67</ele>
        <time>2022-09-23T08:14:56.000Z</time>
      </trkpt>
      <trkpt lat="47.24992" lon="-1.43237">
        <ele>-0.49</ele>
        <time>2022-09-23T08:15:01.000Z</time>
      </trkpt>
      <trkpt lat="47.25022" lon="-1.43213">
        <ele>-1.92</ele>
        <time>2022-09-23T08:15:06.000Z</time>
      </trkpt>
      <trkpt lat="47.2505" lon="-1.43191">
        <ele>-2.01</ele>
        <time>2022-09-23T08:15:11.000Z</time>
      </trkpt>
      <trkpt lat="47.25074" lon="-1.43166">
        <ele>-2.09</ele>
        <time>2022-09-23T08:15:16.000Z</time>
      </trkpt>
      <trkpt lat="47.25095" lon="-1.4314">
        <ele>-1.52</ele>
        <time>2022-09-23T08:15:21.000Z</time>
      </trkpt>
      <trkpt lat="47.25116" lon="-1.43113">
        <ele>-0.56</ele>
        <time>2022-09-23T08:15:26.000Z</time>
      </trkpt>
      <trkpt lat="47.25136" lon="-1.43086">
        <ele>0.4</ele>
        <time>2022-09-23T08:15:31.000Z</time>
      </trkpt>
      <trkpt lat="47.25157" lon="-1.4306">
        <ele>0.35</ele>
        <time>2022-09-23T08:15:36.000Z</time>
      </trkpt>
      <trkpt lat="47.25183" lon="-1.43033">
        <ele>1.44</ele>
        <time>2022-09-23T08:15:41.000Z</time>
      </trkpt>
      <trkpt lat="47.25209" lon="-1.43002">
        <ele>1.31</ele>
        <time>2022-09-23T08:15:46.000Z</time>
      </trkpt>
      <trkpt lat="47.25236" lon="-1.42979">
        <ele>0.95</ele>
        <time>2022-09-23T08:15:51.000Z</time>
      </trkpt>
      <trkpt lat="47.25265" lon="-1.42962">
        <ele>0.72</ele>
        <time>2022-09-23T08:15:56.000Z</time>
      </trkpt>
      <trkpt lat="47.25291" lon="-1.42945">
        <ele>0.34</ele>
        <time>2022-09-23T08:16:01.000Z</time>
      </trkpt>
      <trkpt lat="47.25317" lon="-1.4293">
        <ele>-0.71</ele>
        <time>2022-09-23T08:16:06.000Z</time>
      </trkpt>
      <trkpt lat="47.25342" lon="-1.42914">
        <ele>-0.56</ele>
        <time>2022-09-23T08:16:11.000Z</time>
      </trkpt>
      <trkpt lat="47.25367" lon="-1.42902">
        <ele>0.51</ele>
        <time>2022-09-23T08:16:16.000Z</time>
      </trkpt>
      <trkpt lat="47.25393" lon="-1.42885">
        <ele>1.22</ele>
        <time>2022-09-23T08:16:21.000Z</time>
      </trkpt>
      <trkpt lat="47.25415" lon="-1.42869">
        <ele>0.7</ele>
        <time>2022-09-23T08:16:26.000Z</time>
      </trkpt>
      <trkpt lat="47.25437" lon="-1.42854">
        <ele>0.76</ele>
        <time>2022-09-23T08:16:31.000Z</time>
      </trkpt>
      <trkpt lat="47.25459" lon="-1.42839">
        <ele>1.22</ele>
        <time>2022-09-23T08:16:36.000Z</time>
      </trkpt>
      <trkpt lat="47.25483" lon="-1.42821">
        <ele>0.56</ele>
        <time>2022-09-23T08:16:41.000Z</time>
      </trkpt>
      <trkpt lat="47.25508" lon="-1.428">
        <ele>-0.91</ele>
        <time>2022-09-23T08:16:46.000Z</time>
      </trkpt>
      <trkpt lat="47.25531" lon="-1.4278">
        <ele>-1.67</ele>
        <time>2022-09-23T08:16:51.000Z</time>
      </trkpt>
      <trkpt lat="47.25554" lon="-1.42762">
        <ele>-1.46</ele>
        <time>2022-09-23T08:16:56.000Z</time>
      </trkpt>
      <trkpt lat="47.2558" lon="-1.42742">
        <ele>-0.87</ele>
        <time>2022-09-23T08:17:01.000Z</time>
      </trkpt>
      <trkpt lat="47.25604" lon="-1.42722">
        <ele>0.7</ele>
        <time>2022-09-23T08:17:06.000Z</time>
      </trkpt>
      <trkpt lat="47.25627" lon="-1.42704">
        <ele>1.08</ele>
        <time>2022-09-23T08:17:11.000Z</time>
      </trkpt>
      <trkpt lat="47.25651" lon="-1.42685">
        <ele>0.33</ele>
        <time>2022-09-23T08:17:16.000Z</time>
      </trkpt>
      <trkpt lat="47.2567" lon="-1.42666">
        <ele>1.61</ele>
        <time>2022-09-23T08:17:21.000Z</time>
      </trkpt>
      <trkpt lat="47.25681" lon="-1.42657">
        <ele>4.1</ele>
        <time>2022-09-23T08:17:26.000Z</time>
      </trkpt>
      <trkpt lat="47.25689" lon="-1.4265">
        <ele>4.66</ele>
        <time>2022-09-23T08:17:31.000Z</time>
      </trkpt>
      <trkpt lat="47.25699" lon="-1.42646">
        <ele>3.77</ele>
        <time>2022-09-23T08:17:41.000Z</time>
      </trkpt>
      <trkpt lat="47.25717" lon="-1.42646">
        <ele>1.52</ele>
        <time>2022-09-23T08:17:46.000Z</time>
      </trkpt>
      <trkpt lat="47.25738" lon="-1.42645">
        <ele>0.12</ele>
        <time>2022-09-23T08:17:51.000Z</time>
      </trkpt>
      <trkpt lat="47.2575" lon="-1.42619">
        <ele>-1.27</ele>
        <time>2022-09-23T08:17:56.000Z</time>
      </trkpt>
      <trkpt lat="47.25765" lon="-1.42598">
        <ele>-0.69</ele>
        <time>2022-09-23T08:18:01.000Z</time>
      </trkpt>
      <trkpt lat="47.25791" lon="-1.42571">
        <ele>1.58</ele>
        <time>2022-09-23T08:18:06.000Z</time>
      </trkpt>
      <trkpt lat="47.25818" lon="-1.42548">
        <ele>2.42</ele>
        <time>2022-09-23T08:18:11.000Z</time>
      </trkpt>
      <trkpt lat="47.25843" lon="-1.42528">
        <ele>2.15</ele>
        <time>2022-09-23T08:18:16.000Z</time>
      </trkpt>
      <trkpt lat="47.25869" lon="-1.42508">
        <ele>0.26</ele>
        <time>2022-09-23T08:18:21.000Z</time>
      </trkpt>
      <trkpt lat="47.25896" lon="-1.42487">
        <ele>-2.02</ele>
        <time>2022-09-23T08:18:26.000Z</time>
      </trkpt>
      <trkpt lat="47.25916" lon="-1.42462">
        <ele>-2.87</ele>
        <time>2022-09-23T08:18:31.000Z</time>
      </trkpt>
      <trkpt lat="47.25936" lon="-1.42435">
        <ele>-3.27</ele>
        <time>2022-09-23T08:18:36.000Z</time>
      </trkpt>
      <trkpt lat="47.25957" lon="-1.42409">
        <ele>-2.88</ele>
        <time>2022-09-23T08:18:41.000Z</time>
      </trkpt>
      <trkpt lat="47.25976" lon="-1.42386">
        <ele>-1.06</ele>
        <time>2022-09-23T08:18:46.000Z</time>
      </trkpt>
      <trkpt lat="47.25999" lon="-1.42361">
        <ele>-0.73</ele>
        <time>2022-09-23T08:18:51.000Z</time>
      </trkpt>
      <trkpt lat="47.26018" lon="-1.42333">
        <ele>-1.43</ele>
        <time>2022-09-23T08:18:56.000Z</time>
      </trkpt>
      <trkpt lat="47.26038" lon="-1.42304">
        <ele>-2.02</ele>
        <time>2022-09-23T08:19:01.000Z</time>
      </trkpt>
      <trkpt lat="47.2606" lon="-1.42276">
        <ele>-2.32</ele>
        <time>2022-09-23T08:19:06.000Z</time>
      </trkpt>
      <trkpt lat="47.26081" lon="-1.42251">
        <ele>-0.91</ele>
        <time>2022-09-23T08:19:11.000Z</time>
      </trkpt>
      <trkpt lat="47.261" lon="-1.42226">
        <ele>-0.07</ele>
        <time>2022-09-23T08:19:16.000Z</time>
      </trkpt>
      <trkpt lat="47.26119" lon="-1.42201">
        <ele>0.58</ele>
        <time>2022-09-23T08:19:21.000Z</time>
      </trkpt>
      <trkpt lat="47.26138" lon="-1.42174">
        <ele>1.95</ele>
        <time>2022-09-23T08:19:26.000Z</time>
      </trkpt>
      <trkpt lat="47.26153" lon="-1.42145">
        <ele>0.92</ele>
        <time>2022-09-23T08:19:31.000Z</time>
      </trkpt>
      <trkpt lat="47.26161" lon="-1.42125">
        <ele>1.08</ele>
        <time>2022-09-23T08:19:36.000Z</time>
      </trkpt>
      <trkpt lat="47.26175" lon="-1.42105">
        <ele>1.29</ele>
        <time>2022-09-23T08:19:41.000Z</time>
      </trkpt>
      <trkpt lat="47.26195" lon="-1.42076">
        <ele>1.45</ele>
        <time>2022-09-23T08:19:46.000Z</time>
      </trkpt>
      <trkpt lat="47.26215" lon="-1.42053">
        <ele>4.1</ele>
        <time>2022-09-23T08:19:51.000Z</time>
      </trkpt>
      <trkpt lat="47.26232" lon="-1.42014">
        <ele>-0.24</ele>
        <time>2022-09-23T08:19:56.000Z</time>
      </trkpt>
      <trkpt lat="47.2625" lon="-1.41981">
        <ele>-0.09</ele>
        <time>2022-09-23T08:20:01.000Z</time>
      </trkpt>
      <trkpt lat="47.26269" lon="-1.41951">
        <ele>0.46</ele>
        <time>2022-09-23T08:20:06.000Z</time>
      </trkpt>
      <trkpt lat="47.26288" lon="-1.4192">
        <ele>1.31</ele>
        <time>2022-09-23T08:20:11.000Z</time>
      </trkpt>
      <trkpt lat="47.26307" lon="-1.41889">
        <ele>2.07</ele>
        <time>2022-09-23T08:20:16.000Z</time>
      </trkpt>
      <trkpt lat="47.26325" lon="-1.41857">
        <ele>1.87</ele>
        <time>2022-09-23T08:20:21.000Z</time>
      </trkpt>
      <trkpt lat="47.26342" lon="-1.41827">
        <ele>1.45</ele>
        <time>2022-09-23T08:20:26.000Z</time>
      </trkpt>
      <trkpt lat="47.26359" lon="-1.41796">
        <ele>1.26</ele>
        <time>2022-09-23T08:20:31.000Z</time>
      </trkpt>
      <trkpt lat="47.26378" lon="-1.41766">
        <ele>1.84</ele>
        <time>2022-09-23T08:20:36.000Z</time>
      </trkpt>
      <trkpt lat="47.26396" lon="-1.41733">
        <ele>2.07</ele>
        <time>2022-09-23T08:20:41.000Z</time>
      </trkpt>
      <trkpt lat="47.26416" lon="-1.417">
        <ele>2.28</ele>
        <time>2022-09-23T08:20:46.000Z</time>
      </trkpt>
      <trkpt lat="47.26434" lon="-1.41668">
        <ele>2.45</ele>
        <time>2022-09-23T08:20:51.000Z</time>
      </trkpt>
      <trkpt lat="47.26453" lon="-1.41638">
        <ele>2.72</ele>
        <time>2022-09-23T08:20:56.000Z</time>
      </trkpt>
      <trkpt lat="47.2647" lon="-1.41606">
        <ele>2.41</ele>
        <time>2022-09-23T08:21:01.000Z</time>
      </trkpt>
      <trkpt lat="47.26487" lon="-1.41577">
        <ele>3.09</ele>
        <time>2022-09-23T08:21:06.000Z</time>
      </trkpt>
      <trkpt lat="47.26504" lon="-1.41548">
        <ele>3.29</ele>
        <time>2022-09-23T08:21:11.000Z</time>
      </trkpt>
      <trkpt lat="47.26523" lon="-1.41517">
        <ele>4.13</ele>
        <time>2022-09-23T08:21:16.000Z</time>
      </trkpt>
      <trkpt lat="47.26544" lon="-1.41484">
        <ele>5.19</ele>
        <time>2022-09-23T08:21:21.000Z</time>
      </trkpt>
      <trkpt lat="47.26564" lon="-1.41453">
        <ele>4.8</ele>
        <time>2022-09-23T08:21:26.000Z</time>
      </trkpt>
      <trkpt lat="47.2658" lon="-1.41417">
        <ele>4.08</ele>
        <time>2022-09-23T08:21:31.000Z</time>
      </trkpt>
      <trkpt lat="47.26594" lon="-1.41383">
        <ele>2.9</ele>
        <time>2022-09-23T08:21:36.000Z</time>
      </trkpt>
      <trkpt lat="47.26608" lon="-1.41348">
        <ele>2.05</ele>
        <time>2022-09-23T08:21:41.000Z</time>
      </trkpt>
      <trkpt lat="47.26624" lon="-1.41317">
        <ele>2.09</ele>
        <time>2022-09-23T08:21:46.000Z</time>
      </trkpt>
      <trkpt lat="47.26644" lon="-1.41288">
        <ele>2.86</ele>
        <time>2022-09-23T08:21:51.000Z</time>
      </trkpt>
      <trkpt lat="47.26663" lon="-1.41261">
        <ele>3.64</ele>
        <time>2022-09-23T08:21:56.000Z</time>
      </trkpt>
      <trkpt lat="47.26681" lon="-1.4123">
        <ele>3.52</ele>
        <time>2022-09-23T08:22:01.000Z</time>
      </trkpt>
      <trkpt lat="47.26702" lon="-1.41205">
        <ele>3.01</ele>
        <time>2022-09-23T08:22:06.000Z</time>
      </trkpt>
      <trkpt lat="47.2672" lon="-1.41181">
        <ele>1.76</ele>
        <time>2022-09-23T08:22:11.000Z</time>
      </trkpt>
      <trkpt lat="47.26741" lon="-1.41156">
        <ele>1.4</ele>
        <time>2022-09-23T08:22:16.000Z</time>
      </trkpt>
      <trkpt lat="47.26762" lon="-1.4113">
        <ele>0.99</ele>
        <time>2022-09-23T08:22:21.000Z</time>
      </trkpt>
      <trkpt lat="47.26777" lon="-1.41101">
        <ele>1.11</ele>
        <time>2022-09-23T08:22:26.000Z</time>
      </trkpt>
      <trkpt lat="47.26787" lon="-1.41067">
        <ele>1.98</ele>
        <time>2022-09-23T08:22:31.000Z</time>
      </trkpt>
      <trkpt lat="47.26799" lon="-1.41035">
        <ele>1.53</ele>
        <time>2022-09-23T08:22:36.000Z</time>
      </trkpt>
      <trkpt lat="47.26821" lon="-1.41007">
        <ele>2.68</ele>
        <time>2022-09-23T08:22:41.000Z</time>
      </trkpt>
      <trkpt lat="47.26836" lon="-1.40978">
        <ele>3.02</ele>
        <time>2022-09-23T08:22:46.000Z</time>
      </trkpt>
      <trkpt lat="47.26845" lon="-1.40955">
        <ele>4.78</ele>
        <time>2022-09-23T08:22:51.000Z</time>
      </trkpt>
      <trkpt lat="47.26858" lon="-1.40937">
        <ele>6.09</ele>
        <time>2022-09-23T08:22:56.000Z</time>
      </trkpt>
      <trkpt lat="47.26874" lon="-1.40906">
        <ele>5.01</ele>
        <time>2022-09-23T08:23:01.000Z</time>
      </trkpt>
      <trkpt lat="47.26895" lon="-1.40862">
        <ele>3.68</ele>
        <time>2022-09-23T08:23:06.000Z</time>
      </trkpt>
      <trkpt lat="47.26913" lon="-1.40825">
        <ele>4.14</ele>
        <time>2022-09-23T08:23:11.000Z</time>
      </trkpt>
      <trkpt lat="47.26927" lon="-1.40789">
        <ele>3.73</ele>
        <time>2022-09-23T08:23:16.000Z</time>
      </trkpt>
      <trkpt lat="47.26934" lon="-1.4075">
        <ele>3.89</ele>
        <time>2022-09-23T08:23:21.000Z</time>
      </trkpt>
      <trkpt lat="47.26935" lon="-1.40703">
        <ele>1.89</ele>
        <time>2022-09-23T08:23:26.000Z</time>
      </trkpt>
      <trkpt lat="47.26938" lon="-1.40663">
        <ele>2.13</ele>
        <time>2022-09-23T08:23:31.000Z</time>
      </trkpt>
      <trkpt lat="47.26939" lon="-1.40632">
        <ele>2.38</ele>
        <time>2022-09-23T08:23:36.000Z</time>
      </trkpt>
      <trkpt lat="47.26945" lon="-1.40603">
        <ele>3.14</ele>
        <time>2022-09-23T08:23:41.000Z</time>
      </trkpt>
      <trkpt lat="47.26952" lon="-1.40573">
        <ele>3.08</ele>
        <time>2022-09-23T08:23:46.000Z</time>
      </trkpt>
      <trkpt lat="47.26965" lon="-1.40544">
        <ele>2.6</ele>
        <time>2022-09-23T08:23:51.000Z</time>
      </trkpt>
      <trkpt lat="47.26984" lon="-1.40514">
        <ele>2.86</ele>
        <time>2022-09-23T08:23:56.000Z</time>
      </trkpt>
      <trkpt lat="47.27003" lon="-1.40486">
        <ele>2.14</ele>
        <time>2022-09-23T08:24:01.000Z</time>
      </trkpt>
      <trkpt lat="47.27023" lon="-1.40455">
        <ele>2.48</ele>
        <time>2022-09-23T08:24:06.000Z</time>
      </trkpt>
      <trkpt lat="47.27041" lon="-1.40426">
        <ele>2.62</ele>
        <time>2022-09-23T08:24:11.000Z</time>
      </trkpt>
      <trkpt lat="47.27058" lon="-1.40399">
        <ele>1.83</ele>
        <time>2022-09-23T08:24:16.000Z</time>
      </trkpt>
      <trkpt lat="47.27077" lon="-1.40372">
        <ele>2.77</ele>
        <time>2022-09-23T08:24:21.000Z</time>
      </trkpt>
      <trkpt lat="47.27094" lon="-1.40345">
        <ele>3.81</ele>
        <time>2022-09-23T08:24:26.000Z</time>
      </trkpt>
      <trkpt lat="47.27112" lon="-1.40316">
        <ele>4.5</ele>
        <time>2022-09-23T08:24:31.000Z</time>
      </trkpt>
      <trkpt lat="47.27131" lon="-1.40288">
        <ele>4.16</ele>
        <time>2022-09-23T08:24:36.000Z</time>
      </trkpt>
      <trkpt lat="47.27148" lon="-1.40259">
        <ele>5.43</ele>
        <time>2022-09-23T08:24:41.000Z</time>
      </trkpt>
      <trkpt lat="47.27167" lon="-1.40228">
        <ele>5.55</ele>
        <time>2022-09-23T08:24:46.000Z</time>
      </trkpt>
      <trkpt lat="47.27186" lon="-1.402">
        <ele>5.57</ele>
        <time>2022-09-23T08:24:51.000Z</time>
      </trkpt>
      <trkpt lat="47.27206" lon="-1.40173">
        <ele>4.45</ele>
        <time>2022-09-23T08:24:56.000Z</time>
      </trkpt>
      <trkpt lat="47.27221" lon="-1.40144">
        <ele>2.92</ele>
        <time>2022-09-23T08:25:01.000Z</time>
      </trkpt>
      <trkpt lat="47.27238" lon="-1.40116">
        <ele>1.16</ele>
        <time>2022-09-23T08:25:06.000Z</time>
      </trkpt>
      <trkpt lat="47.27258" lon="-1.40086">
        <ele>0.1</ele>
        <time>2022-09-23T08:25:11.000Z</time>
      </trkpt>
      <trkpt lat="47.27277" lon="-1.40056">
        <ele>-0.87</ele>
        <time>2022-09-23T08:25:16.000Z</time>
      </trkpt>
      <trkpt lat="47.27296" lon="-1.40027">
        <ele>-1.11</ele>
        <time>2022-09-23T08:25:21.000Z</time>
      </trkpt>
      <trkpt lat="47.27314" lon="-1.39997">
        <ele>0.15</ele>
        <time>2022-09-23T08:25:26.000Z</time>
      </trkpt>
      <trkpt lat="47.27332" lon="-1.3997">
        <ele>3.3</ele>
        <time>2022-09-23T08:25:31.000Z</time>
      </trkpt>
      <trkpt lat="47.27351" lon="-1.39941">
        <ele>5.12</ele>
        <time>2022-09-23T08:25:36.000Z</time>
      </trkpt>
      <trkpt lat="47.27369" lon="-1.39911">
        <ele>6.27</ele>
        <time>2022-09-23T08:25:41.000Z</time>
      </trkpt>
      <trkpt lat="47.27391" lon="-1.39891">
        <ele>5.81</ele>
        <time>2022-09-23T08:25:46.000Z</time>
      </trkpt>
      <trkpt lat="47.27418" lon="-1.39893">
        <ele>4.75</ele>
        <time>2022-09-23T08:25:51.000Z</time>
      </trkpt>
      <trkpt lat="47.27431" lon="-1.39874">
        <ele>4.3</ele>
        <time>2022-09-23T08:25:56.000Z</time>
      </trkpt>
      <trkpt lat="47.2744" lon="-1.39842">
        <ele>6.5</ele>
        <time>2022-09-23T08:26:01.000Z</time>
      </trkpt>
      <trkpt lat="47.27453" lon="-1.39807">
        <ele>6.53</ele>
        <time>2022-09-23T08:26:06.000Z</time>
      </trkpt>
      <trkpt lat="47.27473" lon="-1.39767">
        <ele>4.79</ele>
        <time>2022-09-23T08:26:11.000Z</time>
      </trkpt>
      <trkpt lat="47.27487" lon="-1.39734">
        <ele>5.08</ele>
        <time>2022-09-23T08:26:16.000Z</time>
      </trkpt>
      <trkpt lat="47.27503" lon="-1.39704">
        <ele>4.54</ele>
        <time>2022-09-23T08:26:21.000Z</time>
      </trkpt>
      <trkpt lat="47.27521" lon="-1.39677">
        <ele>3.18</ele>
        <time>2022-09-23T08:26:26.000Z</time>
      </trkpt>
      <trkpt lat="47.27538" lon="-1.39648">
        <ele>2.44</ele>
        <time>2022-09-23T08:26:31.000Z</time>
      </trkpt>
      <trkpt lat="47.27557" lon="-1.3962">
        <ele>3.54</ele>
        <time>2022-09-23T08:26:36.000Z</time>
      </trkpt>
      <trkpt lat="47.27574" lon="-1.39592">
        <ele>5.26</ele>
        <time>2022-09-23T08:26:41.000Z</time>
      </trkpt>
      <trkpt lat="47.27593" lon="-1.39564">
        <ele>4.94</ele>
        <time>2022-09-23T08:26:46.000Z</time>
      </trkpt>
      <trkpt lat="47.27608" lon="-1.39536">
        <ele>3.54</ele>
        <time>2022-09-23T08:26:51.000Z</time>
      </trkpt>
      <trkpt lat="47.27625" lon="-1.39518">
        <ele>3.72</ele>
        <time>2022-09-23T08:26:56.000Z</time>
      </trkpt>
      <trkpt lat="47.27636" lon="-1.39495">
        <ele>4.09</ele>
        <time>2022-09-23T08:27:01.000Z</time>
      </trkpt>
      <trkpt lat="47.27651" lon="-1.39469">
        <ele>3.36</ele>
        <time>2022-09-23T08:27:06.000Z</time>
      </trkpt>
      <trkpt lat="47.27666" lon="-1.39443">
        <ele>2.09</ele>
        <time>2022-09-23T08:27:11.000Z</time>
      </trkpt>
      <trkpt lat="47.27682" lon="-1.39415">
        <ele>1.39</ele>
        <time>2022-09-23T08:27:16.000Z</time>
      </trkpt>
      <trkpt lat="47.27694" lon="-1.39385">
        <ele>0.77</ele>
        <time>2022-09-23T08:27:21.000Z</time>
      </trkpt>
      <trkpt lat="47.27707" lon="-1.39351">
        <ele>1.9</ele>
        <time>2022-09-23T08:27:26.000Z</time>
      </trkpt>
      <trkpt lat="47.27723" lon="-1.3932">
        <ele>3.44</ele>
        <time>2022-09-23T08:27:31.000Z</time>
      </trkpt>
      <trkpt lat="47.27736" lon="-1.39288">
        <ele>5.27</ele>
        <time>2022-09-23T08:27:36.000Z</time>
      </trkpt>
      <trkpt lat="47.27751" lon="-1.39258">
        <ele>6.32</ele>
        <time>2022-09-23T08:27:41.000Z</time>
      </trkpt>
      <trkpt lat="47.27767" lon="-1.39227">
        <ele>6.68</ele>
        <time>2022-09-23T08:27:46.000Z</time>
      </trkpt>
      <trkpt lat="47.27783" lon="-1.39196">
        <ele>6.21</ele>
        <time>2022-09-23T08:27:51.000Z</time>
      </trkpt>
      <trkpt lat="47.27801" lon="-1.39168">
        <ele>6.97</ele>
        <time>2022-09-23T08:27:56.000Z</time>
      </trkpt>
      <trkpt lat="47.27819" lon="-1.39139">
        <ele>6.77</ele>
        <time>2022-09-23T08:28:01.000Z</time>
      </trkpt>
      <trkpt lat="47.27836" lon="-1.39113">
        <ele>6.67</ele>
        <time>2022-09-23T08:28:06.000Z</time>
      </trkpt>
      <trkpt lat="47.27853" lon="-1.39084">
        <ele>6.86</ele>
        <time>2022-09-23T08:28:11.000Z</time>
      </trkpt>
      <trkpt lat="47.27869" lon="-1.39054">
        <ele>7.38</ele>
        <time>2022-09-23T08:28:16.000Z</time>
      </trkpt>
      <trkpt lat="47.27886" lon="-1.39027">
        <ele>6.03</ele>
        <time>2022-09-23T08:28:21.000Z</time>
      </trkpt>
      <trkpt lat="47.27903" lon="-1.39001">
        <ele>4.84</ele>
        <time>2022-09-23T08:28:26.000Z</time>
      </trkpt>
      <trkpt lat="47.2792" lon="-1.38972">
        <ele>4.92</ele>
        <time>2022-09-23T08:28:31.000Z</time>
      </trkpt>
      <trkpt lat="47.27936" lon="-1.38944">
        <ele>4.04</ele>
        <time>2022-09-23T08:28:36.000Z</time>
      </trkpt>
      <trkpt lat="47.27954" lon="-1.38917">
        <ele>1.33</ele>
        <time>2022-09-23T08:28:41.000Z</time>
      </trkpt>
      <trkpt lat="47.27971" lon="-1.38889">
        <ele>0.23</ele>
        <time>2022-09-23T08:28:46.000Z</time>
      </trkpt>
      <trkpt lat="47.27989" lon="-1.38862">
        <ele>0.53</ele>
        <time>2022-09-23T08:28:51.000Z</time>
      </trkpt>
      <trkpt lat="47.28008" lon="-1.3884">
        <ele>-0.44</ele>
        <time>2022-09-23T08:28:56.000Z</time>
      </trkpt>
      <trkpt lat="47.2803" lon="-1.38819">
        <ele>-0.86</ele>
        <time>2022-09-23T08:29:01.000Z</time>
      </trkpt>
      <trkpt lat="47.28054" lon="-1.38802">
        <ele>-0.28</ele>
        <time>2022-09-23T08:29:06.000Z</time>
      </trkpt>
      <trkpt lat="47.28079" lon="-1.38785">
        <ele>0.31</ele>
        <time>2022-09-23T08:29:11.000Z</time>
      </trkpt>
      <trkpt lat="47.28104" lon="-1.38776">
        <ele>1.16</ele>
        <time>2022-09-23T08:29:16.000Z</time>
      </trkpt>
      <trkpt lat="47.28123" lon="-1.38762">
        <ele>1.51</ele>
        <time>2022-09-23T08:29:21.000Z</time>
      </trkpt>
      <trkpt lat="47.28135" lon="-1.38755">
        <ele>0.3</ele>
        <time>2022-09-23T08:30:55.000Z</time>
      </trkpt>
      <trkpt lat="47.28145" lon="-1.38746">
        <ele>-0.42</ele>
        <time>2022-09-23T08:31:00.000Z</time>
      </trkpt>
      <trkpt lat="47.28158" lon="-1.38731">
        <ele>-0.38</ele>
        <time>2022-09-23T08:31:05.000Z</time>
      </trkpt>
      <trkpt lat="47.28172" lon="-1.38716">
        <ele>0.06</ele>
        <time>2022-09-23T08:31:10.000Z</time>
      </trkpt>
      <trkpt lat="47.2818" lon="-1.38695">
        <ele>-0.82</ele>
        <time>2022-09-23T08:31:15.000Z</time>
      </trkpt>
      <trkpt lat="47.28185" lon="-1.3867">
        <ele>-0.96</ele>
        <time>2022-09-23T08:31:20.000Z</time>
      </trkpt>
      <trkpt lat="47.28188" lon="-1.38643">
        <ele>-0.74</ele>
        <time>2022-09-23T08:31:25.000Z</time>
      </trkpt>
      <trkpt lat="47.28187" lon="-1.38623">
        <ele>-0.53</ele>
        <time>2022-09-23T08:31:30.000Z</time>
      </trkpt>
      <trkpt lat="47.28188" lon="-1.38604">
        <ele>-0.19</ele>
        <time>2022-09-23T08:31:35.000Z</time>
      </trkpt>
      <trkpt lat="47.28191" lon="-1.38586">
        <ele>1.62</ele>
        <time>2022-09-23T08:31:40.000Z</time>
      </trkpt>
      <trkpt lat="47.28192" lon="-1.38567">
        <ele>3.37</ele>
        <time>2022-09-23T08:31:45.000Z</time>
      </trkpt>
      <trkpt lat="47.28194" lon="-1.38549">
        <ele>3.98</ele>
        <time>2022-09-23T08:31:50.000Z</time>
      </trkpt>
      <trkpt lat="47.28195" lon="-1.38532">
        <ele>5.21</ele>
        <time>2022-09-23T08:31:55.000Z</time>
      </trkpt>
      <trkpt lat="47.28192" lon="-1.38517">
        <ele>4.88</ele>
        <time>2022-09-23T08:32:00.000Z</time>
      </trkpt>
      <trkpt lat="47.28199" lon="-1.38495">
        <ele>3.07</ele>
        <time>2022-09-23T08:32:05.000Z</time>
      </trkpt>
      <trkpt lat="47.28209" lon="-1.38471">
        <ele>2.67</ele>
        <time>2022-09-23T08:32:10.000Z</time>
      </trkpt>
      <trkpt lat="47.2822" lon="-1.38449">
        <ele>3.1</ele>
        <time>2022-09-23T08:32:15.000Z</time>
      </trkpt>
      <trkpt lat="47.28234" lon="-1.3843">
        <ele>4.89</ele>
        <time>2022-09-23T08:32:20.000Z</time>
      </trkpt>
      <trkpt lat="47.28245" lon="-1.38418">
        <ele>6.41</ele>
        <time>2022-09-23T08:32:25.000Z</time>
      </trkpt>
      <trkpt lat="47.28241" lon="-1.38432">
        <ele>5.93</ele>
        <time>2022-09-23T08:32:38.000Z</time>
      </trkpt>
      <trkpt lat="47.2825" lon="-1.38419">
        <ele>3.5</ele>
        <time>2022-09-23T08:32:46.000Z</time>
      </trkpt>
      <trkpt lat="47.28263" lon="-1.38385">
        <ele>2.05</ele>
        <time>2022-09-23T08:32:51.000Z</time>
      </trkpt>
      <trkpt lat="47.28279" lon="-1.38351">
        <ele>2.08</ele>
        <time>2022-09-23T08:32:56.000Z</time>
      </trkpt>
      <trkpt lat="47.28295" lon="-1.38315">
        <ele>0.99</ele>
        <time>2022-09-23T08:33:01.000Z</time>
      </trkpt>
      <trkpt lat="47.28312" lon="-1.38286">
        <ele>1.55</ele>
        <time>2022-09-23T08:33:06.000Z</time>
      </trkpt>
      <trkpt lat="47.28337" lon="-1.38265">
        <ele>2.72</ele>
        <time>2022-09-23T08:33:11.000Z</time>
      </trkpt>
      <trkpt lat="47.28351" lon="-1.38237">
        <ele>3.24</ele>
        <time>2022-09-23T08:33:16.000Z</time>
      </trkpt>
      <trkpt lat="47.28356" lon="-1.38206">
        <ele>3.92</ele>
        <time>2022-09-23T08:33:21.000Z</time>
      </trkpt>
      <trkpt lat="47.28363" lon="-1.38175">
        <ele>2.59</ele>
        <time>2022-09-23T08:33:26.000Z</time>
      </trkpt>
      <trkpt lat="47.28374" lon="-1.38144">
        <ele>1.37</ele>
        <time>2022-09-23T08:33:31.000Z</time>
      </trkpt>
      <trkpt lat="47.28388" lon="-1.38118">
        <ele>1.16</ele>
        <time>2022-09-23T08:33:36.000Z</time>
      </trkpt>
      <trkpt lat="47.28407" lon="-1.38095">
        <ele>1.89</ele>
        <time>2022-09-23T08:33:41.000Z</time>
      </trkpt>
      <trkpt lat="47.28426" lon="-1.38072">
        <ele>1.46</ele>
        <time>2022-09-23T08:33:46.000Z</time>
      </trkpt>
      <trkpt lat="47.28446" lon="-1.3805">
        <ele>0.63</ele>
        <time>2022-09-23T08:33:51.000Z</time>
      </trkpt>
      <trkpt lat="47.28464" lon="-1.38031">
        <ele>1.49</ele>
        <time>2022-09-23T08:33:56.000Z</time>
      </trkpt>
      <trkpt lat="47.28487" lon="-1.38029">
        <ele>0.27</ele>
        <time>2022-09-23T08:34:01.000Z</time>
      </trkpt>
      <trkpt lat="47.28506" lon="-1.38013">
        <ele>0.98</ele>
        <time>2022-09-23T08:34:06.000Z</time>
      </trkpt>
      <trkpt lat="47.28513" lon="-1.37998">
        <ele>2.17</ele>
        <time>2022-09-23T08:34:11.000Z</time>
      </trkpt>
      <trkpt lat="47.2852" lon="-1.37988">
        <ele>4.25</ele>
        <time>2022-09-23T08:34:37.000Z</time>
      </trkpt>
      <trkpt lat="47.28525" lon="-1.37971">
        <ele>5.33</ele>
        <time>2022-09-23T08:34:42.000Z</time>
      </trkpt>
      <trkpt lat="47.28534" lon="-1.37951">
        <ele>5.11</ele>
        <time>2022-09-23T08:34:47.000Z</time>
      </trkpt>
      <trkpt lat="47.28548" lon="-1.37934">
        <ele>5.32</ele>
        <time>2022-09-23T08:34:52.000Z</time>
      </trkpt>
      <trkpt lat="47.28566" lon="-1.37913">
        <ele>5.24</ele>
        <time>2022-09-23T08:34:57.000Z</time>
      </trkpt>
      <trkpt lat="47.28585" lon="-1.3789">
        <ele>4.5</ele>
        <time>2022-09-23T08:35:02.000Z</time>
      </trkpt>
      <trkpt lat="47.28604" lon="-1.37866">
        <ele>3.35</ele>
        <time>2022-09-23T08:35:07.000Z</time>
      </trkpt>
      <trkpt lat="47.28623" lon="-1.37842">
        <ele>1.77</ele>
        <time>2022-09-23T08:35:12.000Z</time>
      </trkpt>
      <trkpt lat="47.28644" lon="-1.37818">
        <ele>1.21</ele>
        <time>2022-09-23T08:35:17.000Z</time>
      </trkpt>
      <trkpt lat="47.28664" lon="-1.37795">
        <ele>0.6</ele>
        <time>2022-09-23T08:35:22.000Z</time>
      </trkpt>
      <trkpt lat="47.28682" lon="-1.37775">
        <ele>2.1</ele>
        <time>2022-09-23T08:35:27.000Z</time>
      </trkpt>
      <trkpt lat="47.28699" lon="-1.37757">
        <ele>1.88</ele>
        <time>2022-09-23T08:35:32.000Z</time>
      </trkpt>
      <trkpt lat="47.28713" lon="-1.37738">
        <ele>1.27</ele>
        <time>2022-09-23T08:35:37.000Z</time>
      </trkpt>
      <trkpt lat="47.28723" lon="-1.37727">
        <ele>1.28</ele>
        <time>2022-09-23T08:35:42.000Z</time>
      </trkpt>
      <trkpt lat="47.28729" lon="-1.37717">
        <ele>2.26</ele>
        <time>2022-09-23T08:35:47.000Z</time>
      </trkpt>
      <trkpt lat="47.28737" lon="-1.37699">
        <ele>3.97</ele>
        <time>2022-09-23T08:35:52.000Z</time>
      </trkpt>
      <trkpt lat="47.28752" lon="-1.37679">
        <ele>6.4</ele>
        <time>2022-09-23T08:35:57.000Z</time>
      </trkpt>
      <trkpt lat="47.28769" lon="-1.37659">
        <ele>7.06</ele>
        <time>2022-09-23T08:36:02.000Z</time>
      </trkpt>
      <trkpt lat="47.28786" lon="-1.37638">
        <ele>7.76</ele>
        <time>2022-09-23T08:36:07.000Z</time>
      </trkpt>
      <trkpt lat="47.28803" lon="-1.37618">
        <ele>9.3</ele>
        <time>2022-09-23T08:36:12.000Z</time>
      </trkpt>
      <trkpt lat="47.28817" lon="-1.37597">
        <ele>11.1</ele>
        <time>2022-09-23T08:36:17.000Z</time>
      </trkpt>
      <trkpt lat="47.28823" lon="-1.37574">
        <ele>11.06</ele>
        <time>2022-09-23T08:36:22.000Z</time>
      </trkpt>
      <trkpt lat="47.28836" lon="-1.37562">
        <ele>9.62</ele>
        <time>2022-09-23T08:38:28.000Z</time>
      </trkpt>
      <trkpt lat="47.28839" lon="-1.37543">
        <ele>9.12</ele>
        <time>2022-09-23T08:38:33.000Z</time>
      </trkpt>
      <trkpt lat="47.28852" lon="-1.37514">
        <ele>8.37</ele>
        <time>2022-09-23T08:38:38.000Z</time>
      </trkpt>
      <trkpt lat="47.28865" lon="-1.37479">
        <ele>7.64</ele>
        <time>2022-09-23T08:38:43.000Z</time>
      </trkpt>
      <trkpt lat="47.28878" lon="-1.37442">
        <ele>7.16</ele>
        <time>2022-09-23T08:38:48.000Z</time>
      </trkpt>
      <trkpt lat="47.28891" lon="-1.37403">
        <ele>6.07</ele>
        <time>2022-09-23T08:38:53.000Z</time>
      </trkpt>
      <trkpt lat="47.28905" lon="-1.37362">
        <ele>6.73</ele>
        <time>2022-09-23T08:38:58.000Z</time>
      </trkpt>
      <trkpt lat="47.28917" lon="-1.37323">
        <ele>6.82</ele>
        <time>2022-09-23T08:39:03.000Z</time>
      </trkpt>
      <trkpt lat="47.2893" lon="-1.37285">
        <ele>5.69</ele>
        <time>2022-09-23T08:39:08.000Z</time>
      </trkpt>
      <trkpt lat="47.28939" lon="-1.37248">
        <ele>3.4</ele>
        <time>2022-09-23T08:39:13.000Z</time>
      </trkpt>
      <trkpt lat="47.28951" lon="-1.37213">
        <ele>1.68</ele>
        <time>2022-09-23T08:39:18.000Z</time>
      </trkpt>
      <trkpt lat="47.28964" lon="-1.37176">
        <ele>0.57</ele>
        <time>2022-09-23T08:39:23.000Z</time>
      </trkpt>
      <trkpt lat="47.28978" lon="-1.3714">
        <ele>-0.41</ele>
        <time>2022-09-23T08:39:28.000Z</time>
      </trkpt>
      <trkpt lat="47.28994" lon="-1.37107">
        <ele>-0.55</ele>
        <time>2022-09-23T08:39:33.000Z</time>
      </trkpt>
      <trkpt lat="47.29013" lon="-1.37076">
        <ele>0.67</ele>
        <time>2022-09-23T08:39:38.000Z</time>
      </trkpt>
      <trkpt lat="47.29028" lon="-1.37044">
        <ele>1.59</ele>
        <time>2022-09-23T08:39:43.000Z</time>
      </trkpt>
      <trkpt lat="47.29045" lon="-1.37012">
        <ele>2.89</ele>
        <time>2022-09-23T08:39:48.000Z</time>
      </trkpt>
      <trkpt lat="47.29063" lon="-1.36991">
        <ele>4.52</ele>
        <time>2022-09-23T08:39:53.000Z</time>
      </trkpt>
      <trkpt lat="47.29075" lon="-1.36984">
        <ele>4.87</ele>
        <time>2022-09-23T08:39:58.000Z</time>
      </trkpt>
      <trkpt lat="47.29081" lon="-1.36974">
        <ele>3.73</ele>
        <time>2022-09-23T08:40:10.000Z</time>
      </trkpt>
      <trkpt lat="47.29092" lon="-1.36938">
        <ele>2.59</ele>
        <time>2022-09-23T08:40:15.000Z</time>
      </trkpt>
      <trkpt lat="47.29108" lon="-1.36904">
        <ele>1.47</ele>
        <time>2022-09-23T08:40:20.000Z</time>
      </trkpt>
      <trkpt lat="47.29125" lon="-1.36871">
        <ele>1.18</ele>
        <time>2022-09-23T08:40:25.000Z</time>
      </trkpt>
      <trkpt lat="47.29141" lon="-1.36837">
        <ele>0.94</ele>
        <time>2022-09-23T08:40:30.000Z</time>
      </trkpt>
      <trkpt lat="47.29157" lon="-1.36805">
        <ele>-0.01</ele>
        <time>2022-09-23T08:40:35.000Z</time>
      </trkpt>
      <trkpt lat="47.29172" lon="-1.36773">
        <ele>-0.46</ele>
        <time>2022-09-23T08:40:40.000Z</time>
      </trkpt>
      <trkpt lat="47.29188" lon="-1.36742">
        <ele>0.06</ele>
        <time>2022-09-23T08:40:45.000Z</time>
      </trkpt>
      <trkpt lat="47.29206" lon="-1.36711">
        <ele>1.01</ele>
        <time>2022-09-23T08:40:50.000Z</time>
      </trkpt>
      <trkpt lat="47.29223" lon="-1.36678">
        <ele>0.25</ele>
        <time>2022-09-23T08:40:55.000Z</time>
      </trkpt>
      <trkpt lat="47.29242" lon="-1.36646">
        <ele>-0.11</ele>
        <time>2022-09-23T08:41:00.000Z</time>
      </trkpt>
      <trkpt lat="47.29262" lon="-1.36613">
        <ele>1.09</ele>
        <time>2022-09-23T08:41:05.000Z</time>
      </trkpt>
      <trkpt lat="47.2928" lon="-1.36579">
        <ele>0.44</ele>
        <time>2022-09-23T08:41:10.000Z</time>
      </trkpt>
      <trkpt lat="47.29294" lon="-1.36545">
        <ele>-0.33</ele>
        <time>2022-09-23T08:41:15.000Z</time>
      </trkpt>
      <trkpt lat="47.2931" lon="-1.36512">
        <ele>-2.07</ele>
        <time>2022-09-23T08:41:20.000Z</time>
      </trkpt>
      <trkpt lat="47.29328" lon="-1.36479">
        <ele>-3.4</ele>
        <time>2022-09-23T08:41:25.000Z</time>
      </trkpt>
      <trkpt lat="47.29349" lon="-1.36448">
        <ele>-2.92</ele>
        <time>2022-09-23T08:41:30.000Z</time>
      </trkpt>
      <trkpt lat="47.29363" lon="-1.36416">
        <ele>-2.45</ele>
        <time>2022-09-23T08:41:35.000Z</time>
      </trkpt>
      <trkpt lat="47.29378" lon="-1.36383">
        <ele>-3</ele>
        <time>2022-09-23T08:41:40.000Z</time>
      </trkpt>
      <trkpt lat="47.29393" lon="-1.36351">
        <ele>-3.86</ele>
        <time>2022-09-23T08:41:45.000Z</time>
      </trkpt>
      <trkpt lat="47.29411" lon="-1.36318">
        <ele>-4.46</ele>
        <time>2022-09-23T08:41:50.000Z</time>
      </trkpt>
      <trkpt lat="47.29426" lon="-1.36287">
        <ele>-5.76</ele>
        <time>2022-09-23T08:41:55.000Z</time>
      </trkpt>
      <trkpt lat="47.29443" lon="-1.36255">
        <ele>-5.87</ele>
        <time>2022-09-23T08:42:00.000Z</time>
      </trkpt>
      <trkpt lat="47.2946" lon="-1.36223">
        <ele>-5.99</ele>
        <time>2022-09-23T08:42:05.000Z</time>
      </trkpt>
      <trkpt lat="47.29475" lon="-1.36191">
        <ele>-6.49</ele>
        <time>2022-09-23T08:42:10.000Z</time>
      </trkpt>
      <trkpt lat="47.29489" lon="-1.36159">
        <ele>-6.59</ele>
        <time>2022-09-23T08:42:15.000Z</time>
      </trkpt>
      <trkpt lat="47.29504" lon="-1.36131">
        <ele>-5.7</ele>
        <time>2022-09-23T08:42:20.000Z</time>
      </trkpt>
      <trkpt lat="47.29522" lon="-1.361">
        <ele>-4.81</ele>
        <time>2022-09-23T08:42:25.000Z</time>
      </trkpt>
      <trkpt lat="47.2954" lon="-1.36065">
        <ele>-2.56</ele>
        <time>2022-09-23T08:42:30.000Z</time>
      </trkpt>
      <trkpt lat="47.29558" lon="-1.36033">
        <ele>-2.64</ele>
        <time>2022-09-23T08:42:35.000Z</time>
      </trkpt>
      <trkpt lat="47.29573" lon="-1.36001">
        <ele>-2.86</ele>
        <time>2022-09-23T08:42:40.000Z</time>
      </trkpt>
      <trkpt lat="47.29589" lon="-1.35968">
        <ele>-3.96</ele>
        <time>2022-09-23T08:42:45.000Z</time>
      </trkpt>
      <trkpt lat="47.29605" lon="-1.35935">
        <ele>-5.42</ele>
        <time>2022-09-23T08:42:50.000Z</time>
      </trkpt>
      <trkpt lat="47.29622" lon="-1.35903">
        <ele>-5.13</ele>
        <time>2022-09-23T08:42:55.000Z</time>
      </trkpt>
      <trkpt lat="47.29639" lon="-1.35872">
        <ele>-4.04</ele>
        <time>2022-09-23T08:43:00.000Z</time>
      </trkpt>
      <trkpt lat="47.29654" lon="-1.3584">
        <ele>-5.77</ele>
        <time>2022-09-23T08:43:05.000Z</time>
      </trkpt>
      <trkpt lat="47.29675" lon="-1.35811">
        <ele>-3.78</ele>
        <time>2022-09-23T08:43:10.000Z</time>
      </trkpt>
      <trkpt lat="47.29696" lon="-1.35792">
        <ele>-1.31</ele>
        <time>2022-09-23T08:43:15.000Z</time>
      </trkpt>
      <trkpt lat="47.29701" lon="-1.35759">
        <ele>0.09</ele>
        <time>2022-09-23T08:43:20.000Z</time>
      </trkpt>
      <trkpt lat="47.29716" lon="-1.35725">
        <ele>0.99</ele>
        <time>2022-09-23T08:43:25.000Z</time>
      </trkpt>
      <trkpt lat="47.29732" lon="-1.35694">
        <ele>-0.02</ele>
        <time>2022-09-23T08:43:30.000Z</time>
      </trkpt>
      <trkpt lat="47.2975" lon="-1.35673">
        <ele>0.05</ele>
        <time>2022-09-23T08:43:35.000Z</time>
      </trkpt>
      <trkpt lat="47.29764" lon="-1.35644">
        <ele>-0.64</ele>
        <time>2022-09-23T08:43:40.000Z</time>
      </trkpt>
      <trkpt lat="47.29776" lon="-1.35611">
        <ele>-1.02</ele>
        <time>2022-09-23T08:43:45.000Z</time>
      </trkpt>
      <trkpt lat="47.2979" lon="-1.35582">
        <ele>-1.59</ele>
        <time>2022-09-23T08:43:50.000Z</time>
      </trkpt>
      <trkpt lat="47.29807" lon="-1.3555">
        <ele>-2.07</ele>
        <time>2022-09-23T08:43:55.000Z</time>
      </trkpt>
      <trkpt lat="47.2982" lon="-1.35519">
        <ele>-2.14</ele>
        <time>2022-09-23T08:44:00.000Z</time>
      </trkpt>
      <trkpt lat="47.29837" lon="-1.35487">
        <ele>-2.09</ele>
        <time>2022-09-23T08:44:05.000Z</time>
      </trkpt>
      <trkpt lat="47.29854" lon="-1.35455">
        <ele>-2.52</ele>
        <time>2022-09-23T08:44:10.000Z</time>
      </trkpt>
      <trkpt lat="47.29871" lon="-1.35422">
        <ele>-3.16</ele>
        <time>2022-09-23T08:44:15.000Z</time>
      </trkpt>
      <trkpt lat="47.29889" lon="-1.35389">
        <ele>-2.21</ele>
        <time>2022-09-23T08:44:20.000Z</time>
      </trkpt>
      <trkpt lat="47.29906" lon="-1.35358">
        <ele>-1.56</ele>
        <time>2022-09-23T08:44:25.000Z</time>
      </trkpt>
      <trkpt lat="47.29923" lon="-1.35324">
        <ele>-2.38</ele>
        <time>2022-09-23T08:44:30.000Z</time>
      </trkpt>
      <trkpt lat="47.2994" lon="-1.35293">
        <ele>-2.04</ele>
        <time>2022-09-23T08:44:35.000Z</time>
      </trkpt>
      <trkpt lat="47.29958" lon="-1.3526">
        <ele>-1.85</ele>
        <time>2022-09-23T08:44:40.000Z</time>
      </trkpt>
      <trkpt lat="47.29975" lon="-1.35227">
        <ele>-1.46</ele>
        <time>2022-09-23T08:44:45.000Z</time>
      </trkpt>
      <trkpt lat="47.2999" lon="-1.35192">
        <ele>-2.15</ele>
        <time>2022-09-23T08:44:50.000Z</time>
      </trkpt>
      <trkpt lat="47.30006" lon="-1.35158">
        <ele>-3.71</ele>
        <time>2022-09-23T08:44:55.000Z</time>
      </trkpt>
      <trkpt lat="47.30024" lon="-1.35124">
        <ele>-4.81</ele>
        <time>2022-09-23T08:45:00.000Z</time>
      </trkpt>
      <trkpt lat="47.30038" lon="-1.35091">
        <ele>-4.06</ele>
        <time>2022-09-23T08:45:05.000Z</time>
      </trkpt>
      <trkpt lat="47.30053" lon="-1.35057">
        <ele>-2.63</ele>
        <time>2022-09-23T08:45:10.000Z</time>
      </trkpt>
      <trkpt lat="47.30066" lon="-1.35023">
        <ele>-0.92</ele>
        <time>2022-09-23T08:45:15.000Z</time>
      </trkpt>
      <trkpt lat="47.30077" lon="-1.34992">
        <ele>0.05</ele>
        <time>2022-09-23T08:45:20.000Z</time>
      </trkpt>
      <trkpt lat="47.30086" lon="-1.34965">
        <ele>0.82</ele>
        <time>2022-09-23T08:45:25.000Z</time>
      </trkpt>
      <trkpt lat="47.30093" lon="-1.34942">
        <ele>4.37</ele>
        <time>2022-09-23T08:45:30.000Z</time>
      </trkpt>
      <trkpt lat="47.30098" lon="-1.3491">
        <ele>4.73</ele>
        <time>2022-09-23T08:45:35.000Z</time>
      </trkpt>
      <trkpt lat="47.30104" lon="-1.34871">
        <ele>3.88</ele>
        <time>2022-09-23T08:45:40.000Z</time>
      </trkpt>
      <trkpt lat="47.30114" lon="-1.34832">
        <ele>4.15</ele>
        <time>2022-09-23T08:45:45.000Z</time>
      </trkpt>
      <trkpt lat="47.30143" lon="-1.34823">
        <ele>5.1</ele>
        <time>2022-09-23T08:45:50.000Z</time>
      </trkpt>
      <trkpt lat="47.30164" lon="-1.348">
        <ele>3.09</ele>
        <time>2022-09-23T08:45:55.000Z</time>
      </trkpt>
      <trkpt lat="47.30161" lon="-1.34758">
        <ele>1.55</ele>
        <time>2022-09-23T08:46:00.000Z</time>
      </trkpt>
      <trkpt lat="47.30161" lon="-1.34717">
        <ele>0.09</ele>
        <time>2022-09-23T08:46:05.000Z</time>
      </trkpt>
      <trkpt lat="47.30163" lon="-1.3469">
        <ele>-1.15</ele>
        <time>2022-09-23T08:46:10.000Z</time>
      </trkpt>
      <trkpt lat="47.30158" lon="-1.34663">
        <ele>-2.05</ele>
        <time>2022-09-23T08:46:15.000Z</time>
      </trkpt>
      <trkpt lat="47.30157" lon="-1.34627">
        <ele>-2.57</ele>
        <time>2022-09-23T08:46:20.000Z</time>
      </trkpt>
      <trkpt lat="47.30158" lon="-1.34585">
        <ele>-2.77</ele>
        <time>2022-09-23T08:46:25.000Z</time>
      </trkpt>
      <trkpt lat="47.30151" lon="-1.34557">
        <ele>-3.11</ele>
        <time>2022-09-23T08:46:30.000Z</time>
      </trkpt>
      <trkpt lat="47.30133" lon="-1.34548">
        <ele>-2.54</ele>
        <time>2022-09-23T08:46:35.000Z</time>
      </trkpt>
      <trkpt lat="47.30112" lon="-1.34542">
        <ele>-2.07</ele>
        <time>2022-09-23T08:46:40.000Z</time>
      </trkpt>
      <trkpt lat="47.30121" lon="-1.34542">
        <ele>-3.61</ele>
        <time>2022-09-23T08:47:06.000Z</time>
      </trkpt>
      <trkpt lat="47.30112" lon="-1.34536">
        <ele>-0.3</ele>
        <time>2022-09-23T08:48:08.000Z</time>
      </trkpt>
      <trkpt lat="47.30097" lon="-1.34507">
        <ele>-0.45</ele>
        <time>2022-09-23T08:48:13.000Z</time>
      </trkpt>
      <trkpt lat="47.30086" lon="-1.3447">
        <ele>-0.32</ele>
        <time>2022-09-23T08:48:18.000Z</time>
      </trkpt>
      <trkpt lat="47.30076" lon="-1.34429">
        <ele>-1.13</ele>
        <time>2022-09-23T08:48:23.000Z</time>
      </trkpt>
      <trkpt lat="47.30065" lon="-1.3439">
        <ele>-1.36</ele>
        <time>2022-09-23T08:48:28.000Z</time>
      </trkpt>
      <trkpt lat="47.30055" lon="-1.3435">
        <ele>-2.52</ele>
        <time>2022-09-23T08:48:33.000Z</time>
      </trkpt>
      <trkpt lat="47.30046" lon="-1.34312">
        <ele>-4.44</ele>
        <time>2022-09-23T08:48:38.000Z</time>
      </trkpt>
      <trkpt lat="47.30038" lon="-1.34275">
        <ele>-3.11</ele>
        <time>2022-09-23T08:48:43.000Z</time>
      </trkpt>
      <trkpt lat="47.30031" lon="-1.34237">
        <ele>-3.21</ele>
        <time>2022-09-23T08:48:48.000Z</time>
      </trkpt>
      <trkpt lat="47.30024" lon="-1.342">
        <ele>-2.16</ele>
        <time>2022-09-23T08:48:53.000Z</time>
      </trkpt>
      <trkpt lat="47.30017" lon="-1.34161">
        <ele>-1.43</ele>
        <time>2022-09-23T08:48:58.000Z</time>
      </trkpt>
      <trkpt lat="47.3002" lon="-1.34127">
        <ele>2.92</ele>
        <time>2022-09-23T08:49:03.000Z</time>
      </trkpt>
      <trkpt lat="47.30042" lon="-1.34107">
        <ele>5.49</ele>
        <time>2022-09-23T08:49:08.000Z</time>
      </trkpt>
      <trkpt lat="47.30065" lon="-1.34102">
        <ele>5.36</ele>
        <time>2022-09-23T08:49:13.000Z</time>
      </trkpt>
      <trkpt lat="47.30082" lon="-1.34119">
        <ele>4.13</ele>
        <time>2022-09-23T08:49:18.000Z</time>
      </trkpt>
      <trkpt lat="47.30098" lon="-1.34139">
        <ele>1.28</ele>
        <time>2022-09-23T08:49:23.000Z</time>
      </trkpt>
      <trkpt lat="47.30109" lon="-1.3413">
        <ele>1.14</ele>
        <time>2022-09-23T08:49:28.000Z</time>
      </trkpt>
      <trkpt lat="47.30116" lon="-1.34098">
        <ele>2.26</ele>
        <time>2022-09-23T08:49:33.000Z</time>
      </trkpt>
      <trkpt lat="47.30131" lon="-1.34074">
        <ele>3.19</ele>
        <time>2022-09-23T08:49:38.000Z</time>
      </trkpt>
      <trkpt lat="47.30153" lon="-1.34055">
        <ele>2.95</ele>
        <time>2022-09-23T08:49:43.000Z</time>
      </trkpt>
      <trkpt lat="47.30174" lon="-1.34034">
        <ele>2.92</ele>
        <time>2022-09-23T08:49:48.000Z</time>
      </trkpt>
      <trkpt lat="47.30196" lon="-1.34014">
        <ele>3.93</ele>
        <time>2022-09-23T08:49:53.000Z</time>
      </trkpt>
      <trkpt lat="47.30213" lon="-1.33999">
        <ele>3.96</ele>
        <time>2022-09-23T08:49:58.000Z</time>
      </trkpt>
      <trkpt lat="47.30223" lon="-1.34016">
        <ele>3</ele>
        <time>2022-09-23T08:50:03.000Z</time>
      </trkpt>
      <trkpt lat="47.3023" lon="-1.34041">
        <ele>0.41</ele>
        <time>2022-09-23T08:50:08.000Z</time>
      </trkpt>
      <trkpt lat="47.30239" lon="-1.34067">
        <ele>-1.6</ele>
        <time>2022-09-23T08:50:13.000Z</time>
      </trkpt>
      <trkpt lat="47.3025" lon="-1.3409">
        <ele>-3.07</ele>
        <time>2022-09-23T08:50:18.000Z</time>
      </trkpt>
      <trkpt lat="47.30269" lon="-1.34096">
        <ele>-0.98</ele>
        <time>2022-09-23T08:50:23.000Z</time>
      </trkpt>
      <trkpt lat="47.30285" lon="-1.34079">
        <ele>0.4</ele>
        <time>2022-09-23T08:50:28.000Z</time>
      </trkpt>
      <trkpt lat="47.30303" lon="-1.34062">
        <ele>0.31</ele>
        <time>2022-09-23T08:50:33.000Z</time>
      </trkpt>
      <trkpt lat="47.30317" lon="-1.34044">
        <ele>0.17</ele>
        <time>2022-09-23T08:50:38.000Z</time>
      </trkpt>
      <trkpt lat="47.30327" lon="-1.34029">
        <ele>1.02</ele>
        <time>2022-09-23T08:50:43.000Z</time>
      </trkpt>
      <trkpt lat="47.3034" lon="-1.3401">
        <ele>4.13</ele>
        <time>2022-09-23T08:50:48.000Z</time>
      </trkpt>
      <trkpt lat="47.30352" lon="-1.33989">
        <ele>5.15</ele>
        <time>2022-09-23T08:50:53.000Z</time>
      </trkpt>
      <trkpt lat="47.30362" lon="-1.33967">
        <ele>5.01</ele>
        <time>2022-09-23T08:50:58.000Z</time>
      </trkpt>
      <trkpt lat="47.30376" lon="-1.33962">
        <ele>5.62</ele>
        <time>2022-09-23T08:51:03.000Z</time>
      </trkpt>
      <trkpt lat="47.3039" lon="-1.33946">
        <ele>7.47</ele>
        <time>2022-09-23T08:51:08.000Z</time>
      </trkpt>
      <trkpt lat="47.30404" lon="-1.33926">
        <ele>8.92</ele>
        <time>2022-09-23T08:51:13.000Z</time>
      </trkpt>
      <trkpt lat="47.30424" lon="-1.33907">
        <ele>12.14</ele>
        <time>2022-09-23T08:51:18.000Z</time>
      </trkpt>
      <trkpt lat="47.30444" lon="-1.33884">
        <ele>12</ele>
        <time>2022-09-23T08:51:23.000Z</time>
      </trkpt>
      <trkpt lat="47.30462" lon="-1.33865">
        <ele>11.34</ele>
        <time>2022-09-23T08:51:28.000Z</time>
      </trkpt>
      <trkpt lat="47.30483" lon="-1.33845">
        <ele>9.35</ele>
        <time>2022-09-23T08:51:33.000Z</time>
      </trkpt>
      <trkpt lat="47.30505" lon="-1.33828">
        <ele>7.38</ele>
        <time>2022-09-23T08:51:38.000Z</time>
      </trkpt>
      <trkpt lat="47.30527" lon="-1.33814">
        <ele>6.21</ele>
        <time>2022-09-23T08:51:43.000Z</time>
      </trkpt>
      <trkpt lat="47.30551" lon="-1.338">
        <ele>5.74</ele>
        <time>2022-09-23T08:51:48.000Z</time>
      </trkpt>
      <trkpt lat="47.30574" lon="-1.33785">
        <ele>4.87</ele>
        <time>2022-09-23T08:51:53.000Z</time>
      </trkpt>
      <trkpt lat="47.30597" lon="-1.33775">
        <ele>2.35</ele>
        <time>2022-09-23T08:51:58.000Z</time>
      </trkpt>
      <trkpt lat="47.30622" lon="-1.33766">
        <ele>1.58</ele>
        <time>2022-09-23T08:52:03.000Z</time>
      </trkpt>
      <trkpt lat="47.30647" lon="-1.33757">
        <ele>0.53</ele>
        <time>2022-09-23T08:52:08.000Z</time>
      </trkpt>
      <trkpt lat="47.30669" lon="-1.33746">
        <ele>1.29</ele>
        <time>2022-09-23T08:52:13.000Z</time>
      </trkpt>
      <trkpt lat="47.30693" lon="-1.33726">
        <ele>1.68</ele>
        <time>2022-09-23T08:52:18.000Z</time>
      </trkpt>
      <trkpt lat="47.30709" lon="-1.33698">
        <ele>2</ele>
        <time>2022-09-23T08:52:23.000Z</time>
      </trkpt>
      <trkpt lat="47.30723" lon="-1.33666">
        <ele>1.6</ele>
        <time>2022-09-23T08:52:28.000Z</time>
      </trkpt>
      <trkpt lat="47.30725" lon="-1.3363">
        <ele>3.17</ele>
        <time>2022-09-23T08:52:33.000Z</time>
      </trkpt>
      <trkpt lat="47.30714" lon="-1.33594">
        <ele>4.2</ele>
        <time>2022-09-23T08:52:38.000Z</time>
      </trkpt>
      <trkpt lat="47.30702" lon="-1.33556">
        <ele>5.32</ele>
        <time>2022-09-23T08:52:43.000Z</time>
      </trkpt>
      <trkpt lat="47.30689" lon="-1.33519">
        <ele>5.18</ele>
        <time>2022-09-23T08:52:48.000Z</time>
      </trkpt>
      <trkpt lat="47.30678" lon="-1.33485">
        <ele>5.79</ele>
        <time>2022-09-23T08:52:53.000Z</time>
      </trkpt>
      <trkpt lat="47.30665" lon="-1.33449">
        <ele>4.82</ele>
        <time>2022-09-23T08:52:58.000Z</time>
      </trkpt>
      <trkpt lat="47.30658" lon="-1.33419">
        <ele>4.89</ele>
        <time>2022-09-23T08:53:03.000Z</time>
      </trkpt>
      <trkpt lat="47.30645" lon="-1.3339">
        <ele>2.28</ele>
        <time>2022-09-23T08:53:08.000Z</time>
      </trkpt>
      <trkpt lat="47.30631" lon="-1.33357">
        <ele>1.63</ele>
        <time>2022-09-23T08:53:13.000Z</time>
      </trkpt>
      <trkpt lat="47.30618" lon="-1.33324">
        <ele>0.68</ele>
        <time>2022-09-23T08:53:18.000Z</time>
      </trkpt>
      <trkpt lat="47.30612" lon="-1.33286">
        <ele>-0.51</ele>
        <time>2022-09-23T08:53:23.000Z</time>
      </trkpt>
      <trkpt lat="47.30621" lon="-1.33256">
        <ele>-1.13</ele>
        <time>2022-09-23T08:53:28.000Z</time>
      </trkpt>
      <trkpt lat="47.30636" lon="-1.33236">
        <ele>-1.01</ele>
        <time>2022-09-23T08:53:33.000Z</time>
      </trkpt>
      <trkpt lat="47.30661" lon="-1.33223">
        <ele>-0.45</ele>
        <time>2022-09-23T08:53:38.000Z</time>
      </trkpt>
      <trkpt lat="47.30686" lon="-1.33214">
        <ele>-0.3</ele>
        <time>2022-09-23T08:53:43.000Z</time>
      </trkpt>
      <trkpt lat="47.30712" lon="-1.33204">
        <ele>0.64</ele>
        <time>2022-09-23T08:53:48.000Z</time>
      </trkpt>
      <trkpt lat="47.30737" lon="-1.33194">
        <ele>2.17</ele>
        <time>2022-09-23T08:53:53.000Z</time>
      </trkpt>
      <trkpt lat="47.30764" lon="-1.33184">
        <ele>1.76</ele>
        <time>2022-09-23T08:53:58.000Z</time>
      </trkpt>
      <trkpt lat="47.30789" lon="-1.33174">
        <ele>0.93</ele>
        <time>2022-09-23T08:54:03.000Z</time>
      </trkpt>
      <trkpt lat="47.30812" lon="-1.33165">
        <ele>-0.23</ele>
        <time>2022-09-23T08:54:08.000Z</time>
      </trkpt>
      <trkpt lat="47.30836" lon="-1.33153">
        <ele>0.62</ele>
        <time>2022-09-23T08:54:13.000Z</time>
      </trkpt>
      <trkpt lat="47.30861" lon="-1.33142">
        <ele>0.91</ele>
        <time>2022-09-23T08:54:18.000Z</time>
      </trkpt>
      <trkpt lat="47.30886" lon="-1.3313">
        <ele>0.95</ele>
        <time>2022-09-23T08:54:23.000Z</time>
      </trkpt>
      <trkpt lat="47.30912" lon="-1.33118">
        <ele>0.62</ele>
        <time>2022-09-23T08:54:28.000Z</time>
      </trkpt>
      <trkpt lat="47.30939" lon="-1.33106">
        <ele>0.07</ele>
        <time>2022-09-23T08:54:33.000Z</time>
      </trkpt>
      <trkpt lat="47.30965" lon="-1.33096">
        <ele>0.35</ele>
        <time>2022-09-23T08:54:38.000Z</time>
      </trkpt>
      <trkpt lat="47.30992" lon="-1.33086">
        <ele>0.4</ele>
        <time>2022-09-23T08:54:43.000Z</time>
      </trkpt>
      <trkpt lat="47.31018" lon="-1.33074">
        <ele>0.46</ele>
        <time>2022-09-23T08:54:48.000Z</time>
      </trkpt>
      <trkpt lat="47.31044" lon="-1.33064">
        <ele>-0.06</ele>
        <time>2022-09-23T08:54:53.000Z</time>
      </trkpt>
      <trkpt lat="47.31069" lon="-1.33051">
        <ele>-0.73</ele>
        <time>2022-09-23T08:54:58.000Z</time>
      </trkpt>
      <trkpt lat="47.31093" lon="-1.33041">
        <ele>-0.86</ele>
        <time>2022-09-23T08:55:03.000Z</time>
      </trkpt>
      <trkpt lat="47.31118" lon="-1.33031">
        <ele>-0.63</ele>
        <time>2022-09-23T08:55:08.000Z</time>
      </trkpt>
      <trkpt lat="47.31141" lon="-1.33022">
        <ele>-1.39</ele>
        <time>2022-09-23T08:55:13.000Z</time>
      </trkpt>
      <trkpt lat="47.31165" lon="-1.33015">
        <ele>-0.59</ele>
        <time>2022-09-23T08:55:18.000Z</time>
      </trkpt>
      <trkpt lat="47.31187" lon="-1.33007">
        <ele>0.54</ele>
        <time>2022-09-23T08:55:23.000Z</time>
      </trkpt>
      <trkpt lat="47.31211" lon="-1.32997">
        <ele>0.38</ele>
        <time>2022-09-23T08:55:28.000Z</time>
      </trkpt>
      <trkpt lat="47.31235" lon="-1.32987">
        <ele>1.54</ele>
        <time>2022-09-23T08:55:33.000Z</time>
      </trkpt>
      <trkpt lat="47.31255" lon="-1.32974">
        <ele>2.16</ele>
        <time>2022-09-23T08:55:38.000Z</time>
      </trkpt>
      <trkpt lat="47.31245" lon="-1.32977">
        <ele>1.84</ele>
        <time>2022-09-23T08:55:46.000Z</time>
      </trkpt>
      <trkpt lat="47.31256" lon="-1.32978">
        <ele>2.13</ele>
        <time>2022-09-23T08:56:21.000Z</time>
      </trkpt>
      <trkpt lat="47.31271" lon="-1.32966">
        <ele>1.73</ele>
        <time>2022-09-23T08:56:26.000Z</time>
      </trkpt>
      <trkpt lat="47.31287" lon="-1.32955">
        <ele>1.39</ele>
        <time>2022-09-23T08:56:31.000Z</time>
      </trkpt>
      <trkpt lat="47.31303" lon="-1.32938">
        <ele>0.22</ele>
        <time>2022-09-23T08:56:36.000Z</time>
      </trkpt>
      <trkpt lat="47.31323" lon="-1.32919">
        <ele>0.24</ele>
        <time>2022-09-23T08:56:41.000Z</time>
      </trkpt>
      <trkpt lat="47.31342" lon="-1.32903">
        <ele>0.61</ele>
        <time>2022-09-23T08:56:46.000Z</time>
      </trkpt>
      <trkpt lat="47.31363" lon="-1.32884">
        <ele>1.44</ele>
        <time>2022-09-23T08:56:51.000Z</time>
      </trkpt>
      <trkpt lat="47.31385" lon="-1.32865">
        <ele>2</ele>
        <time>2022-09-23T08:56:56.000Z</time>
      </trkpt>
      <trkpt lat="47.31408" lon="-1.32846">
        <ele>2.97</ele>
        <time>2022-09-23T08:57:01.000Z</time>
      </trkpt>
      <trkpt lat="47.3143" lon="-1.32828">
        <ele>2.65</ele>
        <time>2022-09-23T08:57:06.000Z</time>
      </trkpt>
      <trkpt lat="47.31452" lon="-1.32809">
        <ele>1.85</ele>
        <time>2022-09-23T08:57:11.000Z</time>
      </trkpt>
      <trkpt lat="47.31473" lon="-1.32794">
        <ele>1.72</ele>
        <time>2022-09-23T08:57:16.000Z</time>
      </trkpt>
      <trkpt lat="47.31491" lon="-1.32775">
        <ele>1.42</ele>
        <time>2022-09-23T08:57:21.000Z</time>
      </trkpt>
      <trkpt lat="47.31507" lon="-1.32752">
        <ele>-0.36</ele>
        <time>2022-09-23T08:57:26.000Z</time>
      </trkpt>
      <trkpt lat="47.31524" lon="-1.32732">
        <ele>-0.81</ele>
        <time>2022-09-23T08:57:31.000Z</time>
      </trkpt>
      <trkpt lat="47.31538" lon="-1.32713">
        <ele>-0.41</ele>
        <time>2022-09-23T08:57:36.000Z</time>
      </trkpt>
      <trkpt lat="47.31554" lon="-1.32693">
        <ele>-0.25</ele>
        <time>2022-09-23T08:57:41.000Z</time>
      </trkpt>
      <trkpt lat="47.31572" lon="-1.3267">
        <ele>-0.46</ele>
        <time>2022-09-23T08:57:46.000Z</time>
      </trkpt>
      <trkpt lat="47.31592" lon="-1.32645">
        <ele>-2.12</ele>
        <time>2022-09-23T08:57:51.000Z</time>
      </trkpt>
      <trkpt lat="47.31614" lon="-1.32615">
        <ele>-3.12</ele>
        <time>2022-09-23T08:57:56.000Z</time>
      </trkpt>
      <trkpt lat="47.31632" lon="-1.32584">
        <ele>-2.85</ele>
        <time>2022-09-23T08:58:01.000Z</time>
      </trkpt>
      <trkpt lat="47.31646" lon="-1.32557">
        <ele>-2.42</ele>
        <time>2022-09-23T08:58:06.000Z</time>
      </trkpt>
      <trkpt lat="47.31657" lon="-1.32533">
        <ele>-2.43</ele>
        <time>2022-09-23T08:58:11.000Z</time>
      </trkpt>
      <trkpt lat="47.31669" lon="-1.32504">
        <ele>-2.79</ele>
        <time>2022-09-23T08:58:16.000Z</time>
      </trkpt>
      <trkpt lat="47.31677" lon="-1.32468">
        <ele>-3.89</ele>
        <time>2022-09-23T08:58:21.000Z</time>
      </trkpt>
      <trkpt lat="47.31683" lon="-1.32429">
        <ele>-3.61</ele>
        <time>2022-09-23T08:58:26.000Z</time>
      </trkpt>
      <trkpt lat="47.31686" lon="-1.32393">
        <ele>-3.42</ele>
        <time>2022-09-23T08:58:31.000Z</time>
      </trkpt>
      <trkpt lat="47.31691" lon="-1.32356">
        <ele>-4.28</ele>
        <time>2022-09-23T08:58:36.000Z</time>
      </trkpt>
      <trkpt lat="47.31697" lon="-1.32319">
        <ele>-5.14</ele>
        <time>2022-09-23T08:58:41.000Z</time>
      </trkpt>
      <trkpt lat="47.31705" lon="-1.32282">
        <ele>-4.92</ele>
        <time>2022-09-23T08:58:46.000Z</time>
      </trkpt>
      <trkpt lat="47.31712" lon="-1.32247">
        <ele>-5.03</ele>
        <time>2022-09-23T08:58:51.000Z</time>
      </trkpt>
      <trkpt lat="47.31719" lon="-1.3221">
        <ele>-4.24</ele>
        <time>2022-09-23T08:58:56.000Z</time>
      </trkpt>
      <trkpt lat="47.31723" lon="-1.32172">
        <ele>-5.28</ele>
        <time>2022-09-23T08:59:01.000Z</time>
      </trkpt>
      <trkpt lat="47.31731" lon="-1.32137">
        <ele>-4.81</ele>
        <time>2022-09-23T08:59:06.000Z</time>
      </trkpt>
      <trkpt lat="47.31739" lon="-1.32111">
        <ele>-3.39</ele>
        <time>2022-09-23T08:59:11.000Z</time>
      </trkpt>
      <trkpt lat="47.31748" lon="-1.32085">
        <ele>-3.46</ele>
        <time>2022-09-23T08:59:16.000Z</time>
      </trkpt>
      <trkpt lat="47.3176" lon="-1.32059">
        <ele>-2.68</ele>
        <time>2022-09-23T08:59:21.000Z</time>
      </trkpt>
      <trkpt lat="47.31771" lon="-1.32034">
        <ele>-1.64</ele>
        <time>2022-09-23T08:59:26.000Z</time>
      </trkpt>
      <trkpt lat="47.3178" lon="-1.32003">
        <ele>8.6</ele>
        <time>2022-09-23T08:59:31.000Z</time>
      </trkpt>
      <trkpt lat="47.31788" lon="-1.31976">
        <ele>0.34</ele>
        <time>2022-09-23T08:59:36.000Z</time>
      </trkpt>
      <trkpt lat="47.31796" lon="-1.31954">
        <ele>2.36</ele>
        <time>2022-09-23T08:59:41.000Z</time>
      </trkpt>
      <trkpt lat="47.31809" lon="-1.3195">
        <ele>4.29</ele>
        <time>2022-09-23T08:59:46.000Z</time>
      </trkpt>
      <trkpt lat="47.31831" lon="-1.31961">
        <ele>4.04</ele>
        <time>2022-09-23T08:59:51.000Z</time>
      </trkpt>
      <trkpt lat="47.31858" lon="-1.3198">
        <ele>2.46</ele>
        <time>2022-09-23T08:59:56.000Z</time>
      </trkpt>
      <trkpt lat="47.31888" lon="-1.31998">
        <ele>1.74</ele>
        <time>2022-09-23T09:00:01.000Z</time>
      </trkpt>
      <trkpt lat="47.31916" lon="-1.32007">
        <ele>0.32</ele>
        <time>2022-09-23T09:00:06.000Z</time>
      </trkpt>
      <trkpt lat="47.31941" lon="-1.32014">
        <ele>-1.33</ele>
        <time>2022-09-23T09:00:11.000Z</time>
      </trkpt>
      <trkpt lat="47.31959" lon="-1.32002">
        <ele>-2.34</ele>
        <time>2022-09-23T09:00:16.000Z</time>
      </trkpt>
      <trkpt lat="47.31973" lon="-1.31975">
        <ele>-2.89</ele>
        <time>2022-09-23T09:00:21.000Z</time>
      </trkpt>
      <trkpt lat="47.31988" lon="-1.3194">
        <ele>-3.63</ele>
        <time>2022-09-23T09:00:26.000Z</time>
      </trkpt>
      <trkpt lat="47.32001" lon="-1.31903">
        <ele>-3.8</ele>
        <time>2022-09-23T09:00:31.000Z</time>
      </trkpt>
      <trkpt lat="47.32017" lon="-1.31862">
        <ele>-5.13</ele>
        <time>2022-09-23T09:00:36.000Z</time>
      </trkpt>
      <trkpt lat="47.32033" lon="-1.31823">
        <ele>-5.99</ele>
        <time>2022-09-23T09:00:41.000Z</time>
      </trkpt>
      <trkpt lat="47.32045" lon="-1.31787">
        <ele>-6.85</ele>
        <time>2022-09-23T09:00:46.000Z</time>
      </trkpt>
      <trkpt lat="47.32062" lon="-1.31752">
        <ele>-5.44</ele>
        <time>2022-09-23T09:00:51.000Z</time>
      </trkpt>
      <trkpt lat="47.32079" lon="-1.31718">
        <ele>-3.62</ele>
        <time>2022-09-23T09:00:56.000Z</time>
      </trkpt>
      <trkpt lat="47.32096" lon="-1.31689">
        <ele>-1.81</ele>
        <time>2022-09-23T09:01:01.000Z</time>
      </trkpt>
      <trkpt lat="47.32112" lon="-1.31659">
        <ele>-1.2</ele>
        <time>2022-09-23T09:01:06.000Z</time>
      </trkpt>
      <trkpt lat="47.32133" lon="-1.31626">
        <ele>-0.61</ele>
        <time>2022-09-23T09:01:11.000Z</time>
      </trkpt>
      <trkpt lat="47.32155" lon="-1.31595">
        <ele>0.81</ele>
        <time>2022-09-23T09:01:16.000Z</time>
      </trkpt>
      <trkpt lat="47.32172" lon="-1.31563">
        <ele>2.93</ele>
        <time>2022-09-23T09:01:21.000Z</time>
      </trkpt>
      <trkpt lat="47.3219" lon="-1.31535">
        <ele>5.84</ele>
        <time>2022-09-23T09:01:26.000Z</time>
      </trkpt>
      <trkpt lat="47.32209" lon="-1.31507">
        <ele>6.85</ele>
        <time>2022-09-23T09:01:31.000Z</time>
      </trkpt>
      <trkpt lat="47.32227" lon="-1.31478">
        <ele>6.81</ele>
        <time>2022-09-23T09:01:36.000Z</time>
      </trkpt>
      <trkpt lat="47.32244" lon="-1.31449">
        <ele>7.07</ele>
        <time>2022-09-23T09:01:41.000Z</time>
      </trkpt>
      <trkpt lat="47.32262" lon="-1.31425">
        <ele>8.13</ele>
        <time>2022-09-23T09:01:46.000Z</time>
      </trkpt>
      <trkpt lat="47.32278" lon="-1.314">
        <ele>8.82</ele>
        <time>2022-09-23T09:01:51.000Z</time>
      </trkpt>
      <trkpt lat="47.32298" lon="-1.3137">
        <ele>9.38</ele>
        <time>2022-09-23T09:01:56.000Z</time>
      </trkpt>
      <trkpt lat="47.32317" lon="-1.31342">
        <ele>10.18</ele>
        <time>2022-09-23T09:02:01.000Z</time>
      </trkpt>
      <trkpt lat="47.32336" lon="-1.31315">
        <ele>11.38</ele>
        <time>2022-09-23T09:02:06.000Z</time>
      </trkpt>
      <trkpt lat="47.32357" lon="-1.3128">
        <ele>11.77</ele>
        <time>2022-09-23T09:02:11.000Z</time>
      </trkpt>
      <trkpt lat="47.32376" lon="-1.3124">
        <ele>10.65</ele>
        <time>2022-09-23T09:02:16.000Z</time>
      </trkpt>
      <trkpt lat="47.3239" lon="-1.31205">
        <ele>8.47</ele>
        <time>2022-09-23T09:02:21.000Z</time>
      </trkpt>
      <trkpt lat="47.32405" lon="-1.31169">
        <ele>5.63</ele>
        <time>2022-09-23T09:02:26.000Z</time>
      </trkpt>
      <trkpt lat="47.32417" lon="-1.3113">
        <ele>3.46</ele>
        <time>2022-09-23T09:02:31.000Z</time>
      </trkpt>
      <trkpt lat="47.32427" lon="-1.31092">
        <ele>2.94</ele>
        <time>2022-09-23T09:02:36.000Z</time>
      </trkpt>
      <trkpt lat="47.32436" lon="-1.31052">
        <ele>2.29</ele>
        <time>2022-09-23T09:02:41.000Z</time>
      </trkpt>
      <trkpt lat="47.32446" lon="-1.31012">
        <ele>1.17</ele>
        <time>2022-09-23T09:02:46.000Z</time>
      </trkpt>
      <trkpt lat="47.32456" lon="-1.30974">
        <ele>0.82</ele>
        <time>2022-09-23T09:02:51.000Z</time>
      </trkpt>
      <trkpt lat="47.3247" lon="-1.30937">
        <ele>0.76</ele>
        <time>2022-09-23T09:02:56.000Z</time>
      </trkpt>
      <trkpt lat="47.32483" lon="-1.30903">
        <ele>0.82</ele>
        <time>2022-09-23T09:03:01.000Z</time>
      </trkpt>
      <trkpt lat="47.32495" lon="-1.30868">
        <ele>1.46</ele>
        <time>2022-09-23T09:03:06.000Z</time>
      </trkpt>
      <trkpt lat="47.32507" lon="-1.30828">
        <ele>1.6</ele>
        <time>2022-09-23T09:03:11.000Z</time>
      </trkpt>
      <trkpt lat="47.32521" lon="-1.30792">
        <ele>1.68</ele>
        <time>2022-09-23T09:03:16.000Z</time>
      </trkpt>
      <trkpt lat="47.32534" lon="-1.3076">
        <ele>1.87</ele>
        <time>2022-09-23T09:03:21.000Z</time>
      </trkpt>
      <trkpt lat="47.32546" lon="-1.30726">
        <ele>1.9</ele>
        <time>2022-09-23T09:03:26.000Z</time>
      </trkpt>
      <trkpt lat="47.32561" lon="-1.30692">
        <ele>2.28</ele>
        <time>2022-09-23T09:03:31.000Z</time>
      </trkpt>
      <trkpt lat="47.32578" lon="-1.30656">
        <ele>2.54</ele>
        <time>2022-09-23T09:03:36.000Z</time>
      </trkpt>
      <trkpt lat="47.32596" lon="-1.3062">
        <ele>2.9</ele>
        <time>2022-09-23T09:03:41.000Z</time>
      </trkpt>
      <trkpt lat="47.32613" lon="-1.30583">
        <ele>2.73</ele>
        <time>2022-09-23T09:03:46.000Z</time>
      </trkpt>
      <trkpt lat="47.32629" lon="-1.30548">
        <ele>3.45</ele>
        <time>2022-09-23T09:03:51.000Z</time>
      </trkpt>
      <trkpt lat="47.32645" lon="-1.30513">
        <ele>3.75</ele>
        <time>2022-09-23T09:03:56.000Z</time>
      </trkpt>
      <trkpt lat="47.32662" lon="-1.30476">
        <ele>3.97</ele>
        <time>2022-09-23T09:04:01.000Z</time>
      </trkpt>
      <trkpt lat="47.32678" lon="-1.3044">
        <ele>4.56</ele>
        <time>2022-09-23T09:04:06.000Z</time>
      </trkpt>
      <trkpt lat="47.32688" lon="-1.30401">
        <ele>4.03</ele>
        <time>2022-09-23T09:04:11.000Z</time>
      </trkpt>
      <trkpt lat="47.32677" lon="-1.30358">
        <ele>3.69</ele>
        <time>2022-09-23T09:04:16.000Z</time>
      </trkpt>
      <trkpt lat="47.32663" lon="-1.3032">
        <ele>4.61</ele>
        <time>2022-09-23T09:04:21.000Z</time>
      </trkpt>
      <trkpt lat="47.32649" lon="-1.30286">
        <ele>4.21</ele>
        <time>2022-09-23T09:04:26.000Z</time>
      </trkpt>
      <trkpt lat="47.3264" lon="-1.30253">
        <ele>4.36</ele>
        <time>2022-09-23T09:04:31.000Z</time>
      </trkpt>
      <trkpt lat="47.32654" lon="-1.30227">
        <ele>3.53</ele>
        <time>2022-09-23T09:04:36.000Z</time>
      </trkpt>
      <trkpt lat="47.32669" lon="-1.30201">
        <ele>0.38</ele>
        <time>2022-09-23T09:04:41.000Z</time>
      </trkpt>
      <trkpt lat="47.32682" lon="-1.30177">
        <ele>-0.57</ele>
        <time>2022-09-23T09:04:46.000Z</time>
      </trkpt>
      <trkpt lat="47.32699" lon="-1.30151">
        <ele>-0.54</ele>
        <time>2022-09-23T09:04:51.000Z</time>
      </trkpt>
      <trkpt lat="47.3272" lon="-1.30121">
        <ele>-0.58</ele>
        <time>2022-09-23T09:04:56.000Z</time>
      </trkpt>
      <trkpt lat="47.3274" lon="-1.30088">
        <ele>1.08</ele>
        <time>2022-09-23T09:05:01.000Z</time>
      </trkpt>
      <trkpt lat="47.32755" lon="-1.30057">
        <ele>1.72</ele>
        <time>2022-09-23T09:05:06.000Z</time>
      </trkpt>
      <trkpt lat="47.32772" lon="-1.30025">
        <ele>3.97</ele>
        <time>2022-09-23T09:05:11.000Z</time>
      </trkpt>
      <trkpt lat="47.32788" lon="-1.2999">
        <ele>5.47</ele>
        <time>2022-09-23T09:05:16.000Z</time>
      </trkpt>
      <trkpt lat="47.32805" lon="-1.29959">
        <ele>5.97</ele>
        <time>2022-09-23T09:05:21.000Z</time>
      </trkpt>
      <trkpt lat="47.3282" lon="-1.2993">
        <ele>6.27</ele>
        <time>2022-09-23T09:05:26.000Z</time>
      </trkpt>
      <trkpt lat="47.32835" lon="-1.29902">
        <ele>5.61</ele>
        <time>2022-09-23T09:05:31.000Z</time>
      </trkpt>
      <trkpt lat="47.32853" lon="-1.29872">
        <ele>4.92</ele>
        <time>2022-09-23T09:05:36.000Z</time>
      </trkpt>
      <trkpt lat="47.32873" lon="-1.29838">
        <ele>4.52</ele>
        <time>2022-09-23T09:05:41.000Z</time>
      </trkpt>
      <trkpt lat="47.32893" lon="-1.29803">
        <ele>3.46</ele>
        <time>2022-09-23T09:05:46.000Z</time>
      </trkpt>
      <trkpt lat="47.3291" lon="-1.29771">
        <ele>2.17</ele>
        <time>2022-09-23T09:05:51.000Z</time>
      </trkpt>
      <trkpt lat="47.32927" lon="-1.29739">
        <ele>1.22</ele>
        <time>2022-09-23T09:05:56.000Z</time>
      </trkpt>
      <trkpt lat="47.32943" lon="-1.29712">
        <ele>0.84</ele>
        <time>2022-09-23T09:06:01.000Z</time>
      </trkpt>
      <trkpt lat="47.32961" lon="-1.29684">
        <ele>1.58</ele>
        <time>2022-09-23T09:06:06.000Z</time>
      </trkpt>
      <trkpt lat="47.3298" lon="-1.29655">
        <ele>1.48</ele>
        <time>2022-09-23T09:06:11.000Z</time>
      </trkpt>
      <trkpt lat="47.32998" lon="-1.29621">
        <ele>1.89</ele>
        <time>2022-09-23T09:06:16.000Z</time>
      </trkpt>
      <trkpt lat="47.33016" lon="-1.29586">
        <ele>2.17</ele>
        <time>2022-09-23T09:06:21.000Z</time>
      </trkpt>
      <trkpt lat="47.33034" lon="-1.29552">
        <ele>2.04</ele>
        <time>2022-09-23T09:06:26.000Z</time>
      </trkpt>
      <trkpt lat="47.33052" lon="-1.29521">
        <ele>1.53</ele>
        <time>2022-09-23T09:06:31.000Z</time>
      </trkpt>
      <trkpt lat="47.33072" lon="-1.29491">
        <ele>1.49</ele>
        <time>2022-09-23T09:06:36.000Z</time>
      </trkpt>
      <trkpt lat="47.33094" lon="-1.29462">
        <ele>1.3</ele>
        <time>2022-09-23T09:06:41.000Z</time>
      </trkpt>
      <trkpt lat="47.33112" lon="-1.29436">
        <ele>1.31</ele>
        <time>2022-09-23T09:06:46.000Z</time>
      </trkpt>
      <trkpt lat="47.33132" lon="-1.29407">
        <ele>1</ele>
        <time>2022-09-23T09:06:51.000Z</time>
      </trkpt>
      <trkpt lat="47.33147" lon="-1.29381">
        <ele>0.9</ele>
        <time>2022-09-23T09:06:56.000Z</time>
      </trkpt>
      <trkpt lat="47.33147" lon="-1.29355">
        <ele>-0.56</ele>
        <time>2022-09-23T09:07:01.000Z</time>
      </trkpt>
      <trkpt lat="47.3314" lon="-1.29337">
        <ele>1.08</ele>
        <time>2022-09-23T09:07:06.000Z</time>
      </trkpt>
      <trkpt lat="47.33135" lon="-1.29323">
        <ele>1.03</ele>
        <time>2022-09-23T09:07:11.000Z</time>
      </trkpt>
      <trkpt lat="47.33134" lon="-1.29306">
        <ele>0.25</ele>
        <time>2022-09-23T09:07:16.000Z</time>
      </trkpt>
      <trkpt lat="47.33138" lon="-1.29288">
        <ele>-1.13</ele>
        <time>2022-09-23T09:07:21.000Z</time>
      </trkpt>
      <trkpt lat="47.33141" lon="-1.29272">
        <ele>-2.73</ele>
        <time>2022-09-23T09:07:26.000Z</time>
      </trkpt>
      <trkpt lat="47.33147" lon="-1.29256">
        <ele>-3.01</ele>
        <time>2022-09-23T09:07:31.000Z</time>
      </trkpt>
      <trkpt lat="47.33159" lon="-1.29234">
        <ele>-2.46</ele>
        <time>2022-09-23T09:07:36.000Z</time>
      </trkpt>
      <trkpt lat="47.33166" lon="-1.29216">
        <ele>-3.4</ele>
        <time>2022-09-23T09:07:41.000Z</time>
      </trkpt>
      <trkpt lat="47.33167" lon="-1.29192">
        <ele>-4.4</ele>
        <time>2022-09-23T09:07:46.000Z</time>
      </trkpt>
      <trkpt lat="47.33171" lon="-1.29173">
        <ele>-4.81</ele>
        <time>2022-09-23T09:07:51.000Z</time>
      </trkpt>
      <trkpt lat="47.33184" lon="-1.29156">
        <ele>-3.1</ele>
        <time>2022-09-23T09:07:56.000Z</time>
      </trkpt>
      <trkpt lat="47.33204" lon="-1.29151">
        <ele>-2.62</ele>
        <time>2022-09-23T09:08:01.000Z</time>
      </trkpt>
      <trkpt lat="47.33225" lon="-1.29161">
        <ele>-2.61</ele>
        <time>2022-09-23T09:08:06.000Z</time>
      </trkpt>
      <trkpt lat="47.33246" lon="-1.29173">
        <ele>-3.15</ele>
        <time>2022-09-23T09:08:11.000Z</time>
      </trkpt>
      <trkpt lat="47.33274" lon="-1.2919">
        <ele>-3.03</ele>
        <time>2022-09-23T09:08:16.000Z</time>
      </trkpt>
      <trkpt lat="47.33304" lon="-1.29209">
        <ele>0.23</ele>
        <time>2022-09-23T09:08:21.000Z</time>
      </trkpt>
      <trkpt lat="47.33328" lon="-1.29228">
        <ele>2.28</ele>
        <time>2022-09-23T09:08:26.000Z</time>
      </trkpt>
      <trkpt lat="47.33351" lon="-1.29247">
        <ele>3.72</ele>
        <time>2022-09-23T09:08:31.000Z</time>
      </trkpt>
      <trkpt lat="47.33369" lon="-1.29274">
        <ele>3.91</ele>
        <time>2022-09-23T09:08:36.000Z</time>
      </trkpt>
      <trkpt lat="47.33384" lon="-1.29302">
        <ele>3.62</ele>
        <time>2022-09-23T09:08:41.000Z</time>
      </trkpt>
      <trkpt lat="47.33399" lon="-1.29331">
        <ele>2.44</ele>
        <time>2022-09-23T09:08:46.000Z</time>
      </trkpt>
      <trkpt lat="47.33404" lon="-1.29364">
        <ele>1.6</ele>
        <time>2022-09-23T09:08:51.000Z</time>
      </trkpt>
      <trkpt lat="47.33413" lon="-1.29379">
        <ele>1.79</ele>
        <time>2022-09-23T09:08:56.000Z</time>
      </trkpt>
      <trkpt lat="47.33436" lon="-1.29395">
        <ele>3.28</ele>
        <time>2022-09-23T09:09:01.000Z</time>
      </trkpt>
      <trkpt lat="47.33458" lon="-1.29411">
        <ele>3.35</ele>
        <time>2022-09-23T09:09:06.000Z</time>
      </trkpt>
      <trkpt lat="47.33483" lon="-1.29429">
        <ele>2.93</ele>
        <time>2022-09-23T09:09:11.000Z</time>
      </trkpt>
      <trkpt lat="47.33506" lon="-1.29448">
        <ele>2.14</ele>
        <time>2022-09-23T09:09:16.000Z</time>
      </trkpt>
      <trkpt lat="47.33533" lon="-1.2947">
        <ele>1.85</ele>
        <time>2022-09-23T09:09:21.000Z</time>
      </trkpt>
      <trkpt lat="47.33556" lon="-1.2949">
        <ele>2.52</ele>
        <time>2022-09-23T09:09:26.000Z</time>
      </trkpt>
      <trkpt lat="47.33578" lon="-1.29509">
        <ele>1.68</ele>
        <time>2022-09-23T09:09:31.000Z</time>
      </trkpt>
      <trkpt lat="47.336" lon="-1.29526">
        <ele>2.24</ele>
        <time>2022-09-23T09:09:36.000Z</time>
      </trkpt>
      <trkpt lat="47.33621" lon="-1.29541">
        <ele>2.22</ele>
        <time>2022-09-23T09:09:41.000Z</time>
      </trkpt>
      <trkpt lat="47.33642" lon="-1.29543">
        <ele>2.44</ele>
        <time>2022-09-23T09:09:46.000Z</time>
      </trkpt>
      <trkpt lat="47.3365" lon="-1.29512">
        <ele>3.09</ele>
        <time>2022-09-23T09:09:51.000Z</time>
      </trkpt>
      <trkpt lat="47.33658" lon="-1.29476">
        <ele>2.33</ele>
        <time>2022-09-23T09:09:56.000Z</time>
      </trkpt>
      <trkpt lat="47.33669" lon="-1.29444">
        <ele>3.02</ele>
        <time>2022-09-23T09:10:01.000Z</time>
      </trkpt>
      <trkpt lat="47.33684" lon="-1.2941">
        <ele>2.97</ele>
        <time>2022-09-23T09:10:06.000Z</time>
      </trkpt>
      <trkpt lat="47.33698" lon="-1.29373">
        <ele>1.98</ele>
        <time>2022-09-23T09:10:11.000Z</time>
      </trkpt>
      <trkpt lat="47.33709" lon="-1.29338">
        <ele>1.83</ele>
        <time>2022-09-23T09:10:16.000Z</time>
      </trkpt>
      <trkpt lat="47.33719" lon="-1.29299">
        <ele>2.05</ele>
        <time>2022-09-23T09:10:21.000Z</time>
      </trkpt>
      <trkpt lat="47.33729" lon="-1.29261">
        <ele>1.03</ele>
        <time>2022-09-23T09:10:26.000Z</time>
      </trkpt>
      <trkpt lat="47.33735" lon="-1.29224">
        <ele>1.05</ele>
        <time>2022-09-23T09:10:31.000Z</time>
      </trkpt>
      <trkpt lat="47.33745" lon="-1.29185">
        <ele>1.08</ele>
        <time>2022-09-23T09:10:36.000Z</time>
      </trkpt>
      <trkpt lat="47.33752" lon="-1.2915">
        <ele>0.43</ele>
        <time>2022-09-23T09:10:41.000Z</time>
      </trkpt>
      <trkpt lat="47.33753" lon="-1.29112">
        <ele>0.44</ele>
        <time>2022-09-23T09:10:46.000Z</time>
      </trkpt>
      <trkpt lat="47.33756" lon="-1.29079">
        <ele>0.11</ele>
        <time>2022-09-23T09:10:51.000Z</time>
      </trkpt>
      <trkpt lat="47.33758" lon="-1.29043">
        <ele>-0.4</ele>
        <time>2022-09-23T09:10:56.000Z</time>
      </trkpt>
      <trkpt lat="47.3376" lon="-1.29009">
        <ele>-0.34</ele>
        <time>2022-09-23T09:11:01.000Z</time>
      </trkpt>
      <trkpt lat="47.33763" lon="-1.28974">
        <ele>-0.79</ele>
        <time>2022-09-23T09:11:06.000Z</time>
      </trkpt>
      <trkpt lat="47.33765" lon="-1.28943">
        <ele>-1.38</ele>
        <time>2022-09-23T09:11:11.000Z</time>
      </trkpt>
      <trkpt lat="47.33775" lon="-1.28915">
        <ele>-1.97</ele>
        <time>2022-09-23T09:11:16.000Z</time>
      </trkpt>
      <trkpt lat="47.33777" lon="-1.28883">
        <ele>-1.18</ele>
        <time>2022-09-23T09:11:21.000Z</time>
      </trkpt>
      <trkpt lat="47.33777" lon="-1.28845">
        <ele>-1.17</ele>
        <time>2022-09-23T09:11:26.000Z</time>
      </trkpt>
      <trkpt lat="47.3378" lon="-1.28815">
        <ele>-1.21</ele>
        <time>2022-09-23T09:11:31.000Z</time>
      </trkpt>
      <trkpt lat="47.33781" lon="-1.28776">
        <ele>-1.85</ele>
        <time>2022-09-23T09:11:36.000Z</time>
      </trkpt>
      <trkpt lat="47.33784" lon="-1.28737">
        <ele>-3.03</ele>
        <time>2022-09-23T09:11:41.000Z</time>
      </trkpt>
      <trkpt lat="47.33789" lon="-1.287">
        <ele>-2.37</ele>
        <time>2022-09-23T09:11:46.000Z</time>
      </trkpt>
      <trkpt lat="47.33796" lon="-1.28673">
        <ele>-3.13</ele>
        <time>2022-09-23T09:11:51.000Z</time>
      </trkpt>
      <trkpt lat="47.33798" lon="-1.28645">
        <ele>-3.28</ele>
        <time>2022-09-23T09:11:56.000Z</time>
      </trkpt>
      <trkpt lat="47.33806" lon="-1.28619">
        <ele>-2.55</ele>
        <time>2022-09-23T09:12:01.000Z</time>
      </trkpt>
      <trkpt lat="47.33813" lon="-1.28591">
        <ele>-1.75</ele>
        <time>2022-09-23T09:12:06.000Z</time>
      </trkpt>
      <trkpt lat="47.33811" lon="-1.28569">
        <ele>-0.96</ele>
        <time>2022-09-23T09:12:11.000Z</time>
      </trkpt>
      <trkpt lat="47.33807" lon="-1.28545">
        <ele>0.36</ele>
        <time>2022-09-23T09:12:16.000Z</time>
      </trkpt>
      <trkpt lat="47.33811" lon="-1.28514">
        <ele>1.8</ele>
        <time>2022-09-23T09:12:21.000Z</time>
      </trkpt>
      <trkpt lat="47.33813" lon="-1.28483">
        <ele>3.79</ele>
        <time>2022-09-23T09:12:26.000Z</time>
      </trkpt>
      <trkpt lat="47.33815" lon="-1.28448">
        <ele>4.9</ele>
        <time>2022-09-23T09:12:31.000Z</time>
      </trkpt>
      <trkpt lat="47.33818" lon="-1.28409">
        <ele>5.18</ele>
        <time>2022-09-23T09:12:36.000Z</time>
      </trkpt>
      <trkpt lat="47.33821" lon="-1.2838">
        <ele>5.79</ele>
        <time>2022-09-23T09:12:41.000Z</time>
      </trkpt>
      <trkpt lat="47.33826" lon="-1.28354">
        <ele>5.29</ele>
        <time>2022-09-23T09:12:46.000Z</time>
      </trkpt>
      <trkpt lat="47.3383" lon="-1.28335">
        <ele>5.43</ele>
        <time>2022-09-23T09:12:51.000Z</time>
      </trkpt>
      <trkpt lat="47.33836" lon="-1.28306">
        <ele>5.06</ele>
        <time>2022-09-23T09:12:56.000Z</time>
      </trkpt>
      <trkpt lat="47.33842" lon="-1.28275">
        <ele>3.26</ele>
        <time>2022-09-23T09:13:01.000Z</time>
      </trkpt>
      <trkpt lat="47.33847" lon="-1.28243">
        <ele>2.46</ele>
        <time>2022-09-23T09:13:06.000Z</time>
      </trkpt>
      <trkpt lat="47.33852" lon="-1.28203">
        <ele>0.5</ele>
        <time>2022-09-23T09:13:11.000Z</time>
      </trkpt>
      <trkpt lat="47.33856" lon="-1.28166">
        <ele>1.25</ele>
        <time>2022-09-23T09:13:16.000Z</time>
      </trkpt>
      <trkpt lat="47.3386" lon="-1.28138">
        <ele>0.73</ele>
        <time>2022-09-23T09:13:21.000Z</time>
      </trkpt>
      <trkpt lat="47.33865" lon="-1.28107">
        <ele>0.15</ele>
        <time>2022-09-23T09:13:26.000Z</time>
      </trkpt>
      <trkpt lat="47.33871" lon="-1.28075">
        <ele>-0.38</ele>
        <time>2022-09-23T09:13:31.000Z</time>
      </trkpt>
      <trkpt lat="47.33875" lon="-1.28038">
        <ele>-1.15</ele>
        <time>2022-09-23T09:13:36.000Z</time>
      </trkpt>
      <trkpt lat="47.33878" lon="-1.27997">
        <ele>-3.02</ele>
        <time>2022-09-23T09:13:41.000Z</time>
      </trkpt>
      <trkpt lat="47.3388" lon="-1.27958">
        <ele>-4.7</ele>
        <time>2022-09-23T09:13:46.000Z</time>
      </trkpt>
      <trkpt lat="47.33878" lon="-1.27918">
        <ele>-3.92</ele>
        <time>2022-09-23T09:13:51.000Z</time>
      </trkpt>
      <trkpt lat="47.33878" lon="-1.27888">
        <ele>-3.36</ele>
        <time>2022-09-23T09:13:56.000Z</time>
      </trkpt>
      <trkpt lat="47.33878" lon="-1.27857">
        <ele>-2.29</ele>
        <time>2022-09-23T09:14:01.000Z</time>
      </trkpt>
      <trkpt lat="47.33878" lon="-1.27828">
        <ele>-3.72</ele>
        <time>2022-09-23T09:14:06.000Z</time>
      </trkpt>
      <trkpt lat="47.33878" lon="-1.27806">
        <ele>-4.26</ele>
        <time>2022-09-23T09:14:11.000Z</time>
      </trkpt>
      <trkpt lat="47.33886" lon="-1.27799">
        <ele>-2.72</ele>
        <time>2022-09-23T09:14:18.000Z</time>
      </trkpt>
      <trkpt lat="47.33894" lon="-1.27792">
        <ele>-2.28</ele>
        <time>2022-09-23T09:14:23.000Z</time>
      </trkpt>
      <trkpt lat="47.33899" lon="-1.27765">
        <ele>-2.08</ele>
        <time>2022-09-23T09:14:28.000Z</time>
      </trkpt>
      <trkpt lat="47.33905" lon="-1.27735">
        <ele>-2.25</ele>
        <time>2022-09-23T09:14:33.000Z</time>
      </trkpt>
      <trkpt lat="47.33909" lon="-1.27706">
        <ele>-2.57</ele>
        <time>2022-09-23T09:14:38.000Z</time>
      </trkpt>
      <trkpt lat="47.33912" lon="-1.2768">
        <ele>-3.09</ele>
        <time>2022-09-23T09:14:43.000Z</time>
      </trkpt>
      <trkpt lat="47.33915" lon="-1.27662">
        <ele>-3.27</ele>
        <time>2022-09-23T09:14:48.000Z</time>
      </trkpt>
      <trkpt lat="47.33923" lon="-1.27634">
        <ele>-3.77</ele>
        <time>2022-09-23T09:14:53.000Z</time>
      </trkpt>
      <trkpt lat="47.33928" lon="-1.27604">
        <ele>-3.99</ele>
        <time>2022-09-23T09:14:58.000Z</time>
      </trkpt>
      <trkpt lat="47.33931" lon="-1.27582">
        <ele>-3.55</ele>
        <time>2022-09-23T09:15:03.000Z</time>
      </trkpt>
      <trkpt lat="47.33931" lon="-1.27561">
        <ele>1.79</ele>
        <time>2022-09-23T09:15:08.000Z</time>
      </trkpt>
      <trkpt lat="47.33923" lon="-1.27546">
        <ele>2.74</ele>
        <time>2022-09-23T09:15:13.000Z</time>
      </trkpt>
      <trkpt lat="47.33918" lon="-1.27529">
        <ele>3.21</ele>
        <time>2022-09-23T09:15:18.000Z</time>
      </trkpt>
      <trkpt lat="47.33914" lon="-1.27517">
        <ele>4.5</ele>
        <time>2022-09-23T09:15:23.000Z</time>
      </trkpt>
      <trkpt lat="47.33903" lon="-1.27501">
        <ele>5.21</ele>
        <time>2022-09-23T09:15:28.000Z</time>
      </trkpt>
      <trkpt lat="47.33893" lon="-1.27495">
        <ele>5.03</ele>
        <time>2022-09-23T09:15:34.000Z</time>
      </trkpt>
      <trkpt lat="47.3388" lon="-1.27487">
        <ele>-0.4</ele>
        <time>2022-09-23T09:20:00.000Z</time>
      </trkpt>
      <trkpt lat="47.33887" lon="-1.27477">
        <ele>6.55</ele>
        <time>2022-09-23T09:27:15.000Z</time>
      </trkpt>
      <trkpt lat="47.33884" lon="-1.27464">
        <ele>4.6</ele>
        <time>2022-09-23T09:33:59.000Z</time>
      </trkpt>
      <trkpt lat="47.33875" lon="-1.27471">
        <ele>3.73</ele>
        <time>2022-09-23T09:34:26.000Z</time>
      </trkpt>
      <trkpt lat="47.33882" lon="-1.2748">
        <ele>3.38</ele>
        <time>2022-09-23T09:35:12.000Z</time>
      </trkpt>
      <trkpt lat="47.33884" lon="-1.27496">
        <ele>3.65</ele>
        <time>2022-09-23T09:35:33.000Z</time>
      </trkpt>
      <trkpt lat="47.33887" lon="-1.27484">
        <ele>4.29</ele>
        <time>2022-09-23T09:36:30.000Z</time>
      </trkpt>
      <trkpt lat="47.33878" lon="-1.27484">
        <ele>4.88</ele>
        <time>2022-09-23T09:38:22.000Z</time>
      </trkpt>
      <trkpt lat="47.33872" lon="-1.27495">
        <ele>4.7</ele>
        <time>2022-09-23T09:38:27.000Z</time>
      </trkpt>
      <trkpt lat="47.33864" lon="-1.2751">
        <ele>4.89</ele>
        <time>2022-09-23T09:38:32.000Z</time>
      </trkpt>
      <trkpt lat="47.33856" lon="-1.27525">
        <ele>5</ele>
        <time>2022-09-23T09:38:37.000Z</time>
      </trkpt>
      <trkpt lat="47.33844" lon="-1.27548">
        <ele>5.17</ele>
        <time>2022-09-23T09:38:42.000Z</time>
      </trkpt>
      <trkpt lat="47.3384" lon="-1.27576">
        <ele>5.37</ele>
        <time>2022-09-23T09:38:47.000Z</time>
      </trkpt>
      <trkpt lat="47.33832" lon="-1.27607">
        <ele>5.4</ele>
        <time>2022-09-23T09:38:52.000Z</time>
      </trkpt>
      <trkpt lat="47.33818" lon="-1.27639">
        <ele>5.08</ele>
        <time>2022-09-23T09:38:57.000Z</time>
      </trkpt>
      <trkpt lat="47.33798" lon="-1.27673">
        <ele>5.22</ele>
        <time>2022-09-23T09:39:02.000Z</time>
      </trkpt>
      <trkpt lat="47.33781" lon="-1.27696">
        <ele>4.96</ele>
        <time>2022-09-23T09:39:07.000Z</time>
      </trkpt>
      <trkpt lat="47.33767" lon="-1.2772">
        <ele>4.48</ele>
        <time>2022-09-23T09:39:12.000Z</time>
      </trkpt>
      <trkpt lat="47.33763" lon="-1.27741">
        <ele>4.57</ele>
        <time>2022-09-23T09:39:17.000Z</time>
      </trkpt>
      <trkpt lat="47.33779" lon="-1.27754">
        <ele>4.6</ele>
        <time>2022-09-23T09:39:22.000Z</time>
      </trkpt>
      <trkpt lat="47.33809" lon="-1.27757">
        <ele>4.23</ele>
        <time>2022-09-23T09:39:27.000Z</time>
      </trkpt>
      <trkpt lat="47.33839" lon="-1.27762">
        <ele>4.82</ele>
        <time>2022-09-23T09:39:32.000Z</time>
      </trkpt>
      <trkpt lat="47.33861" lon="-1.27768">
        <ele>5.25</ele>
        <time>2022-09-23T09:39:37.000Z</time>
      </trkpt>
      <trkpt lat="47.33883" lon="-1.27774">
        <ele>6.16</ele>
        <time>2022-09-23T09:39:42.000Z</time>
      </trkpt>
      <trkpt lat="47.33904" lon="-1.27782">
        <ele>7.14</ele>
        <time>2022-09-23T09:39:47.000Z</time>
      </trkpt>
      <trkpt lat="47.33926" lon="-1.27789">
        <ele>7.43</ele>
        <time>2022-09-23T09:39:52.000Z</time>
      </trkpt>
      <trkpt lat="47.33948" lon="-1.27796">
        <ele>8.51</ele>
        <time>2022-09-23T09:39:57.000Z</time>
      </trkpt>
      <trkpt lat="47.33969" lon="-1.27802">
        <ele>9.38</ele>
        <time>2022-09-23T09:40:02.000Z</time>
      </trkpt>
      <trkpt lat="47.33992" lon="-1.27809">
        <ele>9.29</ele>
        <time>2022-09-23T09:40:07.000Z</time>
      </trkpt>
      <trkpt lat="47.34014" lon="-1.27817">
        <ele>9.32</ele>
        <time>2022-09-23T09:40:12.000Z</time>
      </trkpt>
      <trkpt lat="47.34036" lon="-1.27825">
        <ele>9.86</ele>
        <time>2022-09-23T09:40:17.000Z</time>
      </trkpt>
      <trkpt lat="47.34059" lon="-1.27832">
        <ele>10.26</ele>
        <time>2022-09-23T09:40:22.000Z</time>
      </trkpt>
      <trkpt lat="47.34082" lon="-1.2784">
        <ele>9.46</ele>
        <time>2022-09-23T09:40:27.000Z</time>
      </trkpt>
      <trkpt lat="47.34108" lon="-1.27848">
        <ele>9.82</ele>
        <time>2022-09-23T09:40:32.000Z</time>
      </trkpt>
      <trkpt lat="47.34133" lon="-1.27857">
        <ele>9.61</ele>
        <time>2022-09-23T09:40:37.000Z</time>
      </trkpt>
      <trkpt lat="47.34159" lon="-1.27864">
        <ele>10.6</ele>
        <time>2022-09-23T09:40:42.000Z</time>
      </trkpt>
      <trkpt lat="47.34184" lon="-1.27871">
        <ele>9.87</ele>
        <time>2022-09-23T09:40:47.000Z</time>
      </trkpt>
      <trkpt lat="47.3421" lon="-1.27879">
        <ele>9.16</ele>
        <time>2022-09-23T09:40:52.000Z</time>
      </trkpt>
      <trkpt lat="47.34235" lon="-1.27888">
        <ele>9.78</ele>
        <time>2022-09-23T09:40:57.000Z</time>
      </trkpt>
      <trkpt lat="47.3426" lon="-1.27896">
        <ele>10.36</ele>
        <time>2022-09-23T09:41:02.000Z</time>
      </trkpt>
      <trkpt lat="47.34284" lon="-1.27903">
        <ele>9.9</ele>
        <time>2022-09-23T09:41:07.000Z</time>
      </trkpt>
      <trkpt lat="47.3431" lon="-1.27909">
        <ele>9.21</ele>
        <time>2022-09-23T09:41:12.000Z</time>
      </trkpt>
      <trkpt lat="47.34335" lon="-1.27918">
        <ele>9.41</ele>
        <time>2022-09-23T09:41:17.000Z</time>
      </trkpt>
      <trkpt lat="47.34361" lon="-1.27925">
        <ele>9.44</ele>
        <time>2022-09-23T09:41:22.000Z</time>
      </trkpt>
      <trkpt lat="47.34385" lon="-1.27934">
        <ele>8.59</ele>
        <time>2022-09-23T09:41:27.000Z</time>
      </trkpt>
      <trkpt lat="47.3441" lon="-1.27945">
        <ele>7.82</ele>
        <time>2022-09-23T09:41:32.000Z</time>
      </trkpt>
      <trkpt lat="47.34432" lon="-1.27958">
        <ele>7.69</ele>
        <time>2022-09-23T09:41:37.000Z</time>
      </trkpt>
      <trkpt lat="47.34452" lon="-1.27975">
        <ele>7.92</ele>
        <time>2022-09-23T09:41:42.000Z</time>
      </trkpt>
      <trkpt lat="47.34474" lon="-1.27998">
        <ele>8.54</ele>
        <time>2022-09-23T09:41:47.000Z</time>
      </trkpt>
      <trkpt lat="47.34496" lon="-1.28031">
        <ele>8.19</ele>
        <time>2022-09-23T09:41:52.000Z</time>
      </trkpt>
      <trkpt lat="47.34513" lon="-1.28078">
        <ele>8.88</ele>
        <time>2022-09-23T09:41:57.000Z</time>
      </trkpt>
      <trkpt lat="47.34524" lon="-1.28135">
        <ele>8.18</ele>
        <time>2022-09-23T09:42:02.000Z</time>
      </trkpt>
      <trkpt lat="47.34528" lon="-1.28196">
        <ele>6.96</ele>
        <time>2022-09-23T09:42:07.000Z</time>
      </trkpt>
      <trkpt lat="47.34524" lon="-1.28235">
        <ele>5.81</ele>
        <time>2022-09-23T09:42:12.000Z</time>
      </trkpt>
      <trkpt lat="47.34532" lon="-1.28246">
        <ele>2.73</ele>
        <time>2022-09-23T09:43:20.000Z</time>
      </trkpt>
      <trkpt lat="47.34548" lon="-1.28251">
        <ele>2.21</ele>
        <time>2022-09-23T09:43:25.000Z</time>
      </trkpt>
      <trkpt lat="47.34572" lon="-1.28242">
        <ele>1.37</ele>
        <time>2022-09-23T09:43:30.000Z</time>
      </trkpt>
      <trkpt lat="47.34593" lon="-1.28252">
        <ele>1.5</ele>
        <time>2022-09-23T09:43:35.000Z</time>
      </trkpt>
      <trkpt lat="47.34605" lon="-1.28287">
        <ele>1.37</ele>
        <time>2022-09-23T09:43:40.000Z</time>
      </trkpt>
      <trkpt lat="47.34616" lon="-1.28319">
        <ele>1.97</ele>
        <time>2022-09-23T09:43:45.000Z</time>
      </trkpt>
      <trkpt lat="47.34626" lon="-1.28349">
        <ele>2.31</ele>
        <time>2022-09-23T09:43:50.000Z</time>
      </trkpt>
      <trkpt lat="47.34635" lon="-1.28366">
        <ele>2.74</ele>
        <time>2022-09-23T09:43:55.000Z</time>
      </trkpt>
      <trkpt lat="47.34649" lon="-1.28369">
        <ele>1.55</ele>
        <time>2022-09-23T09:44:00.000Z</time>
      </trkpt>
      <trkpt lat="47.3466" lon="-1.28357">
        <ele>1.6</ele>
        <time>2022-09-23T09:44:05.000Z</time>
      </trkpt>
      <trkpt lat="47.34668" lon="-1.28328">
        <ele>0.42</ele>
        <time>2022-09-23T09:44:10.000Z</time>
      </trkpt>
      <trkpt lat="47.34677" lon="-1.28299">
        <ele>0.24</ele>
        <time>2022-09-23T09:44:15.000Z</time>
      </trkpt>
      <trkpt lat="47.34686" lon="-1.28267">
        <ele>0.57</ele>
        <time>2022-09-23T09:44:20.000Z</time>
      </trkpt>
      <trkpt lat="47.34695" lon="-1.28233">
        <ele>0.79</ele>
        <time>2022-09-23T09:44:25.000Z</time>
      </trkpt>
      <trkpt lat="47.34707" lon="-1.28195">
        <ele>0.91</ele>
        <time>2022-09-23T09:44:30.000Z</time>
      </trkpt>
      <trkpt lat="47.34717" lon="-1.28158">
        <ele>1.56</ele>
        <time>2022-09-23T09:44:35.000Z</time>
      </trkpt>
      <trkpt lat="47.34726" lon="-1.2812">
        <ele>1.92</ele>
        <time>2022-09-23T09:44:40.000Z</time>
      </trkpt>
      <trkpt lat="47.3473" lon="-1.28084">
        <ele>2.06</ele>
        <time>2022-09-23T09:44:45.000Z</time>
      </trkpt>
      <trkpt lat="47.34715" lon="-1.28073">
        <ele>0.37</ele>
        <time>2022-09-23T09:44:50.000Z</time>
      </trkpt>
      <trkpt lat="47.34691" lon="-1.28066">
        <ele>0.04</ele>
        <time>2022-09-23T09:44:55.000Z</time>
      </trkpt>
      <trkpt lat="47.3468" lon="-1.28038">
        <ele>-0.37</ele>
        <time>2022-09-23T09:45:00.000Z</time>
      </trkpt>
      <trkpt lat="47.34684" lon="-1.28001">
        <ele>-1.61</ele>
        <time>2022-09-23T09:45:05.000Z</time>
      </trkpt>
      <trkpt lat="47.34689" lon="-1.27959">
        <ele>-2.64</ele>
        <time>2022-09-23T09:45:10.000Z</time>
      </trkpt>
      <trkpt lat="47.34694" lon="-1.27916">
        <ele>-3.06</ele>
        <time>2022-09-23T09:45:15.000Z</time>
      </trkpt>
      <trkpt lat="47.34698" lon="-1.27875">
        <ele>-3.9</ele>
        <time>2022-09-23T09:45:20.000Z</time>
      </trkpt>
      <trkpt lat="47.34703" lon="-1.27834">
        <ele>-4.37</ele>
        <time>2022-09-23T09:45:25.000Z</time>
      </trkpt>
      <trkpt lat="47.3471" lon="-1.27799">
        <ele>-4.38</ele>
        <time>2022-09-23T09:45:30.000Z</time>
      </trkpt>
      <trkpt lat="47.34716" lon="-1.27763">
        <ele>-4.57</ele>
        <time>2022-09-23T09:45:35.000Z</time>
      </trkpt>
      <trkpt lat="47.34725" lon="-1.27725">
        <ele>-4.11</ele>
        <time>2022-09-23T09:45:40.000Z</time>
      </trkpt>
      <trkpt lat="47.3473" lon="-1.27685">
        <ele>-4.2</ele>
        <time>2022-09-23T09:45:45.000Z</time>
      </trkpt>
      <trkpt lat="47.34728" lon="-1.27644">
        <ele>-4.2</ele>
        <time>2022-09-23T09:45:50.000Z</time>
      </trkpt>
      <trkpt lat="47.34728" lon="-1.27596">
        <ele>-4.11</ele>
        <time>2022-09-23T09:45:55.000Z</time>
      </trkpt>
      <trkpt lat="47.34734" lon="-1.27554">
        <ele>-4.37</ele>
        <time>2022-09-23T09:46:00.000Z</time>
      </trkpt>
      <trkpt lat="47.3474" lon="-1.27513">
        <ele>-4.77</ele>
        <time>2022-09-23T09:46:05.000Z</time>
      </trkpt>
      <trkpt lat="47.34748" lon="-1.27481">
        <ele>-5.02</ele>
        <time>2022-09-23T09:46:10.000Z</time>
      </trkpt>
      <trkpt lat="47.34751" lon="-1.27435">
        <ele>-4.04</ele>
        <time>2022-09-23T09:46:15.000Z</time>
      </trkpt>
      <trkpt lat="47.34754" lon="-1.27395">
        <ele>-2.6</ele>
        <time>2022-09-23T09:46:20.000Z</time>
      </trkpt>
      <trkpt lat="47.34756" lon="-1.27356">
        <ele>-1.34</ele>
        <time>2022-09-23T09:46:25.000Z</time>
      </trkpt>
      <trkpt lat="47.34759" lon="-1.27319">
        <ele>0.04</ele>
        <time>2022-09-23T09:46:30.000Z</time>
      </trkpt>
      <trkpt lat="47.34762" lon="-1.27281">
        <ele>1.2</ele>
        <time>2022-09-23T09:46:35.000Z</time>
      </trkpt>
      <trkpt lat="47.34766" lon="-1.27243">
        <ele>2.51</ele>
        <time>2022-09-23T09:46:40.000Z</time>
      </trkpt>
      <trkpt lat="47.3477" lon="-1.27204">
        <ele>3.68</ele>
        <time>2022-09-23T09:46:45.000Z</time>
      </trkpt>
      <trkpt lat="47.34774" lon="-1.27165">
        <ele>3.88</ele>
        <time>2022-09-23T09:46:50.000Z</time>
      </trkpt>
      <trkpt lat="47.34779" lon="-1.27124">
        <ele>4.57</ele>
        <time>2022-09-23T09:46:55.000Z</time>
      </trkpt>
      <trkpt lat="47.34782" lon="-1.27079">
        <ele>4.87</ele>
        <time>2022-09-23T09:47:00.000Z</time>
      </trkpt>
      <trkpt lat="47.34787" lon="-1.27037">
        <ele>4.43</ele>
        <time>2022-09-23T09:47:05.000Z</time>
      </trkpt>
      <trkpt lat="47.34793" lon="-1.26996">
        <ele>3.9</ele>
        <time>2022-09-23T09:47:10.000Z</time>
      </trkpt>
      <trkpt lat="47.348" lon="-1.26956">
        <ele>4</ele>
        <time>2022-09-23T09:47:15.000Z</time>
      </trkpt>
      <trkpt lat="47.34808" lon="-1.26917">
        <ele>4.28</ele>
        <time>2022-09-23T09:47:20.000Z</time>
      </trkpt>
      <trkpt lat="47.34815" lon="-1.26882">
        <ele>4.01</ele>
        <time>2022-09-23T09:47:25.000Z</time>
      </trkpt>
      <trkpt lat="47.34821" lon="-1.26844">
        <ele>3.93</ele>
        <time>2022-09-23T09:47:30.000Z</time>
      </trkpt>
      <trkpt lat="47.34826" lon="-1.26805">
        <ele>4.17</ele>
        <time>2022-09-23T09:47:35.000Z</time>
      </trkpt>
      <trkpt lat="47.34837" lon="-1.2677">
        <ele>4.28</ele>
        <time>2022-09-23T09:47:40.000Z</time>
      </trkpt>
      <trkpt lat="47.34859" lon="-1.26746">
        <ele>2.72</ele>
        <time>2022-09-23T09:47:45.000Z</time>
      </trkpt>
      <trkpt lat="47.34881" lon="-1.26724">
        <ele>1.19</ele>
        <time>2022-09-23T09:47:50.000Z</time>
      </trkpt>
      <trkpt lat="47.34899" lon="-1.26704">
        <ele>0.65</ele>
        <time>2022-09-23T09:47:55.000Z</time>
      </trkpt>
      <trkpt lat="47.34913" lon="-1.26691">
        <ele>1.07</ele>
        <time>2022-09-23T09:48:00.000Z</time>
      </trkpt>
      <trkpt lat="47.34927" lon="-1.26677">
        <ele>2.17</ele>
        <time>2022-09-23T09:48:05.000Z</time>
      </trkpt>
      <trkpt lat="47.34939" lon="-1.26667">
        <ele>3.03</ele>
        <time>2022-09-23T09:48:10.000Z</time>
      </trkpt>
      <trkpt lat="47.34946" lon="-1.26658">
        <ele>4.26</ele>
        <time>2022-09-23T09:48:16.000Z</time>
      </trkpt>
      <trkpt lat="47.34952" lon="-1.26648">
        <ele>4.67</ele>
        <time>2022-09-23T09:48:21.000Z</time>
      </trkpt>
      <trkpt lat="47.34953" lon="-1.26634">
        <ele>5.73</ele>
        <time>2022-09-23T09:48:26.000Z</time>
      </trkpt>
      <trkpt lat="47.34949" lon="-1.2661">
        <ele>6.85</ele>
        <time>2022-09-23T09:48:31.000Z</time>
      </trkpt>
      <trkpt lat="47.34944" lon="-1.26576">
        <ele>7.62</ele>
        <time>2022-09-23T09:48:36.000Z</time>
      </trkpt>
      <trkpt lat="47.34939" lon="-1.26532">
        <ele>7.85</ele>
        <time>2022-09-23T09:48:41.000Z</time>
      </trkpt>
      <trkpt lat="47.34934" lon="-1.26483">
        <ele>7.21</ele>
        <time>2022-09-23T09:48:46.000Z</time>
      </trkpt>
      <trkpt lat="47.34929" lon="-1.26435">
        <ele>6.81</ele>
        <time>2022-09-23T09:48:51.000Z</time>
      </trkpt>
      <trkpt lat="47.34927" lon="-1.26385">
        <ele>6.05</ele>
        <time>2022-09-23T09:48:56.000Z</time>
      </trkpt>
      <trkpt lat="47.34923" lon="-1.26333">
        <ele>4.59</ele>
        <time>2022-09-23T09:49:01.000Z</time>
      </trkpt>
      <trkpt lat="47.34917" lon="-1.26284">
        <ele>2.92</ele>
        <time>2022-09-23T09:49:06.000Z</time>
      </trkpt>
      <trkpt lat="47.34902" lon="-1.26235">
        <ele>0.56</ele>
        <time>2022-09-23T09:49:11.000Z</time>
      </trkpt>
      <trkpt lat="47.34885" lon="-1.26187">
        <ele>-1.81</ele>
        <time>2022-09-23T09:49:16.000Z</time>
      </trkpt>
      <trkpt lat="47.34869" lon="-1.26141">
        <ele>-2.43</ele>
        <time>2022-09-23T09:49:21.000Z</time>
      </trkpt>
      <trkpt lat="47.34854" lon="-1.26099">
        <ele>-2.81</ele>
        <time>2022-09-23T09:49:26.000Z</time>
      </trkpt>
      <trkpt lat="47.34841" lon="-1.2606">
        <ele>-3.53</ele>
        <time>2022-09-23T09:49:31.000Z</time>
      </trkpt>
      <trkpt lat="47.3483" lon="-1.26017">
        <ele>-4.57</ele>
        <time>2022-09-23T09:49:36.000Z</time>
      </trkpt>
      <trkpt lat="47.34822" lon="-1.25972">
        <ele>-4.48</ele>
        <time>2022-09-23T09:49:41.000Z</time>
      </trkpt>
      <trkpt lat="47.34815" lon="-1.25933">
        <ele>-4.75</ele>
        <time>2022-09-23T09:49:46.000Z</time>
      </trkpt>
      <trkpt lat="47.34808" lon="-1.25895">
        <ele>-4.78</ele>
        <time>2022-09-23T09:49:51.000Z</time>
      </trkpt>
      <trkpt lat="47.34802" lon="-1.25856">
        <ele>-4.77</ele>
        <time>2022-09-23T09:49:56.000Z</time>
      </trkpt>
      <trkpt lat="47.34795" lon="-1.25815">
        <ele>-3.87</ele>
        <time>2022-09-23T09:50:01.000Z</time>
      </trkpt>
      <trkpt lat="47.34786" lon="-1.25774">
        <ele>-2.27</ele>
        <time>2022-09-23T09:50:06.000Z</time>
      </trkpt>
      <trkpt lat="47.3478" lon="-1.25733">
        <ele>-0.85</ele>
        <time>2022-09-23T09:50:11.000Z</time>
      </trkpt>
      <trkpt lat="47.34776" lon="-1.2569">
        <ele>0.64</ele>
        <time>2022-09-23T09:50:16.000Z</time>
      </trkpt>
      <trkpt lat="47.34773" lon="-1.25647">
        <ele>1.43</ele>
        <time>2022-09-23T09:50:21.000Z</time>
      </trkpt>
      <trkpt lat="47.34777" lon="-1.25606">
        <ele>1.98</ele>
        <time>2022-09-23T09:50:26.000Z</time>
      </trkpt>
      <trkpt lat="47.34785" lon="-1.25568">
        <ele>2.9</ele>
        <time>2022-09-23T09:50:31.000Z</time>
      </trkpt>
      <trkpt lat="47.34791" lon="-1.25532">
        <ele>4.26</ele>
        <time>2022-09-23T09:50:36.000Z</time>
      </trkpt>
      <trkpt lat="47.34794" lon="-1.25497">
        <ele>5.26</ele>
        <time>2022-09-23T09:50:41.000Z</time>
      </trkpt>
      <trkpt lat="47.34795" lon="-1.25458">
        <ele>6.01</ele>
        <time>2022-09-23T09:50:46.000Z</time>
      </trkpt>
      <trkpt lat="47.34799" lon="-1.25422">
        <ele>6.73</ele>
        <time>2022-09-23T09:50:51.000Z</time>
      </trkpt>
      <trkpt lat="47.34803" lon="-1.25397">
        <ele>7.98</ele>
        <time>2022-09-23T09:50:56.000Z</time>
      </trkpt>
      <trkpt lat="47.34801" lon="-1.25372">
        <ele>8.82</ele>
        <time>2022-09-23T09:51:01.000Z</time>
      </trkpt>
      <trkpt lat="47.34778" lon="-1.25365">
        <ele>7.73</ele>
        <time>2022-09-23T09:51:06.000Z</time>
      </trkpt>
      <trkpt lat="47.34751" lon="-1.25365">
        <ele>6.5</ele>
        <time>2022-09-23T09:51:11.000Z</time>
      </trkpt>
      <trkpt lat="47.34729" lon="-1.25358">
        <ele>5.8</ele>
        <time>2022-09-23T09:51:16.000Z</time>
      </trkpt>
      <trkpt lat="47.34714" lon="-1.25347">
        <ele>6</ele>
        <time>2022-09-23T09:51:21.000Z</time>
      </trkpt>
      <trkpt lat="47.34719" lon="-1.25325">
        <ele>6.29</ele>
        <time>2022-09-23T09:51:26.000Z</time>
      </trkpt>
      <trkpt lat="47.34728" lon="-1.25296">
        <ele>5.87</ele>
        <time>2022-09-23T09:51:31.000Z</time>
      </trkpt>
      <trkpt lat="47.3473" lon="-1.25265">
        <ele>4.24</ele>
        <time>2022-09-23T09:51:36.000Z</time>
      </trkpt>
      <trkpt lat="47.34735" lon="-1.25232">
        <ele>3.36</ele>
        <time>2022-09-23T09:51:41.000Z</time>
      </trkpt>
      <trkpt lat="47.34739" lon="-1.25196">
        <ele>2.28</ele>
        <time>2022-09-23T09:51:46.000Z</time>
      </trkpt>
      <trkpt lat="47.34745" lon="-1.25159">
        <ele>2.46</ele>
        <time>2022-09-23T09:51:51.000Z</time>
      </trkpt>
      <trkpt lat="47.34753" lon="-1.25122">
        <ele>2.66</ele>
        <time>2022-09-23T09:51:56.000Z</time>
      </trkpt>
      <trkpt lat="47.34761" lon="-1.25085">
        <ele>3</ele>
        <time>2022-09-23T09:52:01.000Z</time>
      </trkpt>
      <trkpt lat="47.34767" lon="-1.25053">
        <ele>3.63</ele>
        <time>2022-09-23T09:52:06.000Z</time>
      </trkpt>
      <trkpt lat="47.34773" lon="-1.25029">
        <ele>4.83</ele>
        <time>2022-09-23T09:52:11.000Z</time>
      </trkpt>
      <trkpt lat="47.34781" lon="-1.25002">
        <ele>5.49</ele>
        <time>2022-09-23T09:52:16.000Z</time>
      </trkpt>
      <trkpt lat="47.34788" lon="-1.24973">
        <ele>5.65</ele>
        <time>2022-09-23T09:52:21.000Z</time>
      </trkpt>
      <trkpt lat="47.34797" lon="-1.2494">
        <ele>6.11</ele>
        <time>2022-09-23T09:52:26.000Z</time>
      </trkpt>
      <trkpt lat="47.34808" lon="-1.24908">
        <ele>7.01</ele>
        <time>2022-09-23T09:52:31.000Z</time>
      </trkpt>
      <trkpt lat="47.34819" lon="-1.24875">
        <ele>7.46</ele>
        <time>2022-09-23T09:52:36.000Z</time>
      </trkpt>
      <trkpt lat="47.34831" lon="-1.24839">
        <ele>7.6</ele>
        <time>2022-09-23T09:52:41.000Z</time>
      </trkpt>
      <trkpt lat="47.34847" lon="-1.248">
        <ele>6.65</ele>
        <time>2022-09-23T09:52:46.000Z</time>
      </trkpt>
      <trkpt lat="47.34867" lon="-1.24758">
        <ele>6.5</ele>
        <time>2022-09-23T09:52:51.000Z</time>
      </trkpt>
      <trkpt lat="47.34885" lon="-1.24719">
        <ele>6.08</ele>
        <time>2022-09-23T09:52:56.000Z</time>
      </trkpt>
      <trkpt lat="47.34902" lon="-1.24681">
        <ele>6.22</ele>
        <time>2022-09-23T09:53:01.000Z</time>
      </trkpt>
      <trkpt lat="47.34918" lon="-1.24647">
        <ele>6.1</ele>
        <time>2022-09-23T09:53:06.000Z</time>
      </trkpt>
      <trkpt lat="47.34934" lon="-1.24613">
        <ele>5.71</ele>
        <time>2022-09-23T09:53:11.000Z</time>
      </trkpt>
      <trkpt lat="47.34948" lon="-1.24577">
        <ele>5.58</ele>
        <time>2022-09-23T09:53:16.000Z</time>
      </trkpt>
      <trkpt lat="47.34962" lon="-1.24542">
        <ele>6.43</ele>
        <time>2022-09-23T09:53:21.000Z</time>
      </trkpt>
      <trkpt lat="47.34977" lon="-1.24505">
        <ele>7.61</ele>
        <time>2022-09-23T09:53:26.000Z</time>
      </trkpt>
      <trkpt lat="47.34992" lon="-1.24467">
        <ele>7.64</ele>
        <time>2022-09-23T09:53:31.000Z</time>
      </trkpt>
      <trkpt lat="47.35006" lon="-1.24431">
        <ele>7.25</ele>
        <time>2022-09-23T09:53:36.000Z</time>
      </trkpt>
      <trkpt lat="47.35019" lon="-1.24394">
        <ele>6.89</ele>
        <time>2022-09-23T09:53:41.000Z</time>
      </trkpt>
      <trkpt lat="47.35031" lon="-1.24357">
        <ele>5.61</ele>
        <time>2022-09-23T09:53:46.000Z</time>
      </trkpt>
      <trkpt lat="47.35042" lon="-1.24319">
        <ele>5.42</ele>
        <time>2022-09-23T09:53:51.000Z</time>
      </trkpt>
      <trkpt lat="47.35053" lon="-1.24284">
        <ele>5.7</ele>
        <time>2022-09-23T09:53:56.000Z</time>
      </trkpt>
      <trkpt lat="47.35065" lon="-1.24246">
        <ele>4.84</ele>
        <time>2022-09-23T09:54:01.000Z</time>
      </trkpt>
      <trkpt lat="47.35075" lon="-1.24208">
        <ele>3.85</ele>
        <time>2022-09-23T09:54:06.000Z</time>
      </trkpt>
      <trkpt lat="47.35085" lon="-1.24171">
        <ele>3.57</ele>
        <time>2022-09-23T09:54:11.000Z</time>
      </trkpt>
      <trkpt lat="47.35096" lon="-1.24136">
        <ele>3.01</ele>
        <time>2022-09-23T09:54:16.000Z</time>
      </trkpt>
      <trkpt lat="47.35105" lon="-1.241">
        <ele>2.67</ele>
        <time>2022-09-23T09:54:21.000Z</time>
      </trkpt>
      <trkpt lat="47.35113" lon="-1.24067">
        <ele>3.5</ele>
        <time>2022-09-23T09:54:26.000Z</time>
      </trkpt>
      <trkpt lat="47.35118" lon="-1.24042">
        <ele>4.15</ele>
        <time>2022-09-23T09:54:31.000Z</time>
      </trkpt>
      <trkpt lat="47.35126" lon="-1.24015">
        <ele>4.4</ele>
        <time>2022-09-23T09:54:36.000Z</time>
      </trkpt>
      <trkpt lat="47.35139" lon="-1.23978">
        <ele>4.34</ele>
        <time>2022-09-23T09:54:41.000Z</time>
      </trkpt>
      <trkpt lat="47.35151" lon="-1.23935">
        <ele>5.1</ele>
        <time>2022-09-23T09:54:46.000Z</time>
      </trkpt>
      <trkpt lat="47.35163" lon="-1.23897">
        <ele>4.8</ele>
        <time>2022-09-23T09:54:51.000Z</time>
      </trkpt>
      <trkpt lat="47.35173" lon="-1.23864">
        <ele>5.72</ele>
        <time>2022-09-23T09:54:56.000Z</time>
      </trkpt>
      <trkpt lat="47.35177" lon="-1.23838">
        <ele>4.25</ele>
        <time>2022-09-23T09:55:01.000Z</time>
      </trkpt>
      <trkpt lat="47.35176" lon="-1.23819">
        <ele>2.76</ele>
        <time>2022-09-23T09:55:06.000Z</time>
      </trkpt>
      <trkpt lat="47.35179" lon="-1.23805">
        <ele>0.19</ele>
        <time>2022-09-23T09:56:10.000Z</time>
      </trkpt>
      <trkpt lat="47.35185" lon="-1.23796">
        <ele>0.47</ele>
        <time>2022-09-23T09:56:16.000Z</time>
      </trkpt>
      <trkpt lat="47.35192" lon="-1.23779">
        <ele>0.99</ele>
        <time>2022-09-23T09:56:21.000Z</time>
      </trkpt>
      <trkpt lat="47.35198" lon="-1.23759">
        <ele>1.09</ele>
        <time>2022-09-23T09:56:26.000Z</time>
      </trkpt>
      <trkpt lat="47.35205" lon="-1.23734">
        <ele>1.6</ele>
        <time>2022-09-23T09:56:31.000Z</time>
      </trkpt>
      <trkpt lat="47.35213" lon="-1.23706">
        <ele>0.95</ele>
        <time>2022-09-23T09:56:36.000Z</time>
      </trkpt>
      <trkpt lat="47.35222" lon="-1.23675">
        <ele>0.76</ele>
        <time>2022-09-23T09:56:41.000Z</time>
      </trkpt>
      <trkpt lat="47.35232" lon="-1.23641">
        <ele>1.41</ele>
        <time>2022-09-23T09:56:46.000Z</time>
      </trkpt>
      <trkpt lat="47.35241" lon="-1.23607">
        <ele>3.11</ele>
        <time>2022-09-23T09:56:51.000Z</time>
      </trkpt>
      <trkpt lat="47.3525" lon="-1.23574">
        <ele>3.54</ele>
        <time>2022-09-23T09:56:56.000Z</time>
      </trkpt>
      <trkpt lat="47.3526" lon="-1.2354">
        <ele>3.02</ele>
        <time>2022-09-23T09:57:01.000Z</time>
      </trkpt>
      <trkpt lat="47.3527" lon="-1.23504">
        <ele>3.02</ele>
        <time>2022-09-23T09:57:06.000Z</time>
      </trkpt>
      <trkpt lat="47.3528" lon="-1.23471">
        <ele>2.82</ele>
        <time>2022-09-23T09:57:11.000Z</time>
      </trkpt>
      <trkpt lat="47.3529" lon="-1.23435">
        <ele>2.96</ele>
        <time>2022-09-23T09:57:16.000Z</time>
      </trkpt>
      <trkpt lat="47.353" lon="-1.23397">
        <ele>3.46</ele>
        <time>2022-09-23T09:57:21.000Z</time>
      </trkpt>
      <trkpt lat="47.35311" lon="-1.2336">
        <ele>3.2</ele>
        <time>2022-09-23T09:57:26.000Z</time>
      </trkpt>
      <trkpt lat="47.35321" lon="-1.2333">
        <ele>3.85</ele>
        <time>2022-09-23T09:57:31.000Z</time>
      </trkpt>
      <trkpt lat="47.35329" lon="-1.23306">
        <ele>4.02</ele>
        <time>2022-09-23T09:57:36.000Z</time>
      </trkpt>
      <trkpt lat="47.35338" lon="-1.23278">
        <ele>4.23</ele>
        <time>2022-09-23T09:57:41.000Z</time>
      </trkpt>
      <trkpt lat="47.35351" lon="-1.23247">
        <ele>4.3</ele>
        <time>2022-09-23T09:57:46.000Z</time>
      </trkpt>
      <trkpt lat="47.35367" lon="-1.23204">
        <ele>3.9</ele>
        <time>2022-09-23T09:57:51.000Z</time>
      </trkpt>
      <trkpt lat="47.35384" lon="-1.23163">
        <ele>2.95</ele>
        <time>2022-09-23T09:57:56.000Z</time>
      </trkpt>
      <trkpt lat="47.35401" lon="-1.23127">
        <ele>3.24</ele>
        <time>2022-09-23T09:58:01.000Z</time>
      </trkpt>
      <trkpt lat="47.35419" lon="-1.23093">
        <ele>3.67</ele>
        <time>2022-09-23T09:58:06.000Z</time>
      </trkpt>
      <trkpt lat="47.35435" lon="-1.2306">
        <ele>4.52</ele>
        <time>2022-09-23T09:58:11.000Z</time>
      </trkpt>
      <trkpt lat="47.35451" lon="-1.23028">
        <ele>5.7</ele>
        <time>2022-09-23T09:58:16.000Z</time>
      </trkpt>
      <trkpt lat="47.35465" lon="-1.22999">
        <ele>6.54</ele>
        <time>2022-09-23T09:58:21.000Z</time>
      </trkpt>
      <trkpt lat="47.35482" lon="-1.22969">
        <ele>7.13</ele>
        <time>2022-09-23T09:58:26.000Z</time>
      </trkpt>
      <trkpt lat="47.35498" lon="-1.22939">
        <ele>7.03</ele>
        <time>2022-09-23T09:58:31.000Z</time>
      </trkpt>
      <trkpt lat="47.35514" lon="-1.22905">
        <ele>7.04</ele>
        <time>2022-09-23T09:58:36.000Z</time>
      </trkpt>
      <trkpt lat="47.35529" lon="-1.22872">
        <ele>7.86</ele>
        <time>2022-09-23T09:58:41.000Z</time>
      </trkpt>
      <trkpt lat="47.35545" lon="-1.22838">
        <ele>8.49</ele>
        <time>2022-09-23T09:58:46.000Z</time>
      </trkpt>
      <trkpt lat="47.35559" lon="-1.22812">
        <ele>8.63</ele>
        <time>2022-09-23T09:58:51.000Z</time>
      </trkpt>
      <trkpt lat="47.3557" lon="-1.22787">
        <ele>7.46</ele>
        <time>2022-09-23T09:58:56.000Z</time>
      </trkpt>
      <trkpt lat="47.35576" lon="-1.22765">
        <ele>5.98</ele>
        <time>2022-09-23T09:59:01.000Z</time>
      </trkpt>
      <trkpt lat="47.35586" lon="-1.22749">
        <ele>5.35</ele>
        <time>2022-09-23T09:59:06.000Z</time>
      </trkpt>
      <trkpt lat="47.35596" lon="-1.22726">
        <ele>4.47</ele>
        <time>2022-09-23T09:59:11.000Z</time>
      </trkpt>
      <trkpt lat="47.35608" lon="-1.22703">
        <ele>3.83</ele>
        <time>2022-09-23T09:59:16.000Z</time>
      </trkpt>
      <trkpt lat="47.35619" lon="-1.22678">
        <ele>3.5</ele>
        <time>2022-09-23T09:59:21.000Z</time>
      </trkpt>
      <trkpt lat="47.35633" lon="-1.22652">
        <ele>3.76</ele>
        <time>2022-09-23T09:59:26.000Z</time>
      </trkpt>
      <trkpt lat="47.35645" lon="-1.22625">
        <ele>4.27</ele>
        <time>2022-09-23T09:59:31.000Z</time>
      </trkpt>
      <trkpt lat="47.35663" lon="-1.22594">
        <ele>4.96</ele>
        <time>2022-09-23T09:59:36.000Z</time>
      </trkpt>
      <trkpt lat="47.3568" lon="-1.22561">
        <ele>5.01</ele>
        <time>2022-09-23T09:59:41.000Z</time>
      </trkpt>
      <trkpt lat="47.35697" lon="-1.22525">
        <ele>4.03</ele>
        <time>2022-09-23T09:59:46.000Z</time>
      </trkpt>
      <trkpt lat="47.35713" lon="-1.22492">
        <ele>2.74</ele>
        <time>2022-09-23T09:59:51.000Z</time>
      </trkpt>
      <trkpt lat="47.35728" lon="-1.2246">
        <ele>1.67</ele>
        <time>2022-09-23T09:59:56.000Z</time>
      </trkpt>
      <trkpt lat="47.35739" lon="-1.22431">
        <ele>1.76</ele>
        <time>2022-09-23T10:00:01.000Z</time>
      </trkpt>
      <trkpt lat="47.35731" lon="-1.22409">
        <ele>1.46</ele>
        <time>2022-09-23T10:00:06.000Z</time>
      </trkpt>
      <trkpt lat="47.35717" lon="-1.22389">
        <ele>0.38</ele>
        <time>2022-09-23T10:00:11.000Z</time>
      </trkpt>
      <trkpt lat="47.3571" lon="-1.22364">
        <ele>-0.34</ele>
        <time>2022-09-23T10:00:16.000Z</time>
      </trkpt>
      <trkpt lat="47.35712" lon="-1.22332">
        <ele>-0.28</ele>
        <time>2022-09-23T10:00:21.000Z</time>
      </trkpt>
      <trkpt lat="47.35716" lon="-1.22297">
        <ele>-0.11</ele>
        <time>2022-09-23T10:00:26.000Z</time>
      </trkpt>
      <trkpt lat="47.3572" lon="-1.22259">
        <ele>1.2</ele>
        <time>2022-09-23T10:00:31.000Z</time>
      </trkpt>
      <trkpt lat="47.35725" lon="-1.22221">
        <ele>2.47</ele>
        <time>2022-09-23T10:00:36.000Z</time>
      </trkpt>
      <trkpt lat="47.3573" lon="-1.22184">
        <ele>2.57</ele>
        <time>2022-09-23T10:00:41.000Z</time>
      </trkpt>
      <trkpt lat="47.35734" lon="-1.22146">
        <ele>2.35</ele>
        <time>2022-09-23T10:00:46.000Z</time>
      </trkpt>
      <trkpt lat="47.3574" lon="-1.22107">
        <ele>2.59</ele>
        <time>2022-09-23T10:00:51.000Z</time>
      </trkpt>
      <trkpt lat="47.35745" lon="-1.22067">
        <ele>2.16</ele>
        <time>2022-09-23T10:00:56.000Z</time>
      </trkpt>
      <trkpt lat="47.35748" lon="-1.22027">
        <ele>1.48</ele>
        <time>2022-09-23T10:01:01.000Z</time>
      </trkpt>
      <trkpt lat="47.35753" lon="-1.21988">
        <ele>2.21</ele>
        <time>2022-09-23T10:01:06.000Z</time>
      </trkpt>
      <trkpt lat="47.35758" lon="-1.21947">
        <ele>2.57</ele>
        <time>2022-09-23T10:01:11.000Z</time>
      </trkpt>
      <trkpt lat="47.35763" lon="-1.21908">
        <ele>1.38</ele>
        <time>2022-09-23T10:01:16.000Z</time>
      </trkpt>
      <trkpt lat="47.35767" lon="-1.21868">
        <ele>1.79</ele>
        <time>2022-09-23T10:01:21.000Z</time>
      </trkpt>
      <trkpt lat="47.35773" lon="-1.21829">
        <ele>2.17</ele>
        <time>2022-09-23T10:01:26.000Z</time>
      </trkpt>
      <trkpt lat="47.35779" lon="-1.21792">
        <ele>2.1</ele>
        <time>2022-09-23T10:01:31.000Z</time>
      </trkpt>
      <trkpt lat="47.35786" lon="-1.21755">
        <ele>1.5</ele>
        <time>2022-09-23T10:01:36.000Z</time>
      </trkpt>
      <trkpt lat="47.35794" lon="-1.21718">
        <ele>1.49</ele>
        <time>2022-09-23T10:01:41.000Z</time>
      </trkpt>
      <trkpt lat="47.35801" lon="-1.2168">
        <ele>0.84</ele>
        <time>2022-09-23T10:01:46.000Z</time>
      </trkpt>
      <trkpt lat="47.35808" lon="-1.21641">
        <ele>0.34</ele>
        <time>2022-09-23T10:01:51.000Z</time>
      </trkpt>
      <trkpt lat="47.35816" lon="-1.21604">
        <ele>-0.47</ele>
        <time>2022-09-23T10:01:56.000Z</time>
      </trkpt>
      <trkpt lat="47.35822" lon="-1.21569">
        <ele>-0.06</ele>
        <time>2022-09-23T10:02:01.000Z</time>
      </trkpt>
      <trkpt lat="47.35829" lon="-1.21532">
        <ele>8</ele>
        <time>2022-09-23T10:02:06.000Z</time>
      </trkpt>
      <trkpt lat="47.35837" lon="-1.21494">
        <ele>0.29</ele>
        <time>2022-09-23T10:02:11.000Z</time>
      </trkpt>
      <trkpt lat="47.35844" lon="-1.21457">
        <ele>1.07</ele>
        <time>2022-09-23T10:02:16.000Z</time>
      </trkpt>
      <trkpt lat="47.35852" lon="-1.2142">
        <ele>1.59</ele>
        <time>2022-09-23T10:02:21.000Z</time>
      </trkpt>
      <trkpt lat="47.3586" lon="-1.21378">
        <ele>1.85</ele>
        <time>2022-09-23T10:02:26.000Z</time>
      </trkpt>
      <trkpt lat="47.35867" lon="-1.21337">
        <ele>2.19</ele>
        <time>2022-09-23T10:02:31.000Z</time>
      </trkpt>
      <trkpt lat="47.35875" lon="-1.21296">
        <ele>2.27</ele>
        <time>2022-09-23T10:02:36.000Z</time>
      </trkpt>
      <trkpt lat="47.35886" lon="-1.21259">
        <ele>2.3</ele>
        <time>2022-09-23T10:02:41.000Z</time>
      </trkpt>
      <trkpt lat="47.35895" lon="-1.21225">
        <ele>2.65</ele>
        <time>2022-09-23T10:02:46.000Z</time>
      </trkpt>
      <trkpt lat="47.35908" lon="-1.21191">
        <ele>2.8</ele>
        <time>2022-09-23T10:02:51.000Z</time>
      </trkpt>
      <trkpt lat="47.35919" lon="-1.2116">
        <ele>3.07</ele>
        <time>2022-09-23T10:02:56.000Z</time>
      </trkpt>
      <trkpt lat="47.35929" lon="-1.21133">
        <ele>3.37</ele>
        <time>2022-09-23T10:03:01.000Z</time>
      </trkpt>
      <trkpt lat="47.3594" lon="-1.21106">
        <ele>3.76</ele>
        <time>2022-09-23T10:03:06.000Z</time>
      </trkpt>
      <trkpt lat="47.35955" lon="-1.21073">
        <ele>2.7</ele>
        <time>2022-09-23T10:03:11.000Z</time>
      </trkpt>
      <trkpt lat="47.35969" lon="-1.21039">
        <ele>2.14</ele>
        <time>2022-09-23T10:03:16.000Z</time>
      </trkpt>
      <trkpt lat="47.35979" lon="-1.21007">
        <ele>3.5</ele>
        <time>2022-09-23T10:03:21.000Z</time>
      </trkpt>
      <trkpt lat="47.35992" lon="-1.20975">
        <ele>5.25</ele>
        <time>2022-09-23T10:03:26.000Z</time>
      </trkpt>
      <trkpt lat="47.36005" lon="-1.20942">
        <ele>5.77</ele>
        <time>2022-09-23T10:03:31.000Z</time>
      </trkpt>
      <trkpt lat="47.36017" lon="-1.20908">
        <ele>5.57</ele>
        <time>2022-09-23T10:03:36.000Z</time>
      </trkpt>
      <trkpt lat="47.36027" lon="-1.20875">
        <ele>7.49</ele>
        <time>2022-09-23T10:03:41.000Z</time>
      </trkpt>
      <trkpt lat="47.36034" lon="-1.20844">
        <ele>9.06</ele>
        <time>2022-09-23T10:03:46.000Z</time>
      </trkpt>
      <trkpt lat="47.36044" lon="-1.20811">
        <ele>11.34</ele>
        <time>2022-09-23T10:03:51.000Z</time>
      </trkpt>
      <trkpt lat="47.36053" lon="-1.20768">
        <ele>12.06</ele>
        <time>2022-09-23T10:03:56.000Z</time>
      </trkpt>
      <trkpt lat="47.36059" lon="-1.20726">
        <ele>11.17</ele>
        <time>2022-09-23T10:04:01.000Z</time>
      </trkpt>
      <trkpt lat="47.36064" lon="-1.20691">
        <ele>10.48</ele>
        <time>2022-09-23T10:04:06.000Z</time>
      </trkpt>
      <trkpt lat="47.36067" lon="-1.20651">
        <ele>11.4</ele>
        <time>2022-09-23T10:04:11.000Z</time>
      </trkpt>
      <trkpt lat="47.3607" lon="-1.20614">
        <ele>10.62</ele>
        <time>2022-09-23T10:04:16.000Z</time>
      </trkpt>
      <trkpt lat="47.36073" lon="-1.20581">
        <ele>11.61</ele>
        <time>2022-09-23T10:04:21.000Z</time>
      </trkpt>
      <trkpt lat="47.36074" lon="-1.20546">
        <ele>13.09</ele>
        <time>2022-09-23T10:04:26.000Z</time>
      </trkpt>
      <trkpt lat="47.36075" lon="-1.20506">
        <ele>15.44</ele>
        <time>2022-09-23T10:04:31.000Z</time>
      </trkpt>
      <trkpt lat="47.36081" lon="-1.20467">
        <ele>16.42</ele>
        <time>2022-09-23T10:04:36.000Z</time>
      </trkpt>
      <trkpt lat="47.36084" lon="-1.20428">
        <ele>16.64</ele>
        <time>2022-09-23T10:04:41.000Z</time>
      </trkpt>
      <trkpt lat="47.36083" lon="-1.20388">
        <ele>18.41</ele>
        <time>2022-09-23T10:04:46.000Z</time>
      </trkpt>
      <trkpt lat="47.36084" lon="-1.20351">
        <ele>19.75</ele>
        <time>2022-09-23T10:04:51.000Z</time>
      </trkpt>
      <trkpt lat="47.36085" lon="-1.20314">
        <ele>21.96</ele>
        <time>2022-09-23T10:04:56.000Z</time>
      </trkpt>
      <trkpt lat="47.36082" lon="-1.20273">
        <ele>24.45</ele>
        <time>2022-09-23T10:05:01.000Z</time>
      </trkpt>
      <trkpt lat="47.36086" lon="-1.20241">
        <ele>25.14</ele>
        <time>2022-09-23T10:05:06.000Z</time>
      </trkpt>
      <trkpt lat="47.36087" lon="-1.20225">
        <ele>27.15</ele>
        <time>2022-09-23T10:05:11.000Z</time>
      </trkpt>
      <trkpt lat="47.36098" lon="-1.20222">
        <ele>26.57</ele>
        <time>2022-09-23T10:05:16.000Z</time>
      </trkpt>
      <trkpt lat="47.36114" lon="-1.20216">
        <ele>23.63</ele>
        <time>2022-09-23T10:05:21.000Z</time>
      </trkpt>
      <trkpt lat="47.36131" lon="-1.20206">
        <ele>19.98</ele>
        <time>2022-09-23T10:05:26.000Z</time>
      </trkpt>
      <trkpt lat="47.36143" lon="-1.20188">
        <ele>17.99</ele>
        <time>2022-09-23T10:05:31.000Z</time>
      </trkpt>
      <trkpt lat="47.36158" lon="-1.20163">
        <ele>16.69</ele>
        <time>2022-09-23T10:05:36.000Z</time>
      </trkpt>
      <trkpt lat="47.36167" lon="-1.20136">
        <ele>16.71</ele>
        <time>2022-09-23T10:05:41.000Z</time>
      </trkpt>
      <trkpt lat="47.36179" lon="-1.201">
        <ele>17.66</ele>
        <time>2022-09-23T10:05:46.000Z</time>
      </trkpt>
      <trkpt lat="47.36187" lon="-1.20063">
        <ele>15.19</ele>
        <time>2022-09-23T10:05:51.000Z</time>
      </trkpt>
      <trkpt lat="47.36193" lon="-1.20029">
        <ele>14.4</ele>
        <time>2022-09-23T10:05:56.000Z</time>
      </trkpt>
      <trkpt lat="47.36202" lon="-1.19999">
        <ele>13.16</ele>
        <time>2022-09-23T10:06:01.000Z</time>
      </trkpt>
      <trkpt lat="47.36213" lon="-1.19968">
        <ele>12.75</ele>
        <time>2022-09-23T10:06:06.000Z</time>
      </trkpt>
      <trkpt lat="47.36223" lon="-1.19937">
        <ele>11.12</ele>
        <time>2022-09-23T10:06:11.000Z</time>
      </trkpt>
      <trkpt lat="47.36233" lon="-1.19903">
        <ele>10.58</ele>
        <time>2022-09-23T10:06:16.000Z</time>
      </trkpt>
      <trkpt lat="47.36245" lon="-1.19871">
        <ele>9.92</ele>
        <time>2022-09-23T10:06:21.000Z</time>
      </trkpt>
      <trkpt lat="47.36259" lon="-1.19839">
        <ele>9.8</ele>
        <time>2022-09-23T10:06:26.000Z</time>
      </trkpt>
      <trkpt lat="47.36268" lon="-1.19809">
        <ele>10.17</ele>
        <time>2022-09-23T10:06:31.000Z</time>
      </trkpt>
      <trkpt lat="47.36276" lon="-1.19786">
        <ele>10.06</ele>
        <time>2022-09-23T10:06:36.000Z</time>
      </trkpt>
      <trkpt lat="47.36284" lon="-1.19766">
        <ele>9.9</ele>
        <time>2022-09-23T10:06:41.000Z</time>
      </trkpt>
      <trkpt lat="47.36296" lon="-1.19748">
        <ele>5.5</ele>
        <time>2022-09-23T10:08:06.000Z</time>
      </trkpt>
      <trkpt lat="47.36295" lon="-1.19733">
        <ele>4.46</ele>
        <time>2022-09-23T10:08:20.000Z</time>
      </trkpt>
      <trkpt lat="47.36301" lon="-1.19704">
        <ele>5.21</ele>
        <time>2022-09-23T10:08:25.000Z</time>
      </trkpt>
      <trkpt lat="47.36307" lon="-1.19668">
        <ele>5.85</ele>
        <time>2022-09-23T10:08:30.000Z</time>
      </trkpt>
      <trkpt lat="47.36313" lon="-1.19626">
        <ele>6.22</ele>
        <time>2022-09-23T10:08:35.000Z</time>
      </trkpt>
      <trkpt lat="47.36319" lon="-1.19585">
        <ele>6.69</ele>
        <time>2022-09-23T10:08:40.000Z</time>
      </trkpt>
      <trkpt lat="47.36325" lon="-1.19542">
        <ele>7.09</ele>
        <time>2022-09-23T10:08:45.000Z</time>
      </trkpt>
      <trkpt lat="47.36332" lon="-1.19499">
        <ele>6.99</ele>
        <time>2022-09-23T10:08:50.000Z</time>
      </trkpt>
      <trkpt lat="47.36339" lon="-1.19457">
        <ele>7.02</ele>
        <time>2022-09-23T10:08:55.000Z</time>
      </trkpt>
      <trkpt lat="47.36345" lon="-1.19415">
        <ele>7.74</ele>
        <time>2022-09-23T10:09:00.000Z</time>
      </trkpt>
      <trkpt lat="47.36348" lon="-1.19374">
        <ele>8.32</ele>
        <time>2022-09-23T10:09:05.000Z</time>
      </trkpt>
      <trkpt lat="47.36349" lon="-1.19331">
        <ele>6.85</ele>
        <time>2022-09-23T10:09:10.000Z</time>
      </trkpt>
      <trkpt lat="47.36349" lon="-1.19289">
        <ele>6.4</ele>
        <time>2022-09-23T10:09:15.000Z</time>
      </trkpt>
      <trkpt lat="47.36346" lon="-1.1925">
        <ele>6.33</ele>
        <time>2022-09-23T10:09:20.000Z</time>
      </trkpt>
      <trkpt lat="47.36345" lon="-1.1921">
        <ele>6.57</ele>
        <time>2022-09-23T10:09:25.000Z</time>
      </trkpt>
      <trkpt lat="47.36343" lon="-1.19169">
        <ele>6.51</ele>
        <time>2022-09-23T10:09:30.000Z</time>
      </trkpt>
      <trkpt lat="47.36342" lon="-1.19131">
        <ele>5.8</ele>
        <time>2022-09-23T10:09:35.000Z</time>
      </trkpt>
      <trkpt lat="47.3634" lon="-1.1909">
        <ele>5.8</ele>
        <time>2022-09-23T10:09:40.000Z</time>
      </trkpt>
      <trkpt lat="47.36339" lon="-1.19053">
        <ele>6.6</ele>
        <time>2022-09-23T10:09:45.000Z</time>
      </trkpt>
      <trkpt lat="47.36339" lon="-1.19021">
        <ele>7.8</ele>
        <time>2022-09-23T10:09:50.000Z</time>
      </trkpt>
      <trkpt lat="47.36339" lon="-1.18984">
        <ele>8.21</ele>
        <time>2022-09-23T10:09:55.000Z</time>
      </trkpt>
      <trkpt lat="47.36341" lon="-1.18949">
        <ele>8.03</ele>
        <time>2022-09-23T10:10:00.000Z</time>
      </trkpt>
      <trkpt lat="47.36342" lon="-1.18916">
        <ele>9.95</ele>
        <time>2022-09-23T10:10:05.000Z</time>
      </trkpt>
      <trkpt lat="47.36343" lon="-1.18885">
        <ele>12.56</ele>
        <time>2022-09-23T10:10:10.000Z</time>
      </trkpt>
      <trkpt lat="47.36344" lon="-1.18852">
        <ele>14.29</ele>
        <time>2022-09-23T10:10:15.000Z</time>
      </trkpt>
      <trkpt lat="47.36344" lon="-1.18821">
        <ele>15.6</ele>
        <time>2022-09-23T10:10:20.000Z</time>
      </trkpt>
      <trkpt lat="47.36346" lon="-1.18791">
        <ele>14.33</ele>
        <time>2022-09-23T10:10:25.000Z</time>
      </trkpt>
      <trkpt lat="47.36346" lon="-1.18775">
        <ele>13</ele>
        <time>2022-09-23T10:10:30.000Z</time>
      </trkpt>
      <trkpt lat="47.36355" lon="-1.18774">
        <ele>11.74</ele>
        <time>2022-09-23T10:10:37.000Z</time>
      </trkpt>
      <trkpt lat="47.36345" lon="-1.18772">
        <ele>9.29</ele>
        <time>2022-09-23T10:10:43.000Z</time>
      </trkpt>
      <trkpt lat="47.36341" lon="-1.18758">
        <ele>8.82</ele>
        <time>2022-09-23T10:10:49.000Z</time>
      </trkpt>
      <trkpt lat="47.36334" lon="-1.18748">
        <ele>6.66</ele>
        <time>2022-09-23T10:11:24.000Z</time>
      </trkpt>
      <trkpt lat="47.3633" lon="-1.1873">
        <ele>6.48</ele>
        <time>2022-09-23T10:11:29.000Z</time>
      </trkpt>
      <trkpt lat="47.36331" lon="-1.18714">
        <ele>6.86</ele>
        <time>2022-09-23T10:11:34.000Z</time>
      </trkpt>
      <trkpt lat="47.36338" lon="-1.18695">
        <ele>6.99</ele>
        <time>2022-09-23T10:11:39.000Z</time>
      </trkpt>
      <trkpt lat="47.36345" lon="-1.18685">
        <ele>7.61</ele>
        <time>2022-09-23T10:11:44.000Z</time>
      </trkpt>
      <trkpt lat="47.36344" lon="-1.18661">
        <ele>7.76</ele>
        <time>2022-09-23T10:11:49.000Z</time>
      </trkpt>
      <trkpt lat="47.36344" lon="-1.18631">
        <ele>9.57</ele>
        <time>2022-09-23T10:11:54.000Z</time>
      </trkpt>
      <trkpt lat="47.36346" lon="-1.18596">
        <ele>10.37</ele>
        <time>2022-09-23T10:11:59.000Z</time>
      </trkpt>
      <trkpt lat="47.36346" lon="-1.1856">
        <ele>11.25</ele>
        <time>2022-09-23T10:12:04.000Z</time>
      </trkpt>
      <trkpt lat="47.36345" lon="-1.18525">
        <ele>11.43</ele>
        <time>2022-09-23T10:12:09.000Z</time>
      </trkpt>
      <trkpt lat="47.36346" lon="-1.18493">
        <ele>11.88</ele>
        <time>2022-09-23T10:12:14.000Z</time>
      </trkpt>
      <trkpt lat="47.36344" lon="-1.18462">
        <ele>12.56</ele>
        <time>2022-09-23T10:12:19.000Z</time>
      </trkpt>
      <trkpt lat="47.36346" lon="-1.18436">
        <ele>13.85</ele>
        <time>2022-09-23T10:12:24.000Z</time>
      </trkpt>
      <trkpt lat="47.36348" lon="-1.18406">
        <ele>13.77</ele>
        <time>2022-09-23T10:12:29.000Z</time>
      </trkpt>
      <trkpt lat="47.36346" lon="-1.18376">
        <ele>13.16</ele>
        <time>2022-09-23T10:12:34.000Z</time>
      </trkpt>
      <trkpt lat="47.36347" lon="-1.18354">
        <ele>12.09</ele>
        <time>2022-09-23T10:12:39.000Z</time>
      </trkpt>
      <trkpt lat="47.36343" lon="-1.18335">
        <ele>11.28</ele>
        <time>2022-09-23T10:12:44.000Z</time>
      </trkpt>
      <trkpt lat="47.36341" lon="-1.18317">
        <ele>11.04</ele>
        <time>2022-09-23T10:12:49.000Z</time>
      </trkpt>
      <trkpt lat="47.36344" lon="-1.18289">
        <ele>10.78</ele>
        <time>2022-09-23T10:12:54.000Z</time>
      </trkpt>
      <trkpt lat="47.36344" lon="-1.18256">
        <ele>9.88</ele>
        <time>2022-09-23T10:12:59.000Z</time>
      </trkpt>
      <trkpt lat="47.36341" lon="-1.1823">
        <ele>9.42</ele>
        <time>2022-09-23T10:13:04.000Z</time>
      </trkpt>
      <trkpt lat="47.36341" lon="-1.18201">
        <ele>8.91</ele>
        <time>2022-09-23T10:13:09.000Z</time>
      </trkpt>
      <trkpt lat="47.36341" lon="-1.18181">
        <ele>8.22</ele>
        <time>2022-09-23T10:13:14.000Z</time>
      </trkpt>
      <trkpt lat="47.36343" lon="-1.1815">
        <ele>7.62</ele>
        <time>2022-09-23T10:13:19.000Z</time>
      </trkpt>
      <trkpt lat="47.36343" lon="-1.1812">
        <ele>5.27</ele>
        <time>2022-09-23T10:13:24.000Z</time>
      </trkpt>
      <trkpt lat="47.36339" lon="-1.1809">
        <ele>2.58</ele>
        <time>2022-09-23T10:13:29.000Z</time>
      </trkpt>
      <trkpt lat="47.36334" lon="-1.1806">
        <ele>1.38</ele>
        <time>2022-09-23T10:13:34.000Z</time>
      </trkpt>
      <trkpt lat="47.36331" lon="-1.18032">
        <ele>1.8</ele>
        <time>2022-09-23T10:13:39.000Z</time>
      </trkpt>
      <trkpt lat="47.36331" lon="-1.18008">
        <ele>2.44</ele>
        <time>2022-09-23T10:13:44.000Z</time>
      </trkpt>
      <trkpt lat="47.36328" lon="-1.17978">
        <ele>2.66</ele>
        <time>2022-09-23T10:13:49.000Z</time>
      </trkpt>
      <trkpt lat="47.36325" lon="-1.17947">
        <ele>3.27</ele>
        <time>2022-09-23T10:13:54.000Z</time>
      </trkpt>
      <trkpt lat="47.36323" lon="-1.17915">
        <ele>4.21</ele>
        <time>2022-09-23T10:13:59.000Z</time>
      </trkpt>
      <trkpt lat="47.36324" lon="-1.17889">
        <ele>4.67</ele>
        <time>2022-09-23T10:14:04.000Z</time>
      </trkpt>
      <trkpt lat="47.36327" lon="-1.17876">
        <ele>4.58</ele>
        <time>2022-09-23T10:14:09.000Z</time>
      </trkpt>
      <trkpt lat="47.36328" lon="-1.17863">
        <ele>5.51</ele>
        <time>2022-09-23T10:14:14.000Z</time>
      </trkpt>
      <trkpt lat="47.36332" lon="-1.17851">
        <ele>6.79</ele>
        <time>2022-09-23T10:14:20.000Z</time>
      </trkpt>
      <trkpt lat="47.3634" lon="-1.1784">
        <ele>8.78</ele>
        <time>2022-09-23T10:14:33.000Z</time>
      </trkpt>
      <trkpt lat="47.36344" lon="-1.17823">
        <ele>8.97</ele>
        <time>2022-09-23T10:14:38.000Z</time>
      </trkpt>
      <trkpt lat="47.36348" lon="-1.17808">
        <ele>9.39</ele>
        <time>2022-09-23T10:14:43.000Z</time>
      </trkpt>
      <trkpt lat="47.36352" lon="-1.17796">
        <ele>7.74</ele>
        <time>2022-09-23T10:14:58.000Z</time>
      </trkpt>
      <trkpt lat="47.3636" lon="-1.17791">
        <ele>7</ele>
        <time>2022-09-23T10:15:25.000Z</time>
      </trkpt>
      <trkpt lat="47.36368" lon="-1.17799">
        <ele>6.7</ele>
        <time>2022-09-23T10:15:37.000Z</time>
      </trkpt>
      <trkpt lat="47.36358" lon="-1.17795">
        <ele>7.62</ele>
        <time>2022-09-23T10:16:42.000Z</time>
      </trkpt>
      <trkpt lat="47.36355" lon="-1.17782">
        <ele>7.64</ele>
        <time>2022-09-23T10:16:51.000Z</time>
      </trkpt>
      <trkpt lat="47.36358" lon="-1.17769">
        <ele>7.35</ele>
        <time>2022-09-23T10:16:58.000Z</time>
      </trkpt>
      <trkpt lat="47.36363" lon="-1.17758">
        <ele>7.38</ele>
        <time>2022-09-23T10:17:06.000Z</time>
      </trkpt>
      <trkpt lat="47.36372" lon="-1.17757">
        <ele>6.93</ele>
        <time>2022-09-23T10:18:58.000Z</time>
      </trkpt>
      <trkpt lat="47.36381" lon="-1.17766">
        <ele>6.63</ele>
        <time>2022-09-23T10:19:03.000Z</time>
      </trkpt>
      <trkpt lat="47.36393" lon="-1.17769">
        <ele>6.5</ele>
        <time>2022-09-23T10:19:08.000Z</time>
      </trkpt>
      <trkpt lat="47.36403" lon="-1.17782">
        <ele>6.9</ele>
        <time>2022-09-23T10:20:07.000Z</time>
      </trkpt>
      <trkpt lat="47.36402" lon="-1.17799">
        <ele>6.22</ele>
        <time>2022-09-23T10:21:00.000Z</time>
      </trkpt>
      <trkpt lat="47.36416" lon="-1.1778">
        <ele>10.6</ele>
        <time>2022-09-23T10:21:26.000Z</time>
      </trkpt>
      <trkpt lat="47.36406" lon="-1.17782">
        <ele>7.68</ele>
        <time>2022-09-23T10:21:51.000Z</time>
      </trkpt>
      <trkpt lat="47.36396" lon="-1.17785">
        <ele>4.48</ele>
        <time>2022-09-23T10:23:24.000Z</time>
      </trkpt>
      <trkpt lat="47.36387" lon="-1.17781">
        <ele>-0.5</ele>
        <time>2022-09-23T10:27:25.000Z</time>
      </trkpt>
      <trkpt lat="47.36378" lon="-1.17783">
        <ele>-0.5</ele>
        <time>2022-09-23T10:27:49.000Z</time>
      </trkpt>
      <trkpt lat="47.36392" lon="-1.17781">
        <ele>-0.08</ele>
        <time>2022-09-23T10:28:09.000Z</time>
      </trkpt>
      <trkpt lat="47.36402" lon="-1.17782">
        <ele>-0.1</ele>
        <time>2022-09-23T10:28:29.000Z</time>
      </trkpt>
      <trkpt lat="47.36414" lon="-1.17787">
        <ele>0.12</ele>
        <time>2022-09-23T10:29:12.000Z</time>
      </trkpt>
      <trkpt lat="47.36395" lon="-1.1778">
        <ele>0.12</ele>
        <time>2022-09-23T10:30:12.000Z</time>
      </trkpt>
      <trkpt lat="47.36382" lon="-1.17779">
        <ele>-0.07</ele>
        <time>2022-09-23T10:30:17.000Z</time>
      </trkpt>
      <trkpt lat="47.36394" lon="-1.17783">
        <ele>-0.4</ele>
        <time>2022-09-23T10:31:18.000Z</time>
      </trkpt>
      <trkpt lat="47.36403" lon="-1.17784">
        <ele>-0.5</ele>
        <time>2022-09-23T10:31:30.000Z</time>
      </trkpt>
      <trkpt lat="47.36386" lon="-1.17781">
        <ele>-0.58</ele>
        <time>2022-09-23T10:32:07.000Z</time>
      </trkpt>
      <trkpt lat="47.36375" lon="-1.17778">
        <ele>-0.6</ele>
        <time>2022-09-23T10:32:12.000Z</time>
      </trkpt>
      <trkpt lat="47.36385" lon="-1.17781">
        <ele>-0.6</ele>
        <time>2022-09-23T10:32:19.000Z</time>
      </trkpt>
      <trkpt lat="47.36402" lon="-1.17785">
        <ele>-0.43</ele>
        <time>2022-09-23T10:32:24.000Z</time>
      </trkpt>
      <trkpt lat="47.36415" lon="-1.17788">
        <ele>-0.4</ele>
        <time>2022-09-23T10:32:29.000Z</time>
      </trkpt>
      <trkpt lat="47.36425" lon="-1.1779">
        <ele>-0.3</ele>
        <time>2022-09-23T10:32:36.000Z</time>
      </trkpt>
      <trkpt lat="47.36434" lon="-1.17792">
        <ele>0.32</ele>
        <time>2022-09-23T10:33:33.000Z</time>
      </trkpt>
      <trkpt lat="47.36424" lon="-1.1779">
        <ele>0.55</ele>
        <time>2022-09-23T10:33:53.000Z</time>
      </trkpt>
      <trkpt lat="47.36415" lon="-1.17789">
        <ele>0.62</ele>
        <time>2022-09-23T10:34:12.000Z</time>
      </trkpt>
      <trkpt lat="47.36405" lon="-1.17786">
        <ele>1.1</ele>
        <time>2022-09-23T10:34:55.000Z</time>
      </trkpt>
      <trkpt lat="47.36395" lon="-1.17784">
        <ele>1.4</ele>
        <time>2022-09-23T10:35:28.000Z</time>
      </trkpt>
      <trkpt lat="47.36413" lon="-1.17786">
        <ele>0.9</ele>
        <time>2022-09-23T10:36:12.000Z</time>
      </trkpt>
      <trkpt lat="47.36403" lon="-1.17784">
        <ele>0.58</ele>
        <time>2022-09-23T10:36:24.000Z</time>
      </trkpt>
      <trkpt lat="47.36393" lon="-1.17783">
        <ele>0.18</ele>
        <time>2022-09-23T10:36:35.000Z</time>
      </trkpt>
      <trkpt lat="47.36384" lon="-1.17779">
        <ele>14.6</ele>
        <time>2022-09-23T10:36:41.000Z</time>
      </trkpt>
      <trkpt lat="47.36399" lon="-1.17782">
        <ele>-3.1</ele>
        <time>2022-09-23T10:38:08.000Z</time>
      </trkpt>
      <trkpt lat="47.36388" lon="-1.17784">
        <ele>-3.68</ele>
        <time>2022-09-23T10:39:58.000Z</time>
      </trkpt>
      <trkpt lat="47.36377" lon="-1.17779">
        <ele>-4.52</ele>
        <time>2022-09-23T10:40:23.000Z</time>
      </trkpt>
      <trkpt lat="47.36367" lon="-1.17779">
        <ele>-5.53</ele>
        <time>2022-09-23T10:40:28.000Z</time>
      </trkpt>
      <trkpt lat="47.36357" lon="-1.17779">
        <ele>-7.85</ele>
        <time>2022-09-23T10:41:10.000Z</time>
      </trkpt>
      <trkpt lat="47.36366" lon="-1.1778">
        <ele>-8.95</ele>
        <time>2022-09-23T10:41:31.000Z</time>
      </trkpt>
      <trkpt lat="47.36378" lon="-1.17784">
        <ele>-9.5</ele>
        <time>2022-09-23T10:41:51.000Z</time>
      </trkpt>
      <trkpt lat="47.3639" lon="-1.17788">
        <ele>-9.37</ele>
        <time>2022-09-23T10:42:12.000Z</time>
      </trkpt>
      <trkpt lat="47.36399" lon="-1.1779">
        <ele>-9.1</ele>
        <time>2022-09-23T10:42:25.000Z</time>
      </trkpt>
      <trkpt lat="47.36386" lon="-1.17789">
        <ele>-10.08</ele>
        <time>2022-09-23T10:44:49.000Z</time>
      </trkpt>
      <trkpt lat="47.36402" lon="-1.17789">
        <ele>-10.95</ele>
        <time>2022-09-23T10:49:03.000Z</time>
      </trkpt>
      <trkpt lat="47.36391" lon="-1.17789">
        <ele>-11.68</ele>
        <time>2022-09-23T10:50:42.000Z</time>
      </trkpt>
      <trkpt lat="47.36377" lon="-1.17782">
        <ele>-12.4</ele>
        <time>2022-09-23T10:54:34.000Z</time>
      </trkpt>
      <trkpt lat="47.36394" lon="-1.17779">
        <ele>-13.15</ele>
        <time>2022-09-23T10:55:20.000Z</time>
      </trkpt>
      <trkpt lat="47.36385" lon="-1.17783">
        <ele>-13.58</ele>
        <time>2022-09-23T10:56:52.000Z</time>
      </trkpt>
      <trkpt lat="47.36376" lon="-1.17773">
        <ele>-13.7</ele>
        <time>2022-09-23T10:57:23.000Z</time>
      </trkpt>
      <trkpt lat="47.36384" lon="-1.17779">
        <ele>-13.7</ele>
        <time>2022-09-23T10:57:48.000Z</time>
      </trkpt>
      <trkpt lat="47.36376" lon="-1.17786">
        <ele>-14.69</ele>
        <time>2022-09-23T10:58:25.000Z</time>
      </trkpt>
      <trkpt lat="47.36384" lon="-1.1778">
        <ele>-15.28</ele>
        <time>2022-09-23T10:58:56.000Z</time>
      </trkpt>
      <trkpt lat="47.36393" lon="-1.17776">
        <ele>-15.15</ele>
        <time>2022-09-23T11:01:32.000Z</time>
      </trkpt>
      <trkpt lat="47.36379" lon="-1.17777">
        <ele>-15.8</ele>
        <time>2022-09-23T11:02:47.000Z</time>
      </trkpt>
      <trkpt lat="47.36371" lon="-1.17786">
        <ele>-15.65</ele>
        <time>2022-09-23T11:03:20.000Z</time>
      </trkpt>
      <trkpt lat="47.3638" lon="-1.17778">
        <ele>-15.3</ele>
        <time>2022-09-23T11:03:55.000Z</time>
      </trkpt>
      <trkpt lat="47.36382" lon="-1.17799">
        <ele>-14.7</ele>
        <time>2022-09-23T11:05:20.000Z</time>
      </trkpt>
      <trkpt lat="47.36385" lon="-1.17785">
        <ele>-14.6</ele>
        <time>2022-09-23T11:05:54.000Z</time>
      </trkpt>
      <trkpt lat="47.36388" lon="-1.17773">
        <ele>-15.07</ele>
        <time>2022-09-23T11:06:06.000Z</time>
      </trkpt>
      <trkpt lat="47.36397" lon="-1.17772">
        <ele>-15.59</ele>
        <time>2022-09-23T11:06:15.000Z</time>
      </trkpt>
      <trkpt lat="47.36387" lon="-1.17758">
        <ele>-16.87</ele>
        <time>2022-09-23T11:07:13.000Z</time>
      </trkpt>
      <trkpt lat="47.36385" lon="-1.17772">
        <ele>-17.82</ele>
        <time>2022-09-23T11:08:09.000Z</time>
      </trkpt>
      <trkpt lat="47.36373" lon="-1.17789">
        <ele>-17.42</ele>
        <time>2022-09-23T11:09:07.000Z</time>
      </trkpt>
      <trkpt lat="47.36387" lon="-1.17777">
        <ele>-18.02</ele>
        <time>2022-09-23T11:10:01.000Z</time>
      </trkpt>
      <trkpt lat="47.36378" lon="-1.17782">
        <ele>-18.5</ele>
        <time>2022-09-23T11:10:48.000Z</time>
      </trkpt>
      <trkpt lat="47.36388" lon="-1.17783">
        <ele>-18.51</ele>
        <time>2022-09-23T11:11:09.000Z</time>
      </trkpt>
      <trkpt lat="47.3638" lon="-1.17791">
        <ele>-17.32</ele>
        <time>2022-09-23T11:12:24.000Z</time>
      </trkpt>
      <trkpt lat="47.36389" lon="-1.17784">
        <ele>-17.22</ele>
        <time>2022-09-23T11:12:52.000Z</time>
      </trkpt>
      <trkpt lat="47.36378" lon="-1.17782">
        <ele>-16.43</ele>
        <time>2022-09-23T11:14:02.000Z</time>
      </trkpt>
      <trkpt lat="47.36389" lon="-1.17777">
        <ele>-16.4</ele>
        <time>2022-09-23T11:14:46.000Z</time>
      </trkpt>
      <trkpt lat="47.36399" lon="-1.17778">
        <ele>-15.8</ele>
        <time>2022-09-23T11:15:25.000Z</time>
      </trkpt>
      <trkpt lat="47.3639" lon="-1.1778">
        <ele>-15.45</ele>
        <time>2022-09-23T11:15:35.000Z</time>
      </trkpt>
      <trkpt lat="47.36381" lon="-1.17787">
        <ele>-15.2</ele>
        <time>2022-09-23T11:15:42.000Z</time>
      </trkpt>
      <trkpt lat="47.3637" lon="-1.17789">
        <ele>-15.11</ele>
        <time>2022-09-23T11:15:47.000Z</time>
      </trkpt>
      <trkpt lat="47.36361" lon="-1.17792">
        <ele>-15</ele>
        <time>2022-09-23T11:16:00.000Z</time>
      </trkpt>
      <trkpt lat="47.36371" lon="-1.17786">
        <ele>-15.37</ele>
        <time>2022-09-23T11:16:20.000Z</time>
      </trkpt>
      <trkpt lat="47.36383" lon="-1.17782">
        <ele>-15.55</ele>
        <time>2022-09-23T11:16:30.000Z</time>
      </trkpt>
      <trkpt lat="47.36393" lon="-1.1778">
        <ele>-15.69</ele>
        <time>2022-09-23T11:16:37.000Z</time>
      </trkpt>
      <trkpt lat="47.36402" lon="-1.17782">
        <ele>-15.87</ele>
        <time>2022-09-23T11:16:52.000Z</time>
      </trkpt>
      <trkpt lat="47.36392" lon="-1.17785">
        <ele>-15.58</ele>
        <time>2022-09-23T11:17:17.000Z</time>
      </trkpt>
      <trkpt lat="47.36381" lon="-1.17789">
        <ele>-14.82</ele>
        <time>2022-09-23T11:18:32.000Z</time>
      </trkpt>
      <trkpt lat="47.36372" lon="-1.17797">
        <ele>-15.07</ele>
        <time>2022-09-23T11:18:37.000Z</time>
      </trkpt>
      <trkpt lat="47.36356" lon="-1.17791">
        <ele>-15.2</ele>
        <time>2022-09-23T11:18:42.000Z</time>
      </trkpt>
      <trkpt lat="47.36359" lon="-1.17778">
        <ele>-15.3</ele>
        <time>2022-09-23T11:19:00.000Z</time>
      </trkpt>
      <trkpt lat="47.3635" lon="-1.17776">
        <ele>-15.28</ele>
        <time>2022-09-23T11:19:15.000Z</time>
      </trkpt>
      <trkpt lat="47.36365" lon="-1.17777">
        <ele>-15.05</ele>
        <time>2022-09-23T11:19:46.000Z</time>
      </trkpt>
      <trkpt lat="47.36373" lon="-1.17783">
        <ele>-15</ele>
        <time>2022-09-23T11:19:51.000Z</time>
      </trkpt>
      <trkpt lat="47.36382" lon="-1.17785">
        <ele>-15.08</ele>
        <time>2022-09-23T11:20:09.000Z</time>
      </trkpt>
      <trkpt lat="47.36371" lon="-1.1779">
        <ele>-15.02</ele>
        <time>2022-09-23T11:20:17.000Z</time>
      </trkpt>
      <trkpt lat="47.36362" lon="-1.17784">
        <ele>-15.08</ele>
        <time>2022-09-23T11:20:37.000Z</time>
      </trkpt>
      <trkpt lat="47.3635" lon="-1.17774">
        <ele>-15.2</ele>
        <time>2022-09-23T11:20:42.000Z</time>
      </trkpt>
      <trkpt lat="47.36356" lon="-1.17789">
        <ele>-15.4</ele>
        <time>2022-09-23T11:20:52.000Z</time>
      </trkpt>
      <trkpt lat="47.36371" lon="-1.17789">
        <ele>-15.49</ele>
        <time>2022-09-23T11:20:57.000Z</time>
      </trkpt>
      <trkpt lat="47.36388" lon="-1.17792">
        <ele>-15.5</ele>
        <time>2022-09-23T11:21:02.000Z</time>
      </trkpt>
      <trkpt lat="47.36407" lon="-1.17792">
        <ele>-15.72</ele>
        <time>2022-09-23T11:21:19.000Z</time>
      </trkpt>
      <trkpt lat="47.36397" lon="-1.1779">
        <ele>-15.87</ele>
        <time>2022-09-23T11:21:28.000Z</time>
      </trkpt>
      <trkpt lat="47.36384" lon="-1.17787">
        <ele>-16.17</ele>
        <time>2022-09-23T11:21:50.000Z</time>
      </trkpt>
      <trkpt lat="47.36394" lon="-1.17784">
        <ele>-16.22</ele>
        <time>2022-09-23T11:22:01.000Z</time>
      </trkpt>
      <trkpt lat="47.36418" lon="-1.17774">
        <ele>-16.2</ele>
        <time>2022-09-23T11:22:10.000Z</time>
      </trkpt>
      <trkpt lat="47.36407" lon="-1.17774">
        <ele>-16.37</ele>
        <time>2022-09-23T11:22:21.000Z</time>
      </trkpt>
      <trkpt lat="47.36396" lon="-1.17779">
        <ele>-16.4</ele>
        <time>2022-09-23T11:22:27.000Z</time>
      </trkpt>
      <trkpt lat="47.36384" lon="-1.17781">
        <ele>-16.48</ele>
        <time>2022-09-23T11:22:43.000Z</time>
      </trkpt>
      <trkpt lat="47.36375" lon="-1.17786">
        <ele>-16.6</ele>
        <time>2022-09-23T11:22:50.000Z</time>
      </trkpt>
      <trkpt lat="47.36366" lon="-1.17791">
        <ele>-16.7</ele>
        <time>2022-09-23T11:23:05.000Z</time>
      </trkpt>
      <trkpt lat="47.36382" lon="-1.17784">
        <ele>-16.9</ele>
        <time>2022-09-23T11:23:41.000Z</time>
      </trkpt>
      <trkpt lat="47.36391" lon="-1.17781">
        <ele>-16.9</ele>
        <time>2022-09-23T11:23:51.000Z</time>
      </trkpt>
      <trkpt lat="47.364" lon="-1.17777">
        <ele>-16.47</ele>
        <time>2022-09-23T11:23:58.000Z</time>
      </trkpt>
      <trkpt lat="47.36391" lon="-1.17783">
        <ele>-14.63</ele>
        <time>2022-09-23T11:24:51.000Z</time>
      </trkpt>
      <trkpt lat="47.36381" lon="-1.17782">
        <ele>-14.31</ele>
        <time>2022-09-23T11:25:05.000Z</time>
      </trkpt>
      <trkpt lat="47.3639" lon="-1.17777">
        <ele>-13.95</ele>
        <time>2022-09-23T11:25:30.000Z</time>
      </trkpt>
      <trkpt lat="47.36384" lon="-1.17787">
        <ele>-13.3</ele>
        <time>2022-09-23T11:26:26.000Z</time>
      </trkpt>
      <trkpt lat="47.36374" lon="-1.17794">
        <ele>-13.3</ele>
        <time>2022-09-23T11:27:15.000Z</time>
      </trkpt>
      <trkpt lat="47.36366" lon="-1.17798">
        <ele>-13.3</ele>
        <time>2022-09-23T11:27:22.000Z</time>
      </trkpt>
      <trkpt lat="47.36375" lon="-1.17798">
        <ele>-13.49</ele>
        <time>2022-09-23T11:29:14.000Z</time>
      </trkpt>
      <trkpt lat="47.36382" lon="-1.17791">
        <ele>-13.28</ele>
        <time>2022-09-23T11:29:59.000Z</time>
      </trkpt>
      <trkpt lat="47.36371" lon="-1.17794">
        <ele>-13.2</ele>
        <time>2022-09-23T11:30:15.000Z</time>
      </trkpt>
      <trkpt lat="47.36358" lon="-1.17795">
        <ele>-13.35</ele>
        <time>2022-09-23T11:31:08.000Z</time>
      </trkpt>
      <trkpt lat="47.36346" lon="-1.17797">
        <ele>-13.55</ele>
        <time>2022-09-23T11:31:36.000Z</time>
      </trkpt>
      <trkpt lat="47.36335" lon="-1.17802">
        <ele>-13.77</ele>
        <time>2022-09-23T11:31:42.000Z</time>
      </trkpt>
      <trkpt lat="47.36345" lon="-1.17799">
        <ele>-13.88</ele>
        <time>2022-09-23T11:32:10.000Z</time>
      </trkpt>
      <trkpt lat="47.36353" lon="-1.17794">
        <ele>-13.9</ele>
        <time>2022-09-23T11:32:20.000Z</time>
      </trkpt>
      <trkpt lat="47.36362" lon="-1.17794">
        <ele>-13.9</ele>
        <time>2022-09-23T11:32:42.000Z</time>
      </trkpt>
      <trkpt lat="47.36372" lon="-1.17794">
        <ele>-13.9</ele>
        <time>2022-09-23T11:32:53.000Z</time>
      </trkpt>
      <trkpt lat="47.36365" lon="-1.17802">
        <ele>-13.8</ele>
        <time>2022-09-23T11:33:19.000Z</time>
      </trkpt>
      <trkpt lat="47.36348" lon="-1.17805">
        <ele>-13.8</ele>
        <time>2022-09-23T11:33:36.000Z</time>
      </trkpt>
      <trkpt lat="47.36354" lon="-1.17795">
        <ele>-13.8</ele>
        <time>2022-09-23T11:34:06.000Z</time>
      </trkpt>
      <trkpt lat="47.36365" lon="-1.17792">
        <ele>-13.8</ele>
        <time>2022-09-23T11:34:16.000Z</time>
      </trkpt>
      <trkpt lat="47.36358" lon="-1.17801">
        <ele>-13.8</ele>
        <time>2022-09-23T11:34:49.000Z</time>
      </trkpt>
      <trkpt lat="47.36348" lon="-1.17806">
        <ele>-13.8</ele>
        <time>2022-09-23T11:35:06.000Z</time>
      </trkpt>
      <trkpt lat="47.36339" lon="-1.17803">
        <ele>-13.9</ele>
        <time>2022-09-23T11:35:54.000Z</time>
      </trkpt>
      <trkpt lat="47.36349" lon="-1.17797">
        <ele>-14</ele>
        <time>2022-09-23T11:36:30.000Z</time>
      </trkpt>
      <trkpt lat="47.36363" lon="-1.17798">
        <ele>-14.02</ele>
        <time>2022-09-23T11:37:26.000Z</time>
      </trkpt>
      <trkpt lat="47.36377" lon="-1.17793">
        <ele>-13.83</ele>
        <time>2022-09-23T11:37:40.000Z</time>
      </trkpt>
      <trkpt lat="47.36378" lon="-1.1778">
        <ele>-12.46</ele>
        <time>2022-09-23T11:38:33.000Z</time>
      </trkpt>
      <trkpt lat="47.36383" lon="-1.17768">
        <ele>-12.11</ele>
        <time>2022-09-23T11:38:45.000Z</time>
      </trkpt>
      <trkpt lat="47.36392" lon="-1.17767">
        <ele>-11.34</ele>
        <time>2022-09-23T11:38:52.000Z</time>
      </trkpt>
      <trkpt lat="47.36401" lon="-1.17774">
        <ele>-11.13</ele>
        <time>2022-09-23T11:38:58.000Z</time>
      </trkpt>
      <trkpt lat="47.36412" lon="-1.17774">
        <ele>-10.91</ele>
        <time>2022-09-23T11:39:03.000Z</time>
      </trkpt>
      <trkpt lat="47.36419" lon="-1.17765">
        <ele>-9.8</ele>
        <time>2022-09-23T11:39:26.000Z</time>
      </trkpt>
      <trkpt lat="47.36427" lon="-1.17759">
        <ele>-9.53</ele>
        <time>2022-09-23T11:39:36.000Z</time>
      </trkpt>
      <trkpt lat="47.36415" lon="-1.17763">
        <ele>-9.03</ele>
        <time>2022-09-23T11:39:53.000Z</time>
      </trkpt>
      <trkpt lat="47.36402" lon="-1.17765">
        <ele>-9</ele>
        <time>2022-09-23T11:39:59.000Z</time>
      </trkpt>
      <trkpt lat="47.36394" lon="-1.1777">
        <ele>-8.8</ele>
        <time>2022-09-23T11:40:08.000Z</time>
      </trkpt>
      <trkpt lat="47.36385" lon="-1.1778">
        <ele>-8.53</ele>
        <time>2022-09-23T11:40:19.000Z</time>
      </trkpt>
      <trkpt lat="47.36377" lon="-1.17786">
        <ele>-8.41</ele>
        <time>2022-09-23T11:40:24.000Z</time>
      </trkpt>
      <trkpt lat="47.36368" lon="-1.17787">
        <ele>-8.23</ele>
        <time>2022-09-23T11:40:30.000Z</time>
      </trkpt>
      <trkpt lat="47.36382" lon="-1.17784">
        <ele>-7.35</ele>
        <time>2022-09-23T11:41:29.000Z</time>
      </trkpt>
      <trkpt lat="47.36396" lon="-1.17777">
        <ele>-6.78</ele>
        <time>2022-09-23T11:41:54.000Z</time>
      </trkpt>
      <trkpt lat="47.36388" lon="-1.1779">
        <ele>-3.8</ele>
        <time>2022-09-23T11:43:02.000Z</time>
      </trkpt>
      <trkpt lat="47.36376" lon="-1.17796">
        <ele>-3.8</ele>
        <time>2022-09-23T11:43:07.000Z</time>
      </trkpt>
      <trkpt lat="47.36366" lon="-1.17802">
        <ele>-3.8</ele>
        <time>2022-09-23T11:43:16.000Z</time>
      </trkpt>
      <trkpt lat="47.36356" lon="-1.17803">
        <ele>-3.99</ele>
        <time>2022-09-23T11:43:26.000Z</time>
      </trkpt>
      <trkpt lat="47.36365" lon="-1.178">
        <ele>-4.01</ele>
        <time>2022-09-23T11:43:38.000Z</time>
      </trkpt>
      <trkpt lat="47.36361" lon="-1.17788">
        <ele>-3.8</ele>
        <time>2022-09-23T11:43:51.000Z</time>
      </trkpt>
      <trkpt lat="47.36387" lon="-1.1779">
        <ele>-3.4</ele>
        <time>2022-09-23T11:44:43.000Z</time>
      </trkpt>
      <trkpt lat="47.36411" lon="-1.17786">
        <ele>-3.4</ele>
        <time>2022-09-23T11:44:48.000Z</time>
      </trkpt>
      <trkpt lat="47.36421" lon="-1.17783">
        <ele>-3.3</ele>
        <time>2022-09-23T11:44:54.000Z</time>
      </trkpt>
      <trkpt lat="47.36393" lon="-1.1779">
        <ele>-3.55</ele>
        <time>2022-09-23T11:45:07.000Z</time>
      </trkpt>
      <trkpt lat="47.36403" lon="-1.17786">
        <ele>-3.8</ele>
        <time>2022-09-23T11:45:12.000Z</time>
      </trkpt>
      <trkpt lat="47.36415" lon="-1.17783">
        <ele>-3.8</ele>
        <time>2022-09-23T11:45:17.000Z</time>
      </trkpt>
      <trkpt lat="47.36427" lon="-1.17784">
        <ele>-3.71</ele>
        <time>2022-09-23T11:45:27.000Z</time>
      </trkpt>
      <trkpt lat="47.3644" lon="-1.17777">
        <ele>-3.7</ele>
        <time>2022-09-23T11:45:34.000Z</time>
      </trkpt>
      <trkpt lat="47.36431" lon="-1.17776">
        <ele>-3.6</ele>
        <time>2022-09-23T11:45:44.000Z</time>
      </trkpt>
      <trkpt lat="47.3642" lon="-1.17782">
        <ele>-3.6</ele>
        <time>2022-09-23T11:46:02.000Z</time>
      </trkpt>
      <trkpt lat="47.36411" lon="-1.17779">
        <ele>-3.6</ele>
        <time>2022-09-23T11:46:14.000Z</time>
      </trkpt>
      <trkpt lat="47.36402" lon="-1.17783">
        <ele>-2.33</ele>
        <time>2022-09-23T11:47:17.000Z</time>
      </trkpt>
      <trkpt lat="47.36392" lon="-1.17786">
        <ele>-2</ele>
        <time>2022-09-23T11:47:27.000Z</time>
      </trkpt>
      <trkpt lat="47.36383" lon="-1.1779">
        <ele>-1.7</ele>
        <time>2022-09-23T11:47:35.000Z</time>
      </trkpt>
      <trkpt lat="47.36392" lon="-1.17787">
        <ele>-1.11</ele>
        <time>2022-09-23T11:48:20.000Z</time>
      </trkpt>
      <trkpt lat="47.36404" lon="-1.17783">
        <ele>-1.07</ele>
        <time>2022-09-23T11:48:38.000Z</time>
      </trkpt>
      <trkpt lat="47.36409" lon="-1.17767">
        <ele>1.68</ele>
        <time>2022-09-23T11:50:19.000Z</time>
      </trkpt>
      <trkpt lat="47.36427" lon="-1.1776">
        <ele>1.69</ele>
        <time>2022-09-23T11:50:24.000Z</time>
      </trkpt>
      <trkpt lat="47.36437" lon="-1.17758">
        <ele>1.7</ele>
        <time>2022-09-23T11:50:29.000Z</time>
      </trkpt>
      <trkpt lat="47.36434" lon="-1.1777">
        <ele>2.15</ele>
        <time>2022-09-23T11:50:40.000Z</time>
      </trkpt>
      <trkpt lat="47.36423" lon="-1.17774">
        <ele>2.59</ele>
        <time>2022-09-23T11:50:45.000Z</time>
      </trkpt>
      <trkpt lat="47.36413" lon="-1.17777">
        <ele>2.82</ele>
        <time>2022-09-23T11:50:50.000Z</time>
      </trkpt>
      <trkpt lat="47.36401" lon="-1.17773">
        <ele>3.38</ele>
        <time>2022-09-23T11:51:19.000Z</time>
      </trkpt>
      <trkpt lat="47.3641" lon="-1.1777">
        <ele>8.77</ele>
        <time>2022-09-23T11:53:46.000Z</time>
      </trkpt>
      <trkpt lat="47.36418" lon="-1.17761">
        <ele>8.78</ele>
        <time>2022-09-23T11:53:53.000Z</time>
      </trkpt>
      <trkpt lat="47.36429" lon="-1.17763">
        <ele>8.9</ele>
        <time>2022-09-23T11:54:07.000Z</time>
      </trkpt>
      <trkpt lat="47.36441" lon="-1.17768">
        <ele>8.73</ele>
        <time>2022-09-23T11:54:12.000Z</time>
      </trkpt>
      <trkpt lat="47.36454" lon="-1.17776">
        <ele>8.5</ele>
        <time>2022-09-23T11:54:17.000Z</time>
      </trkpt>
      <trkpt lat="47.36466" lon="-1.17783">
        <ele>9.81</ele>
        <time>2022-09-23T11:54:22.000Z</time>
      </trkpt>
      <trkpt lat="47.36476" lon="-1.17791">
        <ele>10.95</ele>
        <time>2022-09-23T11:54:27.000Z</time>
      </trkpt>
      <trkpt lat="47.36486" lon="-1.17798">
        <ele>13</ele>
        <time>2022-09-23T11:54:32.000Z</time>
      </trkpt>
      <trkpt lat="47.36496" lon="-1.17797">
        <ele>14.07</ele>
        <time>2022-09-23T11:54:38.000Z</time>
      </trkpt>
      <trkpt lat="47.36505" lon="-1.1779">
        <ele>14.95</ele>
        <time>2022-09-23T11:54:43.000Z</time>
      </trkpt>
      <trkpt lat="47.36516" lon="-1.1778">
        <ele>15.56</ele>
        <time>2022-09-23T11:54:48.000Z</time>
      </trkpt>
      <trkpt lat="47.36525" lon="-1.17771">
        <ele>15.46</ele>
        <time>2022-09-23T11:54:53.000Z</time>
      </trkpt>
      <trkpt lat="47.36535" lon="-1.17755">
        <ele>15.33</ele>
        <time>2022-09-23T11:54:58.000Z</time>
      </trkpt>
      <trkpt lat="47.3654" lon="-1.17737">
        <ele>15.84</ele>
        <time>2022-09-23T11:55:03.000Z</time>
      </trkpt>
      <trkpt lat="47.36546" lon="-1.17717">
        <ele>16.47</ele>
        <time>2022-09-23T11:55:08.000Z</time>
      </trkpt>
      <trkpt lat="47.36554" lon="-1.17695">
        <ele>17.1</ele>
        <time>2022-09-23T11:55:13.000Z</time>
      </trkpt>
      <trkpt lat="47.3656" lon="-1.17671">
        <ele>17.38</ele>
        <time>2022-09-23T11:55:18.000Z</time>
      </trkpt>
      <trkpt lat="47.36568" lon="-1.17654">
        <ele>17.02</ele>
        <time>2022-09-23T11:55:23.000Z</time>
      </trkpt>
      <trkpt lat="47.36572" lon="-1.17641">
        <ele>16.6</ele>
        <time>2022-09-23T11:55:36.000Z</time>
      </trkpt>
      <trkpt lat="47.3657" lon="-1.17614">
        <ele>16.11</ele>
        <time>2022-09-23T11:55:41.000Z</time>
      </trkpt>
      <trkpt lat="47.36571" lon="-1.17578">
        <ele>15.51</ele>
        <time>2022-09-23T11:55:46.000Z</time>
      </trkpt>
      <trkpt lat="47.36578" lon="-1.1754">
        <ele>14.6</ele>
        <time>2022-09-23T11:55:51.000Z</time>
      </trkpt>
      <trkpt lat="47.3659" lon="-1.17505">
        <ele>13.59</ele>
        <time>2022-09-23T11:55:56.000Z</time>
      </trkpt>
      <trkpt lat="47.36615" lon="-1.17484">
        <ele>12.3</ele>
        <time>2022-09-23T11:56:01.000Z</time>
      </trkpt>
      <trkpt lat="47.36639" lon="-1.17473">
        <ele>11.43</ele>
        <time>2022-09-23T11:56:06.000Z</time>
      </trkpt>
      <trkpt lat="47.36661" lon="-1.17469">
        <ele>10.66</ele>
        <time>2022-09-23T11:56:11.000Z</time>
      </trkpt>
      <trkpt lat="47.36686" lon="-1.1747">
        <ele>10.88</ele>
        <time>2022-09-23T11:56:16.000Z</time>
      </trkpt>
      <trkpt lat="47.36706" lon="-1.17473">
        <ele>11.04</ele>
        <time>2022-09-23T11:56:21.000Z</time>
      </trkpt>
      <trkpt lat="47.36714" lon="-1.17462">
        <ele>9.96</ele>
        <time>2022-09-23T11:56:26.000Z</time>
      </trkpt>
      <trkpt lat="47.36705" lon="-1.17456">
        <ele>8.29</ele>
        <time>2022-09-23T11:56:32.000Z</time>
      </trkpt>
      <trkpt lat="47.36695" lon="-1.17442">
        <ele>7.52</ele>
        <time>2022-09-23T11:56:37.000Z</time>
      </trkpt>
      <trkpt lat="47.36685" lon="-1.1743">
        <ele>7.16</ele>
        <time>2022-09-23T11:56:42.000Z</time>
      </trkpt>
      <trkpt lat="47.36677" lon="-1.17413">
        <ele>6.51</ele>
        <time>2022-09-23T11:56:47.000Z</time>
      </trkpt>
      <trkpt lat="47.36685" lon="-1.17392">
        <ele>6.1</ele>
        <time>2022-09-23T11:56:52.000Z</time>
      </trkpt>
      <trkpt lat="47.36695" lon="-1.17374">
        <ele>4.99</ele>
        <time>2022-09-23T11:56:57.000Z</time>
      </trkpt>
      <trkpt lat="47.36693" lon="-1.17356">
        <ele>3.99</ele>
        <time>2022-09-23T11:57:02.000Z</time>
      </trkpt>
      <trkpt lat="47.36694" lon="-1.17327">
        <ele>2.94</ele>
        <time>2022-09-23T11:57:07.000Z</time>
      </trkpt>
      <trkpt lat="47.3671" lon="-1.17291">
        <ele>2.89</ele>
        <time>2022-09-23T11:57:12.000Z</time>
      </trkpt>
      <trkpt lat="47.36733" lon="-1.17265">
        <ele>2.42</ele>
        <time>2022-09-23T11:57:17.000Z</time>
      </trkpt>
      <trkpt lat="47.36753" lon="-1.17244">
        <ele>2.03</ele>
        <time>2022-09-23T11:57:22.000Z</time>
      </trkpt>
      <trkpt lat="47.36766" lon="-1.17228">
        <ele>1.63</ele>
        <time>2022-09-23T11:57:27.000Z</time>
      </trkpt>
      <trkpt lat="47.3678" lon="-1.17211">
        <ele>1.61</ele>
        <time>2022-09-23T11:57:32.000Z</time>
      </trkpt>
      <trkpt lat="47.36796" lon="-1.17192">
        <ele>1.69</ele>
        <time>2022-09-23T11:57:37.000Z</time>
      </trkpt>
      <trkpt lat="47.36808" lon="-1.17182">
        <ele>1.38</ele>
        <time>2022-09-23T11:57:42.000Z</time>
      </trkpt>
      <trkpt lat="47.3682" lon="-1.17172">
        <ele>1.16</ele>
        <time>2022-09-23T11:57:47.000Z</time>
      </trkpt>
      <trkpt lat="47.36835" lon="-1.17156">
        <ele>1.98</ele>
        <time>2022-09-23T11:57:52.000Z</time>
      </trkpt>
      <trkpt lat="47.36848" lon="-1.17142">
        <ele>2.76</ele>
        <time>2022-09-23T11:57:57.000Z</time>
      </trkpt>
      <trkpt lat="47.36862" lon="-1.17125">
        <ele>4.02</ele>
        <time>2022-09-23T11:58:02.000Z</time>
      </trkpt>
      <trkpt lat="47.3688" lon="-1.17119">
        <ele>4.09</ele>
        <time>2022-09-23T11:58:07.000Z</time>
      </trkpt>
      <trkpt lat="47.36894" lon="-1.17107">
        <ele>6.21</ele>
        <time>2022-09-23T11:58:12.000Z</time>
      </trkpt>
      <trkpt lat="47.36903" lon="-1.17089">
        <ele>7.3</ele>
        <time>2022-09-23T11:58:17.000Z</time>
      </trkpt>
      <trkpt lat="47.36912" lon="-1.17077">
        <ele>6.5</ele>
        <time>2022-09-23T11:59:16.000Z</time>
      </trkpt>
      <trkpt lat="47.36924" lon="-1.17066">
        <ele>5.83</ele>
        <time>2022-09-23T11:59:21.000Z</time>
      </trkpt>
      <trkpt lat="47.36941" lon="-1.17045">
        <ele>5.25</ele>
        <time>2022-09-23T11:59:26.000Z</time>
      </trkpt>
      <trkpt lat="47.3696" lon="-1.17021">
        <ele>4.46</ele>
        <time>2022-09-23T11:59:31.000Z</time>
      </trkpt>
      <trkpt lat="47.3698" lon="-1.16994">
        <ele>3.57</ele>
        <time>2022-09-23T11:59:36.000Z</time>
      </trkpt>
      <trkpt lat="47.37002" lon="-1.16968">
        <ele>2.64</ele>
        <time>2022-09-23T11:59:41.000Z</time>
      </trkpt>
      <trkpt lat="47.37018" lon="-1.16942">
        <ele>2.06</ele>
        <time>2022-09-23T11:59:46.000Z</time>
      </trkpt>
      <trkpt lat="47.37024" lon="-1.16912">
        <ele>1.07</ele>
        <time>2022-09-23T11:59:51.000Z</time>
      </trkpt>
      <trkpt lat="47.37025" lon="-1.16895">
        <ele>0.17</ele>
        <time>2022-09-23T11:59:56.000Z</time>
      </trkpt>
      <trkpt lat="47.37028" lon="-1.16875">
        <ele>-0.56</ele>
        <time>2022-09-23T12:00:01.000Z</time>
      </trkpt>
      <trkpt lat="47.37035" lon="-1.16852">
        <ele>-1.17</ele>
        <time>2022-09-23T12:00:06.000Z</time>
      </trkpt>
      <trkpt lat="47.37043" lon="-1.16822">
        <ele>-1.57</ele>
        <time>2022-09-23T12:00:11.000Z</time>
      </trkpt>
      <trkpt lat="47.3705" lon="-1.16802">
        <ele>-1.59</ele>
        <time>2022-09-23T12:00:16.000Z</time>
      </trkpt>
      <trkpt lat="47.37053" lon="-1.16782">
        <ele>-1.41</ele>
        <time>2022-09-23T12:00:21.000Z</time>
      </trkpt>
      <trkpt lat="47.37056" lon="-1.16764">
        <ele>-1.57</ele>
        <time>2022-09-23T12:00:26.000Z</time>
      </trkpt>
      <trkpt lat="47.37064" lon="-1.16754">
        <ele>-2.07</ele>
        <time>2022-09-23T12:00:32.000Z</time>
      </trkpt>
      <trkpt lat="47.37074" lon="-1.16744">
        <ele>-2.37</ele>
        <time>2022-09-23T12:00:37.000Z</time>
      </trkpt>
      <trkpt lat="47.37086" lon="-1.1672">
        <ele>-2.79</ele>
        <time>2022-09-23T12:00:42.000Z</time>
      </trkpt>
      <trkpt lat="47.37097" lon="-1.16679">
        <ele>-2.9</ele>
        <time>2022-09-23T12:00:47.000Z</time>
      </trkpt>
      <trkpt lat="47.37113" lon="-1.16642">
        <ele>-2.83</ele>
        <time>2022-09-23T12:00:52.000Z</time>
      </trkpt>
      <trkpt lat="47.37118" lon="-1.16601">
        <ele>-2.88</ele>
        <time>2022-09-23T12:00:57.000Z</time>
      </trkpt>
      <trkpt lat="47.37123" lon="-1.16554">
        <ele>-3.09</ele>
        <time>2022-09-23T12:01:02.000Z</time>
      </trkpt>
      <trkpt lat="47.37125" lon="-1.16509">
        <ele>-3.57</ele>
        <time>2022-09-23T12:01:07.000Z</time>
      </trkpt>
      <trkpt lat="47.37128" lon="-1.16469">
        <ele>-3.96</ele>
        <time>2022-09-23T12:01:12.000Z</time>
      </trkpt>
      <trkpt lat="47.37131" lon="-1.16439">
        <ele>-4.37</ele>
        <time>2022-09-23T12:01:17.000Z</time>
      </trkpt>
      <trkpt lat="47.37135" lon="-1.16406">
        <ele>-4.69</ele>
        <time>2022-09-23T12:01:22.000Z</time>
      </trkpt>
      <trkpt lat="47.3714" lon="-1.16366">
        <ele>-5.07</ele>
        <time>2022-09-23T12:01:27.000Z</time>
      </trkpt>
      <trkpt lat="47.37157" lon="-1.16317">
        <ele>-4.61</ele>
        <time>2022-09-23T12:01:32.000Z</time>
      </trkpt>
      <trkpt lat="47.37155" lon="-1.16272">
        <ele>-4.23</ele>
        <time>2022-09-23T12:01:37.000Z</time>
      </trkpt>
      <trkpt lat="47.37154" lon="-1.1623">
        <ele>-3.73</ele>
        <time>2022-09-23T12:01:42.000Z</time>
      </trkpt>
      <trkpt lat="47.37156" lon="-1.16188">
        <ele>-3.94</ele>
        <time>2022-09-23T12:01:47.000Z</time>
      </trkpt>
      <trkpt lat="47.37155" lon="-1.16141">
        <ele>-3.81</ele>
        <time>2022-09-23T12:01:52.000Z</time>
      </trkpt>
      <trkpt lat="47.37154" lon="-1.16099">
        <ele>-3.7</ele>
        <time>2022-09-23T12:01:57.000Z</time>
      </trkpt>
      <trkpt lat="47.37153" lon="-1.16055">
        <ele>-3.27</ele>
        <time>2022-09-23T12:02:02.000Z</time>
      </trkpt>
      <trkpt lat="47.37151" lon="-1.16013">
        <ele>-4.06</ele>
        <time>2022-09-23T12:02:07.000Z</time>
      </trkpt>
      <trkpt lat="47.37152" lon="-1.1598">
        <ele>-4.28</ele>
        <time>2022-09-23T12:02:12.000Z</time>
      </trkpt>
      <trkpt lat="47.37153" lon="-1.15946">
        <ele>-3.34</ele>
        <time>2022-09-23T12:02:17.000Z</time>
      </trkpt>
      <trkpt lat="47.37153" lon="-1.15912">
        <ele>-2.76</ele>
        <time>2022-09-23T12:02:22.000Z</time>
      </trkpt>
      <trkpt lat="47.37152" lon="-1.15878">
        <ele>-2.2</ele>
        <time>2022-09-23T12:02:27.000Z</time>
      </trkpt>
      <trkpt lat="47.37152" lon="-1.15844">
        <ele>-0.07</ele>
        <time>2022-09-23T12:02:32.000Z</time>
      </trkpt>
      <trkpt lat="47.37152" lon="-1.15809">
        <ele>2.18</ele>
        <time>2022-09-23T12:02:37.000Z</time>
      </trkpt>
      <trkpt lat="47.37154" lon="-1.15776">
        <ele>3.73</ele>
        <time>2022-09-23T12:02:42.000Z</time>
      </trkpt>
      <trkpt lat="47.37157" lon="-1.15741">
        <ele>5.73</ele>
        <time>2022-09-23T12:02:47.000Z</time>
      </trkpt>
      <trkpt lat="47.3716" lon="-1.15706">
        <ele>6.4</ele>
        <time>2022-09-23T12:02:52.000Z</time>
      </trkpt>
      <trkpt lat="47.3716" lon="-1.1567">
        <ele>6.97</ele>
        <time>2022-09-23T12:02:57.000Z</time>
      </trkpt>
      <trkpt lat="47.37162" lon="-1.15634">
        <ele>7.15</ele>
        <time>2022-09-23T12:03:02.000Z</time>
      </trkpt>
      <trkpt lat="47.37164" lon="-1.15596">
        <ele>6.4</ele>
        <time>2022-09-23T12:03:07.000Z</time>
      </trkpt>
      <trkpt lat="47.37167" lon="-1.1556">
        <ele>5.59</ele>
        <time>2022-09-23T12:03:12.000Z</time>
      </trkpt>
      <trkpt lat="47.37169" lon="-1.15527">
        <ele>4.3</ele>
        <time>2022-09-23T12:03:17.000Z</time>
      </trkpt>
      <trkpt lat="47.37171" lon="-1.15495">
        <ele>3.6</ele>
        <time>2022-09-23T12:03:22.000Z</time>
      </trkpt>
      <trkpt lat="47.37174" lon="-1.15461">
        <ele>3.57</ele>
        <time>2022-09-23T12:03:27.000Z</time>
      </trkpt>
      <trkpt lat="47.37176" lon="-1.15424">
        <ele>4.25</ele>
        <time>2022-09-23T12:03:32.000Z</time>
      </trkpt>
      <trkpt lat="47.3718" lon="-1.15385">
        <ele>5.31</ele>
        <time>2022-09-23T12:03:37.000Z</time>
      </trkpt>
      <trkpt lat="47.37183" lon="-1.15352">
        <ele>4.27</ele>
        <time>2022-09-23T12:03:42.000Z</time>
      </trkpt>
      <trkpt lat="47.37186" lon="-1.15322">
        <ele>4.25</ele>
        <time>2022-09-23T12:03:47.000Z</time>
      </trkpt>
      <trkpt lat="47.37188" lon="-1.15289">
        <ele>3.99</ele>
        <time>2022-09-23T12:03:52.000Z</time>
      </trkpt>
      <trkpt lat="47.37191" lon="-1.15257">
        <ele>4.48</ele>
        <time>2022-09-23T12:03:57.000Z</time>
      </trkpt>
      <trkpt lat="47.37198" lon="-1.15224">
        <ele>3.62</ele>
        <time>2022-09-23T12:04:02.000Z</time>
      </trkpt>
      <trkpt lat="47.37207" lon="-1.15191">
        <ele>3.26</ele>
        <time>2022-09-23T12:04:07.000Z</time>
      </trkpt>
      <trkpt lat="47.37216" lon="-1.15163">
        <ele>4.93</ele>
        <time>2022-09-23T12:04:12.000Z</time>
      </trkpt>
      <trkpt lat="47.37224" lon="-1.15126">
        <ele>4.64</ele>
        <time>2022-09-23T12:04:17.000Z</time>
      </trkpt>
      <trkpt lat="47.37234" lon="-1.15085">
        <ele>3.96</ele>
        <time>2022-09-23T12:04:22.000Z</time>
      </trkpt>
      <trkpt lat="47.37244" lon="-1.15045">
        <ele>3.6</ele>
        <time>2022-09-23T12:04:27.000Z</time>
      </trkpt>
      <trkpt lat="47.37253" lon="-1.15007">
        <ele>2.9</ele>
        <time>2022-09-23T12:04:32.000Z</time>
      </trkpt>
      <trkpt lat="47.37264" lon="-1.1497">
        <ele>1.54</ele>
        <time>2022-09-23T12:04:37.000Z</time>
      </trkpt>
      <trkpt lat="47.37275" lon="-1.14934">
        <ele>0.36</ele>
        <time>2022-09-23T12:04:42.000Z</time>
      </trkpt>
      <trkpt lat="47.37288" lon="-1.14897">
        <ele>0.61</ele>
        <time>2022-09-23T12:04:47.000Z</time>
      </trkpt>
      <trkpt lat="47.37299" lon="-1.1486">
        <ele>0.12</ele>
        <time>2022-09-23T12:04:52.000Z</time>
      </trkpt>
      <trkpt lat="47.3731" lon="-1.14824">
        <ele>-0.11</ele>
        <time>2022-09-23T12:04:57.000Z</time>
      </trkpt>
      <trkpt lat="47.37318" lon="-1.1479">
        <ele>-0.95</ele>
        <time>2022-09-23T12:05:02.000Z</time>
      </trkpt>
      <trkpt lat="47.37329" lon="-1.14757">
        <ele>-0.87</ele>
        <time>2022-09-23T12:05:07.000Z</time>
      </trkpt>
      <trkpt lat="47.37338" lon="-1.14723">
        <ele>-1.15</ele>
        <time>2022-09-23T12:05:12.000Z</time>
      </trkpt>
      <trkpt lat="47.37349" lon="-1.14686">
        <ele>-1.15</ele>
        <time>2022-09-23T12:05:17.000Z</time>
      </trkpt>
      <trkpt lat="47.37359" lon="-1.14651">
        <ele>-0.83</ele>
        <time>2022-09-23T12:05:22.000Z</time>
      </trkpt>
      <trkpt lat="47.37371" lon="-1.14617">
        <ele>-1.41</ele>
        <time>2022-09-23T12:05:27.000Z</time>
      </trkpt>
      <trkpt lat="47.37381" lon="-1.14584">
        <ele>-1.64</ele>
        <time>2022-09-23T12:05:32.000Z</time>
      </trkpt>
      <trkpt lat="47.37394" lon="-1.1455">
        <ele>1.41</ele>
        <time>2022-09-23T12:05:37.000Z</time>
      </trkpt>
      <trkpt lat="47.37406" lon="-1.14516">
        <ele>2.99</ele>
        <time>2022-09-23T12:05:42.000Z</time>
      </trkpt>
      <trkpt lat="47.37415" lon="-1.14484">
        <ele>3.77</ele>
        <time>2022-09-23T12:05:47.000Z</time>
      </trkpt>
      <trkpt lat="47.37417" lon="-1.1446">
        <ele>3.66</ele>
        <time>2022-09-23T12:05:52.000Z</time>
      </trkpt>
      <trkpt lat="47.37423" lon="-1.14439">
        <ele>4.08</ele>
        <time>2022-09-23T12:05:57.000Z</time>
      </trkpt>
      <trkpt lat="47.37431" lon="-1.14418">
        <ele>4.07</ele>
        <time>2022-09-23T12:06:02.000Z</time>
      </trkpt>
      <trkpt lat="47.37442" lon="-1.1439">
        <ele>3.32</ele>
        <time>2022-09-23T12:06:07.000Z</time>
      </trkpt>
      <trkpt lat="47.37453" lon="-1.1436">
        <ele>2.62</ele>
        <time>2022-09-23T12:06:12.000Z</time>
      </trkpt>
      <trkpt lat="47.37462" lon="-1.14328">
        <ele>1.62</ele>
        <time>2022-09-23T12:06:17.000Z</time>
      </trkpt>
      <trkpt lat="47.3747" lon="-1.14297">
        <ele>1.16</ele>
        <time>2022-09-23T12:06:22.000Z</time>
      </trkpt>
      <trkpt lat="47.3748" lon="-1.14262">
        <ele>-0.02</ele>
        <time>2022-09-23T12:06:27.000Z</time>
      </trkpt>
      <trkpt lat="47.37489" lon="-1.14227">
        <ele>-0.97</ele>
        <time>2022-09-23T12:06:32.000Z</time>
      </trkpt>
      <trkpt lat="47.37498" lon="-1.14192">
        <ele>-0.94</ele>
        <time>2022-09-23T12:06:37.000Z</time>
      </trkpt>
      <trkpt lat="47.37505" lon="-1.14158">
        <ele>-1.57</ele>
        <time>2022-09-23T12:06:42.000Z</time>
      </trkpt>
      <trkpt lat="47.3752" lon="-1.14124">
        <ele>-1.18</ele>
        <time>2022-09-23T12:06:47.000Z</time>
      </trkpt>
      <trkpt lat="47.37526" lon="-1.14091">
        <ele>-1.37</ele>
        <time>2022-09-23T12:06:52.000Z</time>
      </trkpt>
      <trkpt lat="47.3753" lon="-1.14061">
        <ele>-1.67</ele>
        <time>2022-09-23T12:06:57.000Z</time>
      </trkpt>
      <trkpt lat="47.37532" lon="-1.14023">
        <ele>-1.89</ele>
        <time>2022-09-23T12:07:02.000Z</time>
      </trkpt>
      <trkpt lat="47.37535" lon="-1.13981">
        <ele>-2.29</ele>
        <time>2022-09-23T12:07:07.000Z</time>
      </trkpt>
      <trkpt lat="47.37537" lon="-1.13939">
        <ele>-2.46</ele>
        <time>2022-09-23T12:07:13.000Z</time>
      </trkpt>
      <trkpt lat="47.3754" lon="-1.13905">
        <ele>-1.54</ele>
        <time>2022-09-23T12:07:18.000Z</time>
      </trkpt>
      <trkpt lat="47.37542" lon="-1.13871">
        <ele>-0.64</ele>
        <time>2022-09-23T12:07:23.000Z</time>
      </trkpt>
      <trkpt lat="47.37539" lon="-1.13835">
        <ele>0.6</ele>
        <time>2022-09-23T12:07:28.000Z</time>
      </trkpt>
      <trkpt lat="47.37538" lon="-1.13793">
        <ele>1</ele>
        <time>2022-09-23T12:07:33.000Z</time>
      </trkpt>
      <trkpt lat="47.37541" lon="-1.1375">
        <ele>2.09</ele>
        <time>2022-09-23T12:07:38.000Z</time>
      </trkpt>
      <trkpt lat="47.37553" lon="-1.13708">
        <ele>1.86</ele>
        <time>2022-09-23T12:07:43.000Z</time>
      </trkpt>
      <trkpt lat="47.37558" lon="-1.13664">
        <ele>0.94</ele>
        <time>2022-09-23T12:07:48.000Z</time>
      </trkpt>
      <trkpt lat="47.37558" lon="-1.13622">
        <ele>-1.11</ele>
        <time>2022-09-23T12:07:53.000Z</time>
      </trkpt>
      <trkpt lat="47.37557" lon="-1.13579">
        <ele>-2.58</ele>
        <time>2022-09-23T12:07:58.000Z</time>
      </trkpt>
      <trkpt lat="47.37556" lon="-1.13532">
        <ele>-3.91</ele>
        <time>2022-09-23T12:08:03.000Z</time>
      </trkpt>
      <trkpt lat="47.37558" lon="-1.1349">
        <ele>-5.38</ele>
        <time>2022-09-23T12:08:08.000Z</time>
      </trkpt>
      <trkpt lat="47.37557" lon="-1.13447">
        <ele>-6.83</ele>
        <time>2022-09-23T12:08:13.000Z</time>
      </trkpt>
      <trkpt lat="47.37558" lon="-1.13405">
        <ele>-7.03</ele>
        <time>2022-09-23T12:08:18.000Z</time>
      </trkpt>
      <trkpt lat="47.37557" lon="-1.13367">
        <ele>-6.93</ele>
        <time>2022-09-23T12:08:23.000Z</time>
      </trkpt>
      <trkpt lat="47.37556" lon="-1.13326">
        <ele>-7.14</ele>
        <time>2022-09-23T12:08:28.000Z</time>
      </trkpt>
      <trkpt lat="47.37551" lon="-1.13286">
        <ele>-4.76</ele>
        <time>2022-09-23T12:08:33.000Z</time>
      </trkpt>
      <trkpt lat="47.3755" lon="-1.13249">
        <ele>-3.93</ele>
        <time>2022-09-23T12:08:38.000Z</time>
      </trkpt>
      <trkpt lat="47.37551" lon="-1.13212">
        <ele>-3.14</ele>
        <time>2022-09-23T12:08:43.000Z</time>
      </trkpt>
      <trkpt lat="47.37552" lon="-1.13173">
        <ele>-2.71</ele>
        <time>2022-09-23T12:08:48.000Z</time>
      </trkpt>
      <trkpt lat="47.37551" lon="-1.13136">
        <ele>-2.6</ele>
        <time>2022-09-23T12:08:53.000Z</time>
      </trkpt>
      <trkpt lat="47.3755" lon="-1.13099">
        <ele>-2.59</ele>
        <time>2022-09-23T12:08:58.000Z</time>
      </trkpt>
      <trkpt lat="47.3755" lon="-1.13064">
        <ele>-2.48</ele>
        <time>2022-09-23T12:09:03.000Z</time>
      </trkpt>
      <trkpt lat="47.37549" lon="-1.13026">
        <ele>-3.05</ele>
        <time>2022-09-23T12:09:08.000Z</time>
      </trkpt>
      <trkpt lat="47.37548" lon="-1.12983">
        <ele>-3.5</ele>
        <time>2022-09-23T12:09:13.000Z</time>
      </trkpt>
      <trkpt lat="47.37548" lon="-1.12945">
        <ele>-3.57</ele>
        <time>2022-09-23T12:09:18.000Z</time>
      </trkpt>
      <trkpt lat="47.37547" lon="-1.12907">
        <ele>-3.6</ele>
        <time>2022-09-23T12:09:23.000Z</time>
      </trkpt>
      <trkpt lat="47.37549" lon="-1.12874">
        <ele>-3.7</ele>
        <time>2022-09-23T12:09:28.000Z</time>
      </trkpt>
      <trkpt lat="47.37552" lon="-1.12842">
        <ele>-3.8</ele>
        <time>2022-09-23T12:09:33.000Z</time>
      </trkpt>
      <trkpt lat="47.37548" lon="-1.12809">
        <ele>-3.87</ele>
        <time>2022-09-23T12:09:38.000Z</time>
      </trkpt>
      <trkpt lat="47.37548" lon="-1.12776">
        <ele>-3.9</ele>
        <time>2022-09-23T12:09:43.000Z</time>
      </trkpt>
      <trkpt lat="47.37542" lon="-1.12728">
        <ele>-3.53</ele>
        <time>2022-09-23T12:09:48.000Z</time>
      </trkpt>
      <trkpt lat="47.37539" lon="-1.1269">
        <ele>-3.1</ele>
        <time>2022-09-23T12:09:53.000Z</time>
      </trkpt>
      <trkpt lat="47.37537" lon="-1.12651">
        <ele>-3.1</ele>
        <time>2022-09-23T12:09:58.000Z</time>
      </trkpt>
      <trkpt lat="47.37534" lon="-1.1261">
        <ele>-3.32</ele>
        <time>2022-09-23T12:10:03.000Z</time>
      </trkpt>
      <trkpt lat="47.37532" lon="-1.12572">
        <ele>-3.57</ele>
        <time>2022-09-23T12:10:08.000Z</time>
      </trkpt>
      <trkpt lat="47.3753" lon="-1.12529">
        <ele>-3.03</ele>
        <time>2022-09-23T12:10:13.000Z</time>
      </trkpt>
      <trkpt lat="47.37532" lon="-1.12499">
        <ele>-2.64</ele>
        <time>2022-09-23T12:10:18.000Z</time>
      </trkpt>
      <trkpt lat="47.37533" lon="-1.12468">
        <ele>-2.45</ele>
        <time>2022-09-23T12:10:23.000Z</time>
      </trkpt>
      <trkpt lat="47.37532" lon="-1.12431">
        <ele>-2.87</ele>
        <time>2022-09-23T12:10:28.000Z</time>
      </trkpt>
      <trkpt lat="47.37531" lon="-1.12394">
        <ele>-3.09</ele>
        <time>2022-09-23T12:10:33.000Z</time>
      </trkpt>
      <trkpt lat="47.37532" lon="-1.12356">
        <ele>-2.17</ele>
        <time>2022-09-23T12:10:38.000Z</time>
      </trkpt>
      <trkpt lat="47.3753" lon="-1.12317">
        <ele>-1.49</ele>
        <time>2022-09-23T12:10:43.000Z</time>
      </trkpt>
      <trkpt lat="47.37528" lon="-1.12278">
        <ele>0.09</ele>
        <time>2022-09-23T12:10:48.000Z</time>
      </trkpt>
      <trkpt lat="47.37527" lon="-1.1224">
        <ele>1.4</ele>
        <time>2022-09-23T12:10:53.000Z</time>
      </trkpt>
      <trkpt lat="47.37528" lon="-1.122">
        <ele>1.92</ele>
        <time>2022-09-23T12:10:58.000Z</time>
      </trkpt>
      <trkpt lat="47.37527" lon="-1.12166">
        <ele>1.72</ele>
        <time>2022-09-23T12:11:03.000Z</time>
      </trkpt>
      <trkpt lat="47.37527" lon="-1.12138">
        <ele>1.94</ele>
        <time>2022-09-23T12:11:08.000Z</time>
      </trkpt>
      <trkpt lat="47.37524" lon="-1.12106">
        <ele>2.96</ele>
        <time>2022-09-23T12:11:13.000Z</time>
      </trkpt>
      <trkpt lat="47.37525" lon="-1.12078">
        <ele>3.98</ele>
        <time>2022-09-23T12:11:18.000Z</time>
      </trkpt>
      <trkpt lat="47.37524" lon="-1.12048">
        <ele>4.07</ele>
        <time>2022-09-23T12:11:23.000Z</time>
      </trkpt>
      <trkpt lat="47.37521" lon="-1.12015">
        <ele>4.83</ele>
        <time>2022-09-23T12:11:28.000Z</time>
      </trkpt>
      <trkpt lat="47.37518" lon="-1.11977">
        <ele>5.26</ele>
        <time>2022-09-23T12:11:33.000Z</time>
      </trkpt>
      <trkpt lat="47.37516" lon="-1.11939">
        <ele>6.5</ele>
        <time>2022-09-23T12:11:38.000Z</time>
      </trkpt>
      <trkpt lat="47.37514" lon="-1.11899">
        <ele>7.41</ele>
        <time>2022-09-23T12:11:43.000Z</time>
      </trkpt>
      <trkpt lat="47.37514" lon="-1.1186">
        <ele>9.09</ele>
        <time>2022-09-23T12:11:48.000Z</time>
      </trkpt>
      <trkpt lat="47.37513" lon="-1.11822">
        <ele>10.59</ele>
        <time>2022-09-23T12:11:53.000Z</time>
      </trkpt>
      <trkpt lat="47.37514" lon="-1.11778">
        <ele>11.94</ele>
        <time>2022-09-23T12:11:58.000Z</time>
      </trkpt>
      <trkpt lat="47.37513" lon="-1.11737">
        <ele>12.26</ele>
        <time>2022-09-23T12:12:03.000Z</time>
      </trkpt>
      <trkpt lat="47.37512" lon="-1.11698">
        <ele>12.78</ele>
        <time>2022-09-23T12:12:08.000Z</time>
      </trkpt>
      <trkpt lat="47.37511" lon="-1.11657">
        <ele>12.72</ele>
        <time>2022-09-23T12:12:13.000Z</time>
      </trkpt>
      <trkpt lat="47.37511" lon="-1.11616">
        <ele>10.33</ele>
        <time>2022-09-23T12:12:18.000Z</time>
      </trkpt>
      <trkpt lat="47.37511" lon="-1.11574">
        <ele>9.29</ele>
        <time>2022-09-23T12:12:23.000Z</time>
      </trkpt>
      <trkpt lat="47.37509" lon="-1.11531">
        <ele>8.27</ele>
        <time>2022-09-23T12:12:28.000Z</time>
      </trkpt>
      <trkpt lat="47.37509" lon="-1.1149">
        <ele>6.17</ele>
        <time>2022-09-23T12:12:33.000Z</time>
      </trkpt>
      <trkpt lat="47.37509" lon="-1.11451">
        <ele>6.14</ele>
        <time>2022-09-23T12:12:38.000Z</time>
      </trkpt>
      <trkpt lat="47.37508" lon="-1.11413">
        <ele>6.52</ele>
        <time>2022-09-23T12:12:43.000Z</time>
      </trkpt>
      <trkpt lat="47.37506" lon="-1.11373">
        <ele>6.97</ele>
        <time>2022-09-23T12:12:48.000Z</time>
      </trkpt>
      <trkpt lat="47.37504" lon="-1.11334">
        <ele>7.13</ele>
        <time>2022-09-23T12:12:53.000Z</time>
      </trkpt>
      <trkpt lat="47.37503" lon="-1.11297">
        <ele>7.42</ele>
        <time>2022-09-23T12:12:58.000Z</time>
      </trkpt>
      <trkpt lat="47.37502" lon="-1.11259">
        <ele>7.39</ele>
        <time>2022-09-23T12:13:03.000Z</time>
      </trkpt>
      <trkpt lat="47.37501" lon="-1.11219">
        <ele>7.27</ele>
        <time>2022-09-23T12:13:08.000Z</time>
      </trkpt>
      <trkpt lat="47.37501" lon="-1.1118">
        <ele>7.73</ele>
        <time>2022-09-23T12:13:13.000Z</time>
      </trkpt>
      <trkpt lat="47.37503" lon="-1.11147">
        <ele>7.9</ele>
        <time>2022-09-23T12:13:18.000Z</time>
      </trkpt>
      <trkpt lat="47.37504" lon="-1.11123">
        <ele>9.37</ele>
        <time>2022-09-23T12:13:23.000Z</time>
      </trkpt>
      <trkpt lat="47.37503" lon="-1.11096">
        <ele>11.01</ele>
        <time>2022-09-23T12:13:28.000Z</time>
      </trkpt>
      <trkpt lat="47.37501" lon="-1.11066">
        <ele>11.2</ele>
        <time>2022-09-23T12:13:33.000Z</time>
      </trkpt>
      <trkpt lat="47.37498" lon="-1.11029">
        <ele>10.58</ele>
        <time>2022-09-23T12:13:38.000Z</time>
      </trkpt>
      <trkpt lat="47.37496" lon="-1.10978">
        <ele>10.18</ele>
        <time>2022-09-23T12:13:43.000Z</time>
      </trkpt>
      <trkpt lat="47.37494" lon="-1.10934">
        <ele>10.77</ele>
        <time>2022-09-23T12:13:48.000Z</time>
      </trkpt>
      <trkpt lat="47.37494" lon="-1.10892">
        <ele>11.37</ele>
        <time>2022-09-23T12:13:53.000Z</time>
      </trkpt>
      <trkpt lat="47.37478" lon="-1.10833">
        <ele>10.52</ele>
        <time>2022-09-23T12:13:58.000Z</time>
      </trkpt>
      <trkpt lat="47.3746" lon="-1.1079">
        <ele>9.25</ele>
        <time>2022-09-23T12:14:03.000Z</time>
      </trkpt>
      <trkpt lat="47.37442" lon="-1.10752">
        <ele>8.55</ele>
        <time>2022-09-23T12:14:08.000Z</time>
      </trkpt>
      <trkpt lat="47.37422" lon="-1.10716">
        <ele>7.65</ele>
        <time>2022-09-23T12:14:13.000Z</time>
      </trkpt>
      <trkpt lat="47.37409" lon="-1.10683">
        <ele>5.45</ele>
        <time>2022-09-23T12:14:18.000Z</time>
      </trkpt>
      <trkpt lat="47.37395" lon="-1.10647">
        <ele>3.7</ele>
        <time>2022-09-23T12:14:23.000Z</time>
      </trkpt>
      <trkpt lat="47.37381" lon="-1.10614">
        <ele>2.57</ele>
        <time>2022-09-23T12:14:28.000Z</time>
      </trkpt>
      <trkpt lat="47.37369" lon="-1.10585">
        <ele>1.61</ele>
        <time>2022-09-23T12:14:33.000Z</time>
      </trkpt>
      <trkpt lat="47.37356" lon="-1.10555">
        <ele>0.15</ele>
        <time>2022-09-23T12:14:38.000Z</time>
      </trkpt>
      <trkpt lat="47.37345" lon="-1.10529">
        <ele>-0.34</ele>
        <time>2022-09-23T12:14:43.000Z</time>
      </trkpt>
      <trkpt lat="47.37335" lon="-1.10503">
        <ele>-1.26</ele>
        <time>2022-09-23T12:14:48.000Z</time>
      </trkpt>
      <trkpt lat="47.37325" lon="-1.10481">
        <ele>-0.79</ele>
        <time>2022-09-23T12:14:53.000Z</time>
      </trkpt>
      <trkpt lat="47.37315" lon="-1.10456">
        <ele>-0.69</ele>
        <time>2022-09-23T12:14:58.000Z</time>
      </trkpt>
      <trkpt lat="47.37304" lon="-1.10427">
        <ele>-0.69</ele>
        <time>2022-09-23T12:15:03.000Z</time>
      </trkpt>
      <trkpt lat="47.37294" lon="-1.10397">
        <ele>-0.53</ele>
        <time>2022-09-23T12:15:08.000Z</time>
      </trkpt>
      <trkpt lat="47.37284" lon="-1.10367">
        <ele>-0.43</ele>
        <time>2022-09-23T12:15:13.000Z</time>
      </trkpt>
      <trkpt lat="47.37272" lon="-1.10337">
        <ele>-0.26</ele>
        <time>2022-09-23T12:15:18.000Z</time>
      </trkpt>
      <trkpt lat="47.37261" lon="-1.10309">
        <ele>-1.55</ele>
        <time>2022-09-23T12:15:23.000Z</time>
      </trkpt>
      <trkpt lat="47.37249" lon="-1.1028">
        <ele>-1.05</ele>
        <time>2022-09-23T12:15:28.000Z</time>
      </trkpt>
      <trkpt lat="47.37235" lon="-1.10255">
        <ele>-0.43</ele>
        <time>2022-09-23T12:15:33.000Z</time>
      </trkpt>
      <trkpt lat="47.3722" lon="-1.10235">
        <ele>-0.68</ele>
        <time>2022-09-23T12:15:38.000Z</time>
      </trkpt>
      <trkpt lat="47.37213" lon="-1.10203">
        <ele>-1.52</ele>
        <time>2022-09-23T12:15:43.000Z</time>
      </trkpt>
      <trkpt lat="47.37209" lon="-1.10176">
        <ele>-3.64</ele>
        <time>2022-09-23T12:15:48.000Z</time>
      </trkpt>
      <trkpt lat="47.372" lon="-1.10149">
        <ele>-3.79</ele>
        <time>2022-09-23T12:15:53.000Z</time>
      </trkpt>
      <trkpt lat="47.37192" lon="-1.10122">
        <ele>-3.87</ele>
        <time>2022-09-23T12:15:58.000Z</time>
      </trkpt>
      <trkpt lat="47.37175" lon="-1.10072">
        <ele>-4.93</ele>
        <time>2022-09-23T12:16:03.000Z</time>
      </trkpt>
      <trkpt lat="47.37164" lon="-1.1004">
        <ele>-4.66</ele>
        <time>2022-09-23T12:16:08.000Z</time>
      </trkpt>
      <trkpt lat="47.37158" lon="-1.10009">
        <ele>-4.4</ele>
        <time>2022-09-23T12:16:13.000Z</time>
      </trkpt>
      <trkpt lat="47.37158" lon="-1.09986">
        <ele>-4.23</ele>
        <time>2022-09-23T12:16:18.000Z</time>
      </trkpt>
      <trkpt lat="47.37148" lon="-1.09961">
        <ele>-4.03</ele>
        <time>2022-09-23T12:16:23.000Z</time>
      </trkpt>
      <trkpt lat="47.37131" lon="-1.09926">
        <ele>-4.24</ele>
        <time>2022-09-23T12:16:28.000Z</time>
      </trkpt>
      <trkpt lat="47.3712" lon="-1.09882">
        <ele>-4.18</ele>
        <time>2022-09-23T12:16:33.000Z</time>
      </trkpt>
      <trkpt lat="47.3711" lon="-1.09841">
        <ele>-2.67</ele>
        <time>2022-09-23T12:16:38.000Z</time>
      </trkpt>
      <trkpt lat="47.37104" lon="-1.09805">
        <ele>-0.68</ele>
        <time>2022-09-23T12:16:43.000Z</time>
      </trkpt>
      <trkpt lat="47.37095" lon="-1.09769">
        <ele>1.51</ele>
        <time>2022-09-23T12:16:48.000Z</time>
      </trkpt>
      <trkpt lat="47.37088" lon="-1.09731">
        <ele>3.93</ele>
        <time>2022-09-23T12:16:53.000Z</time>
      </trkpt>
      <trkpt lat="47.37084" lon="-1.09694">
        <ele>6.34</ele>
        <time>2022-09-23T12:16:58.000Z</time>
      </trkpt>
      <trkpt lat="47.37085" lon="-1.09661">
        <ele>8.47</ele>
        <time>2022-09-23T12:17:03.000Z</time>
      </trkpt>
      <trkpt lat="47.37095" lon="-1.09637">
        <ele>8.1</ele>
        <time>2022-09-23T12:17:08.000Z</time>
      </trkpt>
      <trkpt lat="47.37109" lon="-1.09628">
        <ele>6.96</ele>
        <time>2022-09-23T12:17:13.000Z</time>
      </trkpt>
      <trkpt lat="47.37126" lon="-1.09632">
        <ele>6.22</ele>
        <time>2022-09-23T12:17:18.000Z</time>
      </trkpt>
      <trkpt lat="47.37142" lon="-1.09637">
        <ele>5.45</ele>
        <time>2022-09-23T12:17:23.000Z</time>
      </trkpt>
      <trkpt lat="47.37161" lon="-1.09642">
        <ele>5.7</ele>
        <time>2022-09-23T12:17:28.000Z</time>
      </trkpt>
      <trkpt lat="47.37181" lon="-1.09651">
        <ele>7.08</ele>
        <time>2022-09-23T12:17:33.000Z</time>
      </trkpt>
      <trkpt lat="47.37195" lon="-1.09662">
        <ele>7.17</ele>
        <time>2022-09-23T12:17:38.000Z</time>
      </trkpt>
      <trkpt lat="47.37208" lon="-1.09676">
        <ele>7.69</ele>
        <time>2022-09-23T12:17:43.000Z</time>
      </trkpt>
      <trkpt lat="47.37226" lon="-1.09691">
        <ele>7.08</ele>
        <time>2022-09-23T12:17:48.000Z</time>
      </trkpt>
      <trkpt lat="47.37241" lon="-1.09704">
        <ele>5.33</ele>
        <time>2022-09-23T12:17:53.000Z</time>
      </trkpt>
      <trkpt lat="47.37256" lon="-1.09719">
        <ele>4.17</ele>
        <time>2022-09-23T12:17:58.000Z</time>
      </trkpt>
      <trkpt lat="47.37271" lon="-1.09735">
        <ele>4.61</ele>
        <time>2022-09-23T12:18:03.000Z</time>
      </trkpt>
      <trkpt lat="47.37283" lon="-1.09748">
        <ele>3.9</ele>
        <time>2022-09-23T12:18:08.000Z</time>
      </trkpt>
      <trkpt lat="47.37296" lon="-1.0976">
        <ele>3.6</ele>
        <time>2022-09-23T12:18:13.000Z</time>
      </trkpt>
      <trkpt lat="47.37306" lon="-1.09768">
        <ele>3.68</ele>
        <time>2022-09-23T12:18:18.000Z</time>
      </trkpt>
      <trkpt lat="47.37314" lon="-1.09762">
        <ele>4.76</ele>
        <time>2022-09-23T12:19:18.000Z</time>
      </trkpt>
      <trkpt lat="47.37323" lon="-1.09732">
        <ele>4.62</ele>
        <time>2022-09-23T12:19:23.000Z</time>
      </trkpt>
      <trkpt lat="47.37333" lon="-1.09694">
        <ele>3.75</ele>
        <time>2022-09-23T12:19:28.000Z</time>
      </trkpt>
      <trkpt lat="47.37344" lon="-1.09652">
        <ele>3.22</ele>
        <time>2022-09-23T12:19:33.000Z</time>
      </trkpt>
      <trkpt lat="47.37392" lon="-1.0928">
        <ele>-1.75</ele>
        <time>2022-09-23T12:20:22.000Z</time>
      </trkpt>
      <trkpt lat="47.37391" lon="-1.0924">
        <ele>-0.3</ele>
        <time>2022-09-23T12:20:27.000Z</time>
      </trkpt>
      <trkpt lat="47.37391" lon="-1.09202">
        <ele>1.2</ele>
        <time>2022-09-23T12:20:32.000Z</time>
      </trkpt>
      <trkpt lat="47.37392" lon="-1.09162">
        <ele>2</ele>
        <time>2022-09-23T12:20:37.000Z</time>
      </trkpt>
      <trkpt lat="47.37396" lon="-1.09122">
        <ele>2.68</ele>
        <time>2022-09-23T12:20:42.000Z</time>
      </trkpt>
      <trkpt lat="47.37404" lon="-1.09086">
        <ele>2.27</ele>
        <time>2022-09-23T12:20:47.000Z</time>
      </trkpt>
      <trkpt lat="47.37413" lon="-1.09052">
        <ele>1.98</ele>
        <time>2022-09-23T12:20:52.000Z</time>
      </trkpt>
      <trkpt lat="47.37421" lon="-1.09014">
        <ele>1.24</ele>
        <time>2022-09-23T12:20:57.000Z</time>
      </trkpt>
      <trkpt lat="47.37429" lon="-1.08978">
        <ele>0.51</ele>
        <time>2022-09-23T12:21:02.000Z</time>
      </trkpt>
      <trkpt lat="47.37437" lon="-1.08944">
        <ele>0.58</ele>
        <time>2022-09-23T12:21:07.000Z</time>
      </trkpt>
      <trkpt lat="47.37439" lon="-1.08904">
        <ele>1.17</ele>
        <time>2022-09-23T12:21:12.000Z</time>
      </trkpt>
      <trkpt lat="47.37438" lon="-1.08861">
        <ele>1.66</ele>
        <time>2022-09-23T12:21:17.000Z</time>
      </trkpt>
      <trkpt lat="47.37437" lon="-1.08825">
        <ele>1.68</ele>
        <time>2022-09-23T12:21:22.000Z</time>
      </trkpt>
      <trkpt lat="47.37436" lon="-1.08789">
        <ele>1.68</ele>
        <time>2022-09-23T12:21:27.000Z</time>
      </trkpt>
      <trkpt lat="47.37435" lon="-1.08751">
        <ele>0.05</ele>
        <time>2022-09-23T12:21:32.000Z</time>
      </trkpt>
      <trkpt lat="47.37423" lon="-1.08722">
        <ele>0.08</ele>
        <time>2022-09-23T12:21:37.000Z</time>
      </trkpt>
      <trkpt lat="47.37409" lon="-1.08693">
        <ele>-2.32</ele>
        <time>2022-09-23T12:21:42.000Z</time>
      </trkpt>
      <trkpt lat="47.37407" lon="-1.08659">
        <ele>-3.16</ele>
        <time>2022-09-23T12:21:47.000Z</time>
      </trkpt>
      <trkpt lat="47.37405" lon="-1.08625">
        <ele>-3.89</ele>
        <time>2022-09-23T12:21:52.000Z</time>
      </trkpt>
      <trkpt lat="47.37407" lon="-1.08596">
        <ele>-5.03</ele>
        <time>2022-09-23T12:21:57.000Z</time>
      </trkpt>
      <trkpt lat="47.37412" lon="-1.08569">
        <ele>-5.94</ele>
        <time>2022-09-23T12:22:02.000Z</time>
      </trkpt>
      <trkpt lat="47.37409" lon="-1.0854">
        <ele>-6.83</ele>
        <time>2022-09-23T12:22:07.000Z</time>
      </trkpt>
      <trkpt lat="47.37418" lon="-1.08514">
        <ele>-7.71</ele>
        <time>2022-09-23T12:22:12.000Z</time>
      </trkpt>
      <trkpt lat="47.37426" lon="-1.08488">
        <ele>-8.37</ele>
        <time>2022-09-23T12:22:17.000Z</time>
      </trkpt>
      <trkpt lat="47.37428" lon="-1.08451">
        <ele>-8.77</ele>
        <time>2022-09-23T12:22:22.000Z</time>
      </trkpt>
      <trkpt lat="47.3743" lon="-1.0841">
        <ele>-9.15</ele>
        <time>2022-09-23T12:22:27.000Z</time>
      </trkpt>
      <trkpt lat="47.37438" lon="-1.08371">
        <ele>-8.31</ele>
        <time>2022-09-23T12:22:32.000Z</time>
      </trkpt>
      <trkpt lat="47.37435" lon="-1.08334">
        <ele>-8.42</ele>
        <time>2022-09-23T12:22:37.000Z</time>
      </trkpt>
      <trkpt lat="47.37433" lon="-1.08296">
        <ele>-7.18</ele>
        <time>2022-09-23T12:22:42.000Z</time>
      </trkpt>
      <trkpt lat="47.37431" lon="-1.0826">
        <ele>-5.6</ele>
        <time>2022-09-23T12:22:47.000Z</time>
      </trkpt>
      <trkpt lat="47.3743" lon="-1.08222">
        <ele>-5.59</ele>
        <time>2022-09-23T12:22:52.000Z</time>
      </trkpt>
      <trkpt lat="47.37429" lon="-1.08185">
        <ele>-5.89</ele>
        <time>2022-09-23T12:22:57.000Z</time>
      </trkpt>
      <trkpt lat="47.37428" lon="-1.08148">
        <ele>-7.05</ele>
        <time>2022-09-23T12:23:02.000Z</time>
      </trkpt>
      <trkpt lat="47.37427" lon="-1.08113">
        <ele>-8.41</ele>
        <time>2022-09-23T12:23:07.000Z</time>
      </trkpt>
      <trkpt lat="47.37425" lon="-1.08077">
        <ele>-6.66</ele>
        <time>2022-09-23T12:23:12.000Z</time>
      </trkpt>
      <trkpt lat="47.37424" lon="-1.08042">
        <ele>-4.55</ele>
        <time>2022-09-23T12:23:17.000Z</time>
      </trkpt>
      <trkpt lat="47.37422" lon="-1.08006">
        <ele>-2.91</ele>
        <time>2022-09-23T12:23:22.000Z</time>
      </trkpt>
      <trkpt lat="47.3742" lon="-1.07969">
        <ele>-2.77</ele>
        <time>2022-09-23T12:23:27.000Z</time>
      </trkpt>
      <trkpt lat="47.37421" lon="-1.07935">
        <ele>-0.97</ele>
        <time>2022-09-23T12:23:32.000Z</time>
      </trkpt>
      <trkpt lat="47.37421" lon="-1.07901">
        <ele>1.6</ele>
        <time>2022-09-23T12:23:37.000Z</time>
      </trkpt>
      <trkpt lat="47.37423" lon="-1.07868">
        <ele>1.96</ele>
        <time>2022-09-23T12:23:42.000Z</time>
      </trkpt>
      <trkpt lat="47.37414" lon="-1.07836">
        <ele>2.88</ele>
        <time>2022-09-23T12:23:47.000Z</time>
      </trkpt>
      <trkpt lat="47.37404" lon="-1.07823">
        <ele>2.16</ele>
        <time>2022-09-23T12:23:52.000Z</time>
      </trkpt>
      <trkpt lat="47.37386" lon="-1.07811">
        <ele>1.6</ele>
        <time>2022-09-23T12:23:57.000Z</time>
      </trkpt>
      <trkpt lat="47.37367" lon="-1.07795">
        <ele>1.43</ele>
        <time>2022-09-23T12:24:02.000Z</time>
      </trkpt>
      <trkpt lat="47.37343" lon="-1.07778">
        <ele>1.5</ele>
        <time>2022-09-23T12:24:07.000Z</time>
      </trkpt>
      <trkpt lat="47.37336" lon="-1.07747">
        <ele>1.7</ele>
        <time>2022-09-23T12:24:12.000Z</time>
      </trkpt>
      <trkpt lat="47.37333" lon="-1.07706">
        <ele>2.63</ele>
        <time>2022-09-23T12:24:17.000Z</time>
      </trkpt>
      <trkpt lat="47.37334" lon="-1.07666">
        <ele>3.07</ele>
        <time>2022-09-23T12:24:22.000Z</time>
      </trkpt>
      <trkpt lat="47.37337" lon="-1.0763">
        <ele>2.77</ele>
        <time>2022-09-23T12:24:27.000Z</time>
      </trkpt>
      <trkpt lat="47.37337" lon="-1.07592">
        <ele>2.03</ele>
        <time>2022-09-23T12:24:32.000Z</time>
      </trkpt>
      <trkpt lat="47.37335" lon="-1.07554">
        <ele>1.78</ele>
        <time>2022-09-23T12:24:37.000Z</time>
      </trkpt>
      <trkpt lat="47.37329" lon="-1.07515">
        <ele>0.97</ele>
        <time>2022-09-23T12:24:42.000Z</time>
      </trkpt>
      <trkpt lat="47.37328" lon="-1.07475">
        <ele>0.59</ele>
        <time>2022-09-23T12:24:47.000Z</time>
      </trkpt>
      <trkpt lat="47.37323" lon="-1.07438">
        <ele>0.06</ele>
        <time>2022-09-23T12:24:52.000Z</time>
      </trkpt>
      <trkpt lat="47.37319" lon="-1.07404">
        <ele>-0.65</ele>
        <time>2022-09-23T12:24:57.000Z</time>
      </trkpt>
      <trkpt lat="47.37316" lon="-1.07368">
        <ele>-1.2</ele>
        <time>2022-09-23T12:25:02.000Z</time>
      </trkpt>
      <trkpt lat="47.3731" lon="-1.07331">
        <ele>-0.66</ele>
        <time>2022-09-23T12:25:07.000Z</time>
      </trkpt>
      <trkpt lat="47.37301" lon="-1.07294">
        <ele>-1.15</ele>
        <time>2022-09-23T12:25:12.000Z</time>
      </trkpt>
      <trkpt lat="47.37296" lon="-1.07262">
        <ele>-1.12</ele>
        <time>2022-09-23T12:25:17.000Z</time>
      </trkpt>
      <trkpt lat="47.37296" lon="-1.07235">
        <ele>-1.37</ele>
        <time>2022-09-23T12:25:22.000Z</time>
      </trkpt>
      <trkpt lat="47.37292" lon="-1.07208">
        <ele>-1.57</ele>
        <time>2022-09-23T12:25:27.000Z</time>
      </trkpt>
      <trkpt lat="47.37286" lon="-1.07173">
        <ele>-1.7</ele>
        <time>2022-09-23T12:25:32.000Z</time>
      </trkpt>
      <trkpt lat="47.37283" lon="-1.07129">
        <ele>-1.9</ele>
        <time>2022-09-23T12:25:37.000Z</time>
      </trkpt>
      <trkpt lat="47.37271" lon="-1.0708">
        <ele>-1.97</ele>
        <time>2022-09-23T12:25:42.000Z</time>
      </trkpt>
      <trkpt lat="47.37268" lon="-1.07043">
        <ele>-1.75</ele>
        <time>2022-09-23T12:25:47.000Z</time>
      </trkpt>
      <trkpt lat="47.37266" lon="-1.07007">
        <ele>-1.18</ele>
        <time>2022-09-23T12:25:52.000Z</time>
      </trkpt>
      <trkpt lat="47.37263" lon="-1.06971">
        <ele>-1.61</ele>
        <time>2022-09-23T12:25:57.000Z</time>
      </trkpt>
      <trkpt lat="47.37261" lon="-1.06934">
        <ele>-1.83</ele>
        <time>2022-09-23T12:26:02.000Z</time>
      </trkpt>
      <trkpt lat="47.37266" lon="-1.06898">
        <ele>-1.12</ele>
        <time>2022-09-23T12:26:07.000Z</time>
      </trkpt>
      <trkpt lat="47.37278" lon="-1.06868">
        <ele>-1.57</ele>
        <time>2022-09-23T12:26:12.000Z</time>
      </trkpt>
      <trkpt lat="47.37286" lon="-1.06836">
        <ele>-1.67</ele>
        <time>2022-09-23T12:26:17.000Z</time>
      </trkpt>
      <trkpt lat="47.37286" lon="-1.06803">
        <ele>-1.15</ele>
        <time>2022-09-23T12:26:22.000Z</time>
      </trkpt>
      <trkpt lat="47.37284" lon="-1.06768">
        <ele>-0.17</ele>
        <time>2022-09-23T12:26:27.000Z</time>
      </trkpt>
      <trkpt lat="47.37282" lon="-1.06736">
        <ele>0.47</ele>
        <time>2022-09-23T12:26:32.000Z</time>
      </trkpt>
      <trkpt lat="47.37292" lon="-1.06709">
        <ele>0.96</ele>
        <time>2022-09-23T12:26:37.000Z</time>
      </trkpt>
      <trkpt lat="47.37306" lon="-1.06677">
        <ele>0.83</ele>
        <time>2022-09-23T12:26:42.000Z</time>
      </trkpt>
      <trkpt lat="47.37324" lon="-1.06646">
        <ele>0.11</ele>
        <time>2022-09-23T12:26:47.000Z</time>
      </trkpt>
      <trkpt lat="47.37337" lon="-1.06615">
        <ele>10</ele>
        <time>2022-09-23T12:26:52.000Z</time>
      </trkpt>
      <trkpt lat="47.37342" lon="-1.06584">
        <ele>0.39</ele>
        <time>2022-09-23T12:26:57.000Z</time>
      </trkpt>
      <trkpt lat="47.37342" lon="-1.06557">
        <ele>0.4</ele>
        <time>2022-09-23T12:27:02.000Z</time>
      </trkpt>
      <trkpt lat="47.37339" lon="-1.06529">
        <ele>0.4</ele>
        <time>2022-09-23T12:27:07.000Z</time>
      </trkpt>
      <trkpt lat="47.37329" lon="-1.06493">
        <ele>0.49</ele>
        <time>2022-09-23T12:27:12.000Z</time>
      </trkpt>
      <trkpt lat="47.37324" lon="-1.06453">
        <ele>0.87</ele>
        <time>2022-09-23T12:27:17.000Z</time>
      </trkpt>
      <trkpt lat="47.37326" lon="-1.06402">
        <ele>1.19</ele>
        <time>2022-09-23T12:27:22.000Z</time>
      </trkpt>
      <trkpt lat="47.37327" lon="-1.06366">
        <ele>1.37</ele>
        <time>2022-09-23T12:27:27.000Z</time>
      </trkpt>
      <trkpt lat="47.37323" lon="-1.06329">
        <ele>1.59</ele>
        <time>2022-09-23T12:27:32.000Z</time>
      </trkpt>
      <trkpt lat="47.37321" lon="-1.06294">
        <ele>1.77</ele>
        <time>2022-09-23T12:27:37.000Z</time>
      </trkpt>
      <trkpt lat="47.37322" lon="-1.06259">
        <ele>1.99</ele>
        <time>2022-09-23T12:27:42.000Z</time>
      </trkpt>
      <trkpt lat="47.37322" lon="-1.06223">
        <ele>2.39</ele>
        <time>2022-09-23T12:27:47.000Z</time>
      </trkpt>
      <trkpt lat="47.37324" lon="-1.0618">
        <ele>2.6</ele>
        <time>2022-09-23T12:27:52.000Z</time>
      </trkpt>
      <trkpt lat="47.37314" lon="-1.06127">
        <ele>1.05</ele>
        <time>2022-09-23T12:27:57.000Z</time>
      </trkpt>
      <trkpt lat="47.37302" lon="-1.06088">
        <ele>1.16</ele>
        <time>2022-09-23T12:28:02.000Z</time>
      </trkpt>
      <trkpt lat="47.37292" lon="-1.06054">
        <ele>1.68</ele>
        <time>2022-09-23T12:28:07.000Z</time>
      </trkpt>
      <trkpt lat="47.37284" lon="-1.0602">
        <ele>1.38</ele>
        <time>2022-09-23T12:28:12.000Z</time>
      </trkpt>
      <trkpt lat="47.37278" lon="-1.05987">
        <ele>11</ele>
        <time>2022-09-23T12:28:17.000Z</time>
      </trkpt>
      <trkpt lat="47.37275" lon="-1.05949">
        <ele>1.14</ele>
        <time>2022-09-23T12:28:22.000Z</time>
      </trkpt>
      <trkpt lat="47.37274" lon="-1.05914">
        <ele>1.79</ele>
        <time>2022-09-23T12:28:27.000Z</time>
      </trkpt>
      <trkpt lat="47.37274" lon="-1.05878">
        <ele>2.6</ele>
        <time>2022-09-23T12:28:32.000Z</time>
      </trkpt>
      <trkpt lat="47.37277" lon="-1.0584">
        <ele>2.6</ele>
        <time>2022-09-23T12:28:37.000Z</time>
      </trkpt>
      <trkpt lat="47.37283" lon="-1.05805">
        <ele>1.98</ele>
        <time>2022-09-23T12:28:42.000Z</time>
      </trkpt>
      <trkpt lat="47.37284" lon="-1.05769">
        <ele>0.77</ele>
        <time>2022-09-23T12:28:47.000Z</time>
      </trkpt>
      <trkpt lat="47.37287" lon="-1.05733">
        <ele>0.63</ele>
        <time>2022-09-23T12:28:52.000Z</time>
      </trkpt>
      <trkpt lat="47.37291" lon="-1.05698">
        <ele>0.35</ele>
        <time>2022-09-23T12:28:57.000Z</time>
      </trkpt>
      <trkpt lat="47.37291" lon="-1.05663">
        <ele>-0.14</ele>
        <time>2022-09-23T12:29:02.000Z</time>
      </trkpt>
      <trkpt lat="47.37293" lon="-1.05631">
        <ele>-0.79</ele>
        <time>2022-09-23T12:29:07.000Z</time>
      </trkpt>
      <trkpt lat="47.37297" lon="-1.056">
        <ele>-1.17</ele>
        <time>2022-09-23T12:29:12.000Z</time>
      </trkpt>
      <trkpt lat="47.37307" lon="-1.0558">
        <ele>-2.8</ele>
        <time>2022-09-23T12:29:17.000Z</time>
      </trkpt>
      <trkpt lat="47.37316" lon="-1.05557">
        <ele>-3.84</ele>
        <time>2022-09-23T12:29:22.000Z</time>
      </trkpt>
      <trkpt lat="47.37318" lon="-1.05528">
        <ele>-4.27</ele>
        <time>2022-09-23T12:29:27.000Z</time>
      </trkpt>
      <trkpt lat="47.3731" lon="-1.05517">
        <ele>-4.29</ele>
        <time>2022-09-23T12:29:32.000Z</time>
      </trkpt>
      <trkpt lat="47.37296" lon="-1.05516">
        <ele>-4.59</ele>
        <time>2022-09-23T12:29:37.000Z</time>
      </trkpt>
      <trkpt lat="47.37276" lon="-1.05515">
        <ele>-4.58</ele>
        <time>2022-09-23T12:29:42.000Z</time>
      </trkpt>
      <trkpt lat="47.37267" lon="-1.05512">
        <ele>-4.69</ele>
        <time>2022-09-23T12:29:47.000Z</time>
      </trkpt>
      <trkpt lat="47.37263" lon="-1.05489">
        <ele>-4.97</ele>
        <time>2022-09-23T12:29:52.000Z</time>
      </trkpt>
      <trkpt lat="47.37264" lon="-1.05467">
        <ele>-5.19</ele>
        <time>2022-09-23T12:29:57.000Z</time>
      </trkpt>
      <trkpt lat="47.37269" lon="-1.05441">
        <ele>-5.37</ele>
        <time>2022-09-23T12:30:02.000Z</time>
      </trkpt>
      <trkpt lat="47.37271" lon="-1.0541">
        <ele>-5.57</ele>
        <time>2022-09-23T12:30:07.000Z</time>
      </trkpt>
      <trkpt lat="47.37263" lon="-1.05366">
        <ele>-5.67</ele>
        <time>2022-09-23T12:30:12.000Z</time>
      </trkpt>
      <trkpt lat="47.37259" lon="-1.05322">
        <ele>-5.89</ele>
        <time>2022-09-23T12:30:17.000Z</time>
      </trkpt>
      <trkpt lat="47.37259" lon="-1.05285">
        <ele>-6.27</ele>
        <time>2022-09-23T12:30:22.000Z</time>
      </trkpt>
      <trkpt lat="47.37264" lon="-1.05247">
        <ele>-6.39</ele>
        <time>2022-09-23T12:30:27.000Z</time>
      </trkpt>
      <trkpt lat="47.37264" lon="-1.05207">
        <ele>-6.72</ele>
        <time>2022-09-23T12:30:32.000Z</time>
      </trkpt>
      <trkpt lat="47.37262" lon="-1.0517">
        <ele>-5.82</ele>
        <time>2022-09-23T12:30:37.000Z</time>
      </trkpt>
      <trkpt lat="47.37261" lon="-1.05135">
        <ele>-5.49</ele>
        <time>2022-09-23T12:30:42.000Z</time>
      </trkpt>
      <trkpt lat="47.37257" lon="-1.05099">
        <ele>-5.87</ele>
        <time>2022-09-23T12:30:47.000Z</time>
      </trkpt>
      <trkpt lat="47.37252" lon="-1.05063">
        <ele>-5.56</ele>
        <time>2022-09-23T12:30:52.000Z</time>
      </trkpt>
      <trkpt lat="47.37248" lon="-1.05026">
        <ele>-4.66</ele>
        <time>2022-09-23T12:30:57.000Z</time>
      </trkpt>
      <trkpt lat="47.37242" lon="-1.04987">
        <ele>-3.77</ele>
        <time>2022-09-23T12:31:02.000Z</time>
      </trkpt>
      <trkpt lat="47.37236" lon="-1.0495">
        <ele>-3.79</ele>
        <time>2022-09-23T12:31:07.000Z</time>
      </trkpt>
      <trkpt lat="47.37234" lon="-1.04917">
        <ele>-3.5</ele>
        <time>2022-09-23T12:31:12.000Z</time>
      </trkpt>
      <trkpt lat="47.37232" lon="-1.04883">
        <ele>-3.23</ele>
        <time>2022-09-23T12:31:17.000Z</time>
      </trkpt>
      <trkpt lat="47.37237" lon="-1.04846">
        <ele>-3.1</ele>
        <time>2022-09-23T12:31:22.000Z</time>
      </trkpt>
      <trkpt lat="47.37235" lon="-1.04815">
        <ele>-3.12</ele>
        <time>2022-09-23T12:31:27.000Z</time>
      </trkpt>
      <trkpt lat="47.3723" lon="-1.04782">
        <ele>-2.9</ele>
        <time>2022-09-23T12:31:32.000Z</time>
      </trkpt>
      <trkpt lat="47.37227" lon="-1.04743">
        <ele>-2.12</ele>
        <time>2022-09-23T12:31:37.000Z</time>
      </trkpt>
      <trkpt lat="47.37225" lon="-1.04711">
        <ele>-1.93</ele>
        <time>2022-09-23T12:31:42.000Z</time>
      </trkpt>
      <trkpt lat="47.37222" lon="-1.04669">
        <ele>-1.36</ele>
        <time>2022-09-23T12:31:47.000Z</time>
      </trkpt>
      <trkpt lat="47.37226" lon="-1.0462">
        <ele>-0.63</ele>
        <time>2022-09-23T12:31:52.000Z</time>
      </trkpt>
      <trkpt lat="47.37228" lon="-1.04585">
        <ele>-0.33</ele>
        <time>2022-09-23T12:31:57.000Z</time>
      </trkpt>
      <trkpt lat="47.37231" lon="-1.04547">
        <ele>-0.1</ele>
        <time>2022-09-23T12:32:02.000Z</time>
      </trkpt>
      <trkpt lat="47.37233" lon="-1.04508">
        <ele>0.07</ele>
        <time>2022-09-23T12:32:07.000Z</time>
      </trkpt>
      <trkpt lat="47.37235" lon="-1.04474">
        <ele>0.47</ele>
        <time>2022-09-23T12:32:12.000Z</time>
      </trkpt>
      <trkpt lat="47.37237" lon="-1.04438">
        <ele>0.69</ele>
        <time>2022-09-23T12:32:17.000Z</time>
      </trkpt>
      <trkpt lat="47.37239" lon="-1.04399">
        <ele>0.77</ele>
        <time>2022-09-23T12:32:22.000Z</time>
      </trkpt>
      <trkpt lat="47.37244" lon="-1.04365">
        <ele>0.97</ele>
        <time>2022-09-23T12:32:27.000Z</time>
      </trkpt>
      <trkpt lat="47.37249" lon="-1.04324">
        <ele>1.1</ele>
        <time>2022-09-23T12:32:32.000Z</time>
      </trkpt>
      <trkpt lat="47.3726" lon="-1.04283">
        <ele>1.3</ele>
        <time>2022-09-23T12:32:37.000Z</time>
      </trkpt>
      <trkpt lat="47.37266" lon="-1.04247">
        <ele>1.2</ele>
        <time>2022-09-23T12:32:42.000Z</time>
      </trkpt>
      <trkpt lat="47.37276" lon="-1.04203">
        <ele>0.42</ele>
        <time>2022-09-23T12:32:47.000Z</time>
      </trkpt>
      <trkpt lat="47.37279" lon="-1.04166">
        <ele>-1.18</ele>
        <time>2022-09-23T12:32:52.000Z</time>
      </trkpt>
      <trkpt lat="47.37281" lon="-1.04127">
        <ele>-2.17</ele>
        <time>2022-09-23T12:32:57.000Z</time>
      </trkpt>
      <trkpt lat="47.37282" lon="-1.0409">
        <ele>-1.57</ele>
        <time>2022-09-23T12:33:02.000Z</time>
      </trkpt>
      <trkpt lat="47.37284" lon="-1.04053">
        <ele>-1.59</ele>
        <time>2022-09-23T12:33:07.000Z</time>
      </trkpt>
      <trkpt lat="47.37286" lon="-1.04016">
        <ele>-0.99</ele>
        <time>2022-09-23T12:33:12.000Z</time>
      </trkpt>
      <trkpt lat="47.37286" lon="-1.03981">
        <ele>-0.3</ele>
        <time>2022-09-23T12:33:17.000Z</time>
      </trkpt>
      <trkpt lat="47.37287" lon="-1.0395">
        <ele>0.34</ele>
        <time>2022-09-23T12:33:22.000Z</time>
      </trkpt>
      <trkpt lat="47.37291" lon="-1.03923">
        <ele>0.8</ele>
        <time>2022-09-23T12:33:27.000Z</time>
      </trkpt>
      <trkpt lat="47.37293" lon="-1.03891">
        <ele>0.9</ele>
        <time>2022-09-23T12:33:32.000Z</time>
      </trkpt>
      <trkpt lat="47.37299" lon="-1.03856">
        <ele>1.27</ele>
        <time>2022-09-23T12:33:37.000Z</time>
      </trkpt>
      <trkpt lat="47.37299" lon="-1.03833">
        <ele>1.77</ele>
        <time>2022-09-23T12:33:42.000Z</time>
      </trkpt>
      <trkpt lat="47.37299" lon="-1.03817">
        <ele>2.47</ele>
        <time>2022-09-23T12:33:47.000Z</time>
      </trkpt>
      <trkpt lat="47.37295" lon="-1.03786">
        <ele>2.89</ele>
        <time>2022-09-23T12:33:52.000Z</time>
      </trkpt>
      <trkpt lat="47.37284" lon="-1.03733">
        <ele>4.02</ele>
        <time>2022-09-23T12:33:57.000Z</time>
      </trkpt>
      <trkpt lat="47.37273" lon="-1.03693">
        <ele>4.31</ele>
        <time>2022-09-23T12:34:02.000Z</time>
      </trkpt>
      <trkpt lat="47.37264" lon="-1.03653">
        <ele>4.17</ele>
        <time>2022-09-23T12:34:07.000Z</time>
      </trkpt>
      <trkpt lat="47.37256" lon="-1.03614">
        <ele>3.67</ele>
        <time>2022-09-23T12:34:12.000Z</time>
      </trkpt>
      <trkpt lat="47.37249" lon="-1.03575">
        <ele>2.31</ele>
        <time>2022-09-23T12:34:17.000Z</time>
      </trkpt>
      <trkpt lat="47.37239" lon="-1.03537">
        <ele>1.45</ele>
        <time>2022-09-23T12:34:22.000Z</time>
      </trkpt>
      <trkpt lat="47.37232" lon="-1.03499">
        <ele>1.24</ele>
        <time>2022-09-23T12:34:27.000Z</time>
      </trkpt>
      <trkpt lat="47.37224" lon="-1.03462">
        <ele>0.71</ele>
        <time>2022-09-23T12:34:32.000Z</time>
      </trkpt>
      <trkpt lat="47.37219" lon="-1.03424">
        <ele>-1.17</ele>
        <time>2022-09-23T12:34:37.000Z</time>
      </trkpt>
      <trkpt lat="47.37213" lon="-1.03389">
        <ele>-1.6</ele>
        <time>2022-09-23T12:34:42.000Z</time>
      </trkpt>
      <trkpt lat="47.3721" lon="-1.03357">
        <ele>-2.03</ele>
        <time>2022-09-23T12:34:47.000Z</time>
      </trkpt>
      <trkpt lat="47.37206" lon="-1.03325">
        <ele>-1.6</ele>
        <time>2022-09-23T12:34:52.000Z</time>
      </trkpt>
      <trkpt lat="47.37203" lon="-1.03292">
        <ele>-1.6</ele>
        <time>2022-09-23T12:34:57.000Z</time>
      </trkpt>
      <trkpt lat="47.37203" lon="-1.0326">
        <ele>-1.6</ele>
        <time>2022-09-23T12:35:02.000Z</time>
      </trkpt>
      <trkpt lat="47.37209" lon="-1.03231">
        <ele>-1.69</ele>
        <time>2022-09-23T12:35:07.000Z</time>
      </trkpt>
      <trkpt lat="47.37192" lon="-1.03173">
        <ele>-1.44</ele>
        <time>2022-09-23T12:35:12.000Z</time>
      </trkpt>
      <trkpt lat="47.37189" lon="-1.03133">
        <ele>-1.59</ele>
        <time>2022-09-23T12:35:17.000Z</time>
      </trkpt>
      <trkpt lat="47.37189" lon="-1.03096">
        <ele>-1.77</ele>
        <time>2022-09-23T12:35:22.000Z</time>
      </trkpt>
      <trkpt lat="47.37187" lon="-1.03057">
        <ele>-1.89</ele>
        <time>2022-09-23T12:35:27.000Z</time>
      </trkpt>
      <trkpt lat="47.37185" lon="-1.03016">
        <ele>-2.05</ele>
        <time>2022-09-23T12:35:32.000Z</time>
      </trkpt>
      <trkpt lat="47.37184" lon="-1.02975">
        <ele>-1.42</ele>
        <time>2022-09-23T12:35:37.000Z</time>
      </trkpt>
      <trkpt lat="47.37184" lon="-1.02933">
        <ele>0.88</ele>
        <time>2022-09-23T12:35:42.000Z</time>
      </trkpt>
      <trkpt lat="47.3718" lon="-1.02889">
        <ele>0.79</ele>
        <time>2022-09-23T12:35:47.000Z</time>
      </trkpt>
      <trkpt lat="47.37181" lon="-1.02851">
        <ele>1.39</ele>
        <time>2022-09-23T12:35:52.000Z</time>
      </trkpt>
      <trkpt lat="47.37182" lon="-1.02814">
        <ele>1.35</ele>
        <time>2022-09-23T12:35:57.000Z</time>
      </trkpt>
      <trkpt lat="47.37179" lon="-1.02775">
        <ele>2.17</ele>
        <time>2022-09-23T12:36:02.000Z</time>
      </trkpt>
      <trkpt lat="47.37178" lon="-1.0274">
        <ele>1.41</ele>
        <time>2022-09-23T12:36:07.000Z</time>
      </trkpt>
      <trkpt lat="47.37179" lon="-1.0271">
        <ele>0.96</ele>
        <time>2022-09-23T12:36:12.000Z</time>
      </trkpt>
      <trkpt lat="47.37179" lon="-1.02679">
        <ele>0.73</ele>
        <time>2022-09-23T12:36:17.000Z</time>
      </trkpt>
      <trkpt lat="47.3718" lon="-1.02653">
        <ele>0.68</ele>
        <time>2022-09-23T12:36:22.000Z</time>
      </trkpt>
      <trkpt lat="47.37179" lon="-1.02622">
        <ele>0.97</ele>
        <time>2022-09-23T12:36:27.000Z</time>
      </trkpt>
      <trkpt lat="47.37182" lon="-1.02595">
        <ele>1.27</ele>
        <time>2022-09-23T12:36:32.000Z</time>
      </trkpt>
      <trkpt lat="47.37182" lon="-1.02565">
        <ele>1.57</ele>
        <time>2022-09-23T12:36:37.000Z</time>
      </trkpt>
      <trkpt lat="47.37181" lon="-1.02537">
        <ele>2.09</ele>
        <time>2022-09-23T12:36:42.000Z</time>
      </trkpt>
      <trkpt lat="47.3718" lon="-1.02515">
        <ele>2.22</ele>
        <time>2022-09-23T12:36:47.000Z</time>
      </trkpt>
      <trkpt lat="47.3718" lon="-1.02487">
        <ele>1.6</ele>
        <time>2022-09-23T12:36:52.000Z</time>
      </trkpt>
      <trkpt lat="47.37181" lon="-1.02457">
        <ele>2.15</ele>
        <time>2022-09-23T12:36:57.000Z</time>
      </trkpt>
      <trkpt lat="47.37181" lon="-1.02428">
        <ele>3.07</ele>
        <time>2022-09-23T12:37:02.000Z</time>
      </trkpt>
      <trkpt lat="47.37184" lon="-1.02407">
        <ele>3.22</ele>
        <time>2022-09-23T12:37:07.000Z</time>
      </trkpt>
      <trkpt lat="47.37187" lon="-1.02389">
        <ele>3.4</ele>
        <time>2022-09-23T12:37:12.000Z</time>
      </trkpt>
      <trkpt lat="47.37192" lon="-1.02371">
        <ele>3.44</ele>
        <time>2022-09-23T12:37:17.000Z</time>
      </trkpt>
      <trkpt lat="47.37189" lon="-1.02346">
        <ele>3.48</ele>
        <time>2022-09-23T12:37:22.000Z</time>
      </trkpt>
      <trkpt lat="47.37188" lon="-1.02321">
        <ele>3.39</ele>
        <time>2022-09-23T12:37:27.000Z</time>
      </trkpt>
      <trkpt lat="47.37184" lon="-1.02298">
        <ele>4.13</ele>
        <time>2022-09-23T12:37:32.000Z</time>
      </trkpt>
      <trkpt lat="47.37184" lon="-1.02278">
        <ele>5.3</ele>
        <time>2022-09-23T12:37:37.000Z</time>
      </trkpt>
      <trkpt lat="47.37185" lon="-1.02259">
        <ele>6.73</ele>
        <time>2022-09-23T12:37:42.000Z</time>
      </trkpt>
      <trkpt lat="47.37178" lon="-1.02243">
        <ele>6.78</ele>
        <time>2022-09-23T12:37:47.000Z</time>
      </trkpt>
      <trkpt lat="47.37167" lon="-1.02228">
        <ele>6.91</ele>
        <time>2022-09-23T12:37:52.000Z</time>
      </trkpt>
      <trkpt lat="47.37153" lon="-1.02212">
        <ele>6.24</ele>
        <time>2022-09-23T12:37:57.000Z</time>
      </trkpt>
      <trkpt lat="47.37142" lon="-1.02196">
        <ele>5.92</ele>
        <time>2022-09-23T12:38:02.000Z</time>
      </trkpt>
      <trkpt lat="47.37134" lon="-1.02185">
        <ele>3.35</ele>
        <time>2022-09-23T12:38:26.000Z</time>
      </trkpt>
      <trkpt lat="47.37125" lon="-1.02186">
        <ele>5.36</ele>
        <time>2022-09-23T12:39:05.000Z</time>
      </trkpt>
      <trkpt lat="47.36474" lon="-1.02231">
        <ele>1.32</ele>
        <time>2022-09-23T12:40:11.000Z</time>
      </trkpt>
      <trkpt lat="47.36468" lon="-1.02214">
        <ele>2</ele>
        <time>2022-09-23T12:40:16.000Z</time>
      </trkpt>
      <trkpt lat="47.36473" lon="-1.02194">
        <ele>-0.12</ele>
        <time>2022-09-23T12:40:23.000Z</time>
      </trkpt>
      <trkpt lat="47.36094" lon="-1.02233">
        <ele>718.52</ele>
        <time>2022-09-23T12:40:28.000Z</time>
      </trkpt>
      <trkpt lat="47.37133" lon="-1.02168">
        <ele>151.62</ele>
        <time>2022-09-23T12:40:34.000Z</time>
      </trkpt>
      <trkpt lat="47.37109" lon="-1.02179">
        <ele>47.85</ele>
        <time>2022-09-23T12:40:39.000Z</time>
      </trkpt>
      <trkpt lat="47.37118" lon="-1.02191">
        <ele>33.15</ele>
        <time>2022-09-23T12:40:44.000Z</time>
      </trkpt>
      <trkpt lat="47.37129" lon="-1.02185">
        <ele>22.48</ele>
        <time>2022-09-23T12:41:18.000Z</time>
      </trkpt>
      <trkpt lat="47.3713" lon="-1.02172">
        <ele>12.02</ele>
        <time>2022-09-23T12:44:13.000Z</time>
      </trkpt>
      <trkpt lat="47.37129" lon="-1.02153">
        <ele>11.14</ele>
        <time>2022-09-23T12:44:18.000Z</time>
      </trkpt>
      <trkpt lat="47.37123" lon="-1.02128">
        <ele>10.36</ele>
        <time>2022-09-23T12:44:23.000Z</time>
      </trkpt>
      <trkpt lat="47.37116" lon="-1.02103">
        <ele>8.81</ele>
        <time>2022-09-23T12:44:28.000Z</time>
      </trkpt>
      <trkpt lat="47.37109" lon="-1.02077">
        <ele>6.78</ele>
        <time>2022-09-23T12:44:33.000Z</time>
      </trkpt>
      <trkpt lat="47.37102" lon="-1.0205">
        <ele>5.43</ele>
        <time>2022-09-23T12:44:38.000Z</time>
      </trkpt>
      <trkpt lat="47.371" lon="-1.0202">
        <ele>5.67</ele>
        <time>2022-09-23T12:44:43.000Z</time>
      </trkpt>
      <trkpt lat="47.37097" lon="-1.0199">
        <ele>6.58</ele>
        <time>2022-09-23T12:44:48.000Z</time>
      </trkpt>
      <trkpt lat="47.37094" lon="-1.01962">
        <ele>7.88</ele>
        <time>2022-09-23T12:44:53.000Z</time>
      </trkpt>
      <trkpt lat="47.37096" lon="-1.01943">
        <ele>6.45</ele>
        <time>2022-09-23T12:46:08.000Z</time>
      </trkpt>
      <trkpt lat="47.37094" lon="-1.01926">
        <ele>6.03</ele>
        <time>2022-09-23T12:46:14.000Z</time>
      </trkpt>
      <trkpt lat="47.37095" lon="-1.01898">
        <ele>6.03</ele>
        <time>2022-09-23T12:46:19.000Z</time>
      </trkpt>
      <trkpt lat="47.37095" lon="-1.01869">
        <ele>5.97</ele>
        <time>2022-09-23T12:46:24.000Z</time>
      </trkpt>
      <trkpt lat="47.37098" lon="-1.01836">
        <ele>5.88</ele>
        <time>2022-09-23T12:46:29.000Z</time>
      </trkpt>
      <trkpt lat="47.37099" lon="-1.01801">
        <ele>5.7</ele>
        <time>2022-09-23T12:46:34.000Z</time>
      </trkpt>
      <trkpt lat="47.37103" lon="-1.01765">
        <ele>5.43</ele>
        <time>2022-09-23T12:46:39.000Z</time>
      </trkpt>
      <trkpt lat="47.37111" lon="-1.01729">
        <ele>4.38</ele>
        <time>2022-09-23T12:46:44.000Z</time>
      </trkpt>
      <trkpt lat="47.37116" lon="-1.01702">
        <ele>3.85</ele>
        <time>2022-09-23T12:46:49.000Z</time>
      </trkpt>
      <trkpt lat="47.37125" lon="-1.01688">
        <ele>4.28</ele>
        <time>2022-09-23T12:46:54.000Z</time>
      </trkpt>
      <trkpt lat="47.37133" lon="-1.01684">
        <ele>4.46</ele>
        <time>2022-09-23T12:46:59.000Z</time>
      </trkpt>
      <trkpt lat="47.37138" lon="-1.01669">
        <ele>7.11</ele>
        <time>2022-09-23T12:47:38.000Z</time>
      </trkpt>
      <trkpt lat="47.37142" lon="-1.01653">
        <ele>7.35</ele>
        <time>2022-09-23T12:47:43.000Z</time>
      </trkpt>
      <trkpt lat="47.37147" lon="-1.0164">
        <ele>7.32</ele>
        <time>2022-09-23T12:47:48.000Z</time>
      </trkpt>
      <trkpt lat="47.37151" lon="-1.01619">
        <ele>7.49</ele>
        <time>2022-09-23T12:47:53.000Z</time>
      </trkpt>
      <trkpt lat="47.3716" lon="-1.01595">
        <ele>7.7</ele>
        <time>2022-09-23T12:47:58.000Z</time>
      </trkpt>
      <trkpt lat="47.37165" lon="-1.01566">
        <ele>8.34</ele>
        <time>2022-09-23T12:48:03.000Z</time>
      </trkpt>
      <trkpt lat="47.37171" lon="-1.01538">
        <ele>9.39</ele>
        <time>2022-09-23T12:48:08.000Z</time>
      </trkpt>
      <trkpt lat="47.37175" lon="-1.0151">
        <ele>10.64</ele>
        <time>2022-09-23T12:48:13.000Z</time>
      </trkpt>
      <trkpt lat="47.37178" lon="-1.01483">
        <ele>10.06</ele>
        <time>2022-09-23T12:48:18.000Z</time>
      </trkpt>
      <trkpt lat="47.37181" lon="-1.0145">
        <ele>8.3</ele>
        <time>2022-09-23T12:48:23.000Z</time>
      </trkpt>
      <trkpt lat="47.37187" lon="-1.01414">
        <ele>6.32</ele>
        <time>2022-09-23T12:48:28.000Z</time>
      </trkpt>
      <trkpt lat="47.37193" lon="-1.01377">
        <ele>4.53</ele>
        <time>2022-09-23T12:48:33.000Z</time>
      </trkpt>
      <trkpt lat="47.37198" lon="-1.0134">
        <ele>3.67</ele>
        <time>2022-09-23T12:48:38.000Z</time>
      </trkpt>
      <trkpt lat="47.37201" lon="-1.01304">
        <ele>3.16</ele>
        <time>2022-09-23T12:48:43.000Z</time>
      </trkpt>
      <trkpt lat="47.37209" lon="-1.01265">
        <ele>4.11</ele>
        <time>2022-09-23T12:48:48.000Z</time>
      </trkpt>
      <trkpt lat="47.37217" lon="-1.01229">
        <ele>6.09</ele>
        <time>2022-09-23T12:48:53.000Z</time>
      </trkpt>
      <trkpt lat="47.37225" lon="-1.01191">
        <ele>5.5</ele>
        <time>2022-09-23T12:48:58.000Z</time>
      </trkpt>
      <trkpt lat="47.37233" lon="-1.01152">
        <ele>6.03</ele>
        <time>2022-09-23T12:49:03.000Z</time>
      </trkpt>
      <trkpt lat="47.37241" lon="-1.01116">
        <ele>6.37</ele>
        <time>2022-09-23T12:49:08.000Z</time>
      </trkpt>
      <trkpt lat="47.37245" lon="-1.01082">
        <ele>6.72</ele>
        <time>2022-09-23T12:49:13.000Z</time>
      </trkpt>
      <trkpt lat="47.37255" lon="-1.01046">
        <ele>7.19</ele>
        <time>2022-09-23T12:49:18.000Z</time>
      </trkpt>
      <trkpt lat="47.37265" lon="-1.01009">
        <ele>7.08</ele>
        <time>2022-09-23T12:49:23.000Z</time>
      </trkpt>
      <trkpt lat="47.37276" lon="-1.0097">
        <ele>7.08</ele>
        <time>2022-09-23T12:49:28.000Z</time>
      </trkpt>
      <trkpt lat="47.37283" lon="-1.00934">
        <ele>7.38</ele>
        <time>2022-09-23T12:49:33.000Z</time>
      </trkpt>
      <trkpt lat="47.37293" lon="-1.00894">
        <ele>7.36</ele>
        <time>2022-09-23T12:49:38.000Z</time>
      </trkpt>
      <trkpt lat="47.37304" lon="-1.00858">
        <ele>7.25</ele>
        <time>2022-09-23T12:49:43.000Z</time>
      </trkpt>
      <trkpt lat="47.37313" lon="-1.00822">
        <ele>7.11</ele>
        <time>2022-09-23T12:49:48.000Z</time>
      </trkpt>
      <trkpt lat="47.37322" lon="-1.00785">
        <ele>5.45</ele>
        <time>2022-09-23T12:49:53.000Z</time>
      </trkpt>
      <trkpt lat="47.37331" lon="-1.00748">
        <ele>2.98</ele>
        <time>2022-09-23T12:49:58.000Z</time>
      </trkpt>
      <trkpt lat="47.3734" lon="-1.00713">
        <ele>1.5</ele>
        <time>2022-09-23T12:50:03.000Z</time>
      </trkpt>
      <trkpt lat="47.37347" lon="-1.00679">
        <ele>0.71</ele>
        <time>2022-09-23T12:50:08.000Z</time>
      </trkpt>
      <trkpt lat="47.37356" lon="-1.00644">
        <ele>0.88</ele>
        <time>2022-09-23T12:50:13.000Z</time>
      </trkpt>
      <trkpt lat="47.37364" lon="-1.00609">
        <ele>0.52</ele>
        <time>2022-09-23T12:50:18.000Z</time>
      </trkpt>
      <trkpt lat="47.37373" lon="-1.00575">
        <ele>0.32</ele>
        <time>2022-09-23T12:50:23.000Z</time>
      </trkpt>
      <trkpt lat="47.37381" lon="-1.00542">
        <ele>1.03</ele>
        <time>2022-09-23T12:50:28.000Z</time>
      </trkpt>
      <trkpt lat="47.37389" lon="-1.00507">
        <ele>0.89</ele>
        <time>2022-09-23T12:50:33.000Z</time>
      </trkpt>
      <trkpt lat="47.37398" lon="-1.00471">
        <ele>1.19</ele>
        <time>2022-09-23T12:50:38.000Z</time>
      </trkpt>
      <trkpt lat="47.37405" lon="-1.00436">
        <ele>2.33</ele>
        <time>2022-09-23T12:50:43.000Z</time>
      </trkpt>
      <trkpt lat="47.37416" lon="-1.00397">
        <ele>2.48</ele>
        <time>2022-09-23T12:50:48.000Z</time>
      </trkpt>
      <trkpt lat="47.37427" lon="-1.00357">
        <ele>3</ele>
        <time>2022-09-23T12:50:53.000Z</time>
      </trkpt>
      <trkpt lat="47.37435" lon="-1.00318">
        <ele>2.81</ele>
        <time>2022-09-23T12:50:58.000Z</time>
      </trkpt>
      <trkpt lat="47.37445" lon="-1.00282">
        <ele>2.03</ele>
        <time>2022-09-23T12:51:03.000Z</time>
      </trkpt>
      <trkpt lat="47.37453" lon="-1.00247">
        <ele>1.22</ele>
        <time>2022-09-23T12:51:08.000Z</time>
      </trkpt>
      <trkpt lat="47.37466" lon="-1.00218">
        <ele>1.4</ele>
        <time>2022-09-23T12:51:13.000Z</time>
      </trkpt>
      <trkpt lat="47.37482" lon="-1.00191">
        <ele>2.84</ele>
        <time>2022-09-23T12:51:18.000Z</time>
      </trkpt>
      <trkpt lat="47.37496" lon="-1.00165">
        <ele>4.52</ele>
        <time>2022-09-23T12:51:23.000Z</time>
      </trkpt>
      <trkpt lat="47.3751" lon="-1.00134">
        <ele>5.61</ele>
        <time>2022-09-23T12:51:28.000Z</time>
      </trkpt>
      <trkpt lat="47.37523" lon="-1.00103">
        <ele>6</ele>
        <time>2022-09-23T12:51:33.000Z</time>
      </trkpt>
      <trkpt lat="47.37537" lon="-1.00074">
        <ele>6.71</ele>
        <time>2022-09-23T12:51:38.000Z</time>
      </trkpt>
      <trkpt lat="47.37551" lon="-1.00045">
        <ele>8.74</ele>
        <time>2022-09-23T12:51:43.000Z</time>
      </trkpt>
      <trkpt lat="47.37566" lon="-1.00016">
        <ele>10.36</ele>
        <time>2022-09-23T12:51:48.000Z</time>
      </trkpt>
      <trkpt lat="47.37581" lon="-0.99986">
        <ele>11.83</ele>
        <time>2022-09-23T12:51:53.000Z</time>
      </trkpt>
      <trkpt lat="47.37594" lon="-0.99955">
        <ele>12.9</ele>
        <time>2022-09-23T12:51:58.000Z</time>
      </trkpt>
      <trkpt lat="47.37606" lon="-0.99925">
        <ele>13.57</ele>
        <time>2022-09-23T12:52:03.000Z</time>
      </trkpt>
      <trkpt lat="47.37615" lon="-0.99895">
        <ele>12.41</ele>
        <time>2022-09-23T12:52:08.000Z</time>
      </trkpt>
      <trkpt lat="47.37627" lon="-0.99861">
        <ele>12.08</ele>
        <time>2022-09-23T12:52:13.000Z</time>
      </trkpt>
      <trkpt lat="47.37636" lon="-0.99827">
        <ele>11.18</ele>
        <time>2022-09-23T12:52:18.000Z</time>
      </trkpt>
      <trkpt lat="47.37645" lon="-0.99792">
        <ele>9.72</ele>
        <time>2022-09-23T12:52:23.000Z</time>
      </trkpt>
      <trkpt lat="47.37657" lon="-0.99757">
        <ele>9.62</ele>
        <time>2022-09-23T12:52:28.000Z</time>
      </trkpt>
      <trkpt lat="47.3767" lon="-0.99722">
        <ele>8.13</ele>
        <time>2022-09-23T12:52:33.000Z</time>
      </trkpt>
      <trkpt lat="47.37681" lon="-0.99686">
        <ele>6.36</ele>
        <time>2022-09-23T12:52:38.000Z</time>
      </trkpt>
      <trkpt lat="47.3769" lon="-0.99652">
        <ele>3.45</ele>
        <time>2022-09-23T12:52:43.000Z</time>
      </trkpt>
      <trkpt lat="47.37696" lon="-0.99615">
        <ele>1.29</ele>
        <time>2022-09-23T12:52:48.000Z</time>
      </trkpt>
      <trkpt lat="47.37701" lon="-0.99578">
        <ele>1.75</ele>
        <time>2022-09-23T12:52:53.000Z</time>
      </trkpt>
      <trkpt lat="47.37705" lon="-0.99538">
        <ele>1.3</ele>
        <time>2022-09-23T12:52:58.000Z</time>
      </trkpt>
      <trkpt lat="47.37707" lon="-0.99497">
        <ele>-0.15</ele>
        <time>2022-09-23T12:53:03.000Z</time>
      </trkpt>
      <trkpt lat="47.37709" lon="-0.99461">
        <ele>-0.06</ele>
        <time>2022-09-23T12:53:08.000Z</time>
      </trkpt>
      <trkpt lat="47.37712" lon="-0.99427">
        <ele>0.01</ele>
        <time>2022-09-23T12:53:13.000Z</time>
      </trkpt>
      <trkpt lat="47.37717" lon="-0.99389">
        <ele>0.37</ele>
        <time>2022-09-23T12:53:18.000Z</time>
      </trkpt>
      <trkpt lat="47.37721" lon="-0.99353">
        <ele>0.98</ele>
        <time>2022-09-23T12:53:23.000Z</time>
      </trkpt>
      <trkpt lat="47.37725" lon="-0.99317">
        <ele>-0.29</ele>
        <time>2022-09-23T12:53:28.000Z</time>
      </trkpt>
      <trkpt lat="47.37727" lon="-0.99283">
        <ele>-0.62</ele>
        <time>2022-09-23T12:53:33.000Z</time>
      </trkpt>
      <trkpt lat="47.37731" lon="-0.99249">
        <ele>-0.6</ele>
        <time>2022-09-23T12:53:38.000Z</time>
      </trkpt>
      <trkpt lat="47.37732" lon="-0.99213">
        <ele>-0.31</ele>
        <time>2022-09-23T12:53:43.000Z</time>
      </trkpt>
      <trkpt lat="47.37733" lon="-0.99175">
        <ele>0.15</ele>
        <time>2022-09-23T12:53:48.000Z</time>
      </trkpt>
      <trkpt lat="47.37732" lon="-0.99138">
        <ele>0.69</ele>
        <time>2022-09-23T12:53:53.000Z</time>
      </trkpt>
      <trkpt lat="47.37733" lon="-0.99102">
        <ele>1.42</ele>
        <time>2022-09-23T12:53:58.000Z</time>
      </trkpt>
      <trkpt lat="47.37736" lon="-0.99064">
        <ele>1.44</ele>
        <time>2022-09-23T12:54:03.000Z</time>
      </trkpt>
      <trkpt lat="47.37739" lon="-0.99026">
        <ele>1.37</ele>
        <time>2022-09-23T12:54:08.000Z</time>
      </trkpt>
      <trkpt lat="47.37745" lon="-0.98989">
        <ele>3.23</ele>
        <time>2022-09-23T12:54:13.000Z</time>
      </trkpt>
      <trkpt lat="47.37745" lon="-0.98952">
        <ele>3.96</ele>
        <time>2022-09-23T12:54:18.000Z</time>
      </trkpt>
      <trkpt lat="47.37742" lon="-0.98916">
        <ele>4.84</ele>
        <time>2022-09-23T12:54:23.000Z</time>
      </trkpt>
      <trkpt lat="47.37748" lon="-0.98878">
        <ele>6.23</ele>
        <time>2022-09-23T12:54:28.000Z</time>
      </trkpt>
      <trkpt lat="47.37748" lon="-0.98838">
        <ele>5.01</ele>
        <time>2022-09-23T12:54:33.000Z</time>
      </trkpt>
      <trkpt lat="47.37746" lon="-0.988">
        <ele>4.52</ele>
        <time>2022-09-23T12:54:38.000Z</time>
      </trkpt>
      <trkpt lat="47.37745" lon="-0.98767">
        <ele>5.04</ele>
        <time>2022-09-23T12:54:43.000Z</time>
      </trkpt>
      <trkpt lat="47.37745" lon="-0.98737">
        <ele>5.83</ele>
        <time>2022-09-23T12:54:48.000Z</time>
      </trkpt>
      <trkpt lat="47.37744" lon="-0.98701">
        <ele>6.54</ele>
        <time>2022-09-23T12:54:53.000Z</time>
      </trkpt>
      <trkpt lat="47.37741" lon="-0.98658">
        <ele>6.62</ele>
        <time>2022-09-23T12:54:58.000Z</time>
      </trkpt>
      <trkpt lat="47.37732" lon="-0.98614">
        <ele>6.73</ele>
        <time>2022-09-23T12:55:03.000Z</time>
      </trkpt>
      <trkpt lat="47.37725" lon="-0.98565">
        <ele>6.36</ele>
        <time>2022-09-23T12:55:08.000Z</time>
      </trkpt>
      <trkpt lat="47.3772" lon="-0.98525">
        <ele>6.32</ele>
        <time>2022-09-23T12:55:13.000Z</time>
      </trkpt>
      <trkpt lat="47.37715" lon="-0.98485">
        <ele>6.11</ele>
        <time>2022-09-23T12:55:18.000Z</time>
      </trkpt>
      <trkpt lat="47.3771" lon="-0.98447">
        <ele>6.09</ele>
        <time>2022-09-23T12:55:23.000Z</time>
      </trkpt>
      <trkpt lat="47.3771" lon="-0.9841">
        <ele>5.35</ele>
        <time>2022-09-23T12:55:28.000Z</time>
      </trkpt>
      <trkpt lat="47.37712" lon="-0.98371">
        <ele>4.42</ele>
        <time>2022-09-23T12:55:33.000Z</time>
      </trkpt>
      <trkpt lat="47.3771" lon="-0.98333">
        <ele>4.38</ele>
        <time>2022-09-23T12:55:38.000Z</time>
      </trkpt>
      <trkpt lat="47.37708" lon="-0.98292">
        <ele>4.61</ele>
        <time>2022-09-23T12:55:43.000Z</time>
      </trkpt>
      <trkpt lat="47.3771" lon="-0.98252">
        <ele>3.67</ele>
        <time>2022-09-23T12:55:48.000Z</time>
      </trkpt>
      <trkpt lat="47.37713" lon="-0.9821">
        <ele>2.75</ele>
        <time>2022-09-23T12:55:53.000Z</time>
      </trkpt>
      <trkpt lat="47.37715" lon="-0.98171">
        <ele>1.93</ele>
        <time>2022-09-23T12:55:58.000Z</time>
      </trkpt>
      <trkpt lat="47.37721" lon="-0.98135">
        <ele>1.38</ele>
        <time>2022-09-23T12:56:03.000Z</time>
      </trkpt>
      <trkpt lat="47.37727" lon="-0.98097">
        <ele>0.27</ele>
        <time>2022-09-23T12:56:08.000Z</time>
      </trkpt>
      <trkpt lat="47.37733" lon="-0.98058">
        <ele>-0.47</ele>
        <time>2022-09-23T12:56:13.000Z</time>
      </trkpt>
      <trkpt lat="47.3774" lon="-0.98023">
        <ele>-0.59</ele>
        <time>2022-09-23T12:56:18.000Z</time>
      </trkpt>
      <trkpt lat="47.37747" lon="-0.97981">
        <ele>-1.8</ele>
        <time>2022-09-23T12:56:23.000Z</time>
      </trkpt>
      <trkpt lat="47.37755" lon="-0.97942">
        <ele>-3.13</ele>
        <time>2022-09-23T12:56:28.000Z</time>
      </trkpt>
      <trkpt lat="47.37761" lon="-0.97903">
        <ele>-3.97</ele>
        <time>2022-09-23T12:56:33.000Z</time>
      </trkpt>
      <trkpt lat="47.37766" lon="-0.97864">
        <ele>-3.77</ele>
        <time>2022-09-23T12:56:38.000Z</time>
      </trkpt>
      <trkpt lat="47.3777" lon="-0.97822">
        <ele>-3.75</ele>
        <time>2022-09-23T12:56:43.000Z</time>
      </trkpt>
      <trkpt lat="47.37777" lon="-0.97782">
        <ele>-3.63</ele>
        <time>2022-09-23T12:56:48.000Z</time>
      </trkpt>
      <trkpt lat="47.37786" lon="-0.9774">
        <ele>-3</ele>
        <time>2022-09-23T12:56:53.000Z</time>
      </trkpt>
      <trkpt lat="47.37791" lon="-0.97701">
        <ele>-1.96</ele>
        <time>2022-09-23T12:56:58.000Z</time>
      </trkpt>
      <trkpt lat="47.37794" lon="-0.97663">
        <ele>0.31</ele>
        <time>2022-09-23T12:57:03.000Z</time>
      </trkpt>
      <trkpt lat="47.37796" lon="-0.97623">
        <ele>1.8</ele>
        <time>2022-09-23T12:57:08.000Z</time>
      </trkpt>
      <trkpt lat="47.37799" lon="-0.97581">
        <ele>2.48</ele>
        <time>2022-09-23T12:57:13.000Z</time>
      </trkpt>
      <trkpt lat="47.37802" lon="-0.97543">
        <ele>3.21</ele>
        <time>2022-09-23T12:57:18.000Z</time>
      </trkpt>
      <trkpt lat="47.37807" lon="-0.97506">
        <ele>3.76</ele>
        <time>2022-09-23T12:57:23.000Z</time>
      </trkpt>
      <trkpt lat="47.3781" lon="-0.97466">
        <ele>3.63</ele>
        <time>2022-09-23T12:57:28.000Z</time>
      </trkpt>
      <trkpt lat="47.37811" lon="-0.97431">
        <ele>3.87</ele>
        <time>2022-09-23T12:57:33.000Z</time>
      </trkpt>
      <trkpt lat="47.37814" lon="-0.97392">
        <ele>4.56</ele>
        <time>2022-09-23T12:57:38.000Z</time>
      </trkpt>
      <trkpt lat="47.37821" lon="-0.97357">
        <ele>5.09</ele>
        <time>2022-09-23T12:57:43.000Z</time>
      </trkpt>
      <trkpt lat="47.37827" lon="-0.97309">
        <ele>5.38</ele>
        <time>2022-09-23T12:57:48.000Z</time>
      </trkpt>
      <trkpt lat="47.37832" lon="-0.9727">
        <ele>6.22</ele>
        <time>2022-09-23T12:57:53.000Z</time>
      </trkpt>
      <trkpt lat="47.37837" lon="-0.97227">
        <ele>6.32</ele>
        <time>2022-09-23T12:57:58.000Z</time>
      </trkpt>
      <trkpt lat="47.37849" lon="-0.97187">
        <ele>6.95</ele>
        <time>2022-09-23T12:58:03.000Z</time>
      </trkpt>
      <trkpt lat="47.37858" lon="-0.9715">
        <ele>8.22</ele>
        <time>2022-09-23T12:58:08.000Z</time>
      </trkpt>
      <trkpt lat="47.37865" lon="-0.97111">
        <ele>9.2</ele>
        <time>2022-09-23T12:58:13.000Z</time>
      </trkpt>
      <trkpt lat="47.37873" lon="-0.97078">
        <ele>10.33</ele>
        <time>2022-09-23T12:58:18.000Z</time>
      </trkpt>
      <trkpt lat="47.3788" lon="-0.9704">
        <ele>11.33</ele>
        <time>2022-09-23T12:58:23.000Z</time>
      </trkpt>
      <trkpt lat="47.37886" lon="-0.96999">
        <ele>12.26</ele>
        <time>2022-09-23T12:58:28.000Z</time>
      </trkpt>
      <trkpt lat="47.37896" lon="-0.96961">
        <ele>13.16</ele>
        <time>2022-09-23T12:58:33.000Z</time>
      </trkpt>
      <trkpt lat="47.37902" lon="-0.9693">
        <ele>14.13</ele>
        <time>2022-09-23T12:58:38.000Z</time>
      </trkpt>
      <trkpt lat="47.37907" lon="-0.96897">
        <ele>15.23</ele>
        <time>2022-09-23T12:58:43.000Z</time>
      </trkpt>
      <trkpt lat="47.37914" lon="-0.96852">
        <ele>16.41</ele>
        <time>2022-09-23T12:58:48.000Z</time>
      </trkpt>
      <trkpt lat="47.37917" lon="-0.96812">
        <ele>17.51</ele>
        <time>2022-09-23T12:58:53.000Z</time>
      </trkpt>
      <trkpt lat="47.37923" lon="-0.9677">
        <ele>18.61</ele>
        <time>2022-09-23T12:58:58.000Z</time>
      </trkpt>
      <trkpt lat="47.37929" lon="-0.9672">
        <ele>18.51</ele>
        <time>2022-09-23T12:59:03.000Z</time>
      </trkpt>
      <trkpt lat="47.37936" lon="-0.96681">
        <ele>17.62</ele>
        <time>2022-09-23T12:59:08.000Z</time>
      </trkpt>
      <trkpt lat="47.3794" lon="-0.96638">
        <ele>16.31</ele>
        <time>2022-09-23T12:59:13.000Z</time>
      </trkpt>
      <trkpt lat="47.37944" lon="-0.96595">
        <ele>14.03</ele>
        <time>2022-09-23T12:59:18.000Z</time>
      </trkpt>
      <trkpt lat="47.37947" lon="-0.96552">
        <ele>11.27</ele>
        <time>2022-09-23T12:59:23.000Z</time>
      </trkpt>
      <trkpt lat="47.37949" lon="-0.9651">
        <ele>9.35</ele>
        <time>2022-09-23T12:59:28.000Z</time>
      </trkpt>
      <trkpt lat="47.37955" lon="-0.96469">
        <ele>7.78</ele>
        <time>2022-09-23T12:59:33.000Z</time>
      </trkpt>
      <trkpt lat="47.37958" lon="-0.96426">
        <ele>7.05</ele>
        <time>2022-09-23T12:59:38.000Z</time>
      </trkpt>
      <trkpt lat="47.37963" lon="-0.96388">
        <ele>6.81</ele>
        <time>2022-09-23T12:59:43.000Z</time>
      </trkpt>
      <trkpt lat="47.37979" lon="-0.96373">
        <ele>6.68</ele>
        <time>2022-09-23T12:59:48.000Z</time>
      </trkpt>
      <trkpt lat="47.37999" lon="-0.96375">
        <ele>7.12</ele>
        <time>2022-09-23T12:59:53.000Z</time>
      </trkpt>
      <trkpt lat="47.3801" lon="-0.96343">
        <ele>4.89</ele>
        <time>2022-09-23T12:59:58.000Z</time>
      </trkpt>
      <trkpt lat="47.38016" lon="-0.96304">
        <ele>3.46</ele>
        <time>2022-09-23T13:00:03.000Z</time>
      </trkpt>
      <trkpt lat="47.38022" lon="-0.96265">
        <ele>2.24</ele>
        <time>2022-09-23T13:00:08.000Z</time>
      </trkpt>
      <trkpt lat="47.38027" lon="-0.96232">
        <ele>1.97</ele>
        <time>2022-09-23T13:00:13.000Z</time>
      </trkpt>
      <trkpt lat="47.3803" lon="-0.96206">
        <ele>0.94</ele>
        <time>2022-09-23T13:00:18.000Z</time>
      </trkpt>
      <trkpt lat="47.38017" lon="-0.96187">
        <ele>0.8</ele>
        <time>2022-09-23T13:00:23.000Z</time>
      </trkpt>
      <trkpt lat="47.38006" lon="-0.96173">
        <ele>-0.06</ele>
        <time>2022-09-23T13:00:28.000Z</time>
      </trkpt>
      <trkpt lat="47.38001" lon="-0.96162">
        <ele>-0.66</ele>
        <time>2022-09-23T13:00:33.000Z</time>
      </trkpt>
      <trkpt lat="47.37994" lon="-0.96153">
        <ele>6.21</ele>
        <time>2022-09-23T13:01:29.000Z</time>
      </trkpt>
      <trkpt lat="47.37997" lon="-0.96139">
        <ele>6.59</ele>
        <time>2022-09-23T13:01:34.000Z</time>
      </trkpt>
      <trkpt lat="47.38008" lon="-0.96111">
        <ele>6.9</ele>
        <time>2022-09-23T13:01:39.000Z</time>
      </trkpt>
      <trkpt lat="47.3801" lon="-0.96075">
        <ele>7.17</ele>
        <time>2022-09-23T13:01:44.000Z</time>
      </trkpt>
      <trkpt lat="47.38019" lon="-0.96043">
        <ele>7.59</ele>
        <time>2022-09-23T13:01:49.000Z</time>
      </trkpt>
      <trkpt lat="47.38032" lon="-0.9601">
        <ele>7.87</ele>
        <time>2022-09-23T13:01:54.000Z</time>
      </trkpt>
      <trkpt lat="47.38044" lon="-0.9598">
        <ele>8.54</ele>
        <time>2022-09-23T13:01:59.000Z</time>
      </trkpt>
      <trkpt lat="47.38062" lon="-0.95958">
        <ele>9.29</ele>
        <time>2022-09-23T13:02:04.000Z</time>
      </trkpt>
      <trkpt lat="47.38079" lon="-0.95934">
        <ele>10.71</ele>
        <time>2022-09-23T13:02:09.000Z</time>
      </trkpt>
      <trkpt lat="47.38091" lon="-0.95908">
        <ele>12.5</ele>
        <time>2022-09-23T13:02:14.000Z</time>
      </trkpt>
      <trkpt lat="47.38107" lon="-0.95882">
        <ele>13.92</ele>
        <time>2022-09-23T13:02:19.000Z</time>
      </trkpt>
      <trkpt lat="47.38124" lon="-0.95848">
        <ele>15.5</ele>
        <time>2022-09-23T13:02:24.000Z</time>
      </trkpt>
      <trkpt lat="47.38145" lon="-0.95811">
        <ele>17.2</ele>
        <time>2022-09-23T13:02:29.000Z</time>
      </trkpt>
      <trkpt lat="47.38157" lon="-0.95777">
        <ele>18.77</ele>
        <time>2022-09-23T13:02:34.000Z</time>
      </trkpt>
      <trkpt lat="47.38169" lon="-0.95742">
        <ele>20.42</ele>
        <time>2022-09-23T13:02:39.000Z</time>
      </trkpt>
      <trkpt lat="47.38184" lon="-0.95705">
        <ele>21.63</ele>
        <time>2022-09-23T13:02:44.000Z</time>
      </trkpt>
      <trkpt lat="47.38197" lon="-0.95671">
        <ele>22.55</ele>
        <time>2022-09-23T13:02:49.000Z</time>
      </trkpt>
      <trkpt lat="47.38216" lon="-0.95635">
        <ele>23.53</ele>
        <time>2022-09-23T13:02:54.000Z</time>
      </trkpt>
      <trkpt lat="47.38235" lon="-0.95597">
        <ele>24.37</ele>
        <time>2022-09-23T13:02:59.000Z</time>
      </trkpt>
      <trkpt lat="47.38247" lon="-0.95565">
        <ele>24.29</ele>
        <time>2022-09-23T13:03:04.000Z</time>
      </trkpt>
      <trkpt lat="47.3826" lon="-0.95532">
        <ele>22.14</ele>
        <time>2022-09-23T13:03:09.000Z</time>
      </trkpt>
      <trkpt lat="47.38275" lon="-0.95501">
        <ele>22.59</ele>
        <time>2022-09-23T13:03:14.000Z</time>
      </trkpt>
      <trkpt lat="47.38289" lon="-0.95475">
        <ele>22.36</ele>
        <time>2022-09-23T13:03:19.000Z</time>
      </trkpt>
      <trkpt lat="47.38303" lon="-0.9545">
        <ele>22.06</ele>
        <time>2022-09-23T13:03:24.000Z</time>
      </trkpt>
      <trkpt lat="47.38321" lon="-0.95425">
        <ele>21.9</ele>
        <time>2022-09-23T13:03:29.000Z</time>
      </trkpt>
      <trkpt lat="47.38346" lon="-0.95397">
        <ele>16.52</ele>
        <time>2022-09-23T13:03:34.000Z</time>
      </trkpt>
      <trkpt lat="47.38369" lon="-0.95369">
        <ele>12.72</ele>
        <time>2022-09-23T13:03:39.000Z</time>
      </trkpt>
      <trkpt lat="47.3839" lon="-0.95343">
        <ele>11.06</ele>
        <time>2022-09-23T13:03:44.000Z</time>
      </trkpt>
      <trkpt lat="47.38408" lon="-0.95316">
        <ele>9.69</ele>
        <time>2022-09-23T13:03:49.000Z</time>
      </trkpt>
      <trkpt lat="47.38424" lon="-0.9529">
        <ele>9.68</ele>
        <time>2022-09-23T13:03:54.000Z</time>
      </trkpt>
      <trkpt lat="47.3844" lon="-0.95262">
        <ele>9.42</ele>
        <time>2022-09-23T13:03:59.000Z</time>
      </trkpt>
      <trkpt lat="47.38455" lon="-0.95233">
        <ele>7.89</ele>
        <time>2022-09-23T13:04:04.000Z</time>
      </trkpt>
      <trkpt lat="47.38467" lon="-0.95205">
        <ele>5.47</ele>
        <time>2022-09-23T13:04:09.000Z</time>
      </trkpt>
      <trkpt lat="47.3848" lon="-0.95178">
        <ele>2.64</ele>
        <time>2022-09-23T13:04:14.000Z</time>
      </trkpt>
      <trkpt lat="47.38495" lon="-0.9515">
        <ele>1.26</ele>
        <time>2022-09-23T13:04:19.000Z</time>
      </trkpt>
      <trkpt lat="47.38512" lon="-0.95121">
        <ele>1.15</ele>
        <time>2022-09-23T13:04:24.000Z</time>
      </trkpt>
      <trkpt lat="47.38528" lon="-0.95093">
        <ele>1.85</ele>
        <time>2022-09-23T13:04:29.000Z</time>
      </trkpt>
      <trkpt lat="47.38547" lon="-0.95066">
        <ele>2.29</ele>
        <time>2022-09-23T13:04:34.000Z</time>
      </trkpt>
      <trkpt lat="47.38568" lon="-0.95045">
        <ele>3.32</ele>
        <time>2022-09-23T13:04:39.000Z</time>
      </trkpt>
      <trkpt lat="47.38588" lon="-0.95024">
        <ele>3.12</ele>
        <time>2022-09-23T13:04:44.000Z</time>
      </trkpt>
      <trkpt lat="47.38609" lon="-0.95009">
        <ele>2.75</ele>
        <time>2022-09-23T13:04:49.000Z</time>
      </trkpt>
      <trkpt lat="47.38631" lon="-0.94993">
        <ele>2.91</ele>
        <time>2022-09-23T13:04:54.000Z</time>
      </trkpt>
      <trkpt lat="47.38651" lon="-0.94972">
        <ele>2.4</ele>
        <time>2022-09-23T13:04:59.000Z</time>
      </trkpt>
      <trkpt lat="47.38671" lon="-0.94946">
        <ele>1.55</ele>
        <time>2022-09-23T13:05:04.000Z</time>
      </trkpt>
      <trkpt lat="47.38689" lon="-0.94921">
        <ele>0.79</ele>
        <time>2022-09-23T13:05:09.000Z</time>
      </trkpt>
      <trkpt lat="47.38706" lon="-0.94897">
        <ele>-0.7</ele>
        <time>2022-09-23T13:05:14.000Z</time>
      </trkpt>
      <trkpt lat="47.38722" lon="-0.9487">
        <ele>-1.25</ele>
        <time>2022-09-23T13:05:19.000Z</time>
      </trkpt>
      <trkpt lat="47.38739" lon="-0.94843">
        <ele>-1.46</ele>
        <time>2022-09-23T13:05:24.000Z</time>
      </trkpt>
      <trkpt lat="47.38756" lon="-0.94816">
        <ele>-0.9</ele>
        <time>2022-09-23T13:05:29.000Z</time>
      </trkpt>
      <trkpt lat="47.38776" lon="-0.94788">
        <ele>-0.77</ele>
        <time>2022-09-23T13:05:34.000Z</time>
      </trkpt>
      <trkpt lat="47.38797" lon="-0.94764">
        <ele>0.63</ele>
        <time>2022-09-23T13:05:39.000Z</time>
      </trkpt>
      <trkpt lat="47.38815" lon="-0.94741">
        <ele>1.75</ele>
        <time>2022-09-23T13:05:44.000Z</time>
      </trkpt>
      <trkpt lat="47.38835" lon="-0.9472">
        <ele>2.31</ele>
        <time>2022-09-23T13:05:49.000Z</time>
      </trkpt>
      <trkpt lat="47.38855" lon="-0.94699">
        <ele>2</ele>
        <time>2022-09-23T13:05:54.000Z</time>
      </trkpt>
      <trkpt lat="47.38877" lon="-0.94677">
        <ele>2.66</ele>
        <time>2022-09-23T13:05:59.000Z</time>
      </trkpt>
      <trkpt lat="47.38899" lon="-0.94656">
        <ele>2.61</ele>
        <time>2022-09-23T13:06:04.000Z</time>
      </trkpt>
      <trkpt lat="47.38918" lon="-0.94634">
        <ele>2.59</ele>
        <time>2022-09-23T13:06:09.000Z</time>
      </trkpt>
      <trkpt lat="47.38938" lon="-0.94609">
        <ele>2.81</ele>
        <time>2022-09-23T13:06:14.000Z</time>
      </trkpt>
      <trkpt lat="47.38957" lon="-0.94583">
        <ele>3.49</ele>
        <time>2022-09-23T13:06:19.000Z</time>
      </trkpt>
      <trkpt lat="47.38975" lon="-0.94553">
        <ele>3.58</ele>
        <time>2022-09-23T13:06:24.000Z</time>
      </trkpt>
      <trkpt lat="47.38993" lon="-0.94524">
        <ele>2.81</ele>
        <time>2022-09-23T13:06:29.000Z</time>
      </trkpt>
      <trkpt lat="47.39009" lon="-0.94493">
        <ele>2.81</ele>
        <time>2022-09-23T13:06:34.000Z</time>
      </trkpt>
      <trkpt lat="47.39027" lon="-0.94465">
        <ele>3.27</ele>
        <time>2022-09-23T13:06:39.000Z</time>
      </trkpt>
      <trkpt lat="47.39047" lon="-0.94437">
        <ele>4.17</ele>
        <time>2022-09-23T13:06:44.000Z</time>
      </trkpt>
      <trkpt lat="47.39068" lon="-0.94409">
        <ele>5.06</ele>
        <time>2022-09-23T13:06:49.000Z</time>
      </trkpt>
      <trkpt lat="47.39084" lon="-0.94378">
        <ele>4.82</ele>
        <time>2022-09-23T13:06:54.000Z</time>
      </trkpt>
      <trkpt lat="47.39104" lon="-0.94348">
        <ele>4.95</ele>
        <time>2022-09-23T13:06:59.000Z</time>
      </trkpt>
      <trkpt lat="47.39122" lon="-0.94318">
        <ele>4.7</ele>
        <time>2022-09-23T13:07:04.000Z</time>
      </trkpt>
      <trkpt lat="47.39141" lon="-0.9429">
        <ele>4.52</ele>
        <time>2022-09-23T13:07:09.000Z</time>
      </trkpt>
      <trkpt lat="47.39161" lon="-0.94265">
        <ele>3.68</ele>
        <time>2022-09-23T13:07:14.000Z</time>
      </trkpt>
      <trkpt lat="47.39181" lon="-0.94239">
        <ele>2.77</ele>
        <time>2022-09-23T13:07:19.000Z</time>
      </trkpt>
      <trkpt lat="47.39202" lon="-0.94213">
        <ele>1.69</ele>
        <time>2022-09-23T13:07:24.000Z</time>
      </trkpt>
      <trkpt lat="47.39223" lon="-0.94187">
        <ele>0.61</ele>
        <time>2022-09-23T13:07:29.000Z</time>
      </trkpt>
      <trkpt lat="47.39244" lon="-0.94161">
        <ele>0.2</ele>
        <time>2022-09-23T13:07:34.000Z</time>
      </trkpt>
      <trkpt lat="47.39266" lon="-0.94137">
        <ele>0.79</ele>
        <time>2022-09-23T13:07:39.000Z</time>
      </trkpt>
      <trkpt lat="47.39288" lon="-0.94127">
        <ele>2.68</ele>
        <time>2022-09-23T13:07:44.000Z</time>
      </trkpt>
      <trkpt lat="47.39309" lon="-0.94136">
        <ele>5.23</ele>
        <time>2022-09-23T13:07:49.000Z</time>
      </trkpt>
      <trkpt lat="47.39331" lon="-0.94153">
        <ele>7.58</ele>
        <time>2022-09-23T13:07:54.000Z</time>
      </trkpt>
      <trkpt lat="47.39351" lon="-0.94173">
        <ele>9.49</ele>
        <time>2022-09-23T13:07:59.000Z</time>
      </trkpt>
      <trkpt lat="47.39372" lon="-0.94197">
        <ele>10.97</ele>
        <time>2022-09-23T13:08:04.000Z</time>
      </trkpt>
      <trkpt lat="47.39389" lon="-0.94221">
        <ele>11.42</ele>
        <time>2022-09-23T13:08:09.000Z</time>
      </trkpt>
      <trkpt lat="47.39408" lon="-0.94241">
        <ele>11.94</ele>
        <time>2022-09-23T13:08:14.000Z</time>
      </trkpt>
      <trkpt lat="47.39433" lon="-0.94254">
        <ele>12.84</ele>
        <time>2022-09-23T13:08:19.000Z</time>
      </trkpt>
      <trkpt lat="47.39458" lon="-0.94245">
        <ele>13.56</ele>
        <time>2022-09-23T13:08:24.000Z</time>
      </trkpt>
      <trkpt lat="47.39486" lon="-0.94242">
        <ele>14.06</ele>
        <time>2022-09-23T13:08:29.000Z</time>
      </trkpt>
      <trkpt lat="47.39519" lon="-0.94237">
        <ele>13.13</ele>
        <time>2022-09-23T13:08:34.000Z</time>
      </trkpt>
      <trkpt lat="47.39547" lon="-0.9423">
        <ele>12.4</ele>
        <time>2022-09-23T13:08:39.000Z</time>
      </trkpt>
      <trkpt lat="47.39567" lon="-0.94214">
        <ele>12.27</ele>
        <time>2022-09-23T13:08:44.000Z</time>
      </trkpt>
      <trkpt lat="47.39586" lon="-0.94182">
        <ele>12.68</ele>
        <time>2022-09-23T13:08:49.000Z</time>
      </trkpt>
      <trkpt lat="47.39599" lon="-0.9415">
        <ele>13.07</ele>
        <time>2022-09-23T13:08:54.000Z</time>
      </trkpt>
      <trkpt lat="47.3962" lon="-0.94146">
        <ele>13.67</ele>
        <time>2022-09-23T13:08:59.000Z</time>
      </trkpt>
      <trkpt lat="47.39649" lon="-0.94147">
        <ele>14.27</ele>
        <time>2022-09-23T13:09:04.000Z</time>
      </trkpt>
      <trkpt lat="47.39674" lon="-0.94137">
        <ele>13.09</ele>
        <time>2022-09-23T13:09:09.000Z</time>
      </trkpt>
      <trkpt lat="47.39684" lon="-0.94112">
        <ele>11.29</ele>
        <time>2022-09-23T13:09:14.000Z</time>
      </trkpt>
      <trkpt lat="47.39692" lon="-0.9408">
        <ele>9.4</ele>
        <time>2022-09-23T13:09:19.000Z</time>
      </trkpt>
      <trkpt lat="47.397" lon="-0.94042">
        <ele>8.73</ele>
        <time>2022-09-23T13:09:24.000Z</time>
      </trkpt>
      <trkpt lat="47.39708" lon="-0.94002">
        <ele>7.15</ele>
        <time>2022-09-23T13:09:29.000Z</time>
      </trkpt>
      <trkpt lat="47.39714" lon="-0.93959">
        <ele>6.09</ele>
        <time>2022-09-23T13:09:34.000Z</time>
      </trkpt>
      <trkpt lat="47.39722" lon="-0.93922">
        <ele>5.05</ele>
        <time>2022-09-23T13:09:39.000Z</time>
      </trkpt>
      <trkpt lat="47.39731" lon="-0.93885">
        <ele>3.07</ele>
        <time>2022-09-23T13:09:44.000Z</time>
      </trkpt>
      <trkpt lat="47.39741" lon="-0.93849">
        <ele>2.14</ele>
        <time>2022-09-23T13:09:49.000Z</time>
      </trkpt>
      <trkpt lat="47.39752" lon="-0.93813">
        <ele>0.83</ele>
        <time>2022-09-23T13:09:54.000Z</time>
      </trkpt>
      <trkpt lat="47.39766" lon="-0.93778">
        <ele>-0.84</ele>
        <time>2022-09-23T13:09:59.000Z</time>
      </trkpt>
      <trkpt lat="47.3978" lon="-0.9374">
        <ele>-3.06</ele>
        <time>2022-09-23T13:10:04.000Z</time>
      </trkpt>
      <trkpt lat="47.39791" lon="-0.93706">
        <ele>-4.62</ele>
        <time>2022-09-23T13:10:09.000Z</time>
      </trkpt>
      <trkpt lat="47.398" lon="-0.93674">
        <ele>-6.03</ele>
        <time>2022-09-23T13:10:14.000Z</time>
      </trkpt>
      <trkpt lat="47.39808" lon="-0.93639">
        <ele>-6.46</ele>
        <time>2022-09-23T13:10:19.000Z</time>
      </trkpt>
      <trkpt lat="47.39814" lon="-0.93605">
        <ele>-6.26</ele>
        <time>2022-09-23T13:10:24.000Z</time>
      </trkpt>
      <trkpt lat="47.39819" lon="-0.93573">
        <ele>-6.47</ele>
        <time>2022-09-23T13:10:29.000Z</time>
      </trkpt>
      <trkpt lat="47.39823" lon="-0.93541">
        <ele>-7.24</ele>
        <time>2022-09-23T13:10:34.000Z</time>
      </trkpt>
      <trkpt lat="47.39838" lon="-0.93511">
        <ele>-7.71</ele>
        <time>2022-09-23T13:10:39.000Z</time>
      </trkpt>
      <trkpt lat="47.39848" lon="-0.93483">
        <ele>-7.61</ele>
        <time>2022-09-23T13:10:44.000Z</time>
      </trkpt>
      <trkpt lat="47.3986" lon="-0.93455">
        <ele>-6.92</ele>
        <time>2022-09-23T13:10:49.000Z</time>
      </trkpt>
      <trkpt lat="47.39871" lon="-0.9343">
        <ele>-5.92</ele>
        <time>2022-09-23T13:10:54.000Z</time>
      </trkpt>
      <trkpt lat="47.39879" lon="-0.93408">
        <ele>-3.91</ele>
        <time>2022-09-23T13:10:59.000Z</time>
      </trkpt>
      <trkpt lat="47.39887" lon="-0.93395">
        <ele>-2.64</ele>
        <time>2022-09-23T13:11:04.000Z</time>
      </trkpt>
      <trkpt lat="47.39894" lon="-0.93381">
        <ele>0.37</ele>
        <time>2022-09-23T13:11:09.000Z</time>
      </trkpt>
      <trkpt lat="47.39904" lon="-0.93365">
        <ele>1.91</ele>
        <time>2022-09-23T13:11:14.000Z</time>
      </trkpt>
      <trkpt lat="47.39913" lon="-0.93351">
        <ele>3.54</ele>
        <time>2022-09-23T13:11:19.000Z</time>
      </trkpt>
      <trkpt lat="47.39923" lon="-0.93335">
        <ele>5.92</ele>
        <time>2022-09-23T13:11:24.000Z</time>
      </trkpt>
      <trkpt lat="47.3993" lon="-0.93318">
        <ele>7.11</ele>
        <time>2022-09-23T13:11:29.000Z</time>
      </trkpt>
      <trkpt lat="47.39941" lon="-0.93301">
        <ele>9.04</ele>
        <time>2022-09-23T13:11:34.000Z</time>
      </trkpt>
      <trkpt lat="47.39953" lon="-0.93286">
        <ele>10.55</ele>
        <time>2022-09-23T13:11:39.000Z</time>
      </trkpt>
      <trkpt lat="47.39962" lon="-0.93269">
        <ele>12.25</ele>
        <time>2022-09-23T13:11:44.000Z</time>
      </trkpt>
      <trkpt lat="47.39976" lon="-0.93251">
        <ele>14.65</ele>
        <time>2022-09-23T13:11:49.000Z</time>
      </trkpt>
      <trkpt lat="47.3999" lon="-0.93229">
        <ele>17.74</ele>
        <time>2022-09-23T13:11:54.000Z</time>
      </trkpt>
      <trkpt lat="47.40005" lon="-0.93207">
        <ele>20.35</ele>
        <time>2022-09-23T13:11:59.000Z</time>
      </trkpt>
      <trkpt lat="47.40017" lon="-0.93187">
        <ele>22.57</ele>
        <time>2022-09-23T13:12:04.000Z</time>
      </trkpt>
      <trkpt lat="47.40028" lon="-0.93167">
        <ele>24</ele>
        <time>2022-09-23T13:12:09.000Z</time>
      </trkpt>
      <trkpt lat="47.40042" lon="-0.93142">
        <ele>25.72</ele>
        <time>2022-09-23T13:12:14.000Z</time>
      </trkpt>
      <trkpt lat="47.40059" lon="-0.93114">
        <ele>25.52</ele>
        <time>2022-09-23T13:12:19.000Z</time>
      </trkpt>
      <trkpt lat="47.40064" lon="-0.93086">
        <ele>23.52</ele>
        <time>2022-09-23T13:12:24.000Z</time>
      </trkpt>
      <trkpt lat="47.40046" lon="-0.93073">
        <ele>22.61</ele>
        <time>2022-09-23T13:12:29.000Z</time>
      </trkpt>
      <trkpt lat="47.40023" lon="-0.93056">
        <ele>20.17</ele>
        <time>2022-09-23T13:12:34.000Z</time>
      </trkpt>
      <trkpt lat="47.39991" lon="-0.93036">
        <ele>17.66</ele>
        <time>2022-09-23T13:12:39.000Z</time>
      </trkpt>
      <trkpt lat="47.39965" lon="-0.93012">
        <ele>16.5</ele>
        <time>2022-09-23T13:12:44.000Z</time>
      </trkpt>
      <trkpt lat="47.39965" lon="-0.92966">
        <ele>14.82</ele>
        <time>2022-09-23T13:12:49.000Z</time>
      </trkpt>
      <trkpt lat="47.39977" lon="-0.92917">
        <ele>13.48</ele>
        <time>2022-09-23T13:12:54.000Z</time>
      </trkpt>
      <trkpt lat="47.39985" lon="-0.92868">
        <ele>12.57</ele>
        <time>2022-09-23T13:12:59.000Z</time>
      </trkpt>
      <trkpt lat="47.39992" lon="-0.92819">
        <ele>10.88</ele>
        <time>2022-09-23T13:13:04.000Z</time>
      </trkpt>
      <trkpt lat="47.39998" lon="-0.92769">
        <ele>9.46</ele>
        <time>2022-09-23T13:13:09.000Z</time>
      </trkpt>
      <trkpt lat="47.4001" lon="-0.92721">
        <ele>8.37</ele>
        <time>2022-09-23T13:13:14.000Z</time>
      </trkpt>
      <trkpt lat="47.40022" lon="-0.92678">
        <ele>6.9</ele>
        <time>2022-09-23T13:13:19.000Z</time>
      </trkpt>
      <trkpt lat="47.40035" lon="-0.92641">
        <ele>5.75</ele>
        <time>2022-09-23T13:13:24.000Z</time>
      </trkpt>
      <trkpt lat="47.40048" lon="-0.9261">
        <ele>5.01</ele>
        <time>2022-09-23T13:13:29.000Z</time>
      </trkpt>
      <trkpt lat="47.4006" lon="-0.92582">
        <ele>4.83</ele>
        <time>2022-09-23T13:13:34.000Z</time>
      </trkpt>
      <trkpt lat="47.40074" lon="-0.92551">
        <ele>4.22</ele>
        <time>2022-09-23T13:13:39.000Z</time>
      </trkpt>
      <trkpt lat="47.4009" lon="-0.9251">
        <ele>4.23</ele>
        <time>2022-09-23T13:13:44.000Z</time>
      </trkpt>
      <trkpt lat="47.40101" lon="-0.92472">
        <ele>3.69</ele>
        <time>2022-09-23T13:13:49.000Z</time>
      </trkpt>
      <trkpt lat="47.40114" lon="-0.9244">
        <ele>2.77</ele>
        <time>2022-09-23T13:13:54.000Z</time>
      </trkpt>
      <trkpt lat="47.40128" lon="-0.9241">
        <ele>1.97</ele>
        <time>2022-09-23T13:13:59.000Z</time>
      </trkpt>
      <trkpt lat="47.40142" lon="-0.92374">
        <ele>1.14</ele>
        <time>2022-09-23T13:14:04.000Z</time>
      </trkpt>
      <trkpt lat="47.40166" lon="-0.92337">
        <ele>1.33</ele>
        <time>2022-09-23T13:14:09.000Z</time>
      </trkpt>
      <trkpt lat="47.40179" lon="-0.92305">
        <ele>0.47</ele>
        <time>2022-09-23T13:14:14.000Z</time>
      </trkpt>
      <trkpt lat="47.40196" lon="-0.92279">
        <ele>-0.26</ele>
        <time>2022-09-23T13:14:19.000Z</time>
      </trkpt>
      <trkpt lat="47.40212" lon="-0.92245">
        <ele>-0.59</ele>
        <time>2022-09-23T13:14:24.000Z</time>
      </trkpt>
      <trkpt lat="47.40224" lon="-0.92209">
        <ele>-1.17</ele>
        <time>2022-09-23T13:14:29.000Z</time>
      </trkpt>
      <trkpt lat="47.40236" lon="-0.92181">
        <ele>-1.67</ele>
        <time>2022-09-23T13:14:34.000Z</time>
      </trkpt>
      <trkpt lat="47.40252" lon="-0.92156">
        <ele>-2.27</ele>
        <time>2022-09-23T13:14:39.000Z</time>
      </trkpt>
      <trkpt lat="47.40265" lon="-0.92126">
        <ele>-2.1</ele>
        <time>2022-09-23T13:14:44.000Z</time>
      </trkpt>
      <trkpt lat="47.40278" lon="-0.9211">
        <ele>-2.96</ele>
        <time>2022-09-23T13:14:49.000Z</time>
      </trkpt>
      <trkpt lat="47.40291" lon="-0.92092">
        <ele>-3.19</ele>
        <time>2022-09-23T13:14:54.000Z</time>
      </trkpt>
      <trkpt lat="47.40303" lon="-0.9208">
        <ele>-2.98</ele>
        <time>2022-09-23T13:14:59.000Z</time>
      </trkpt>
      <trkpt lat="47.40296" lon="-0.92073">
        <ele>-2.65</ele>
        <time>2022-09-23T13:20:11.000Z</time>
      </trkpt>
      <trkpt lat="47.40304" lon="-0.92069">
        <ele>-4.59</ele>
        <time>2022-09-23T13:20:55.000Z</time>
      </trkpt>
      <trkpt lat="47.40298" lon="-0.92078">
        <ele>-6.19</ele>
        <time>2022-09-23T13:21:44.000Z</time>
      </trkpt>
      <trkpt lat="47.40289" lon="-0.92082">
        <ele>-5.38</ele>
        <time>2022-09-23T13:25:51.000Z</time>
      </trkpt>
      <trkpt lat="47.4029" lon="-0.92068">
        <ele>-8.68</ele>
        <time>2022-09-23T13:28:38.000Z</time>
      </trkpt>
      <trkpt lat="47.40297" lon="-0.92076">
        <ele>-0.47</ele>
        <time>2022-09-23T13:34:02.000Z</time>
      </trkpt>
      <trkpt lat="47.40292" lon="-0.92063">
        <ele>4.2</ele>
        <time>2022-09-23T13:39:52.000Z</time>
      </trkpt>
      <trkpt lat="47.40279" lon="-0.92053">
        <ele>4.08</ele>
        <time>2022-09-23T13:39:57.000Z</time>
      </trkpt>
      <trkpt lat="47.40264" lon="-0.9204">
        <ele>4.94</ele>
        <time>2022-09-23T13:40:02.000Z</time>
      </trkpt>
      <trkpt lat="47.40249" lon="-0.92026">
        <ele>5.19</ele>
        <time>2022-09-23T13:40:07.000Z</time>
      </trkpt>
      <trkpt lat="47.40234" lon="-0.92013">
        <ele>5.54</ele>
        <time>2022-09-23T13:40:12.000Z</time>
      </trkpt>
      <trkpt lat="47.40217" lon="-0.91998">
        <ele>6.14</ele>
        <time>2022-09-23T13:40:17.000Z</time>
      </trkpt>
      <trkpt lat="47.40201" lon="-0.91983">
        <ele>6.99</ele>
        <time>2022-09-23T13:40:22.000Z</time>
      </trkpt>
      <trkpt lat="47.40183" lon="-0.91969">
        <ele>7.47</ele>
        <time>2022-09-23T13:40:27.000Z</time>
      </trkpt>
      <trkpt lat="47.40168" lon="-0.91955">
        <ele>9.01</ele>
        <time>2022-09-23T13:40:32.000Z</time>
      </trkpt>
      <trkpt lat="47.40153" lon="-0.9194">
        <ele>9.84</ele>
        <time>2022-09-23T13:40:37.000Z</time>
      </trkpt>
      <trkpt lat="47.40138" lon="-0.91926">
        <ele>11.11</ele>
        <time>2022-09-23T13:40:42.000Z</time>
      </trkpt>
      <trkpt lat="47.40121" lon="-0.91915">
        <ele>12.33</ele>
        <time>2022-09-23T13:40:47.000Z</time>
      </trkpt>
      <trkpt lat="47.40104" lon="-0.919">
        <ele>13.43</ele>
        <time>2022-09-23T13:40:52.000Z</time>
      </trkpt>
      <trkpt lat="47.40084" lon="-0.91886">
        <ele>14.92</ele>
        <time>2022-09-23T13:40:57.000Z</time>
      </trkpt>
      <trkpt lat="47.40064" lon="-0.91868">
        <ele>15.42</ele>
        <time>2022-09-23T13:41:02.000Z</time>
      </trkpt>
      <trkpt lat="47.40044" lon="-0.91849">
        <ele>15.41</ele>
        <time>2022-09-23T13:41:07.000Z</time>
      </trkpt>
      <trkpt lat="47.40024" lon="-0.9183">
        <ele>14.79</ele>
        <time>2022-09-23T13:41:12.000Z</time>
      </trkpt>
      <trkpt lat="47.40002" lon="-0.91811">
        <ele>14.13</ele>
        <time>2022-09-23T13:41:17.000Z</time>
      </trkpt>
      <trkpt lat="47.39982" lon="-0.91794">
        <ele>14.6</ele>
        <time>2022-09-23T13:41:22.000Z</time>
      </trkpt>
      <trkpt lat="47.39959" lon="-0.91775">
        <ele>13.88</ele>
        <time>2022-09-23T13:41:27.000Z</time>
      </trkpt>
      <trkpt lat="47.39938" lon="-0.91755">
        <ele>12.65</ele>
        <time>2022-09-23T13:41:32.000Z</time>
      </trkpt>
      <trkpt lat="47.39919" lon="-0.91736">
        <ele>11.67</ele>
        <time>2022-09-23T13:41:37.000Z</time>
      </trkpt>
      <trkpt lat="47.399" lon="-0.91718">
        <ele>11.5</ele>
        <time>2022-09-23T13:41:42.000Z</time>
      </trkpt>
      <trkpt lat="47.39879" lon="-0.91702">
        <ele>10.09</ele>
        <time>2022-09-23T13:41:47.000Z</time>
      </trkpt>
      <trkpt lat="47.39866" lon="-0.91686">
        <ele>9.31</ele>
        <time>2022-09-23T13:41:52.000Z</time>
      </trkpt>
      <trkpt lat="47.3987" lon="-0.91664">
        <ele>10.56</ele>
        <time>2022-09-23T13:41:57.000Z</time>
      </trkpt>
      <trkpt lat="47.39873" lon="-0.91649">
        <ele>9.55</ele>
        <time>2022-09-23T13:42:03.000Z</time>
      </trkpt>
      <trkpt lat="47.39872" lon="-0.91634">
        <ele>7.92</ele>
        <time>2022-09-23T13:42:33.000Z</time>
      </trkpt>
      <trkpt lat="47.3988" lon="-0.91621">
        <ele>7.28</ele>
        <time>2022-09-23T13:42:38.000Z</time>
      </trkpt>
      <trkpt lat="47.39893" lon="-0.91595">
        <ele>6.86</ele>
        <time>2022-09-23T13:42:43.000Z</time>
      </trkpt>
      <trkpt lat="47.39903" lon="-0.91569">
        <ele>6.45</ele>
        <time>2022-09-23T13:42:48.000Z</time>
      </trkpt>
      <trkpt lat="47.39915" lon="-0.91541">
        <ele>6.08</ele>
        <time>2022-09-23T13:42:53.000Z</time>
      </trkpt>
      <trkpt lat="47.39926" lon="-0.91511">
        <ele>5.56</ele>
        <time>2022-09-23T13:42:58.000Z</time>
      </trkpt>
      <trkpt lat="47.39938" lon="-0.91482">
        <ele>5.32</ele>
        <time>2022-09-23T13:43:03.000Z</time>
      </trkpt>
      <trkpt lat="47.39951" lon="-0.9145">
        <ele>6.16</ele>
        <time>2022-09-23T13:43:08.000Z</time>
      </trkpt>
      <trkpt lat="47.39963" lon="-0.91414">
        <ele>6.72</ele>
        <time>2022-09-23T13:43:13.000Z</time>
      </trkpt>
      <trkpt lat="47.39974" lon="-0.91377">
        <ele>5.18</ele>
        <time>2022-09-23T13:43:18.000Z</time>
      </trkpt>
      <trkpt lat="47.39982" lon="-0.91341">
        <ele>3.65</ele>
        <time>2022-09-23T13:43:23.000Z</time>
      </trkpt>
      <trkpt lat="47.3999" lon="-0.91303">
        <ele>2.34</ele>
        <time>2022-09-23T13:43:28.000Z</time>
      </trkpt>
      <trkpt lat="47.39995" lon="-0.91267">
        <ele>3.26</ele>
        <time>2022-09-23T13:43:33.000Z</time>
      </trkpt>
      <trkpt lat="47.40001" lon="-0.91234">
        <ele>5.04</ele>
        <time>2022-09-23T13:43:38.000Z</time>
      </trkpt>
      <trkpt lat="47.40004" lon="-0.91202">
        <ele>4.41</ele>
        <time>2022-09-23T13:43:43.000Z</time>
      </trkpt>
      <trkpt lat="47.40006" lon="-0.91168">
        <ele>3.85</ele>
        <time>2022-09-23T13:43:48.000Z</time>
      </trkpt>
      <trkpt lat="47.40009" lon="-0.91134">
        <ele>5.04</ele>
        <time>2022-09-23T13:43:53.000Z</time>
      </trkpt>
      <trkpt lat="47.40009" lon="-0.91099">
        <ele>4.6</ele>
        <time>2022-09-23T13:43:58.000Z</time>
      </trkpt>
      <trkpt lat="47.4001" lon="-0.91066">
        <ele>4.37</ele>
        <time>2022-09-23T13:44:03.000Z</time>
      </trkpt>
      <trkpt lat="47.40011" lon="-0.9103">
        <ele>4.83</ele>
        <time>2022-09-23T13:44:08.000Z</time>
      </trkpt>
      <trkpt lat="47.40012" lon="-0.90994">
        <ele>3.52</ele>
        <time>2022-09-23T13:44:13.000Z</time>
      </trkpt>
      <trkpt lat="47.40014" lon="-0.90958">
        <ele>2.99</ele>
        <time>2022-09-23T13:44:18.000Z</time>
      </trkpt>
      <trkpt lat="47.40015" lon="-0.90921">
        <ele>2.3</ele>
        <time>2022-09-23T13:44:23.000Z</time>
      </trkpt>
      <trkpt lat="47.40018" lon="-0.90886">
        <ele>3.1</ele>
        <time>2022-09-23T13:44:28.000Z</time>
      </trkpt>
      <trkpt lat="47.40021" lon="-0.90849">
        <ele>4.1</ele>
        <time>2022-09-23T13:44:33.000Z</time>
      </trkpt>
      <trkpt lat="47.40023" lon="-0.90812">
        <ele>5.48</ele>
        <time>2022-09-23T13:44:38.000Z</time>
      </trkpt>
      <trkpt lat="47.40023" lon="-0.90776">
        <ele>7.01</ele>
        <time>2022-09-23T13:44:43.000Z</time>
      </trkpt>
      <trkpt lat="47.40022" lon="-0.90741">
        <ele>7.63</ele>
        <time>2022-09-23T13:44:48.000Z</time>
      </trkpt>
      <trkpt lat="47.40021" lon="-0.90703">
        <ele>9.53</ele>
        <time>2022-09-23T13:44:53.000Z</time>
      </trkpt>
      <trkpt lat="47.40021" lon="-0.90668">
        <ele>10.67</ele>
        <time>2022-09-23T13:44:58.000Z</time>
      </trkpt>
      <trkpt lat="47.4002" lon="-0.90631">
        <ele>10.63</ele>
        <time>2022-09-23T13:45:03.000Z</time>
      </trkpt>
      <trkpt lat="47.40018" lon="-0.90599">
        <ele>11.85</ele>
        <time>2022-09-23T13:45:08.000Z</time>
      </trkpt>
      <trkpt lat="47.40016" lon="-0.9058">
        <ele>12.11</ele>
        <time>2022-09-23T13:45:13.000Z</time>
      </trkpt>
      <trkpt lat="47.40019" lon="-0.90566">
        <ele>11.8</ele>
        <time>2022-09-23T13:46:00.000Z</time>
      </trkpt>
      <trkpt lat="47.40019" lon="-0.90552">
        <ele>11.86</ele>
        <time>2022-09-23T13:46:33.000Z</time>
      </trkpt>
      <trkpt lat="47.40019" lon="-0.90536">
        <ele>11.7</ele>
        <time>2022-09-23T13:46:38.000Z</time>
      </trkpt>
      <trkpt lat="47.40018" lon="-0.90512">
        <ele>11.97</ele>
        <time>2022-09-23T13:46:43.000Z</time>
      </trkpt>
      <trkpt lat="47.40014" lon="-0.90486">
        <ele>11.7</ele>
        <time>2022-09-23T13:46:48.000Z</time>
      </trkpt>
      <trkpt lat="47.4001" lon="-0.90459">
        <ele>11.18</ele>
        <time>2022-09-23T13:46:53.000Z</time>
      </trkpt>
      <trkpt lat="47.40004" lon="-0.90431">
        <ele>10.26</ele>
        <time>2022-09-23T13:46:58.000Z</time>
      </trkpt>
      <trkpt lat="47.39997" lon="-0.904">
        <ele>10.53</ele>
        <time>2022-09-23T13:47:03.000Z</time>
      </trkpt>
      <trkpt lat="47.3999" lon="-0.90369">
        <ele>10.68</ele>
        <time>2022-09-23T13:47:08.000Z</time>
      </trkpt>
      <trkpt lat="47.3998" lon="-0.90338">
        <ele>10.96</ele>
        <time>2022-09-23T13:47:13.000Z</time>
      </trkpt>
      <trkpt lat="47.3997" lon="-0.90306">
        <ele>10.45</ele>
        <time>2022-09-23T13:47:18.000Z</time>
      </trkpt>
      <trkpt lat="47.39958" lon="-0.90271">
        <ele>9.87</ele>
        <time>2022-09-23T13:47:23.000Z</time>
      </trkpt>
      <trkpt lat="47.39946" lon="-0.90234">
        <ele>9.16</ele>
        <time>2022-09-23T13:47:28.000Z</time>
      </trkpt>
      <trkpt lat="47.39934" lon="-0.90199">
        <ele>8.58</ele>
        <time>2022-09-23T13:47:33.000Z</time>
      </trkpt>
      <trkpt lat="47.39921" lon="-0.90161">
        <ele>8.16</ele>
        <time>2022-09-23T13:47:38.000Z</time>
      </trkpt>
      <trkpt lat="47.39907" lon="-0.90123">
        <ele>7.16</ele>
        <time>2022-09-23T13:47:43.000Z</time>
      </trkpt>
      <trkpt lat="47.39895" lon="-0.90086">
        <ele>6.07</ele>
        <time>2022-09-23T13:47:48.000Z</time>
      </trkpt>
      <trkpt lat="47.39882" lon="-0.90046">
        <ele>5.06</ele>
        <time>2022-09-23T13:47:53.000Z</time>
      </trkpt>
      <trkpt lat="47.39871" lon="-0.90008">
        <ele>4.19</ele>
        <time>2022-09-23T13:47:58.000Z</time>
      </trkpt>
      <trkpt lat="47.39859" lon="-0.89971">
        <ele>4.59</ele>
        <time>2022-09-23T13:48:03.000Z</time>
      </trkpt>
      <trkpt lat="47.39844" lon="-0.89935">
        <ele>3.64</ele>
        <time>2022-09-23T13:48:08.000Z</time>
      </trkpt>
      <trkpt lat="47.39831" lon="-0.89894">
        <ele>2.85</ele>
        <time>2022-09-23T13:48:13.000Z</time>
      </trkpt>
      <trkpt lat="47.39818" lon="-0.89854">
        <ele>2.54</ele>
        <time>2022-09-23T13:48:18.000Z</time>
      </trkpt>
      <trkpt lat="47.39804" lon="-0.89814">
        <ele>2.22</ele>
        <time>2022-09-23T13:48:23.000Z</time>
      </trkpt>
      <trkpt lat="47.3979" lon="-0.89773">
        <ele>3.54</ele>
        <time>2022-09-23T13:48:28.000Z</time>
      </trkpt>
      <trkpt lat="47.39776" lon="-0.89735">
        <ele>2.51</ele>
        <time>2022-09-23T13:48:33.000Z</time>
      </trkpt>
      <trkpt lat="47.39762" lon="-0.89696">
        <ele>2.81</ele>
        <time>2022-09-23T13:48:38.000Z</time>
      </trkpt>
      <trkpt lat="47.39749" lon="-0.89656">
        <ele>3.25</ele>
        <time>2022-09-23T13:48:43.000Z</time>
      </trkpt>
      <trkpt lat="47.39735" lon="-0.89617">
        <ele>4</ele>
        <time>2022-09-23T13:48:48.000Z</time>
      </trkpt>
      <trkpt lat="47.39722" lon="-0.89579">
        <ele>3.66</ele>
        <time>2022-09-23T13:48:53.000Z</time>
      </trkpt>
      <trkpt lat="47.39709" lon="-0.8954">
        <ele>2.74</ele>
        <time>2022-09-23T13:48:58.000Z</time>
      </trkpt>
      <trkpt lat="47.39696" lon="-0.89501">
        <ele>2.13</ele>
        <time>2022-09-23T13:49:03.000Z</time>
      </trkpt>
      <trkpt lat="47.39683" lon="-0.89461">
        <ele>2.73</ele>
        <time>2022-09-23T13:49:08.000Z</time>
      </trkpt>
      <trkpt lat="47.3967" lon="-0.89423">
        <ele>3.5</ele>
        <time>2022-09-23T13:49:13.000Z</time>
      </trkpt>
      <trkpt lat="47.39657" lon="-0.89383">
        <ele>4</ele>
        <time>2022-09-23T13:49:18.000Z</time>
      </trkpt>
      <trkpt lat="47.39647" lon="-0.89343">
        <ele>3.73</ele>
        <time>2022-09-23T13:49:23.000Z</time>
      </trkpt>
      <trkpt lat="47.3964" lon="-0.89303">
        <ele>3.06</ele>
        <time>2022-09-23T13:49:28.000Z</time>
      </trkpt>
      <trkpt lat="47.39636" lon="-0.89262">
        <ele>2.73</ele>
        <time>2022-09-23T13:49:33.000Z</time>
      </trkpt>
      <trkpt lat="47.39631" lon="-0.89218">
        <ele>3.49</ele>
        <time>2022-09-23T13:49:38.000Z</time>
      </trkpt>
      <trkpt lat="47.39625" lon="-0.89176">
        <ele>3.05</ele>
        <time>2022-09-23T13:49:43.000Z</time>
      </trkpt>
      <trkpt lat="47.39623" lon="-0.89134">
        <ele>2.99</ele>
        <time>2022-09-23T13:49:48.000Z</time>
      </trkpt>
      <trkpt lat="47.39621" lon="-0.89091">
        <ele>3.44</ele>
        <time>2022-09-23T13:49:53.000Z</time>
      </trkpt>
      <trkpt lat="47.39619" lon="-0.89046">
        <ele>3.69</ele>
        <time>2022-09-23T13:49:58.000Z</time>
      </trkpt>
      <trkpt lat="47.39616" lon="-0.89002">
        <ele>4.77</ele>
        <time>2022-09-23T13:50:03.000Z</time>
      </trkpt>
      <trkpt lat="47.39613" lon="-0.88956">
        <ele>5.09</ele>
        <time>2022-09-23T13:50:08.000Z</time>
      </trkpt>
      <trkpt lat="47.39608" lon="-0.88912">
        <ele>4.08</ele>
        <time>2022-09-23T13:50:13.000Z</time>
      </trkpt>
      <trkpt lat="47.39603" lon="-0.88869">
        <ele>3.82</ele>
        <time>2022-09-23T13:50:18.000Z</time>
      </trkpt>
      <trkpt lat="47.39593" lon="-0.88828">
        <ele>3.41</ele>
        <time>2022-09-23T13:50:23.000Z</time>
      </trkpt>
      <trkpt lat="47.39582" lon="-0.88789">
        <ele>2.85</ele>
        <time>2022-09-23T13:50:28.000Z</time>
      </trkpt>
      <trkpt lat="47.39568" lon="-0.8875">
        <ele>2.23</ele>
        <time>2022-09-23T13:50:33.000Z</time>
      </trkpt>
      <trkpt lat="47.39555" lon="-0.88713">
        <ele>2.03</ele>
        <time>2022-09-23T13:50:38.000Z</time>
      </trkpt>
      <trkpt lat="47.3954" lon="-0.88682">
        <ele>2.24</ele>
        <time>2022-09-23T13:50:43.000Z</time>
      </trkpt>
      <trkpt lat="47.39527" lon="-0.88647">
        <ele>2.23</ele>
        <time>2022-09-23T13:50:48.000Z</time>
      </trkpt>
      <trkpt lat="47.39514" lon="-0.8861">
        <ele>3.01</ele>
        <time>2022-09-23T13:50:53.000Z</time>
      </trkpt>
      <trkpt lat="47.39499" lon="-0.88573">
        <ele>4.16</ele>
        <time>2022-09-23T13:50:58.000Z</time>
      </trkpt>
      <trkpt lat="47.39487" lon="-0.88536">
        <ele>4.86</ele>
        <time>2022-09-23T13:51:03.000Z</time>
      </trkpt>
      <trkpt lat="47.39476" lon="-0.88501">
        <ele>5.66</ele>
        <time>2022-09-23T13:51:08.000Z</time>
      </trkpt>
      <trkpt lat="47.39464" lon="-0.88464">
        <ele>5.93</ele>
        <time>2022-09-23T13:51:13.000Z</time>
      </trkpt>
      <trkpt lat="47.39453" lon="-0.88424">
        <ele>6.09</ele>
        <time>2022-09-23T13:51:18.000Z</time>
      </trkpt>
      <trkpt lat="47.39447" lon="-0.88385">
        <ele>6.37</ele>
        <time>2022-09-23T13:51:23.000Z</time>
      </trkpt>
      <trkpt lat="47.39441" lon="-0.88343">
        <ele>6.33</ele>
        <time>2022-09-23T13:51:28.000Z</time>
      </trkpt>
      <trkpt lat="47.39436" lon="-0.88301">
        <ele>6</ele>
        <time>2022-09-23T13:51:33.000Z</time>
      </trkpt>
      <trkpt lat="47.39431" lon="-0.88259">
        <ele>4.57</ele>
        <time>2022-09-23T13:51:38.000Z</time>
      </trkpt>
      <trkpt lat="47.39424" lon="-0.88215">
        <ele>4.04</ele>
        <time>2022-09-23T13:51:43.000Z</time>
      </trkpt>
      <trkpt lat="47.39419" lon="-0.88171">
        <ele>2.17</ele>
        <time>2022-09-23T13:51:48.000Z</time>
      </trkpt>
      <trkpt lat="47.39411" lon="-0.88128">
        <ele>-0.46</ele>
        <time>2022-09-23T13:51:53.000Z</time>
      </trkpt>
      <trkpt lat="47.39399" lon="-0.88084">
        <ele>-0.71</ele>
        <time>2022-09-23T13:51:58.000Z</time>
      </trkpt>
      <trkpt lat="47.39387" lon="-0.88041">
        <ele>-1.33</ele>
        <time>2022-09-23T13:52:03.000Z</time>
      </trkpt>
      <trkpt lat="47.39378" lon="-0.88001">
        <ele>-1.84</ele>
        <time>2022-09-23T13:52:08.000Z</time>
      </trkpt>
      <trkpt lat="47.39367" lon="-0.87958">
        <ele>-2.17</ele>
        <time>2022-09-23T13:52:13.000Z</time>
      </trkpt>
      <trkpt lat="47.39356" lon="-0.87913">
        <ele>-2.02</ele>
        <time>2022-09-23T13:52:18.000Z</time>
      </trkpt>
      <trkpt lat="47.39345" lon="-0.87871">
        <ele>-1.55</ele>
        <time>2022-09-23T13:52:23.000Z</time>
      </trkpt>
      <trkpt lat="47.39332" lon="-0.87827">
        <ele>-1.85</ele>
        <time>2022-09-23T13:52:28.000Z</time>
      </trkpt>
      <trkpt lat="47.3932" lon="-0.87785">
        <ele>-0.91</ele>
        <time>2022-09-23T13:52:33.000Z</time>
      </trkpt>
      <trkpt lat="47.39309" lon="-0.87743">
        <ele>-0.46</ele>
        <time>2022-09-23T13:52:38.000Z</time>
      </trkpt>
      <trkpt lat="47.39297" lon="-0.87701">
        <ele>0.57</ele>
        <time>2022-09-23T13:52:43.000Z</time>
      </trkpt>
      <trkpt lat="47.39286" lon="-0.8766">
        <ele>1.08</ele>
        <time>2022-09-23T13:52:48.000Z</time>
      </trkpt>
      <trkpt lat="47.39275" lon="-0.87619">
        <ele>2.63</ele>
        <time>2022-09-23T13:52:53.000Z</time>
      </trkpt>
      <trkpt lat="47.39264" lon="-0.87578">
        <ele>3.41</ele>
        <time>2022-09-23T13:52:58.000Z</time>
      </trkpt>
      <trkpt lat="47.39252" lon="-0.87536">
        <ele>4.31</ele>
        <time>2022-09-23T13:53:03.000Z</time>
      </trkpt>
      <trkpt lat="47.39241" lon="-0.87493">
        <ele>3.73</ele>
        <time>2022-09-23T13:53:08.000Z</time>
      </trkpt>
      <trkpt lat="47.39235" lon="-0.87452">
        <ele>4.48</ele>
        <time>2022-09-23T13:53:13.000Z</time>
      </trkpt>
      <trkpt lat="47.3923" lon="-0.87408">
        <ele>4.52</ele>
        <time>2022-09-23T13:53:18.000Z</time>
      </trkpt>
      <trkpt lat="47.3923" lon="-0.87365">
        <ele>3.72</ele>
        <time>2022-09-23T13:53:23.000Z</time>
      </trkpt>
      <trkpt lat="47.39228" lon="-0.87321">
        <ele>4.06</ele>
        <time>2022-09-23T13:53:28.000Z</time>
      </trkpt>
      <trkpt lat="47.39227" lon="-0.87278">
        <ele>4.89</ele>
        <time>2022-09-23T13:53:33.000Z</time>
      </trkpt>
      <trkpt lat="47.39226" lon="-0.87236">
        <ele>7.44</ele>
        <time>2022-09-23T13:53:38.000Z</time>
      </trkpt>
      <trkpt lat="47.39226" lon="-0.87198">
        <ele>9.33</ele>
        <time>2022-09-23T13:53:43.000Z</time>
      </trkpt>
      <trkpt lat="47.39223" lon="-0.87161">
        <ele>9.54</ele>
        <time>2022-09-23T13:53:48.000Z</time>
      </trkpt>
      <trkpt lat="47.39222" lon="-0.87128">
        <ele>8.72</ele>
        <time>2022-09-23T13:53:53.000Z</time>
      </trkpt>
      <trkpt lat="47.39221" lon="-0.87095">
        <ele>6.83</ele>
        <time>2022-09-23T13:53:58.000Z</time>
      </trkpt>
      <trkpt lat="47.3922" lon="-0.87059">
        <ele>5.92</ele>
        <time>2022-09-23T13:54:03.000Z</time>
      </trkpt>
      <trkpt lat="47.39219" lon="-0.8702">
        <ele>5.69</ele>
        <time>2022-09-23T13:54:08.000Z</time>
      </trkpt>
      <trkpt lat="47.39219" lon="-0.86981">
        <ele>5.73</ele>
        <time>2022-09-23T13:54:13.000Z</time>
      </trkpt>
      <trkpt lat="47.39217" lon="-0.86941">
        <ele>5.32</ele>
        <time>2022-09-23T13:54:18.000Z</time>
      </trkpt>
      <trkpt lat="47.39214" lon="-0.86901">
        <ele>4.26</ele>
        <time>2022-09-23T13:54:23.000Z</time>
      </trkpt>
      <trkpt lat="47.39214" lon="-0.86858">
        <ele>4.7</ele>
        <time>2022-09-23T13:54:28.000Z</time>
      </trkpt>
      <trkpt lat="47.39215" lon="-0.86819">
        <ele>7.03</ele>
        <time>2022-09-23T13:54:33.000Z</time>
      </trkpt>
      <trkpt lat="47.39214" lon="-0.86779">
        <ele>7.5</ele>
        <time>2022-09-23T13:54:38.000Z</time>
      </trkpt>
      <trkpt lat="47.39212" lon="-0.8674">
        <ele>7.97</ele>
        <time>2022-09-23T13:54:43.000Z</time>
      </trkpt>
      <trkpt lat="47.39212" lon="-0.867">
        <ele>9</ele>
        <time>2022-09-23T13:54:48.000Z</time>
      </trkpt>
      <trkpt lat="47.39214" lon="-0.8666">
        <ele>9.31</ele>
        <time>2022-09-23T13:54:53.000Z</time>
      </trkpt>
      <trkpt lat="47.39218" lon="-0.86622">
        <ele>9.52</ele>
        <time>2022-09-23T13:54:58.000Z</time>
      </trkpt>
      <trkpt lat="47.39219" lon="-0.86583">
        <ele>8.96</ele>
        <time>2022-09-23T13:55:03.000Z</time>
      </trkpt>
      <trkpt lat="47.39222" lon="-0.86546">
        <ele>8.8</ele>
        <time>2022-09-23T13:55:08.000Z</time>
      </trkpt>
      <trkpt lat="47.39223" lon="-0.8651">
        <ele>9.2</ele>
        <time>2022-09-23T13:55:13.000Z</time>
      </trkpt>
      <trkpt lat="47.39225" lon="-0.86471">
        <ele>8.2</ele>
        <time>2022-09-23T13:55:18.000Z</time>
      </trkpt>
      <trkpt lat="47.39225" lon="-0.8643">
        <ele>5.33</ele>
        <time>2022-09-23T13:55:23.000Z</time>
      </trkpt>
      <trkpt lat="47.39228" lon="-0.86389">
        <ele>4.96</ele>
        <time>2022-09-23T13:55:28.000Z</time>
      </trkpt>
      <trkpt lat="47.3923" lon="-0.86351">
        <ele>5.27</ele>
        <time>2022-09-23T13:55:33.000Z</time>
      </trkpt>
      <trkpt lat="47.39232" lon="-0.86313">
        <ele>5.74</ele>
        <time>2022-09-23T13:55:38.000Z</time>
      </trkpt>
      <trkpt lat="47.39233" lon="-0.86276">
        <ele>5.97</ele>
        <time>2022-09-23T13:55:43.000Z</time>
      </trkpt>
      <trkpt lat="47.39232" lon="-0.86238">
        <ele>5.84</ele>
        <time>2022-09-23T13:55:48.000Z</time>
      </trkpt>
      <trkpt lat="47.39223" lon="-0.86201">
        <ele>6.63</ele>
        <time>2022-09-23T13:55:53.000Z</time>
      </trkpt>
      <trkpt lat="47.39215" lon="-0.86171">
        <ele>6.86</ele>
        <time>2022-09-23T13:55:58.000Z</time>
      </trkpt>
      <trkpt lat="47.39206" lon="-0.86148">
        <ele>6.53</ele>
        <time>2022-09-23T13:56:03.000Z</time>
      </trkpt>
      <trkpt lat="47.39203" lon="-0.86134">
        <ele>6.85</ele>
        <time>2022-09-23T13:56:08.000Z</time>
      </trkpt>
      <trkpt lat="47.39197" lon="-0.86121">
        <ele>7.92</ele>
        <time>2022-09-23T13:56:30.000Z</time>
      </trkpt>
      <trkpt lat="47.39194" lon="-0.86106">
        <ele>7.74</ele>
        <time>2022-09-23T13:56:35.000Z</time>
      </trkpt>
      <trkpt lat="47.39189" lon="-0.86091">
        <ele>7.33</ele>
        <time>2022-09-23T13:56:40.000Z</time>
      </trkpt>
      <trkpt lat="47.39181" lon="-0.8608">
        <ele>5.85</ele>
        <time>2022-09-23T13:56:45.000Z</time>
      </trkpt>
      <trkpt lat="47.39173" lon="-0.86066">
        <ele>5.24</ele>
        <time>2022-09-23T13:56:50.000Z</time>
      </trkpt>
      <trkpt lat="47.39168" lon="-0.86042">
        <ele>5.38</ele>
        <time>2022-09-23T13:58:23.000Z</time>
      </trkpt>
      <trkpt lat="47.39161" lon="-0.86031">
        <ele>6.21</ele>
        <time>2022-09-23T13:59:09.000Z</time>
      </trkpt>
      <trkpt lat="47.39151" lon="-0.86015">
        <ele>6.28</ele>
        <time>2022-09-23T13:59:14.000Z</time>
      </trkpt>
      <trkpt lat="47.39138" lon="-0.85999">
        <ele>6.18</ele>
        <time>2022-09-23T13:59:19.000Z</time>
      </trkpt>
      <trkpt lat="47.3912" lon="-0.85987">
        <ele>6.03</ele>
        <time>2022-09-23T13:59:24.000Z</time>
      </trkpt>
      <trkpt lat="47.39102" lon="-0.85972">
        <ele>6.23</ele>
        <time>2022-09-23T13:59:29.000Z</time>
      </trkpt>
      <trkpt lat="47.39084" lon="-0.85959">
        <ele>6.15</ele>
        <time>2022-09-23T13:59:34.000Z</time>
      </trkpt>
      <trkpt lat="47.39063" lon="-0.85942">
        <ele>6.43</ele>
        <time>2022-09-23T13:59:39.000Z</time>
      </trkpt>
      <trkpt lat="47.39041" lon="-0.85922">
        <ele>6.43</ele>
        <time>2022-09-23T13:59:44.000Z</time>
      </trkpt>
      <trkpt lat="47.39022" lon="-0.859">
        <ele>8.29</ele>
        <time>2022-09-23T13:59:49.000Z</time>
      </trkpt>
      <trkpt lat="47.39004" lon="-0.85875">
        <ele>8.63</ele>
        <time>2022-09-23T13:59:54.000Z</time>
      </trkpt>
      <trkpt lat="47.38987" lon="-0.85847">
        <ele>7.79</ele>
        <time>2022-09-23T13:59:59.000Z</time>
      </trkpt>
      <trkpt lat="47.38973" lon="-0.85817">
        <ele>8.52</ele>
        <time>2022-09-23T14:00:04.000Z</time>
      </trkpt>
      <trkpt lat="47.38959" lon="-0.85782">
        <ele>8.98</ele>
        <time>2022-09-23T14:00:09.000Z</time>
      </trkpt>
      <trkpt lat="47.38948" lon="-0.85748">
        <ele>9.17</ele>
        <time>2022-09-23T14:00:14.000Z</time>
      </trkpt>
      <trkpt lat="47.38938" lon="-0.85715">
        <ele>8.22</ele>
        <time>2022-09-23T14:00:19.000Z</time>
      </trkpt>
      <trkpt lat="47.38938" lon="-0.85688">
        <ele>8.35</ele>
        <time>2022-09-23T14:00:24.000Z</time>
      </trkpt>
      <trkpt lat="47.38936" lon="-0.85673">
        <ele>6.53</ele>
        <time>2022-09-23T14:00:48.000Z</time>
      </trkpt>
      <trkpt lat="47.38925" lon="-0.85659">
        <ele>6.38</ele>
        <time>2022-09-23T14:00:53.000Z</time>
      </trkpt>
      <trkpt lat="47.38914" lon="-0.85633">
        <ele>6.72</ele>
        <time>2022-09-23T14:00:58.000Z</time>
      </trkpt>
      <trkpt lat="47.38904" lon="-0.85601">
        <ele>6.81</ele>
        <time>2022-09-23T14:01:03.000Z</time>
      </trkpt>
      <trkpt lat="47.38895" lon="-0.8557">
        <ele>7.17</ele>
        <time>2022-09-23T14:01:08.000Z</time>
      </trkpt>
      <trkpt lat="47.38887" lon="-0.8554">
        <ele>8.1</ele>
        <time>2022-09-23T14:01:13.000Z</time>
      </trkpt>
      <trkpt lat="47.38879" lon="-0.85508">
        <ele>9.57</ele>
        <time>2022-09-23T14:01:18.000Z</time>
      </trkpt>
      <trkpt lat="47.3887" lon="-0.85477">
        <ele>10.88</ele>
        <time>2022-09-23T14:01:23.000Z</time>
      </trkpt>
      <trkpt lat="47.3886" lon="-0.85451">
        <ele>11.35</ele>
        <time>2022-09-23T14:01:28.000Z</time>
      </trkpt>
      <trkpt lat="47.3885" lon="-0.85421">
        <ele>11.69</ele>
        <time>2022-09-23T14:01:33.000Z</time>
      </trkpt>
      <trkpt lat="47.38842" lon="-0.8539">
        <ele>15.03</ele>
        <time>2022-09-23T14:01:38.000Z</time>
      </trkpt>
      <trkpt lat="47.3883" lon="-0.85357">
        <ele>15.31</ele>
        <time>2022-09-23T14:01:43.000Z</time>
      </trkpt>
      <trkpt lat="47.3882" lon="-0.85325">
        <ele>15.62</ele>
        <time>2022-09-23T14:01:48.000Z</time>
      </trkpt>
      <trkpt lat="47.38808" lon="-0.85294">
        <ele>15.96</ele>
        <time>2022-09-23T14:01:53.000Z</time>
      </trkpt>
      <trkpt lat="47.38796" lon="-0.85263">
        <ele>14.49</ele>
        <time>2022-09-23T14:01:58.000Z</time>
      </trkpt>
      <trkpt lat="47.38784" lon="-0.85234">
        <ele>12.77</ele>
        <time>2022-09-23T14:02:03.000Z</time>
      </trkpt>
      <trkpt lat="47.38771" lon="-0.85212">
        <ele>11.2</ele>
        <time>2022-09-23T14:02:08.000Z</time>
      </trkpt>
      <trkpt lat="47.38761" lon="-0.85193">
        <ele>10.9</ele>
        <time>2022-09-23T14:02:13.000Z</time>
      </trkpt>
      <trkpt lat="47.38748" lon="-0.85172">
        <ele>11.32</ele>
        <time>2022-09-23T14:02:18.000Z</time>
      </trkpt>
      <trkpt lat="47.38735" lon="-0.85147">
        <ele>11.97</ele>
        <time>2022-09-23T14:02:23.000Z</time>
      </trkpt>
      <trkpt lat="47.3872" lon="-0.85121">
        <ele>11.41</ele>
        <time>2022-09-23T14:02:28.000Z</time>
      </trkpt>
      <trkpt lat="47.38708" lon="-0.85097">
        <ele>11.81</ele>
        <time>2022-09-23T14:02:33.000Z</time>
      </trkpt>
      <trkpt lat="47.38694" lon="-0.85074">
        <ele>11.43</ele>
        <time>2022-09-23T14:02:38.000Z</time>
      </trkpt>
      <trkpt lat="47.38688" lon="-0.8505">
        <ele>11.87</ele>
        <time>2022-09-23T14:02:43.000Z</time>
      </trkpt>
      <trkpt lat="47.38697" lon="-0.85033">
        <ele>11.81</ele>
        <time>2022-09-23T14:02:48.000Z</time>
      </trkpt>
      <trkpt lat="47.38706" lon="-0.85018">
        <ele>11.56</ele>
        <time>2022-09-23T14:02:53.000Z</time>
      </trkpt>
      <trkpt lat="47.38718" lon="-0.85004">
        <ele>11.49</ele>
        <time>2022-09-23T14:02:58.000Z</time>
      </trkpt>
      <trkpt lat="47.38725" lon="-0.84994">
        <ele>10.05</ele>
        <time>2022-09-23T14:03:12.000Z</time>
      </trkpt>
      <trkpt lat="47.38734" lon="-0.84985">
        <ele>10.57</ele>
        <time>2022-09-23T14:03:17.000Z</time>
      </trkpt>
      <trkpt lat="47.38746" lon="-0.84968">
        <ele>11.33</ele>
        <time>2022-09-23T14:03:22.000Z</time>
      </trkpt>
      <trkpt lat="47.38763" lon="-0.84947">
        <ele>11.67</ele>
        <time>2022-09-23T14:03:27.000Z</time>
      </trkpt>
      <trkpt lat="47.38779" lon="-0.84923">
        <ele>11.7</ele>
        <time>2022-09-23T14:03:32.000Z</time>
      </trkpt>
      <trkpt lat="47.388" lon="-0.84901">
        <ele>11.7</ele>
        <time>2022-09-23T14:03:37.000Z</time>
      </trkpt>
      <trkpt lat="47.38829" lon="-0.84903">
        <ele>11.87</ele>
        <time>2022-09-23T14:03:42.000Z</time>
      </trkpt>
      <trkpt lat="47.38855" lon="-0.84914">
        <ele>11.61</ele>
        <time>2022-09-23T14:03:47.000Z</time>
      </trkpt>
      <trkpt lat="47.38879" lon="-0.8492">
        <ele>10.49</ele>
        <time>2022-09-23T14:03:52.000Z</time>
      </trkpt>
      <trkpt lat="47.38896" lon="-0.84903">
        <ele>10.37</ele>
        <time>2022-09-23T14:03:57.000Z</time>
      </trkpt>
      <trkpt lat="47.38911" lon="-0.84884">
        <ele>8.94</ele>
        <time>2022-09-23T14:04:02.000Z</time>
      </trkpt>
      <trkpt lat="47.38918" lon="-0.84858">
        <ele>8.13</ele>
        <time>2022-09-23T14:04:07.000Z</time>
      </trkpt>
      <trkpt lat="47.38924" lon="-0.84834">
        <ele>7.26</ele>
        <time>2022-09-23T14:04:12.000Z</time>
      </trkpt>
      <trkpt lat="47.38928" lon="-0.84817">
        <ele>6.9</ele>
        <time>2022-09-23T14:04:17.000Z</time>
      </trkpt>
      <trkpt lat="47.38931" lon="-0.84804">
        <ele>5.05</ele>
        <time>2022-09-23T14:04:30.000Z</time>
      </trkpt>
      <trkpt lat="47.38936" lon="-0.8478">
        <ele>4.76</ele>
        <time>2022-09-23T14:04:35.000Z</time>
      </trkpt>
      <trkpt lat="47.38941" lon="-0.84755">
        <ele>4.7</ele>
        <time>2022-09-23T14:04:40.000Z</time>
      </trkpt>
      <trkpt lat="47.38942" lon="-0.84728">
        <ele>4.6</ele>
        <time>2022-09-23T14:04:45.000Z</time>
      </trkpt>
      <trkpt lat="47.38942" lon="-0.84695">
        <ele>4.6</ele>
        <time>2022-09-23T14:04:50.000Z</time>
      </trkpt>
      <trkpt lat="47.38945" lon="-0.84662">
        <ele>4.6</ele>
        <time>2022-09-23T14:04:55.000Z</time>
      </trkpt>
      <trkpt lat="47.38942" lon="-0.84634">
        <ele>4.77</ele>
        <time>2022-09-23T14:05:00.000Z</time>
      </trkpt>
      <trkpt lat="47.38939" lon="-0.84601">
        <ele>5.07</ele>
        <time>2022-09-23T14:05:05.000Z</time>
      </trkpt>
      <trkpt lat="47.38935" lon="-0.84561">
        <ele>5.22</ele>
        <time>2022-09-23T14:05:10.000Z</time>
      </trkpt>
      <trkpt lat="47.38925" lon="-0.84508">
        <ele>6.13</ele>
        <time>2022-09-23T14:05:15.000Z</time>
      </trkpt>
      <trkpt lat="47.38921" lon="-0.84471">
        <ele>6.95</ele>
        <time>2022-09-23T14:05:20.000Z</time>
      </trkpt>
      <trkpt lat="47.38917" lon="-0.84434">
        <ele>7.67</ele>
        <time>2022-09-23T14:05:25.000Z</time>
      </trkpt>
      <trkpt lat="47.38913" lon="-0.84399">
        <ele>8.34</ele>
        <time>2022-09-23T14:05:30.000Z</time>
      </trkpt>
      <trkpt lat="47.38909" lon="-0.84369">
        <ele>8.94</ele>
        <time>2022-09-23T14:05:35.000Z</time>
      </trkpt>
      <trkpt lat="47.38895" lon="-0.84338">
        <ele>9.56</ele>
        <time>2022-09-23T14:05:40.000Z</time>
      </trkpt>
      <trkpt lat="47.38874" lon="-0.84308">
        <ele>10.02</ele>
        <time>2022-09-23T14:05:45.000Z</time>
      </trkpt>
      <trkpt lat="47.38851" lon="-0.84276">
        <ele>11.28</ele>
        <time>2022-09-23T14:05:50.000Z</time>
      </trkpt>
      <trkpt lat="47.38828" lon="-0.84247">
        <ele>11.17</ele>
        <time>2022-09-23T14:05:55.000Z</time>
      </trkpt>
      <trkpt lat="47.38807" lon="-0.8422">
        <ele>10.96</ele>
        <time>2022-09-23T14:06:00.000Z</time>
      </trkpt>
      <trkpt lat="47.38785" lon="-0.84192">
        <ele>11.36</ele>
        <time>2022-09-23T14:06:05.000Z</time>
      </trkpt>
      <trkpt lat="47.38764" lon="-0.84165">
        <ele>10.82</ele>
        <time>2022-09-23T14:06:10.000Z</time>
      </trkpt>
      <trkpt lat="47.38744" lon="-0.84137">
        <ele>10.94</ele>
        <time>2022-09-23T14:06:15.000Z</time>
      </trkpt>
      <trkpt lat="47.38727" lon="-0.84106">
        <ele>10.32</ele>
        <time>2022-09-23T14:06:20.000Z</time>
      </trkpt>
      <trkpt lat="47.38712" lon="-0.84074">
        <ele>9.71</ele>
        <time>2022-09-23T14:06:25.000Z</time>
      </trkpt>
      <trkpt lat="47.38694" lon="-0.84044">
        <ele>8.44</ele>
        <time>2022-09-23T14:06:30.000Z</time>
      </trkpt>
      <trkpt lat="47.38674" lon="-0.84018">
        <ele>8.64</ele>
        <time>2022-09-23T14:06:35.000Z</time>
      </trkpt>
      <trkpt lat="47.38656" lon="-0.83992">
        <ele>9.55</ele>
        <time>2022-09-23T14:06:40.000Z</time>
      </trkpt>
      <trkpt lat="47.38636" lon="-0.83965">
        <ele>9.67</ele>
        <time>2022-09-23T14:06:45.000Z</time>
      </trkpt>
      <trkpt lat="47.38621" lon="-0.83941">
        <ele>9.97</ele>
        <time>2022-09-23T14:06:50.000Z</time>
      </trkpt>
      <trkpt lat="47.38606" lon="-0.83923">
        <ele>9.59</ele>
        <time>2022-09-23T14:06:55.000Z</time>
      </trkpt>
      <trkpt lat="47.3859" lon="-0.83928">
        <ele>10.14</ele>
        <time>2022-09-23T14:07:00.000Z</time>
      </trkpt>
      <trkpt lat="47.38571" lon="-0.83937">
        <ele>9.18</ele>
        <time>2022-09-23T14:07:05.000Z</time>
      </trkpt>
      <trkpt lat="47.38549" lon="-0.83931">
        <ele>8.61</ele>
        <time>2022-09-23T14:07:10.000Z</time>
      </trkpt>
      <trkpt lat="47.38531" lon="-0.83913">
        <ele>7.73</ele>
        <time>2022-09-23T14:07:15.000Z</time>
      </trkpt>
      <trkpt lat="47.38513" lon="-0.83896">
        <ele>6.25</ele>
        <time>2022-09-23T14:07:20.000Z</time>
      </trkpt>
      <trkpt lat="47.38497" lon="-0.83877">
        <ele>6.17</ele>
        <time>2022-09-23T14:07:25.000Z</time>
      </trkpt>
      <trkpt lat="47.38485" lon="-0.8385">
        <ele>6.89</ele>
        <time>2022-09-23T14:07:30.000Z</time>
      </trkpt>
      <trkpt lat="47.38478" lon="-0.83817">
        <ele>9.02</ele>
        <time>2022-09-23T14:07:35.000Z</time>
      </trkpt>
      <trkpt lat="47.38468" lon="-0.83785">
        <ele>10.22</ele>
        <time>2022-09-23T14:07:40.000Z</time>
      </trkpt>
      <trkpt lat="47.38456" lon="-0.83752">
        <ele>11.23</ele>
        <time>2022-09-23T14:07:45.000Z</time>
      </trkpt>
      <trkpt lat="47.38444" lon="-0.83719">
        <ele>12.93</ele>
        <time>2022-09-23T14:07:50.000Z</time>
      </trkpt>
      <trkpt lat="47.38432" lon="-0.83684">
        <ele>15.4</ele>
        <time>2022-09-23T14:07:55.000Z</time>
      </trkpt>
      <trkpt lat="47.38416" lon="-0.8365">
        <ele>15.38</ele>
        <time>2022-09-23T14:08:00.000Z</time>
      </trkpt>
      <trkpt lat="47.38399" lon="-0.83614">
        <ele>11.72</ele>
        <time>2022-09-23T14:08:05.000Z</time>
      </trkpt>
      <trkpt lat="47.38384" lon="-0.83581">
        <ele>10.12</ele>
        <time>2022-09-23T14:08:10.000Z</time>
      </trkpt>
      <trkpt lat="47.38374" lon="-0.83549">
        <ele>10.36</ele>
        <time>2022-09-23T14:08:15.000Z</time>
      </trkpt>
      <trkpt lat="47.38366" lon="-0.83515">
        <ele>10.41</ele>
        <time>2022-09-23T14:08:20.000Z</time>
      </trkpt>
      <trkpt lat="47.38358" lon="-0.83475">
        <ele>8.94</ele>
        <time>2022-09-23T14:08:25.000Z</time>
      </trkpt>
      <trkpt lat="47.38345" lon="-0.83437">
        <ele>8.43</ele>
        <time>2022-09-23T14:08:30.000Z</time>
      </trkpt>
      <trkpt lat="47.38331" lon="-0.83401">
        <ele>8.02</ele>
        <time>2022-09-23T14:08:35.000Z</time>
      </trkpt>
      <trkpt lat="47.38316" lon="-0.83368">
        <ele>7.35</ele>
        <time>2022-09-23T14:08:40.000Z</time>
      </trkpt>
      <trkpt lat="47.38301" lon="-0.83339">
        <ele>8.03</ele>
        <time>2022-09-23T14:08:45.000Z</time>
      </trkpt>
      <trkpt lat="47.38287" lon="-0.83307">
        <ele>8.72</ele>
        <time>2022-09-23T14:08:50.000Z</time>
      </trkpt>
      <trkpt lat="47.38271" lon="-0.83277">
        <ele>8.45</ele>
        <time>2022-09-23T14:08:55.000Z</time>
      </trkpt>
      <trkpt lat="47.38251" lon="-0.83249">
        <ele>8.33</ele>
        <time>2022-09-23T14:09:00.000Z</time>
      </trkpt>
      <trkpt lat="47.38232" lon="-0.83223">
        <ele>9.2</ele>
        <time>2022-09-23T14:09:05.000Z</time>
      </trkpt>
      <trkpt lat="47.38213" lon="-0.83198">
        <ele>10.24</ele>
        <time>2022-09-23T14:09:10.000Z</time>
      </trkpt>
      <trkpt lat="47.38194" lon="-0.83172">
        <ele>10.51</ele>
        <time>2022-09-23T14:09:15.000Z</time>
      </trkpt>
      <trkpt lat="47.38174" lon="-0.83146">
        <ele>10.89</ele>
        <time>2022-09-23T14:09:20.000Z</time>
      </trkpt>
      <trkpt lat="47.38154" lon="-0.83119">
        <ele>11.3</ele>
        <time>2022-09-23T14:09:25.000Z</time>
      </trkpt>
      <trkpt lat="47.38134" lon="-0.83097">
        <ele>10.34</ele>
        <time>2022-09-23T14:09:30.000Z</time>
      </trkpt>
      <trkpt lat="47.38111" lon="-0.83077">
        <ele>10.72</ele>
        <time>2022-09-23T14:09:35.000Z</time>
      </trkpt>
      <trkpt lat="47.38085" lon="-0.83055">
        <ele>10.23</ele>
        <time>2022-09-23T14:09:40.000Z</time>
      </trkpt>
      <trkpt lat="47.38062" lon="-0.83033">
        <ele>10.11</ele>
        <time>2022-09-23T14:09:45.000Z</time>
      </trkpt>
      <trkpt lat="47.38041" lon="-0.83014">
        <ele>9.63</ele>
        <time>2022-09-23T14:09:50.000Z</time>
      </trkpt>
      <trkpt lat="47.38019" lon="-0.82995">
        <ele>9.31</ele>
        <time>2022-09-23T14:09:55.000Z</time>
      </trkpt>
      <trkpt lat="47.37999" lon="-0.82978">
        <ele>8.85</ele>
        <time>2022-09-23T14:10:00.000Z</time>
      </trkpt>
      <trkpt lat="47.37977" lon="-0.82961">
        <ele>8.9</ele>
        <time>2022-09-23T14:10:05.000Z</time>
      </trkpt>
      <trkpt lat="47.37954" lon="-0.8294">
        <ele>8.76</ele>
        <time>2022-09-23T14:10:10.000Z</time>
      </trkpt>
      <trkpt lat="47.37934" lon="-0.82918">
        <ele>8.02</ele>
        <time>2022-09-23T14:10:15.000Z</time>
      </trkpt>
      <trkpt lat="47.3791" lon="-0.82894">
        <ele>7.32</ele>
        <time>2022-09-23T14:10:20.000Z</time>
      </trkpt>
      <trkpt lat="47.37893" lon="-0.82874">
        <ele>7.69</ele>
        <time>2022-09-23T14:10:25.000Z</time>
      </trkpt>
      <trkpt lat="47.37876" lon="-0.82851">
        <ele>7.8</ele>
        <time>2022-09-23T14:10:30.000Z</time>
      </trkpt>
      <trkpt lat="47.37858" lon="-0.82822">
        <ele>7.7</ele>
        <time>2022-09-23T14:10:35.000Z</time>
      </trkpt>
      <trkpt lat="47.37836" lon="-0.8279">
        <ele>7.24</ele>
        <time>2022-09-23T14:10:40.000Z</time>
      </trkpt>
      <trkpt lat="47.37814" lon="-0.82752">
        <ele>8.53</ele>
        <time>2022-09-23T14:10:45.000Z</time>
      </trkpt>
      <trkpt lat="47.37798" lon="-0.82721">
        <ele>9.25</ele>
        <time>2022-09-23T14:10:50.000Z</time>
      </trkpt>
      <trkpt lat="47.37785" lon="-0.8269">
        <ele>10.07</ele>
        <time>2022-09-23T14:10:55.000Z</time>
      </trkpt>
      <trkpt lat="47.37773" lon="-0.82659">
        <ele>11.67</ele>
        <time>2022-09-23T14:11:00.000Z</time>
      </trkpt>
      <trkpt lat="47.37761" lon="-0.82627">
        <ele>13.01</ele>
        <time>2022-09-23T14:11:05.000Z</time>
      </trkpt>
      <trkpt lat="47.37748" lon="-0.82593">
        <ele>14.2</ele>
        <time>2022-09-23T14:11:10.000Z</time>
      </trkpt>
      <trkpt lat="47.37736" lon="-0.82554">
        <ele>15.88</ele>
        <time>2022-09-23T14:11:15.000Z</time>
      </trkpt>
      <trkpt lat="47.37723" lon="-0.82515">
        <ele>17.32</ele>
        <time>2022-09-23T14:11:20.000Z</time>
      </trkpt>
      <trkpt lat="47.37713" lon="-0.82475">
        <ele>18.36</ele>
        <time>2022-09-23T14:11:25.000Z</time>
      </trkpt>
      <trkpt lat="47.37705" lon="-0.82431">
        <ele>18.4</ele>
        <time>2022-09-23T14:11:30.000Z</time>
      </trkpt>
      <trkpt lat="47.377" lon="-0.82394">
        <ele>19.06</ele>
        <time>2022-09-23T14:11:35.000Z</time>
      </trkpt>
      <trkpt lat="47.37691" lon="-0.82358">
        <ele>19.86</ele>
        <time>2022-09-23T14:11:40.000Z</time>
      </trkpt>
      <trkpt lat="47.37686" lon="-0.82313">
        <ele>19.87</ele>
        <time>2022-09-23T14:11:45.000Z</time>
      </trkpt>
      <trkpt lat="47.37681" lon="-0.82271">
        <ele>19.86</ele>
        <time>2022-09-23T14:11:50.000Z</time>
      </trkpt>
      <trkpt lat="47.37672" lon="-0.82231">
        <ele>19.06</ele>
        <time>2022-09-23T14:11:55.000Z</time>
      </trkpt>
      <trkpt lat="47.37662" lon="-0.82195">
        <ele>18.24</ele>
        <time>2022-09-23T14:12:00.000Z</time>
      </trkpt>
      <trkpt lat="47.37652" lon="-0.82161">
        <ele>18.66</ele>
        <time>2022-09-23T14:12:05.000Z</time>
      </trkpt>
      <trkpt lat="47.37644" lon="-0.82126">
        <ele>18.33</ele>
        <time>2022-09-23T14:12:10.000Z</time>
      </trkpt>
      <trkpt lat="47.37636" lon="-0.82089">
        <ele>17.57</ele>
        <time>2022-09-23T14:12:15.000Z</time>
      </trkpt>
      <trkpt lat="47.3763" lon="-0.8205">
        <ele>17.79</ele>
        <time>2022-09-23T14:12:20.000Z</time>
      </trkpt>
      <trkpt lat="47.3762" lon="-0.82013">
        <ele>17.99</ele>
        <time>2022-09-23T14:12:25.000Z</time>
      </trkpt>
      <trkpt lat="47.37611" lon="-0.81984">
        <ele>18.39</ele>
        <time>2022-09-23T14:12:30.000Z</time>
      </trkpt>
      <trkpt lat="47.37602" lon="-0.81956">
        <ele>18.57</ele>
        <time>2022-09-23T14:12:35.000Z</time>
      </trkpt>
      <trkpt lat="47.37594" lon="-0.81921">
        <ele>18.77</ele>
        <time>2022-09-23T14:12:40.000Z</time>
      </trkpt>
      <trkpt lat="47.37586" lon="-0.81886">
        <ele>19.17</ele>
        <time>2022-09-23T14:12:45.000Z</time>
      </trkpt>
      <trkpt lat="47.37574" lon="-0.81848">
        <ele>19.67</ele>
        <time>2022-09-23T14:12:50.000Z</time>
      </trkpt>
      <trkpt lat="47.37558" lon="-0.81795">
        <ele>20.28</ele>
        <time>2022-09-23T14:12:55.000Z</time>
      </trkpt>
      <trkpt lat="47.37541" lon="-0.81755">
        <ele>20.15</ele>
        <time>2022-09-23T14:13:00.000Z</time>
      </trkpt>
      <trkpt lat="47.37528" lon="-0.81712">
        <ele>20.33</ele>
        <time>2022-09-23T14:13:05.000Z</time>
      </trkpt>
      <trkpt lat="47.37517" lon="-0.81673">
        <ele>20.77</ele>
        <time>2022-09-23T14:13:10.000Z</time>
      </trkpt>
      <trkpt lat="47.37504" lon="-0.81637">
        <ele>20.21</ele>
        <time>2022-09-23T14:13:15.000Z</time>
      </trkpt>
      <trkpt lat="47.37491" lon="-0.816">
        <ele>20.09</ele>
        <time>2022-09-23T14:13:20.000Z</time>
      </trkpt>
      <trkpt lat="47.3748" lon="-0.81562">
        <ele>19.72</ele>
        <time>2022-09-23T14:13:25.000Z</time>
      </trkpt>
      <trkpt lat="47.37468" lon="-0.81524">
        <ele>19.72</ele>
        <time>2022-09-23T14:13:30.000Z</time>
      </trkpt>
      <trkpt lat="47.37458" lon="-0.81489">
        <ele>19.35</ele>
        <time>2022-09-23T14:13:35.000Z</time>
      </trkpt>
      <trkpt lat="47.37448" lon="-0.81454">
        <ele>19.57</ele>
        <time>2022-09-23T14:13:40.000Z</time>
      </trkpt>
      <trkpt lat="47.37439" lon="-0.81421">
        <ele>20.24</ele>
        <time>2022-09-23T14:13:45.000Z</time>
      </trkpt>
      <trkpt lat="47.37428" lon="-0.81387">
        <ele>21.23</ele>
        <time>2022-09-23T14:13:50.000Z</time>
      </trkpt>
      <trkpt lat="47.37421" lon="-0.81357">
        <ele>22.23</ele>
        <time>2022-09-23T14:13:55.000Z</time>
      </trkpt>
      <trkpt lat="47.37409" lon="-0.81307">
        <ele>22.19</ele>
        <time>2022-09-23T14:14:00.000Z</time>
      </trkpt>
      <trkpt lat="47.37406" lon="-0.81263">
        <ele>22.52</ele>
        <time>2022-09-23T14:14:05.000Z</time>
      </trkpt>
      <trkpt lat="47.37404" lon="-0.81222">
        <ele>22.81</ele>
        <time>2022-09-23T14:14:10.000Z</time>
      </trkpt>
      <trkpt lat="47.374" lon="-0.81184">
        <ele>22.55</ele>
        <time>2022-09-23T14:14:15.000Z</time>
      </trkpt>
      <trkpt lat="47.37394" lon="-0.81148">
        <ele>22.48</ele>
        <time>2022-09-23T14:14:20.000Z</time>
      </trkpt>
      <trkpt lat="47.37388" lon="-0.81111">
        <ele>21.93</ele>
        <time>2022-09-23T14:14:25.000Z</time>
      </trkpt>
      <trkpt lat="47.37384" lon="-0.81071">
        <ele>21.21</ele>
        <time>2022-09-23T14:14:30.000Z</time>
      </trkpt>
      <trkpt lat="47.37379" lon="-0.8103">
        <ele>20.51</ele>
        <time>2022-09-23T14:14:35.000Z</time>
      </trkpt>
      <trkpt lat="47.37372" lon="-0.80993">
        <ele>20.06</ele>
        <time>2022-09-23T14:14:40.000Z</time>
      </trkpt>
      <trkpt lat="47.37365" lon="-0.8096">
        <ele>19.56</ele>
        <time>2022-09-23T14:14:45.000Z</time>
      </trkpt>
      <trkpt lat="47.37356" lon="-0.80931">
        <ele>20.24</ele>
        <time>2022-09-23T14:14:50.000Z</time>
      </trkpt>
      <trkpt lat="47.37345" lon="-0.80899">
        <ele>20.73</ele>
        <time>2022-09-23T14:14:55.000Z</time>
      </trkpt>
      <trkpt lat="47.37333" lon="-0.80868">
        <ele>20.83</ele>
        <time>2022-09-23T14:15:00.000Z</time>
      </trkpt>
      <trkpt lat="47.37319" lon="-0.80836">
        <ele>21.27</ele>
        <time>2022-09-23T14:15:05.000Z</time>
      </trkpt>
      <trkpt lat="47.37302" lon="-0.80799">
        <ele>21.85</ele>
        <time>2022-09-23T14:15:10.000Z</time>
      </trkpt>
      <trkpt lat="47.37287" lon="-0.80759">
        <ele>20.26</ele>
        <time>2022-09-23T14:15:15.000Z</time>
      </trkpt>
      <trkpt lat="47.37277" lon="-0.8072">
        <ele>20.6</ele>
        <time>2022-09-23T14:15:20.000Z</time>
      </trkpt>
      <trkpt lat="47.37267" lon="-0.8068">
        <ele>20.31</ele>
        <time>2022-09-23T14:15:25.000Z</time>
      </trkpt>
      <trkpt lat="47.37259" lon="-0.80641">
        <ele>18.9</ele>
        <time>2022-09-23T14:15:30.000Z</time>
      </trkpt>
      <trkpt lat="47.37249" lon="-0.80606">
        <ele>18.28</ele>
        <time>2022-09-23T14:15:35.000Z</time>
      </trkpt>
      <trkpt lat="47.37239" lon="-0.80565">
        <ele>16.87</ele>
        <time>2022-09-23T14:15:40.000Z</time>
      </trkpt>
      <trkpt lat="47.37228" lon="-0.80524">
        <ele>16.2</ele>
        <time>2022-09-23T14:15:45.000Z</time>
      </trkpt>
      <trkpt lat="47.37216" lon="-0.80484">
        <ele>15.66</ele>
        <time>2022-09-23T14:15:50.000Z</time>
      </trkpt>
      <trkpt lat="47.37207" lon="-0.80445">
        <ele>16.04</ele>
        <time>2022-09-23T14:15:55.000Z</time>
      </trkpt>
      <trkpt lat="47.37192" lon="-0.80395">
        <ele>13.99</ele>
        <time>2022-09-23T14:16:00.000Z</time>
      </trkpt>
      <trkpt lat="47.37186" lon="-0.80353">
        <ele>15.04</ele>
        <time>2022-09-23T14:16:05.000Z</time>
      </trkpt>
      <trkpt lat="47.37179" lon="-0.80314">
        <ele>17.1</ele>
        <time>2022-09-23T14:16:10.000Z</time>
      </trkpt>
      <trkpt lat="47.37171" lon="-0.80277">
        <ele>18.45</ele>
        <time>2022-09-23T14:16:15.000Z</time>
      </trkpt>
      <trkpt lat="47.37162" lon="-0.8024">
        <ele>18.95</ele>
        <time>2022-09-23T14:16:20.000Z</time>
      </trkpt>
      <trkpt lat="47.37144" lon="-0.80224">
        <ele>21.53</ele>
        <time>2022-09-23T14:16:25.000Z</time>
      </trkpt>
      <trkpt lat="47.37117" lon="-0.80223">
        <ele>22.92</ele>
        <time>2022-09-23T14:16:30.000Z</time>
      </trkpt>
      <trkpt lat="47.37089" lon="-0.80233">
        <ele>21.95</ele>
        <time>2022-09-23T14:16:35.000Z</time>
      </trkpt>
      <trkpt lat="47.37066" lon="-0.80246">
        <ele>20.85</ele>
        <time>2022-09-23T14:16:40.000Z</time>
      </trkpt>
      <trkpt lat="47.37041" lon="-0.80259">
        <ele>19.05</ele>
        <time>2022-09-23T14:16:45.000Z</time>
      </trkpt>
      <trkpt lat="47.37015" lon="-0.80271">
        <ele>16.34</ele>
        <time>2022-09-23T14:16:50.000Z</time>
      </trkpt>
      <trkpt lat="47.36988" lon="-0.80285">
        <ele>13.65</ele>
        <time>2022-09-23T14:16:55.000Z</time>
      </trkpt>
      <trkpt lat="47.36963" lon="-0.80295">
        <ele>11.49</ele>
        <time>2022-09-23T14:17:00.000Z</time>
      </trkpt>
      <trkpt lat="47.36943" lon="-0.80281">
        <ele>9.24</ele>
        <time>2022-09-23T14:17:05.000Z</time>
      </trkpt>
      <trkpt lat="47.36927" lon="-0.80253">
        <ele>7.5</ele>
        <time>2022-09-23T14:17:10.000Z</time>
      </trkpt>
      <trkpt lat="47.36909" lon="-0.80225">
        <ele>5.91</ele>
        <time>2022-09-23T14:17:15.000Z</time>
      </trkpt>
      <trkpt lat="47.36891" lon="-0.80193">
        <ele>4.27</ele>
        <time>2022-09-23T14:17:20.000Z</time>
      </trkpt>
      <trkpt lat="47.36874" lon="-0.80163">
        <ele>3.18</ele>
        <time>2022-09-23T14:17:25.000Z</time>
      </trkpt>
      <trkpt lat="47.36857" lon="-0.80132">
        <ele>2.91</ele>
        <time>2022-09-23T14:17:30.000Z</time>
      </trkpt>
      <trkpt lat="47.36838" lon="-0.80103">
        <ele>3.28</ele>
        <time>2022-09-23T14:17:35.000Z</time>
      </trkpt>
      <trkpt lat="47.36822" lon="-0.80081">
        <ele>3.2</ele>
        <time>2022-09-23T14:17:40.000Z</time>
      </trkpt>
      <trkpt lat="47.36807" lon="-0.80056">
        <ele>2.43</ele>
        <time>2022-09-23T14:17:45.000Z</time>
      </trkpt>
      <trkpt lat="47.36789" lon="-0.80026">
        <ele>2.45</ele>
        <time>2022-09-23T14:17:50.000Z</time>
      </trkpt>
      <trkpt lat="47.36773" lon="-0.79988">
        <ele>1.82</ele>
        <time>2022-09-23T14:17:55.000Z</time>
      </trkpt>
      <trkpt lat="47.36756" lon="-0.7995">
        <ele>2.21</ele>
        <time>2022-09-23T14:18:00.000Z</time>
      </trkpt>
      <trkpt lat="47.36745" lon="-0.79913">
        <ele>2.67</ele>
        <time>2022-09-23T14:18:05.000Z</time>
      </trkpt>
      <trkpt lat="47.36737" lon="-0.79876">
        <ele>2.8</ele>
        <time>2022-09-23T14:18:10.000Z</time>
      </trkpt>
      <trkpt lat="47.36727" lon="-0.79835">
        <ele>2.99</ele>
        <time>2022-09-23T14:18:15.000Z</time>
      </trkpt>
      <trkpt lat="47.36713" lon="-0.79785">
        <ele>3.34</ele>
        <time>2022-09-23T14:18:20.000Z</time>
      </trkpt>
      <trkpt lat="47.36706" lon="-0.79749">
        <ele>4.7</ele>
        <time>2022-09-23T14:18:25.000Z</time>
      </trkpt>
      <trkpt lat="47.36698" lon="-0.79713">
        <ele>5.73</ele>
        <time>2022-09-23T14:18:30.000Z</time>
      </trkpt>
      <trkpt lat="47.36692" lon="-0.79672">
        <ele>6.77</ele>
        <time>2022-09-23T14:18:35.000Z</time>
      </trkpt>
      <trkpt lat="47.36692" lon="-0.79629">
        <ele>8.02</ele>
        <time>2022-09-23T14:18:40.000Z</time>
      </trkpt>
      <trkpt lat="47.3669" lon="-0.7959">
        <ele>8.78</ele>
        <time>2022-09-23T14:18:45.000Z</time>
      </trkpt>
      <trkpt lat="47.36678" lon="-0.79558">
        <ele>9.71</ele>
        <time>2022-09-23T14:18:50.000Z</time>
      </trkpt>
      <trkpt lat="47.36665" lon="-0.79525">
        <ele>10.23</ele>
        <time>2022-09-23T14:18:55.000Z</time>
      </trkpt>
      <trkpt lat="47.36657" lon="-0.79489">
        <ele>12.22</ele>
        <time>2022-09-23T14:19:00.000Z</time>
      </trkpt>
      <trkpt lat="47.3665" lon="-0.79451">
        <ele>13.99</ele>
        <time>2022-09-23T14:19:05.000Z</time>
      </trkpt>
      <trkpt lat="47.36642" lon="-0.79405">
        <ele>14.07</ele>
        <time>2022-09-23T14:19:10.000Z</time>
      </trkpt>
      <trkpt lat="47.36642" lon="-0.79364">
        <ele>14.7</ele>
        <time>2022-09-23T14:19:15.000Z</time>
      </trkpt>
      <trkpt lat="47.36645" lon="-0.79326">
        <ele>15.63</ele>
        <time>2022-09-23T14:19:20.000Z</time>
      </trkpt>
      <trkpt lat="47.36646" lon="-0.79291">
        <ele>16.24</ele>
        <time>2022-09-23T14:19:25.000Z</time>
      </trkpt>
      <trkpt lat="47.3665" lon="-0.79249">
        <ele>16.85</ele>
        <time>2022-09-23T14:19:30.000Z</time>
      </trkpt>
      <trkpt lat="47.36647" lon="-0.7921">
        <ele>18.03</ele>
        <time>2022-09-23T14:19:35.000Z</time>
      </trkpt>
      <trkpt lat="47.36641" lon="-0.79183">
        <ele>18.97</ele>
        <time>2022-09-23T14:19:40.000Z</time>
      </trkpt>
      <trkpt lat="47.36629" lon="-0.79152">
        <ele>19.84</ele>
        <time>2022-09-23T14:19:45.000Z</time>
      </trkpt>
      <trkpt lat="47.36608" lon="-0.79122">
        <ele>20.01</ele>
        <time>2022-09-23T14:19:50.000Z</time>
      </trkpt>
      <trkpt lat="47.36584" lon="-0.79094">
        <ele>20.29</ele>
        <time>2022-09-23T14:19:55.000Z</time>
      </trkpt>
      <trkpt lat="47.36567" lon="-0.79061">
        <ele>20.33</ele>
        <time>2022-09-23T14:20:00.000Z</time>
      </trkpt>
      <trkpt lat="47.36551" lon="-0.79026">
        <ele>20.47</ele>
        <time>2022-09-23T14:20:05.000Z</time>
      </trkpt>
      <trkpt lat="47.36536" lon="-0.78987">
        <ele>19.81</ele>
        <time>2022-09-23T14:20:10.000Z</time>
      </trkpt>
      <trkpt lat="47.36527" lon="-0.78949">
        <ele>19.43</ele>
        <time>2022-09-23T14:20:15.000Z</time>
      </trkpt>
      <trkpt lat="47.36516" lon="-0.78909">
        <ele>19.34</ele>
        <time>2022-09-23T14:20:20.000Z</time>
      </trkpt>
      <trkpt lat="47.36504" lon="-0.7887">
        <ele>18.41</ele>
        <time>2022-09-23T14:20:25.000Z</time>
      </trkpt>
      <trkpt lat="47.36493" lon="-0.78833">
        <ele>18.6</ele>
        <time>2022-09-23T14:20:30.000Z</time>
      </trkpt>
      <trkpt lat="47.36483" lon="-0.78793">
        <ele>19.04</ele>
        <time>2022-09-23T14:20:35.000Z</time>
      </trkpt>
      <trkpt lat="47.36476" lon="-0.78749">
        <ele>17.5</ele>
        <time>2022-09-23T14:20:40.000Z</time>
      </trkpt>
      <trkpt lat="47.36469" lon="-0.7871">
        <ele>15.96</ele>
        <time>2022-09-23T14:20:45.000Z</time>
      </trkpt>
      <trkpt lat="47.3646" lon="-0.78674">
        <ele>15.11</ele>
        <time>2022-09-23T14:20:50.000Z</time>
      </trkpt>
      <trkpt lat="47.3645" lon="-0.78636">
        <ele>13.63</ele>
        <time>2022-09-23T14:20:55.000Z</time>
      </trkpt>
      <trkpt lat="47.36442" lon="-0.78599">
        <ele>13.64</ele>
        <time>2022-09-23T14:21:00.000Z</time>
      </trkpt>
      <trkpt lat="47.36434" lon="-0.7856">
        <ele>13.68</ele>
        <time>2022-09-23T14:21:05.000Z</time>
      </trkpt>
      <trkpt lat="47.36426" lon="-0.78522">
        <ele>14.19</ele>
        <time>2022-09-23T14:21:10.000Z</time>
      </trkpt>
      <trkpt lat="47.36417" lon="-0.78492">
        <ele>14.13</ele>
        <time>2022-09-23T14:21:15.000Z</time>
      </trkpt>
      <trkpt lat="47.36406" lon="-0.78454">
        <ele>13.93</ele>
        <time>2022-09-23T14:21:20.000Z</time>
      </trkpt>
      <trkpt lat="47.36397" lon="-0.78418">
        <ele>14.64</ele>
        <time>2022-09-23T14:21:25.000Z</time>
      </trkpt>
      <trkpt lat="47.36387" lon="-0.78382">
        <ele>15.36</ele>
        <time>2022-09-23T14:21:30.000Z</time>
      </trkpt>
      <trkpt lat="47.36377" lon="-0.78349">
        <ele>16.49</ele>
        <time>2022-09-23T14:21:35.000Z</time>
      </trkpt>
      <trkpt lat="47.36365" lon="-0.78313">
        <ele>16.85</ele>
        <time>2022-09-23T14:21:40.000Z</time>
      </trkpt>
      <trkpt lat="47.36357" lon="-0.78279">
        <ele>17.95</ele>
        <time>2022-09-23T14:21:45.000Z</time>
      </trkpt>
      <trkpt lat="47.36345" lon="-0.78236">
        <ele>18.15</ele>
        <time>2022-09-23T14:21:50.000Z</time>
      </trkpt>
      <trkpt lat="47.36328" lon="-0.78199">
        <ele>16.93</ele>
        <time>2022-09-23T14:21:55.000Z</time>
      </trkpt>
      <trkpt lat="47.36314" lon="-0.78165">
        <ele>16.28</ele>
        <time>2022-09-23T14:22:00.000Z</time>
      </trkpt>
      <trkpt lat="47.36301" lon="-0.78133">
        <ele>16.07</ele>
        <time>2022-09-23T14:22:05.000Z</time>
      </trkpt>
      <trkpt lat="47.36286" lon="-0.78097">
        <ele>16.57</ele>
        <time>2022-09-23T14:22:10.000Z</time>
      </trkpt>
      <trkpt lat="47.36275" lon="-0.78058">
        <ele>17.14</ele>
        <time>2022-09-23T14:22:15.000Z</time>
      </trkpt>
      <trkpt lat="47.36264" lon="-0.78021">
        <ele>17.47</ele>
        <time>2022-09-23T14:22:20.000Z</time>
      </trkpt>
      <trkpt lat="47.36253" lon="-0.77986">
        <ele>18.07</ele>
        <time>2022-09-23T14:22:25.000Z</time>
      </trkpt>
      <trkpt lat="47.36243" lon="-0.77956">
        <ele>18.66</ele>
        <time>2022-09-23T14:22:30.000Z</time>
      </trkpt>
      <trkpt lat="47.36233" lon="-0.77922">
        <ele>19.26</ele>
        <time>2022-09-23T14:22:35.000Z</time>
      </trkpt>
      <trkpt lat="47.36224" lon="-0.77884">
        <ele>19.86</ele>
        <time>2022-09-23T14:22:40.000Z</time>
      </trkpt>
      <trkpt lat="47.36219" lon="-0.77839">
        <ele>20.37</ele>
        <time>2022-09-23T14:22:45.000Z</time>
      </trkpt>
      <trkpt lat="47.36213" lon="-0.77793">
        <ele>21.14</ele>
        <time>2022-09-23T14:22:50.000Z</time>
      </trkpt>
      <trkpt lat="47.36204" lon="-0.77757">
        <ele>21.47</ele>
        <time>2022-09-23T14:22:55.000Z</time>
      </trkpt>
      <trkpt lat="47.36193" lon="-0.77709">
        <ele>21.08</ele>
        <time>2022-09-23T14:23:00.000Z</time>
      </trkpt>
      <trkpt lat="47.36192" lon="-0.77669">
        <ele>21.32</ele>
        <time>2022-09-23T14:23:05.000Z</time>
      </trkpt>
      <trkpt lat="47.36193" lon="-0.77633">
        <ele>22.03</ele>
        <time>2022-09-23T14:23:10.000Z</time>
      </trkpt>
      <trkpt lat="47.36192" lon="-0.77595">
        <ele>23.06</ele>
        <time>2022-09-23T14:23:15.000Z</time>
      </trkpt>
      <trkpt lat="47.36194" lon="-0.77553">
        <ele>24.61</ele>
        <time>2022-09-23T14:23:20.000Z</time>
      </trkpt>
      <trkpt lat="47.36185" lon="-0.77513">
        <ele>25.4</ele>
        <time>2022-09-23T14:23:25.000Z</time>
      </trkpt>
      <trkpt lat="47.36162" lon="-0.77488">
        <ele>25.3</ele>
        <time>2022-09-23T14:23:30.000Z</time>
      </trkpt>
      <trkpt lat="47.36144" lon="-0.77457">
        <ele>26.17</ele>
        <time>2022-09-23T14:23:35.000Z</time>
      </trkpt>
      <trkpt lat="47.36135" lon="-0.77419">
        <ele>27.06</ele>
        <time>2022-09-23T14:23:40.000Z</time>
      </trkpt>
      <trkpt lat="47.36127" lon="-0.7738">
        <ele>27.9</ele>
        <time>2022-09-23T14:23:45.000Z</time>
      </trkpt>
      <trkpt lat="47.36117" lon="-0.77343">
        <ele>28.59</ele>
        <time>2022-09-23T14:23:50.000Z</time>
      </trkpt>
      <trkpt lat="47.36103" lon="-0.77304">
        <ele>28.99</ele>
        <time>2022-09-23T14:23:55.000Z</time>
      </trkpt>
      <trkpt lat="47.36091" lon="-0.77269">
        <ele>29.18</ele>
        <time>2022-09-23T14:24:00.000Z</time>
      </trkpt>
      <trkpt lat="47.36081" lon="-0.77238">
        <ele>29.17</ele>
        <time>2022-09-23T14:24:05.000Z</time>
      </trkpt>
      <trkpt lat="47.36061" lon="-0.77232">
        <ele>29.27</ele>
        <time>2022-09-23T14:24:10.000Z</time>
      </trkpt>
      <trkpt lat="47.36035" lon="-0.77254">
        <ele>30.04</ele>
        <time>2022-09-23T14:24:15.000Z</time>
      </trkpt>
      <trkpt lat="47.36008" lon="-0.77277">
        <ele>30.52</ele>
        <time>2022-09-23T14:24:20.000Z</time>
      </trkpt>
      <trkpt lat="47.35975" lon="-0.77269">
        <ele>30.19</ele>
        <time>2022-09-23T14:24:25.000Z</time>
      </trkpt>
      <trkpt lat="47.35948" lon="-0.77251">
        <ele>30.32</ele>
        <time>2022-09-23T14:24:30.000Z</time>
      </trkpt>
      <trkpt lat="47.35926" lon="-0.77233">
        <ele>29.83</ele>
        <time>2022-09-23T14:24:35.000Z</time>
      </trkpt>
      <trkpt lat="47.35909" lon="-0.77213">
        <ele>30.37</ele>
        <time>2022-09-23T14:24:40.000Z</time>
      </trkpt>
      <trkpt lat="47.35897" lon="-0.77192">
        <ele>30.97</ele>
        <time>2022-09-23T14:24:45.000Z</time>
      </trkpt>
      <trkpt lat="47.35886" lon="-0.7717">
        <ele>31.64</ele>
        <time>2022-09-23T14:24:50.000Z</time>
      </trkpt>
      <trkpt lat="47.35873" lon="-0.77148">
        <ele>32.34</ele>
        <time>2022-09-23T14:24:55.000Z</time>
      </trkpt>
      <trkpt lat="47.35858" lon="-0.77121">
        <ele>32.94</ele>
        <time>2022-09-23T14:25:00.000Z</time>
      </trkpt>
      <trkpt lat="47.35844" lon="-0.77093">
        <ele>33.66</ele>
        <time>2022-09-23T14:25:05.000Z</time>
      </trkpt>
      <trkpt lat="47.35831" lon="-0.77064">
        <ele>34.44</ele>
        <time>2022-09-23T14:25:10.000Z</time>
      </trkpt>
      <trkpt lat="47.35822" lon="-0.77039">
        <ele>35.26</ele>
        <time>2022-09-23T14:25:15.000Z</time>
      </trkpt>
      <trkpt lat="47.35813" lon="-0.77016">
        <ele>36.23</ele>
        <time>2022-09-23T14:25:20.000Z</time>
      </trkpt>
      <trkpt lat="47.35802" lon="-0.76995">
        <ele>37.13</ele>
        <time>2022-09-23T14:25:25.000Z</time>
      </trkpt>
      <trkpt lat="47.35791" lon="-0.76975">
        <ele>38.04</ele>
        <time>2022-09-23T14:25:30.000Z</time>
      </trkpt>
      <trkpt lat="47.35784" lon="-0.76956">
        <ele>39.03</ele>
        <time>2022-09-23T14:25:35.000Z</time>
      </trkpt>
      <trkpt lat="47.35776" lon="-0.76939">
        <ele>40.03</ele>
        <time>2022-09-23T14:25:40.000Z</time>
      </trkpt>
      <trkpt lat="47.35767" lon="-0.76924">
        <ele>41.13</ele>
        <time>2022-09-23T14:25:45.000Z</time>
      </trkpt>
      <trkpt lat="47.35759" lon="-0.76911">
        <ele>42.21</ele>
        <time>2022-09-23T14:25:50.000Z</time>
      </trkpt>
      <trkpt lat="47.35745" lon="-0.76891">
        <ele>43.33</ele>
        <time>2022-09-23T14:25:55.000Z</time>
      </trkpt>
      <trkpt lat="47.35729" lon="-0.76861">
        <ele>44.33</ele>
        <time>2022-09-23T14:26:00.000Z</time>
      </trkpt>
      <trkpt lat="47.35713" lon="-0.76837">
        <ele>45.41</ele>
        <time>2022-09-23T14:26:05.000Z</time>
      </trkpt>
      <trkpt lat="47.35681" lon="-0.76797">
        <ele>46.43</ele>
        <time>2022-09-23T14:26:10.000Z</time>
      </trkpt>
      <trkpt lat="47.35661" lon="-0.76771">
        <ele>47.43</ele>
        <time>2022-09-23T14:26:15.000Z</time>
      </trkpt>
      <trkpt lat="47.35644" lon="-0.76745">
        <ele>48.33</ele>
        <time>2022-09-23T14:26:20.000Z</time>
      </trkpt>
      <trkpt lat="47.35631" lon="-0.76719">
        <ele>49.24</ele>
        <time>2022-09-23T14:26:25.000Z</time>
      </trkpt>
      <trkpt lat="47.35619" lon="-0.76693">
        <ele>50.41</ele>
        <time>2022-09-23T14:26:30.000Z</time>
      </trkpt>
      <trkpt lat="47.35611" lon="-0.76666">
        <ele>51.53</ele>
        <time>2022-09-23T14:26:35.000Z</time>
      </trkpt>
      <trkpt lat="47.35607" lon="-0.7664">
        <ele>52.71</ele>
        <time>2022-09-23T14:26:40.000Z</time>
      </trkpt>
      <trkpt lat="47.35592" lon="-0.76601">
        <ele>53.73</ele>
        <time>2022-09-23T14:26:45.000Z</time>
      </trkpt>
      <trkpt lat="47.35583" lon="-0.76563">
        <ele>53.92</ele>
        <time>2022-09-23T14:26:50.000Z</time>
      </trkpt>
      <trkpt lat="47.35584" lon="-0.76531">
        <ele>54.04</ele>
        <time>2022-09-23T14:26:55.000Z</time>
      </trkpt>
      <trkpt lat="47.35581" lon="-0.76502">
        <ele>54.84</ele>
        <time>2022-09-23T14:27:00.000Z</time>
      </trkpt>
      <trkpt lat="47.35572" lon="-0.76475">
        <ele>55.66</ele>
        <time>2022-09-23T14:27:05.000Z</time>
      </trkpt>
      <trkpt lat="47.35562" lon="-0.76445">
        <ele>56.44</ele>
        <time>2022-09-23T14:27:10.000Z</time>
      </trkpt>
      <trkpt lat="47.3555" lon="-0.76407">
        <ele>56.7</ele>
        <time>2022-09-23T14:27:15.000Z</time>
      </trkpt>
      <trkpt lat="47.35546" lon="-0.76364">
        <ele>54.02</ele>
        <time>2022-09-23T14:27:20.000Z</time>
      </trkpt>
      <trkpt lat="47.35539" lon="-0.76331">
        <ele>51.07</ele>
        <time>2022-09-23T14:27:25.000Z</time>
      </trkpt>
      <trkpt lat="47.35533" lon="-0.76306">
        <ele>48.42</ele>
        <time>2022-09-23T14:27:30.000Z</time>
      </trkpt>
      <trkpt lat="47.35526" lon="-0.76295">
        <ele>42.65</ele>
        <time>2022-09-23T14:27:36.000Z</time>
      </trkpt>
      <trkpt lat="47.3552" lon="-0.76283">
        <ele>24.75</ele>
        <time>2022-09-23T14:28:53.000Z</time>
      </trkpt>
      <trkpt lat="47.35511" lon="-0.7628">
        <ele>13.78</ele>
        <time>2022-09-23T14:33:52.000Z</time>
      </trkpt>
      <trkpt lat="47.35515" lon="-0.76267">
        <ele>10.12</ele>
        <time>2022-09-23T14:35:55.000Z</time>
      </trkpt>
      <trkpt lat="47.35514" lon="-0.76245">
        <ele>10.1</ele>
        <time>2022-09-23T14:36:00.000Z</time>
      </trkpt>
      <trkpt lat="47.35513" lon="-0.76224">
        <ele>9.91</ele>
        <time>2022-09-23T14:36:05.000Z</time>
      </trkpt>
      <trkpt lat="47.35513" lon="-0.76201">
        <ele>10.41</ele>
        <time>2022-09-23T14:36:10.000Z</time>
      </trkpt>
      <trkpt lat="47.3551" lon="-0.76178">
        <ele>11</ele>
        <time>2022-09-23T14:36:15.000Z</time>
      </trkpt>
      <trkpt lat="47.3551" lon="-0.76164">
        <ele>12.27</ele>
        <time>2022-09-23T14:36:20.000Z</time>
      </trkpt>
      <trkpt lat="47.35502" lon="-0.76156">
        <ele>12.9</ele>
        <time>2022-09-23T14:36:30.000Z</time>
      </trkpt>
      <trkpt lat="47.35488" lon="-0.76162">
        <ele>12.81</ele>
        <time>2022-09-23T14:36:35.000Z</time>
      </trkpt>
      <trkpt lat="47.35477" lon="-0.76169">
        <ele>13.34</ele>
        <time>2022-09-23T14:36:40.000Z</time>
      </trkpt>
      <trkpt lat="47.35467" lon="-0.76174">
        <ele>14.67</ele>
        <time>2022-09-23T14:36:49.000Z</time>
      </trkpt>
      <trkpt lat="47.35453" lon="-0.76178">
        <ele>15.09</ele>
        <time>2022-09-23T14:36:54.000Z</time>
      </trkpt>
      <trkpt lat="47.35436" lon="-0.76184">
        <ele>15.57</ele>
        <time>2022-09-23T14:36:59.000Z</time>
      </trkpt>
      <trkpt lat="47.35418" lon="-0.76193">
        <ele>15.83</ele>
        <time>2022-09-23T14:37:04.000Z</time>
      </trkpt>
      <trkpt lat="47.35401" lon="-0.76202">
        <ele>15.53</ele>
        <time>2022-09-23T14:37:09.000Z</time>
      </trkpt>
      <trkpt lat="47.35385" lon="-0.76214">
        <ele>14.81</ele>
        <time>2022-09-23T14:37:14.000Z</time>
      </trkpt>
      <trkpt lat="47.35369" lon="-0.76226">
        <ele>13.89</ele>
        <time>2022-09-23T14:37:19.000Z</time>
      </trkpt>
      <trkpt lat="47.35357" lon="-0.76233">
        <ele>11.32</ele>
        <time>2022-09-23T14:37:24.000Z</time>
      </trkpt>
      <trkpt lat="47.35341" lon="-0.7624">
        <ele>9.99</ele>
        <time>2022-09-23T14:37:29.000Z</time>
      </trkpt>
      <trkpt lat="47.35328" lon="-0.76251">
        <ele>9.16</ele>
        <time>2022-09-23T14:37:34.000Z</time>
      </trkpt>
      <trkpt lat="47.35308" lon="-0.76258">
        <ele>8.46</ele>
        <time>2022-09-23T14:37:39.000Z</time>
      </trkpt>
      <trkpt lat="47.35286" lon="-0.76268">
        <ele>7.47</ele>
        <time>2022-09-23T14:37:44.000Z</time>
      </trkpt>
      <trkpt lat="47.35266" lon="-0.76278">
        <ele>6.37</ele>
        <time>2022-09-23T14:37:49.000Z</time>
      </trkpt>
      <trkpt lat="47.35249" lon="-0.76283">
        <ele>5.64</ele>
        <time>2022-09-23T14:37:54.000Z</time>
      </trkpt>
      <trkpt lat="47.35237" lon="-0.76289">
        <ele>5.46</ele>
        <time>2022-09-23T14:37:59.000Z</time>
      </trkpt>
      <trkpt lat="47.35224" lon="-0.76303">
        <ele>7.92</ele>
        <time>2022-09-23T14:38:04.000Z</time>
      </trkpt>
      <trkpt lat="47.35211" lon="-0.76305">
        <ele>10.09</ele>
        <time>2022-09-23T14:38:09.000Z</time>
      </trkpt>
      <trkpt lat="47.35206" lon="-0.76316">
        <ele>13.37</ele>
        <time>2022-09-23T14:38:15.000Z</time>
      </trkpt>
      <trkpt lat="47.35199" lon="-0.76325">
        <ele>16.45</ele>
        <time>2022-09-23T14:38:40.000Z</time>
      </trkpt>
      <trkpt lat="47.352" lon="-0.76311">
        <ele>21.6</ele>
        <time>2022-09-23T14:39:53.000Z</time>
      </trkpt>
      <trkpt lat="47.35191" lon="-0.76304">
        <ele>21.12</ele>
        <time>2022-09-23T14:40:39.000Z</time>
      </trkpt>
      <trkpt lat="47.35189" lon="-0.76224">
        <ele>21</ele>
        <time>2022-09-23T14:44:10.000Z</time>
      </trkpt>
      <trkpt lat="47.35205" lon="-0.76356">
        <ele>21</ele>
        <time>2022-09-23T14:45:07.000Z</time>
      </trkpt>
      <trkpt lat="47.35206" lon="-0.76343">
        <ele>44.1</ele>
        <time>2022-09-23T14:48:11.000Z</time>
      </trkpt>
      <trkpt lat="47.35194" lon="-0.76316">
        <ele>24.89</ele>
        <time>2022-09-23T14:53:36.000Z</time>
      </trkpt>
      <trkpt lat="47.35204" lon="-0.76313">
        <ele>29.42</ele>
        <time>2022-09-23T14:54:53.000Z</time>
      </trkpt>
      <trkpt lat="47.35207" lon="-0.76299">
        <ele>31.33</ele>
        <time>2022-09-23T14:57:24.000Z</time>
      </trkpt>
      <trkpt lat="47.35217" lon="-0.76296">
        <ele>30.81</ele>
        <time>2022-09-23T14:57:30.000Z</time>
      </trkpt>
      <trkpt lat="47.3523" lon="-0.76292">
        <ele>30.43</ele>
        <time>2022-09-23T14:57:35.000Z</time>
      </trkpt>
      <trkpt lat="47.35241" lon="-0.7629">
        <ele>30.03</ele>
        <time>2022-09-23T14:57:40.000Z</time>
      </trkpt>
      <trkpt lat="47.35249" lon="-0.76283">
        <ele>28.26</ele>
        <time>2022-09-23T14:57:56.000Z</time>
      </trkpt>
      <trkpt lat="47.35247" lon="-0.76267">
        <ele>27.63</ele>
        <time>2022-09-23T14:58:02.000Z</time>
      </trkpt>
      <trkpt lat="47.35243" lon="-0.76249">
        <ele>27.31</ele>
        <time>2022-09-23T14:58:07.000Z</time>
      </trkpt>
      <trkpt lat="47.35243" lon="-0.76228">
        <ele>26.93</ele>
        <time>2022-09-23T14:58:12.000Z</time>
      </trkpt>
      <trkpt lat="47.35241" lon="-0.76206">
        <ele>26.73</ele>
        <time>2022-09-23T14:58:17.000Z</time>
      </trkpt>
      <trkpt lat="47.35237" lon="-0.76184">
        <ele>26.86</ele>
        <time>2022-09-23T14:58:22.000Z</time>
      </trkpt>
      <trkpt lat="47.35233" lon="-0.76168">
        <ele>26.63</ele>
        <time>2022-09-23T14:58:27.000Z</time>
      </trkpt>
      <trkpt lat="47.35223" lon="-0.76151">
        <ele>26.43</ele>
        <time>2022-09-23T14:58:32.000Z</time>
      </trkpt>
      <trkpt lat="47.35218" lon="-0.76134">
        <ele>25.75</ele>
        <time>2022-09-23T14:58:37.000Z</time>
      </trkpt>
      <trkpt lat="47.35216" lon="-0.76119">
        <ele>25.01</ele>
        <time>2022-09-23T14:58:51.000Z</time>
      </trkpt>
      <trkpt lat="47.35044" lon="-0.77062">
        <ele>37.53</ele>
        <time>2022-09-23T15:01:29.000Z</time>
      </trkpt>
      <trkpt lat="47.3501" lon="-0.77072">
        <ele>42.09</ele>
        <time>2022-09-23T15:01:34.000Z</time>
      </trkpt>
      <trkpt lat="47.35088" lon="-0.77038">
        <ele>61.25</ele>
        <time>2022-09-23T15:01:39.000Z</time>
      </trkpt>
      <trkpt lat="47.35151" lon="-0.77013">
        <ele>103.04</ele>
        <time>2022-09-23T15:01:44.000Z</time>
      </trkpt>
      <trkpt lat="47.35212" lon="-0.76113">
        <ele>53.2</ele>
        <time>2022-09-23T15:01:52.000Z</time>
      </trkpt>
      <trkpt lat="47.35212" lon="-0.76098">
        <ele>14.09</ele>
        <time>2022-09-23T15:02:15.000Z</time>
      </trkpt>
      <trkpt lat="47.35208" lon="-0.76078">
        <ele>7.3</ele>
        <time>2022-09-23T15:02:20.000Z</time>
      </trkpt>
      <trkpt lat="47.35201" lon="-0.76061">
        <ele>7.96</ele>
        <time>2022-09-23T15:02:25.000Z</time>
      </trkpt>
      <trkpt lat="47.3519" lon="-0.76043">
        <ele>9.41</ele>
        <time>2022-09-23T15:02:30.000Z</time>
      </trkpt>
      <trkpt lat="47.35177" lon="-0.7602">
        <ele>9.15</ele>
        <time>2022-09-23T15:02:35.000Z</time>
      </trkpt>
      <trkpt lat="47.35167" lon="-0.75994">
        <ele>9.49</ele>
        <time>2022-09-23T15:02:40.000Z</time>
      </trkpt>
      <trkpt lat="47.35155" lon="-0.75969">
        <ele>9.84</ele>
        <time>2022-09-23T15:02:45.000Z</time>
      </trkpt>
      <trkpt lat="47.35148" lon="-0.7595">
        <ele>9.5</ele>
        <time>2022-09-23T15:02:50.000Z</time>
      </trkpt>
      <trkpt lat="47.35141" lon="-0.75934">
        <ele>11.22</ele>
        <time>2022-09-23T15:02:55.000Z</time>
      </trkpt>
      <trkpt lat="47.35137" lon="-0.75918">
        <ele>13.59</ele>
        <time>2022-09-23T15:03:05.000Z</time>
      </trkpt>
      <trkpt lat="47.35133" lon="-0.75904">
        <ele>13.6</ele>
        <time>2022-09-23T15:04:02.000Z</time>
      </trkpt>
      <trkpt lat="47.35144" lon="-0.75915">
        <ele>4.88</ele>
        <time>2022-09-23T15:09:21.000Z</time>
      </trkpt>
      <trkpt lat="47.3513" lon="-0.75909">
        <ele>8.28</ele>
        <time>2022-09-23T15:10:14.000Z</time>
      </trkpt>
      <trkpt lat="47.3514" lon="-0.75911">
        <ele>4.95</ele>
        <time>2022-09-23T15:11:54.000Z</time>
      </trkpt>
      <trkpt lat="47.3513" lon="-0.75895">
        <ele>14.6</ele>
        <time>2022-09-23T15:17:27.000Z</time>
      </trkpt>
      <trkpt lat="47.35139" lon="-0.75933">
        <ele>-5.22</ele>
        <time>2022-09-23T15:19:57.000Z</time>
      </trkpt>
      <trkpt lat="47.35157" lon="-0.75935">
        <ele>-23.15</ele>
        <time>2022-09-23T15:20:02.000Z</time>
      </trkpt>
      <trkpt lat="47.35128" lon="-0.759">
        <ele>15.1</ele>
        <time>2022-09-23T15:20:07.000Z</time>
      </trkpt>
      <trkpt lat="47.35119" lon="-0.75901">
        <ele>13.5</ele>
        <time>2022-09-23T15:31:14.000Z</time>
      </trkpt>
      <trkpt lat="47.35117" lon="-0.75888">
        <ele>12.9</ele>
        <time>2022-09-23T15:31:27.000Z</time>
      </trkpt>
      <trkpt lat="47.35108" lon="-0.75879">
        <ele>12.78</ele>
        <time>2022-09-23T15:31:32.000Z</time>
      </trkpt>
      <trkpt lat="47.35094" lon="-0.75866">
        <ele>13.49</ele>
        <time>2022-09-23T15:31:37.000Z</time>
      </trkpt>
      <trkpt lat="47.35088" lon="-0.75856">
        <ele>13.6</ele>
        <time>2022-09-23T15:31:49.000Z</time>
      </trkpt>
      <trkpt lat="47.35083" lon="-0.75844">
        <ele>13.6</ele>
        <time>2022-09-23T15:31:57.000Z</time>
      </trkpt>
      <trkpt lat="47.35078" lon="-0.75833">
        <ele>13.6</ele>
        <time>2022-09-23T15:32:02.000Z</time>
      </trkpt>
      <trkpt lat="47.35085" lon="-0.75811">
        <ele>13.9</ele>
        <time>2022-09-23T15:32:07.000Z</time>
      </trkpt>
      <trkpt lat="47.3509" lon="-0.7578">
        <ele>13.9</ele>
        <time>2022-09-23T15:32:12.000Z</time>
      </trkpt>
      <trkpt lat="47.35091" lon="-0.75754">
        <ele>13.9</ele>
        <time>2022-09-23T15:32:17.000Z</time>
      </trkpt>
      <trkpt lat="47.3508" lon="-0.75712">
        <ele>13.73</ele>
        <time>2022-09-23T15:32:22.000Z</time>
      </trkpt>
      <trkpt lat="47.35076" lon="-0.75687">
        <ele>13.5</ele>
        <time>2022-09-23T15:32:27.000Z</time>
      </trkpt>
      <trkpt lat="47.3507" lon="-0.75675">
        <ele>13.5</ele>
        <time>2022-09-23T15:32:32.000Z</time>
      </trkpt>
      <trkpt lat="47.35051" lon="-0.75657">
        <ele>12.65</ele>
        <time>2022-09-23T15:32:37.000Z</time>
      </trkpt>
      <trkpt lat="47.35032" lon="-0.75658">
        <ele>11.48</ele>
        <time>2022-09-23T15:32:42.000Z</time>
      </trkpt>
      <trkpt lat="47.3502" lon="-0.75676">
        <ele>10.74</ele>
        <time>2022-09-23T15:32:47.000Z</time>
      </trkpt>
      <trkpt lat="47.35002" lon="-0.757">
        <ele>10.13</ele>
        <time>2022-09-23T15:32:52.000Z</time>
      </trkpt>
      <trkpt lat="47.34974" lon="-0.75731">
        <ele>9.18</ele>
        <time>2022-09-23T15:32:57.000Z</time>
      </trkpt>
      <trkpt lat="47.34956" lon="-0.75756">
        <ele>8.95</ele>
        <time>2022-09-23T15:33:02.000Z</time>
      </trkpt>
      <trkpt lat="47.34936" lon="-0.75781">
        <ele>10.16</ele>
        <time>2022-09-23T15:33:07.000Z</time>
      </trkpt>
      <trkpt lat="47.34914" lon="-0.75803">
        <ele>10.2</ele>
        <time>2022-09-23T15:33:12.000Z</time>
      </trkpt>
      <trkpt lat="47.34904" lon="-0.75814">
        <ele>10.27</ele>
        <time>2022-09-23T15:33:17.000Z</time>
      </trkpt>
      <trkpt lat="47.34914" lon="-0.75818">
        <ele>10.69</ele>
        <time>2022-09-23T15:33:24.000Z</time>
      </trkpt>
      <trkpt lat="47.34929" lon="-0.75826">
        <ele>10.62</ele>
        <time>2022-09-23T15:33:29.000Z</time>
      </trkpt>
      <trkpt lat="47.34936" lon="-0.75839">
        <ele>9.76</ele>
        <time>2022-09-23T15:33:34.000Z</time>
      </trkpt>
      <trkpt lat="47.34939" lon="-0.75853">
        <ele>9.01</ele>
        <time>2022-09-23T15:33:40.000Z</time>
      </trkpt>
      <trkpt lat="47.34931" lon="-0.75869">
        <ele>9.48</ele>
        <time>2022-09-23T15:33:45.000Z</time>
      </trkpt>
      <trkpt lat="47.34922" lon="-0.7588">
        <ele>9.97</ele>
        <time>2022-09-23T15:33:50.000Z</time>
      </trkpt>
      <trkpt lat="47.34915" lon="-0.75889">
        <ele>10.26</ele>
        <time>2022-09-23T15:33:55.000Z</time>
      </trkpt>
      <trkpt lat="47.34904" lon="-0.75896">
        <ele>10.75</ele>
        <time>2022-09-23T15:34:01.000Z</time>
      </trkpt>
      <trkpt lat="47.34893" lon="-0.75903">
        <ele>12.2</ele>
        <time>2022-09-23T15:34:30.000Z</time>
      </trkpt>
      <trkpt lat="47.34885" lon="-0.75913">
        <ele>12.93</ele>
        <time>2022-09-23T15:34:38.000Z</time>
      </trkpt>
      <trkpt lat="47.34876" lon="-0.75922">
        <ele>13.52</ele>
        <time>2022-09-23T15:34:48.000Z</time>
      </trkpt>
      <trkpt lat="47.34869" lon="-0.75935">
        <ele>14.24</ele>
        <time>2022-09-23T15:34:53.000Z</time>
      </trkpt>
      <trkpt lat="47.34854" lon="-0.75924">
        <ele>15.07</ele>
        <time>2022-09-23T15:34:58.000Z</time>
      </trkpt>
      <trkpt lat="47.3484" lon="-0.75907">
        <ele>15.78</ele>
        <time>2022-09-23T15:35:03.000Z</time>
      </trkpt>
      <trkpt lat="47.34827" lon="-0.75897">
        <ele>15.11</ele>
        <time>2022-09-23T15:35:08.000Z</time>
      </trkpt>
      <trkpt lat="47.34819" lon="-0.7589">
        <ele>15.3</ele>
        <time>2022-09-23T15:35:21.000Z</time>
      </trkpt>
      <trkpt lat="47.34813" lon="-0.75879">
        <ele>15.59</ele>
        <time>2022-09-23T15:35:30.000Z</time>
      </trkpt>
      <trkpt lat="47.34804" lon="-0.75876">
        <ele>13.4</ele>
        <time>2022-09-23T15:36:24.000Z</time>
      </trkpt>
      <trkpt lat="47.34793" lon="-0.75886">
        <ele>13.23</ele>
        <time>2022-09-23T15:36:29.000Z</time>
      </trkpt>
      <trkpt lat="47.3478" lon="-0.75908">
        <ele>12.87</ele>
        <time>2022-09-23T15:36:34.000Z</time>
      </trkpt>
      <trkpt lat="47.34781" lon="-0.75924">
        <ele>12.38</ele>
        <time>2022-09-23T15:36:39.000Z</time>
      </trkpt>
      <trkpt lat="47.34788" lon="-0.75934">
        <ele>11.1</ele>
        <time>2022-09-23T15:36:44.000Z</time>
      </trkpt>
      <trkpt lat="47.34797" lon="-0.75944">
        <ele>5.25</ele>
        <time>2022-09-23T15:53:54.000Z</time>
      </trkpt>
      <trkpt lat="47.34806" lon="-0.75955">
        <ele>5.77</ele>
        <time>2022-09-23T15:53:59.000Z</time>
      </trkpt>
      <trkpt lat="47.34816" lon="-0.75972">
        <ele>6.2</ele>
        <time>2022-09-23T15:54:04.000Z</time>
      </trkpt>
      <trkpt lat="47.34831" lon="-0.75989">
        <ele>7.9</ele>
        <time>2022-09-23T15:54:09.000Z</time>
      </trkpt>
      <trkpt lat="47.34832" lon="-0.76018">
        <ele>9.13</ele>
        <time>2022-09-23T15:54:14.000Z</time>
      </trkpt>
      <trkpt lat="47.34841" lon="-0.76038">
        <ele>9.76</ele>
        <time>2022-09-23T15:54:19.000Z</time>
      </trkpt>
      <trkpt lat="47.34858" lon="-0.76061">
        <ele>10.24</ele>
        <time>2022-09-23T15:54:24.000Z</time>
      </trkpt>
      <trkpt lat="47.34873" lon="-0.76085">
        <ele>11.15</ele>
        <time>2022-09-23T15:54:29.000Z</time>
      </trkpt>
      <trkpt lat="47.34888" lon="-0.76107">
        <ele>12.06</ele>
        <time>2022-09-23T15:54:34.000Z</time>
      </trkpt>
      <trkpt lat="47.34903" lon="-0.76124">
        <ele>13.43</ele>
        <time>2022-09-23T15:54:39.000Z</time>
      </trkpt>
      <trkpt lat="47.34913" lon="-0.76137">
        <ele>15.03</ele>
        <time>2022-09-23T15:54:44.000Z</time>
      </trkpt>
      <trkpt lat="47.34925" lon="-0.7615">
        <ele>16.61</ele>
        <time>2022-09-23T15:54:49.000Z</time>
      </trkpt>
      <trkpt lat="47.34933" lon="-0.76157">
        <ele>17.69</ele>
        <time>2022-09-23T15:54:54.000Z</time>
      </trkpt>
      <trkpt lat="47.34943" lon="-0.76164">
        <ele>19</ele>
        <time>2022-09-23T15:54:59.000Z</time>
      </trkpt>
      <trkpt lat="47.34954" lon="-0.76172">
        <ele>19.91</ele>
        <time>2022-09-23T15:55:04.000Z</time>
      </trkpt>
      <trkpt lat="47.34962" lon="-0.76179">
        <ele>21.01</ele>
        <time>2022-09-23T15:55:09.000Z</time>
      </trkpt>
      <trkpt lat="47.34974" lon="-0.76187">
        <ele>23.02</ele>
        <time>2022-09-23T15:55:14.000Z</time>
      </trkpt>
      <trkpt lat="47.34985" lon="-0.76198">
        <ele>24.52</ele>
        <time>2022-09-23T15:55:19.000Z</time>
      </trkpt>
      <trkpt lat="47.34992" lon="-0.76208">
        <ele>25.93</ele>
        <time>2022-09-23T15:55:24.000Z</time>
      </trkpt>
      <trkpt lat="47.35005" lon="-0.76216">
        <ele>26.93</ele>
        <time>2022-09-23T15:55:29.000Z</time>
      </trkpt>
      <trkpt lat="47.35017" lon="-0.76226">
        <ele>27.34</ele>
        <time>2022-09-23T15:55:34.000Z</time>
      </trkpt>
      <trkpt lat="47.3503" lon="-0.76244">
        <ele>26.25</ele>
        <time>2022-09-23T15:55:39.000Z</time>
      </trkpt>
      <trkpt lat="47.35043" lon="-0.76261">
        <ele>26.53</ele>
        <time>2022-09-23T15:55:44.000Z</time>
      </trkpt>
      <trkpt lat="47.35063" lon="-0.76267">
        <ele>27.44</ele>
        <time>2022-09-23T15:55:49.000Z</time>
      </trkpt>
      <trkpt lat="47.35079" lon="-0.7627">
        <ele>28.34</ele>
        <time>2022-09-23T15:55:54.000Z</time>
      </trkpt>
      <trkpt lat="47.35089" lon="-0.7627">
        <ele>29.28</ele>
        <time>2022-09-23T15:55:59.000Z</time>
      </trkpt>
      <trkpt lat="47.351" lon="-0.76274">
        <ele>30.58</ele>
        <time>2022-09-23T15:56:04.000Z</time>
      </trkpt>
      <trkpt lat="47.35118" lon="-0.76292">
        <ele>31.29</ele>
        <time>2022-09-23T15:56:09.000Z</time>
      </trkpt>
      <trkpt lat="47.35131" lon="-0.76308">
        <ele>31.76</ele>
        <time>2022-09-23T15:56:14.000Z</time>
      </trkpt>
      <trkpt lat="47.35138" lon="-0.76321">
        <ele>32.16</ele>
        <time>2022-09-23T15:56:19.000Z</time>
      </trkpt>
      <trkpt lat="47.35147" lon="-0.76334">
        <ele>30.29</ele>
        <time>2022-09-23T15:56:24.000Z</time>
      </trkpt>
      <trkpt lat="47.3516" lon="-0.76353">
        <ele>27.9</ele>
        <time>2022-09-23T15:56:29.000Z</time>
      </trkpt>
      <trkpt lat="47.35171" lon="-0.76375">
        <ele>26.7</ele>
        <time>2022-09-23T15:56:34.000Z</time>
      </trkpt>
      <trkpt lat="47.3517" lon="-0.76393">
        <ele>25.5</ele>
        <time>2022-09-23T15:56:39.000Z</time>
      </trkpt>
      <trkpt lat="47.35165" lon="-0.76408">
        <ele>22.46</ele>
        <time>2022-09-23T15:56:59.000Z</time>
      </trkpt>
      <trkpt lat="47.35159" lon="-0.76431">
        <ele>22</ele>
        <time>2022-09-23T15:57:04.000Z</time>
      </trkpt>
      <trkpt lat="47.35158" lon="-0.76457">
        <ele>22</ele>
        <time>2022-09-23T15:57:09.000Z</time>
      </trkpt>
      <trkpt lat="47.35158" lon="-0.76484">
        <ele>21.41</ele>
        <time>2022-09-23T15:57:14.000Z</time>
      </trkpt>
      <trkpt lat="47.35158" lon="-0.76512">
        <ele>21.29</ele>
        <time>2022-09-23T15:57:19.000Z</time>
      </trkpt>
      <trkpt lat="47.3516" lon="-0.76537">
        <ele>22.48</ele>
        <time>2022-09-23T15:57:24.000Z</time>
      </trkpt>
      <trkpt lat="47.35161" lon="-0.76565">
        <ele>22.7</ele>
        <time>2022-09-23T15:57:29.000Z</time>
      </trkpt>
      <trkpt lat="47.35161" lon="-0.76592">
        <ele>22.76</ele>
        <time>2022-09-23T15:57:34.000Z</time>
      </trkpt>
      <trkpt lat="47.3516" lon="-0.76617">
        <ele>24.39</ele>
        <time>2022-09-23T15:57:39.000Z</time>
      </trkpt>
      <trkpt lat="47.35163" lon="-0.76643">
        <ele>24.81</ele>
        <time>2022-09-23T15:57:44.000Z</time>
      </trkpt>
      <trkpt lat="47.35164" lon="-0.76665">
        <ele>25.41</ele>
        <time>2022-09-23T15:57:49.000Z</time>
      </trkpt>
      <trkpt lat="47.35165" lon="-0.76685">
        <ele>25.69</ele>
        <time>2022-09-23T15:57:54.000Z</time>
      </trkpt>
      <trkpt lat="47.35164" lon="-0.76707">
        <ele>25.62</ele>
        <time>2022-09-23T15:57:59.000Z</time>
      </trkpt>
      <trkpt lat="47.35164" lon="-0.76735">
        <ele>25.89</ele>
        <time>2022-09-23T15:58:04.000Z</time>
      </trkpt>
      <trkpt lat="47.35163" lon="-0.76761">
        <ele>26.45</ele>
        <time>2022-09-23T15:58:09.000Z</time>
      </trkpt>
      <trkpt lat="47.35165" lon="-0.76785">
        <ele>27.42</ele>
        <time>2022-09-23T15:58:14.000Z</time>
      </trkpt>
      <trkpt lat="47.35166" lon="-0.76808">
        <ele>28</ele>
        <time>2022-09-23T15:58:19.000Z</time>
      </trkpt>
      <trkpt lat="47.35167" lon="-0.76831">
        <ele>29.02</ele>
        <time>2022-09-23T15:58:24.000Z</time>
      </trkpt>
      <trkpt lat="47.35168" lon="-0.76854">
        <ele>29.69</ele>
        <time>2022-09-23T15:58:29.000Z</time>
      </trkpt>
      <trkpt lat="47.3517" lon="-0.76878">
        <ele>30.53</ele>
        <time>2022-09-23T15:58:34.000Z</time>
      </trkpt>
      <trkpt lat="47.3517" lon="-0.76901">
        <ele>31.27</ele>
        <time>2022-09-23T15:58:39.000Z</time>
      </trkpt>
      <trkpt lat="47.35171" lon="-0.76924">
        <ele>32.24</ele>
        <time>2022-09-23T15:58:44.000Z</time>
      </trkpt>
      <trkpt lat="47.35171" lon="-0.76947">
        <ele>33.33</ele>
        <time>2022-09-23T15:58:49.000Z</time>
      </trkpt>
      <trkpt lat="47.3517" lon="-0.76971">
        <ele>34.36</ele>
        <time>2022-09-23T15:58:54.000Z</time>
      </trkpt>
      <trkpt lat="47.35167" lon="-0.76991">
        <ele>37.32</ele>
        <time>2022-09-23T15:58:59.000Z</time>
      </trkpt>
      <trkpt lat="47.35165" lon="-0.77011">
        <ele>40</ele>
        <time>2022-09-23T15:59:04.000Z</time>
      </trkpt>
      <trkpt lat="47.35158" lon="-0.77028">
        <ele>41.43</ele>
        <time>2022-09-23T15:59:09.000Z</time>
      </trkpt>
      <trkpt lat="47.3515" lon="-0.77046">
        <ele>43.25</ele>
        <time>2022-09-23T15:59:14.000Z</time>
      </trkpt>
      <trkpt lat="47.35139" lon="-0.77063">
        <ele>44.88</ele>
        <time>2022-09-23T15:59:19.000Z</time>
      </trkpt>
      <trkpt lat="47.35128" lon="-0.77079">
        <ele>46.22</ele>
        <time>2022-09-23T15:59:24.000Z</time>
      </trkpt>
      <trkpt lat="47.35116" lon="-0.7709">
        <ele>47.39</ele>
        <time>2022-09-23T15:59:29.000Z</time>
      </trkpt>
      <trkpt lat="47.35104" lon="-0.77104">
        <ele>47.83</ele>
        <time>2022-09-23T15:59:34.000Z</time>
      </trkpt>
      <trkpt lat="47.35093" lon="-0.77118">
        <ele>48.38</ele>
        <time>2022-09-23T15:59:39.000Z</time>
      </trkpt>
      <trkpt lat="47.35083" lon="-0.77132">
        <ele>48.6</ele>
        <time>2022-09-23T15:59:44.000Z</time>
      </trkpt>
      <trkpt lat="47.35073" lon="-0.77148">
        <ele>48.21</ele>
        <time>2022-09-23T15:59:49.000Z</time>
      </trkpt>
      <trkpt lat="47.35063" lon="-0.77163">
        <ele>47.42</ele>
        <time>2022-09-23T15:59:54.000Z</time>
      </trkpt>
      <trkpt lat="47.35054" lon="-0.77178">
        <ele>47.29</ele>
        <time>2022-09-23T15:59:59.000Z</time>
      </trkpt>
      <trkpt lat="47.35044" lon="-0.77195">
        <ele>47.47</ele>
        <time>2022-09-23T16:00:04.000Z</time>
      </trkpt>
      <trkpt lat="47.35036" lon="-0.77211">
        <ele>47.7</ele>
        <time>2022-09-23T16:00:09.000Z</time>
      </trkpt>
      <trkpt lat="47.35029" lon="-0.77228">
        <ele>48.54</ele>
        <time>2022-09-23T16:00:14.000Z</time>
      </trkpt>
      <trkpt lat="47.35025" lon="-0.77247">
        <ele>49.55</ele>
        <time>2022-09-23T16:00:19.000Z</time>
      </trkpt>
      <trkpt lat="47.35027" lon="-0.77268">
        <ele>49.69</ele>
        <time>2022-09-23T16:00:24.000Z</time>
      </trkpt>
      <trkpt lat="47.35021" lon="-0.77289">
        <ele>49.57</ele>
        <time>2022-09-23T16:00:29.000Z</time>
      </trkpt>
      <trkpt lat="47.35008" lon="-0.77301">
        <ele>49.27</ele>
        <time>2022-09-23T16:00:34.000Z</time>
      </trkpt>
      <trkpt lat="47.34996" lon="-0.77317">
        <ele>49.44</ele>
        <time>2022-09-23T16:00:39.000Z</time>
      </trkpt>
      <trkpt lat="47.34987" lon="-0.77335">
        <ele>49.69</ele>
        <time>2022-09-23T16:00:44.000Z</time>
      </trkpt>
      <trkpt lat="47.34978" lon="-0.77354">
        <ele>50.69</ele>
        <time>2022-09-23T16:00:49.000Z</time>
      </trkpt>
      <trkpt lat="47.34971" lon="-0.77376">
        <ele>50.97</ele>
        <time>2022-09-23T16:00:54.000Z</time>
      </trkpt>
      <trkpt lat="47.34966" lon="-0.77395">
        <ele>51.93</ele>
        <time>2022-09-23T16:00:59.000Z</time>
      </trkpt>
      <trkpt lat="47.34963" lon="-0.77415">
        <ele>52.54</ele>
        <time>2022-09-23T16:01:04.000Z</time>
      </trkpt>
      <trkpt lat="47.34959" lon="-0.77434">
        <ele>54.13</ele>
        <time>2022-09-23T16:01:09.000Z</time>
      </trkpt>
      <trkpt lat="47.34956" lon="-0.77453">
        <ele>56.62</ele>
        <time>2022-09-23T16:01:14.000Z</time>
      </trkpt>
      <trkpt lat="47.34953" lon="-0.77474">
        <ele>57.31</ele>
        <time>2022-09-23T16:01:19.000Z</time>
      </trkpt>
      <trkpt lat="47.34949" lon="-0.77494">
        <ele>57.66</ele>
        <time>2022-09-23T16:01:24.000Z</time>
      </trkpt>
      <trkpt lat="47.34945" lon="-0.77514">
        <ele>57.36</ele>
        <time>2022-09-23T16:01:29.000Z</time>
      </trkpt>
      <trkpt lat="47.34941" lon="-0.77534">
        <ele>57.19</ele>
        <time>2022-09-23T16:01:34.000Z</time>
      </trkpt>
      <trkpt lat="47.34935" lon="-0.77555">
        <ele>57.62</ele>
        <time>2022-09-23T16:01:39.000Z</time>
      </trkpt>
      <trkpt lat="47.3493" lon="-0.77574">
        <ele>57.9</ele>
        <time>2022-09-23T16:01:44.000Z</time>
      </trkpt>
      <trkpt lat="47.34924" lon="-0.77593">
        <ele>56.79</ele>
        <time>2022-09-23T16:01:49.000Z</time>
      </trkpt>
      <trkpt lat="47.34916" lon="-0.77613">
        <ele>57.91</ele>
        <time>2022-09-23T16:01:54.000Z</time>
      </trkpt>
      <trkpt lat="47.3491" lon="-0.77631">
        <ele>58.25</ele>
        <time>2022-09-23T16:01:59.000Z</time>
      </trkpt>
      <trkpt lat="47.34902" lon="-0.77647">
        <ele>58.6</ele>
        <time>2022-09-23T16:02:04.000Z</time>
      </trkpt>
      <trkpt lat="47.34896" lon="-0.77661">
        <ele>59.72</ele>
        <time>2022-09-23T16:02:09.000Z</time>
      </trkpt>
      <trkpt lat="47.34884" lon="-0.77676">
        <ele>60.53</ele>
        <time>2022-09-23T16:02:14.000Z</time>
      </trkpt>
      <trkpt lat="47.34872" lon="-0.77689">
        <ele>61.2</ele>
        <time>2022-09-23T16:02:19.000Z</time>
      </trkpt>
      <trkpt lat="47.34859" lon="-0.77702">
        <ele>64.03</ele>
        <time>2022-09-23T16:02:24.000Z</time>
      </trkpt>
      <trkpt lat="47.34845" lon="-0.77713">
        <ele>66.18</ele>
        <time>2022-09-23T16:02:29.000Z</time>
      </trkpt>
      <trkpt lat="47.3483" lon="-0.7772">
        <ele>66.8</ele>
        <time>2022-09-23T16:02:34.000Z</time>
      </trkpt>
      <trkpt lat="47.34817" lon="-0.77726">
        <ele>67.38</ele>
        <time>2022-09-23T16:02:39.000Z</time>
      </trkpt>
      <trkpt lat="47.34803" lon="-0.7773">
        <ele>68.12</ele>
        <time>2022-09-23T16:02:44.000Z</time>
      </trkpt>
      <trkpt lat="47.34789" lon="-0.77733">
        <ele>69.1</ele>
        <time>2022-09-23T16:02:49.000Z</time>
      </trkpt>
      <trkpt lat="47.34774" lon="-0.77736">
        <ele>68.43</ele>
        <time>2022-09-23T16:02:54.000Z</time>
      </trkpt>
      <trkpt lat="47.34759" lon="-0.7774">
        <ele>68.77</ele>
        <time>2022-09-23T16:02:59.000Z</time>
      </trkpt>
      <trkpt lat="47.34744" lon="-0.77743">
        <ele>67.72</ele>
        <time>2022-09-23T16:03:04.000Z</time>
      </trkpt>
      <trkpt lat="47.3473" lon="-0.77747">
        <ele>67.7</ele>
        <time>2022-09-23T16:03:09.000Z</time>
      </trkpt>
      <trkpt lat="47.34715" lon="-0.77752">
        <ele>66.71</ele>
        <time>2022-09-23T16:03:14.000Z</time>
      </trkpt>
      <trkpt lat="47.34701" lon="-0.77757">
        <ele>66.21</ele>
        <time>2022-09-23T16:03:19.000Z</time>
      </trkpt>
      <trkpt lat="47.34686" lon="-0.77764">
        <ele>66.76</ele>
        <time>2022-09-23T16:03:24.000Z</time>
      </trkpt>
      <trkpt lat="47.34673" lon="-0.77771">
        <ele>67.56</ele>
        <time>2022-09-23T16:03:29.000Z</time>
      </trkpt>
      <trkpt lat="47.34659" lon="-0.77778">
        <ele>67.99</ele>
        <time>2022-09-23T16:03:34.000Z</time>
      </trkpt>
      <trkpt lat="47.34646" lon="-0.77787">
        <ele>69.08</ele>
        <time>2022-09-23T16:03:39.000Z</time>
      </trkpt>
      <trkpt lat="47.34632" lon="-0.77795">
        <ele>71.19</ele>
        <time>2022-09-23T16:03:44.000Z</time>
      </trkpt>
      <trkpt lat="47.34617" lon="-0.77805">
        <ele>72.41</ele>
        <time>2022-09-23T16:03:49.000Z</time>
      </trkpt>
      <trkpt lat="47.34599" lon="-0.77818">
        <ele>74.17</ele>
        <time>2022-09-23T16:03:54.000Z</time>
      </trkpt>
      <trkpt lat="47.3458" lon="-0.77834">
        <ele>76.22</ele>
        <time>2022-09-23T16:03:59.000Z</time>
      </trkpt>
      <trkpt lat="47.34559" lon="-0.77853">
        <ele>77.84</ele>
        <time>2022-09-23T16:04:04.000Z</time>
      </trkpt>
      <trkpt lat="47.3454" lon="-0.77874">
        <ele>78.98</ele>
        <time>2022-09-23T16:04:09.000Z</time>
      </trkpt>
      <trkpt lat="47.34523" lon="-0.77898">
        <ele>80.82</ele>
        <time>2022-09-23T16:04:14.000Z</time>
      </trkpt>
      <trkpt lat="47.34503" lon="-0.7792">
        <ele>81.81</ele>
        <time>2022-09-23T16:04:19.000Z</time>
      </trkpt>
      <trkpt lat="47.34485" lon="-0.7794">
        <ele>83.06</ele>
        <time>2022-09-23T16:04:24.000Z</time>
      </trkpt>
      <trkpt lat="47.34469" lon="-0.77963">
        <ele>83.6</ele>
        <time>2022-09-23T16:04:29.000Z</time>
      </trkpt>
      <trkpt lat="47.34456" lon="-0.77981">
        <ele>84.55</ele>
        <time>2022-09-23T16:04:34.000Z</time>
      </trkpt>
      <trkpt lat="47.34446" lon="-0.77995">
        <ele>84.78</ele>
        <time>2022-09-23T16:04:39.000Z</time>
      </trkpt>
      <trkpt lat="47.3444" lon="-0.78005">
        <ele>78.99</ele>
        <time>2022-09-23T16:04:51.000Z</time>
      </trkpt>
      <trkpt lat="47.34427" lon="-0.78019">
        <ele>78.53</ele>
        <time>2022-09-23T16:04:56.000Z</time>
      </trkpt>
      <trkpt lat="47.34415" lon="-0.78037">
        <ele>78.48</ele>
        <time>2022-09-23T16:05:01.000Z</time>
      </trkpt>
      <trkpt lat="47.34411" lon="-0.78056">
        <ele>78.33</ele>
        <time>2022-09-23T16:05:06.000Z</time>
      </trkpt>
      <trkpt lat="47.34411" lon="-0.78074">
        <ele>78.58</ele>
        <time>2022-09-23T16:05:11.000Z</time>
      </trkpt>
      <trkpt lat="47.34415" lon="-0.78089">
        <ele>76.02</ele>
        <time>2022-09-23T16:05:41.000Z</time>
      </trkpt>
      <trkpt lat="47.3442" lon="-0.78102">
        <ele>75.2</ele>
        <time>2022-09-23T16:05:46.000Z</time>
      </trkpt>
      <trkpt lat="47.34431" lon="-0.78122">
        <ele>74.96</ele>
        <time>2022-09-23T16:05:51.000Z</time>
      </trkpt>
      <trkpt lat="47.34444" lon="-0.78144">
        <ele>75.96</ele>
        <time>2022-09-23T16:05:56.000Z</time>
      </trkpt>
      <trkpt lat="47.34456" lon="-0.78166">
        <ele>77.18</ele>
        <time>2022-09-23T16:06:01.000Z</time>
      </trkpt>
      <trkpt lat="47.34467" lon="-0.78184">
        <ele>78.46</ele>
        <time>2022-09-23T16:06:06.000Z</time>
      </trkpt>
      <trkpt lat="47.34478" lon="-0.78206">
        <ele>78.55</ele>
        <time>2022-09-23T16:06:11.000Z</time>
      </trkpt>
      <trkpt lat="47.3449" lon="-0.78232">
        <ele>78.28</ele>
        <time>2022-09-23T16:06:16.000Z</time>
      </trkpt>
      <trkpt lat="47.34504" lon="-0.78256">
        <ele>77.57</ele>
        <time>2022-09-23T16:06:21.000Z</time>
      </trkpt>
      <trkpt lat="47.34518" lon="-0.78283">
        <ele>76.96</ele>
        <time>2022-09-23T16:06:26.000Z</time>
      </trkpt>
      <trkpt lat="47.34534" lon="-0.7831">
        <ele>78.98</ele>
        <time>2022-09-23T16:06:31.000Z</time>
      </trkpt>
      <trkpt lat="47.34547" lon="-0.78333">
        <ele>78.78</ele>
        <time>2022-09-23T16:06:36.000Z</time>
      </trkpt>
      <trkpt lat="47.34556" lon="-0.78347">
        <ele>77.29</ele>
        <time>2022-09-23T16:06:41.000Z</time>
      </trkpt>
      <trkpt lat="47.34548" lon="-0.7834">
        <ele>75.91</ele>
        <time>2022-09-23T16:07:06.000Z</time>
      </trkpt>
      <trkpt lat="47.34541" lon="-0.78327">
        <ele>75.44</ele>
        <time>2022-09-23T16:07:11.000Z</time>
      </trkpt>
      <trkpt lat="47.34534" lon="-0.78317">
        <ele>75.08</ele>
        <time>2022-09-23T16:07:16.000Z</time>
      </trkpt>
      <trkpt lat="47.34526" lon="-0.78304">
        <ele>75.22</ele>
        <time>2022-09-23T16:07:21.000Z</time>
      </trkpt>
      <trkpt lat="47.34516" lon="-0.78299">
        <ele>75.19</ele>
        <time>2022-09-23T16:07:26.000Z</time>
      </trkpt>
      <trkpt lat="47.34508" lon="-0.78289">
        <ele>75.97</ele>
        <time>2022-09-23T16:07:31.000Z</time>
      </trkpt>
      <trkpt lat="47.34515" lon="-0.78276">
        <ele>75.12</ele>
        <time>2022-09-23T16:07:36.000Z</time>
      </trkpt>
      <trkpt lat="47.34526" lon="-0.783">
        <ele>75.03</ele>
        <time>2022-09-23T16:07:41.000Z</time>
      </trkpt>
      <trkpt lat="47.34541" lon="-0.78324">
        <ele>75.05</ele>
        <time>2022-09-23T16:07:46.000Z</time>
      </trkpt>
      <trkpt lat="47.34554" lon="-0.7835">
        <ele>74.53</ele>
        <time>2022-09-23T16:07:51.000Z</time>
      </trkpt>
      <trkpt lat="47.34564" lon="-0.78377">
        <ele>75.41</ele>
        <time>2022-09-23T16:07:56.000Z</time>
      </trkpt>
      <trkpt lat="47.34574" lon="-0.78403">
        <ele>75.5</ele>
        <time>2022-09-23T16:08:01.000Z</time>
      </trkpt>
      <trkpt lat="47.34585" lon="-0.78433">
        <ele>75.45</ele>
        <time>2022-09-23T16:08:06.000Z</time>
      </trkpt>
      <trkpt lat="47.34593" lon="-0.78458">
        <ele>74.81</ele>
        <time>2022-09-23T16:08:11.000Z</time>
      </trkpt>
      <trkpt lat="47.34595" lon="-0.78479">
        <ele>74.45</ele>
        <time>2022-09-23T16:08:16.000Z</time>
      </trkpt>
      <trkpt lat="47.34587" lon="-0.78492">
        <ele>74.99</ele>
        <time>2022-09-23T16:08:21.000Z</time>
      </trkpt>
      <trkpt lat="47.34579" lon="-0.785">
        <ele>75.71</ele>
        <time>2022-09-23T16:08:26.000Z</time>
      </trkpt>
      <trkpt lat="47.34572" lon="-0.78508">
        <ele>75.73</ele>
        <time>2022-09-23T16:08:54.000Z</time>
      </trkpt>
      <trkpt lat="47.34565" lon="-0.7852">
        <ele>75.73</ele>
        <time>2022-09-23T16:09:02.000Z</time>
      </trkpt>
      <trkpt lat="47.34559" lon="-0.78523">
        <ele>75</ele>
        <time>2022-09-23T16:14:06.000Z</time>
      </trkpt>
    </trkseg>
  </trk>
</gpx>